<?xml version="1.0" encoding="UTF-8" standalone="no" ?>
<gpx xmlns="http://www.topografix.com/GPX/1/1" xmlns:xsi="http://www.w3.org/2001/XMLSchema-instance" xsi:schemaLocation="http://www.topografix.com/GPX/1/1 http://www.topografix.com/GPX/1/1/gpx.xsd" version="1.1" creator="VisuGPX - https://www.visugpx.com">
  <metadata>
    <name>Balade au départ de Revogne avec Isabel </name>
  </metadata>
  <trk>
    <name><![CDATA[Balade au départ de Revogne avec Isabel ]]></name>
    <trkseg>
      <trkpt lat="50.09242" lon="5.0317">
        <ele>203.4</ele>
        <time>2022-04-21T11:24:45Z</time>
      </trkpt>
      <trkpt lat="50.09243" lon="5.0317">
        <ele>203.4</ele>
        <time>2022-04-21T11:24:46Z</time>
      </trkpt>
      <trkpt lat="50.09243" lon="5.0317">
        <ele>203.4</ele>
        <time>2022-04-21T11:24:47Z</time>
      </trkpt>
      <trkpt lat="50.09243" lon="5.0317">
        <ele>203.4</ele>
        <time>2022-04-21T11:24:48Z</time>
      </trkpt>
      <trkpt lat="50.09243" lon="5.03169">
        <ele>203.4</ele>
        <time>2022-04-21T11:24:49Z</time>
      </trkpt>
      <trkpt lat="50.09242" lon="5.03168">
        <ele>203.4</ele>
        <time>2022-04-21T11:24:50Z</time>
      </trkpt>
      <trkpt lat="50.09241" lon="5.03167">
        <ele>203.4</ele>
        <time>2022-04-21T11:24:51Z</time>
      </trkpt>
      <trkpt lat="50.09241" lon="5.03167">
        <ele>203.4</ele>
        <time>2022-04-21T11:24:52Z</time>
      </trkpt>
      <trkpt lat="50.09241" lon="5.03167">
        <ele>203.4</ele>
        <time>2022-04-21T11:24:53Z</time>
      </trkpt>
      <trkpt lat="50.09241" lon="5.03166">
        <ele>203.4</ele>
        <time>2022-04-21T11:24:54Z</time>
      </trkpt>
      <trkpt lat="50.0924" lon="5.03166">
        <ele>203.4</ele>
        <time>2022-04-21T11:24:55Z</time>
      </trkpt>
      <trkpt lat="50.0924" lon="5.03166">
        <ele>203.4</ele>
        <time>2022-04-21T11:24:56Z</time>
      </trkpt>
      <trkpt lat="50.0924" lon="5.03165">
        <ele>203.4</ele>
        <time>2022-04-21T11:24:57Z</time>
      </trkpt>
      <trkpt lat="50.0924" lon="5.03165">
        <ele>203.4</ele>
        <time>2022-04-21T11:24:58Z</time>
      </trkpt>
      <trkpt lat="50.0924" lon="5.03165">
        <ele>203.4</ele>
        <time>2022-04-21T11:24:59Z</time>
      </trkpt>
      <trkpt lat="50.09241" lon="5.03165">
        <ele>203.4</ele>
        <time>2022-04-21T11:25:00Z</time>
      </trkpt>
      <trkpt lat="50.09241" lon="5.03166">
        <ele>203.4</ele>
        <time>2022-04-21T11:25:01Z</time>
      </trkpt>
      <trkpt lat="50.09241" lon="5.03167">
        <ele>203.4</ele>
        <time>2022-04-21T11:25:02Z</time>
      </trkpt>
      <trkpt lat="50.09241" lon="5.03168">
        <ele>203.4</ele>
        <time>2022-04-21T11:25:04Z</time>
      </trkpt>
      <trkpt lat="50.09241" lon="5.03171">
        <ele>203.4</ele>
        <time>2022-04-21T11:25:05Z</time>
      </trkpt>
      <trkpt lat="50.09241" lon="5.03174">
        <ele>203.4</ele>
        <time>2022-04-21T11:25:07Z</time>
      </trkpt>
      <trkpt lat="50.09241" lon="5.03175">
        <ele>203.4</ele>
        <time>2022-04-21T11:25:08Z</time>
      </trkpt>
      <trkpt lat="50.09241" lon="5.03176">
        <ele>203.4</ele>
        <time>2022-04-21T11:25:09Z</time>
      </trkpt>
      <trkpt lat="50.0924" lon="5.03178">
        <ele>203.4</ele>
        <time>2022-04-21T11:25:10Z</time>
      </trkpt>
      <trkpt lat="50.0924" lon="5.0318">
        <ele>203.4</ele>
        <time>2022-04-21T11:25:11Z</time>
      </trkpt>
      <trkpt lat="50.0924" lon="5.03182">
        <ele>203.4</ele>
        <time>2022-04-21T11:25:12Z</time>
      </trkpt>
      <trkpt lat="50.0924" lon="5.03182">
        <ele>203.4</ele>
        <time>2022-04-21T11:25:13Z</time>
      </trkpt>
      <trkpt lat="50.0924" lon="5.03182">
        <ele>203.4</ele>
        <time>2022-04-21T11:25:14Z</time>
      </trkpt>
      <trkpt lat="50.0924" lon="5.03181">
        <ele>203.4</ele>
        <time>2022-04-21T11:25:16Z</time>
      </trkpt>
      <trkpt lat="50.0924" lon="5.03181">
        <ele>203.4</ele>
        <time>2022-04-21T11:25:17Z</time>
      </trkpt>
      <trkpt lat="50.09239" lon="5.0318">
        <ele>203.4</ele>
        <time>2022-04-21T11:25:18Z</time>
      </trkpt>
      <trkpt lat="50.09239" lon="5.0318">
        <ele>203.4</ele>
        <time>2022-04-21T11:25:19Z</time>
      </trkpt>
      <trkpt lat="50.09239" lon="5.03179">
        <ele>203.4</ele>
        <time>2022-04-21T11:25:21Z</time>
      </trkpt>
      <trkpt lat="50.09239" lon="5.03179">
        <ele>203.4</ele>
        <time>2022-04-21T11:25:22Z</time>
      </trkpt>
      <trkpt lat="50.09239" lon="5.03178">
        <ele>203.4</ele>
        <time>2022-04-21T11:25:23Z</time>
      </trkpt>
      <trkpt lat="50.09239" lon="5.03178">
        <ele>203.4</ele>
        <time>2022-04-21T11:25:24Z</time>
      </trkpt>
      <trkpt lat="50.09239" lon="5.03178">
        <ele>203.4</ele>
        <time>2022-04-21T11:25:25Z</time>
      </trkpt>
      <trkpt lat="50.09238" lon="5.03177">
        <ele>203.4</ele>
        <time>2022-04-21T11:25:26Z</time>
      </trkpt>
      <trkpt lat="50.09238" lon="5.03177">
        <ele>203.4</ele>
        <time>2022-04-21T11:25:27Z</time>
      </trkpt>
      <trkpt lat="50.09238" lon="5.03176">
        <ele>203.4</ele>
        <time>2022-04-21T11:25:28Z</time>
      </trkpt>
      <trkpt lat="50.09238" lon="5.03176">
        <ele>203.4</ele>
        <time>2022-04-21T11:25:29Z</time>
      </trkpt>
      <trkpt lat="50.09238" lon="5.03175">
        <ele>203.4</ele>
        <time>2022-04-21T11:25:31Z</time>
      </trkpt>
      <trkpt lat="50.09238" lon="5.03175">
        <ele>203.4</ele>
        <time>2022-04-21T11:25:32Z</time>
      </trkpt>
      <trkpt lat="50.09238" lon="5.03174">
        <ele>203.4</ele>
        <time>2022-04-21T11:25:33Z</time>
      </trkpt>
      <trkpt lat="50.09231" lon="5.03163">
        <ele>203.4</ele>
        <time>2022-04-21T11:25:35Z</time>
      </trkpt>
      <trkpt lat="50.0923" lon="5.03161">
        <ele>203.4</ele>
        <time>2022-04-21T11:25:36Z</time>
      </trkpt>
      <trkpt lat="50.09229" lon="5.03161">
        <ele>203.4</ele>
        <time>2022-04-21T11:25:37Z</time>
      </trkpt>
      <trkpt lat="50.09228" lon="5.03161">
        <ele>203.4</ele>
        <time>2022-04-21T11:25:38Z</time>
      </trkpt>
      <trkpt lat="50.09228" lon="5.03161">
        <ele>203.4</ele>
        <time>2022-04-21T11:25:39Z</time>
      </trkpt>
      <trkpt lat="50.09227" lon="5.03161">
        <ele>203.4</ele>
        <time>2022-04-21T11:25:40Z</time>
      </trkpt>
      <trkpt lat="50.09227" lon="5.03161">
        <ele>203.4</ele>
        <time>2022-04-21T11:25:41Z</time>
      </trkpt>
      <trkpt lat="50.09228" lon="5.03161">
        <ele>203.4</ele>
        <time>2022-04-21T11:25:42Z</time>
      </trkpt>
      <trkpt lat="50.09229" lon="5.0316">
        <ele>203.4</ele>
        <time>2022-04-21T11:25:43Z</time>
      </trkpt>
      <trkpt lat="50.09229" lon="5.03159">
        <ele>203.4</ele>
        <time>2022-04-21T11:25:44Z</time>
      </trkpt>
      <trkpt lat="50.09232" lon="5.03156">
        <ele>203.4</ele>
        <time>2022-04-21T11:25:46Z</time>
      </trkpt>
      <trkpt lat="50.09234" lon="5.03155">
        <ele>203.4</ele>
        <time>2022-04-21T11:25:47Z</time>
      </trkpt>
      <trkpt lat="50.09237" lon="5.03155">
        <ele>203.4</ele>
        <time>2022-04-21T11:25:48Z</time>
      </trkpt>
      <trkpt lat="50.09239" lon="5.03155">
        <ele>203.4</ele>
        <time>2022-04-21T11:25:50Z</time>
      </trkpt>
      <trkpt lat="50.09241" lon="5.03153">
        <ele>203.4</ele>
        <time>2022-04-21T11:25:51Z</time>
      </trkpt>
      <trkpt lat="50.09242" lon="5.03152">
        <ele>203.4</ele>
        <time>2022-04-21T11:25:52Z</time>
      </trkpt>
      <trkpt lat="50.09243" lon="5.0315">
        <ele>203.4</ele>
        <time>2022-04-21T11:25:53Z</time>
      </trkpt>
      <trkpt lat="50.09244" lon="5.03148">
        <ele>203.4</ele>
        <time>2022-04-21T11:25:54Z</time>
      </trkpt>
      <trkpt lat="50.09245" lon="5.03147">
        <ele>203.4</ele>
        <time>2022-04-21T11:25:55Z</time>
      </trkpt>
      <trkpt lat="50.09245" lon="5.03145">
        <ele>203.4</ele>
        <time>2022-04-21T11:25:56Z</time>
      </trkpt>
      <trkpt lat="50.09246" lon="5.03142">
        <ele>203.4</ele>
        <time>2022-04-21T11:25:57Z</time>
      </trkpt>
      <trkpt lat="50.09246" lon="5.0314">
        <ele>203.4</ele>
        <time>2022-04-21T11:25:59Z</time>
      </trkpt>
      <trkpt lat="50.09247" lon="5.03138">
        <ele>203.4</ele>
        <time>2022-04-21T11:26:00Z</time>
      </trkpt>
      <trkpt lat="50.09248" lon="5.03138">
        <ele>203.4</ele>
        <time>2022-04-21T11:26:01Z</time>
      </trkpt>
      <trkpt lat="50.09249" lon="5.03137">
        <ele>203.4</ele>
        <time>2022-04-21T11:26:02Z</time>
      </trkpt>
      <trkpt lat="50.0925" lon="5.03138">
        <ele>203.4</ele>
        <time>2022-04-21T11:26:03Z</time>
      </trkpt>
      <trkpt lat="50.0925" lon="5.0314">
        <ele>203.4</ele>
        <time>2022-04-21T11:26:04Z</time>
      </trkpt>
      <trkpt lat="50.0925" lon="5.03141">
        <ele>203.4</ele>
        <time>2022-04-21T11:26:05Z</time>
      </trkpt>
      <trkpt lat="50.0925" lon="5.03143">
        <ele>203.4</ele>
        <time>2022-04-21T11:26:06Z</time>
      </trkpt>
      <trkpt lat="50.0925" lon="5.03144">
        <ele>203.4</ele>
        <time>2022-04-21T11:26:08Z</time>
      </trkpt>
      <trkpt lat="50.09251" lon="5.03146">
        <ele>203.4</ele>
        <time>2022-04-21T11:26:09Z</time>
      </trkpt>
      <trkpt lat="50.09251" lon="5.03147">
        <ele>203.4</ele>
        <time>2022-04-21T11:26:10Z</time>
      </trkpt>
      <trkpt lat="50.09251" lon="5.03152">
        <ele>203.4</ele>
        <time>2022-04-21T11:26:12Z</time>
      </trkpt>
      <trkpt lat="50.09252" lon="5.03153">
        <ele>203.4</ele>
        <time>2022-04-21T11:26:13Z</time>
      </trkpt>
      <trkpt lat="50.09253" lon="5.03156">
        <ele>203.4</ele>
        <time>2022-04-21T11:26:14Z</time>
      </trkpt>
      <trkpt lat="50.09254" lon="5.03158">
        <ele>203.4</ele>
        <time>2022-04-21T11:26:15Z</time>
      </trkpt>
      <trkpt lat="50.09256" lon="5.03161">
        <ele>203.4</ele>
        <time>2022-04-21T11:26:16Z</time>
      </trkpt>
      <trkpt lat="50.09258" lon="5.03163">
        <ele>203.4</ele>
        <time>2022-04-21T11:26:17Z</time>
      </trkpt>
      <trkpt lat="50.09259" lon="5.03164">
        <ele>203.3</ele>
        <time>2022-04-21T11:26:18Z</time>
      </trkpt>
      <trkpt lat="50.0926" lon="5.03166">
        <ele>203.3</ele>
        <time>2022-04-21T11:26:19Z</time>
      </trkpt>
      <trkpt lat="50.0926" lon="5.0317">
        <ele>203.3</ele>
        <time>2022-04-21T11:26:21Z</time>
      </trkpt>
      <trkpt lat="50.09261" lon="5.03173">
        <ele>203.3</ele>
        <time>2022-04-21T11:26:22Z</time>
      </trkpt>
      <trkpt lat="50.0926" lon="5.03175">
        <ele>203.3</ele>
        <time>2022-04-21T11:26:23Z</time>
      </trkpt>
      <trkpt lat="50.09261" lon="5.03178">
        <ele>203.2</ele>
        <time>2022-04-21T11:26:24Z</time>
      </trkpt>
      <trkpt lat="50.09262" lon="5.0318">
        <ele>203.2</ele>
        <time>2022-04-21T11:26:26Z</time>
      </trkpt>
      <trkpt lat="50.09264" lon="5.03181">
        <ele>203.2</ele>
        <time>2022-04-21T11:26:27Z</time>
      </trkpt>
      <trkpt lat="50.09265" lon="5.03183">
        <ele>203.1</ele>
        <time>2022-04-21T11:26:28Z</time>
      </trkpt>
      <trkpt lat="50.09265" lon="5.03185">
        <ele>203.1</ele>
        <time>2022-04-21T11:26:29Z</time>
      </trkpt>
      <trkpt lat="50.09266" lon="5.03187">
        <ele>203.1</ele>
        <time>2022-04-21T11:26:30Z</time>
      </trkpt>
      <trkpt lat="50.09267" lon="5.0319">
        <ele>203</ele>
        <time>2022-04-21T11:26:31Z</time>
      </trkpt>
      <trkpt lat="50.09267" lon="5.03192">
        <ele>203</ele>
        <time>2022-04-21T11:26:32Z</time>
      </trkpt>
      <trkpt lat="50.09269" lon="5.03194">
        <ele>202.9</ele>
        <time>2022-04-21T11:26:33Z</time>
      </trkpt>
      <trkpt lat="50.09269" lon="5.03196">
        <ele>202.9</ele>
        <time>2022-04-21T11:26:34Z</time>
      </trkpt>
      <trkpt lat="50.09271" lon="5.03202">
        <ele>202.8</ele>
        <time>2022-04-21T11:26:36Z</time>
      </trkpt>
      <trkpt lat="50.09271" lon="5.03204">
        <ele>202.8</ele>
        <time>2022-04-21T11:26:37Z</time>
      </trkpt>
      <trkpt lat="50.09272" lon="5.03206">
        <ele>202.7</ele>
        <time>2022-04-21T11:26:38Z</time>
      </trkpt>
      <trkpt lat="50.09272" lon="5.03211">
        <ele>202.7</ele>
        <time>2022-04-21T11:26:40Z</time>
      </trkpt>
      <trkpt lat="50.09273" lon="5.03213">
        <ele>202.6</ele>
        <time>2022-04-21T11:26:42Z</time>
      </trkpt>
      <trkpt lat="50.09275" lon="5.03214">
        <ele>202.6</ele>
        <time>2022-04-21T11:26:43Z</time>
      </trkpt>
      <trkpt lat="50.09276" lon="5.03216">
        <ele>202.5</ele>
        <time>2022-04-21T11:26:44Z</time>
      </trkpt>
      <trkpt lat="50.09277" lon="5.03217">
        <ele>202.5</ele>
        <time>2022-04-21T11:26:45Z</time>
      </trkpt>
      <trkpt lat="50.09278" lon="5.03221">
        <ele>202.5</ele>
        <time>2022-04-21T11:26:46Z</time>
      </trkpt>
      <trkpt lat="50.09278" lon="5.03222">
        <ele>202.5</ele>
        <time>2022-04-21T11:26:47Z</time>
      </trkpt>
      <trkpt lat="50.09279" lon="5.03223">
        <ele>202.5</ele>
        <time>2022-04-21T11:26:48Z</time>
      </trkpt>
      <trkpt lat="50.0928" lon="5.03224">
        <ele>202.4</ele>
        <time>2022-04-21T11:26:50Z</time>
      </trkpt>
      <trkpt lat="50.09281" lon="5.03225">
        <ele>202.4</ele>
        <time>2022-04-21T11:26:51Z</time>
      </trkpt>
      <trkpt lat="50.09282" lon="5.03228">
        <ele>202.4</ele>
        <time>2022-04-21T11:26:52Z</time>
      </trkpt>
      <trkpt lat="50.09282" lon="5.03229">
        <ele>202.4</ele>
        <time>2022-04-21T11:26:53Z</time>
      </trkpt>
      <trkpt lat="50.09282" lon="5.03231">
        <ele>202.3</ele>
        <time>2022-04-21T11:26:54Z</time>
      </trkpt>
      <trkpt lat="50.09283" lon="5.03233">
        <ele>202.3</ele>
        <time>2022-04-21T11:26:55Z</time>
      </trkpt>
      <trkpt lat="50.09283" lon="5.03235">
        <ele>202.3</ele>
        <time>2022-04-21T11:26:56Z</time>
      </trkpt>
      <trkpt lat="50.09284" lon="5.03237">
        <ele>202.3</ele>
        <time>2022-04-21T11:26:57Z</time>
      </trkpt>
      <trkpt lat="50.09285" lon="5.03239">
        <ele>202.2</ele>
        <time>2022-04-21T11:26:58Z</time>
      </trkpt>
      <trkpt lat="50.09287" lon="5.03242">
        <ele>202.2</ele>
        <time>2022-04-21T11:27:00Z</time>
      </trkpt>
      <trkpt lat="50.09288" lon="5.03244">
        <ele>202.2</ele>
        <time>2022-04-21T11:27:01Z</time>
      </trkpt>
      <trkpt lat="50.09289" lon="5.03247">
        <ele>202.1</ele>
        <time>2022-04-21T11:27:02Z</time>
      </trkpt>
      <trkpt lat="50.09289" lon="5.03248">
        <ele>202.1</ele>
        <time>2022-04-21T11:27:03Z</time>
      </trkpt>
      <trkpt lat="50.09289" lon="5.03249">
        <ele>202.1</ele>
        <time>2022-04-21T11:27:04Z</time>
      </trkpt>
      <trkpt lat="50.0929" lon="5.03251">
        <ele>202.1</ele>
        <time>2022-04-21T11:27:05Z</time>
      </trkpt>
      <trkpt lat="50.0929" lon="5.03254">
        <ele>202</ele>
        <time>2022-04-21T11:27:06Z</time>
      </trkpt>
      <trkpt lat="50.09291" lon="5.03257">
        <ele>202</ele>
        <time>2022-04-21T11:27:07Z</time>
      </trkpt>
      <trkpt lat="50.09291" lon="5.03258">
        <ele>202</ele>
        <time>2022-04-21T11:27:08Z</time>
      </trkpt>
      <trkpt lat="50.09292" lon="5.03259">
        <ele>202</ele>
        <time>2022-04-21T11:27:09Z</time>
      </trkpt>
      <trkpt lat="50.09292" lon="5.03261">
        <ele>201.9</ele>
        <time>2022-04-21T11:27:10Z</time>
      </trkpt>
      <trkpt lat="50.09294" lon="5.03264">
        <ele>201.9</ele>
        <time>2022-04-21T11:27:11Z</time>
      </trkpt>
      <trkpt lat="50.09294" lon="5.03267">
        <ele>201.9</ele>
        <time>2022-04-21T11:27:12Z</time>
      </trkpt>
      <trkpt lat="50.09295" lon="5.03269">
        <ele>201.9</ele>
        <time>2022-04-21T11:27:13Z</time>
      </trkpt>
      <trkpt lat="50.09295" lon="5.0327">
        <ele>201.9</ele>
        <time>2022-04-21T11:27:14Z</time>
      </trkpt>
      <trkpt lat="50.09295" lon="5.03273">
        <ele>201.8</ele>
        <time>2022-04-21T11:27:15Z</time>
      </trkpt>
      <trkpt lat="50.09295" lon="5.03274">
        <ele>201.8</ele>
        <time>2022-04-21T11:27:16Z</time>
      </trkpt>
      <trkpt lat="50.09296" lon="5.03277">
        <ele>201.8</ele>
        <time>2022-04-21T11:27:17Z</time>
      </trkpt>
      <trkpt lat="50.09296" lon="5.03279">
        <ele>201.8</ele>
        <time>2022-04-21T11:27:18Z</time>
      </trkpt>
      <trkpt lat="50.09296" lon="5.0328">
        <ele>201.8</ele>
        <time>2022-04-21T11:27:19Z</time>
      </trkpt>
      <trkpt lat="50.09296" lon="5.03283">
        <ele>201.8</ele>
        <time>2022-04-21T11:27:20Z</time>
      </trkpt>
      <trkpt lat="50.09297" lon="5.03286">
        <ele>201.7</ele>
        <time>2022-04-21T11:27:21Z</time>
      </trkpt>
      <trkpt lat="50.09297" lon="5.03289">
        <ele>201.7</ele>
        <time>2022-04-21T11:27:22Z</time>
      </trkpt>
      <trkpt lat="50.09298" lon="5.0329">
        <ele>201.7</ele>
        <time>2022-04-21T11:27:23Z</time>
      </trkpt>
      <trkpt lat="50.09298" lon="5.03291">
        <ele>201.7</ele>
        <time>2022-04-21T11:27:24Z</time>
      </trkpt>
      <trkpt lat="50.09298" lon="5.03293">
        <ele>201.7</ele>
        <time>2022-04-21T11:27:25Z</time>
      </trkpt>
      <trkpt lat="50.09299" lon="5.03295">
        <ele>201.7</ele>
        <time>2022-04-21T11:27:26Z</time>
      </trkpt>
      <trkpt lat="50.09299" lon="5.03297">
        <ele>201.6</ele>
        <time>2022-04-21T11:27:27Z</time>
      </trkpt>
      <trkpt lat="50.09299" lon="5.03298">
        <ele>201.6</ele>
        <time>2022-04-21T11:27:28Z</time>
      </trkpt>
      <trkpt lat="50.093" lon="5.033">
        <ele>201.6</ele>
        <time>2022-04-21T11:27:29Z</time>
      </trkpt>
      <trkpt lat="50.093" lon="5.03304">
        <ele>201.6</ele>
        <time>2022-04-21T11:27:31Z</time>
      </trkpt>
      <trkpt lat="50.09301" lon="5.03305">
        <ele>201.6</ele>
        <time>2022-04-21T11:27:32Z</time>
      </trkpt>
      <trkpt lat="50.09301" lon="5.03308">
        <ele>201.6</ele>
        <time>2022-04-21T11:27:33Z</time>
      </trkpt>
      <trkpt lat="50.09302" lon="5.0331">
        <ele>201.5</ele>
        <time>2022-04-21T11:27:34Z</time>
      </trkpt>
      <trkpt lat="50.09302" lon="5.03313">
        <ele>201.5</ele>
        <time>2022-04-21T11:27:35Z</time>
      </trkpt>
      <trkpt lat="50.09303" lon="5.03314">
        <ele>201.5</ele>
        <time>2022-04-21T11:27:36Z</time>
      </trkpt>
      <trkpt lat="50.09303" lon="5.03315">
        <ele>201.5</ele>
        <time>2022-04-21T11:27:37Z</time>
      </trkpt>
      <trkpt lat="50.09303" lon="5.03317">
        <ele>201.5</ele>
        <time>2022-04-21T11:27:38Z</time>
      </trkpt>
      <trkpt lat="50.09303" lon="5.0332">
        <ele>201.5</ele>
        <time>2022-04-21T11:27:39Z</time>
      </trkpt>
      <trkpt lat="50.09304" lon="5.03323">
        <ele>201.4</ele>
        <time>2022-04-21T11:27:40Z</time>
      </trkpt>
      <trkpt lat="50.09304" lon="5.03324">
        <ele>201.4</ele>
        <time>2022-04-21T11:27:41Z</time>
      </trkpt>
      <trkpt lat="50.09304" lon="5.03325">
        <ele>201.4</ele>
        <time>2022-04-21T11:27:42Z</time>
      </trkpt>
      <trkpt lat="50.09305" lon="5.03328">
        <ele>201.4</ele>
        <time>2022-04-21T11:27:43Z</time>
      </trkpt>
      <trkpt lat="50.09305" lon="5.03329">
        <ele>201.4</ele>
        <time>2022-04-21T11:27:44Z</time>
      </trkpt>
      <trkpt lat="50.09306" lon="5.0333">
        <ele>201.4</ele>
        <time>2022-04-21T11:27:45Z</time>
      </trkpt>
      <trkpt lat="50.09307" lon="5.03333">
        <ele>201.3</ele>
        <time>2022-04-21T11:27:47Z</time>
      </trkpt>
      <trkpt lat="50.09307" lon="5.03334">
        <ele>201.3</ele>
        <time>2022-04-21T11:27:48Z</time>
      </trkpt>
      <trkpt lat="50.09308" lon="5.03336">
        <ele>201.3</ele>
        <time>2022-04-21T11:27:49Z</time>
      </trkpt>
      <trkpt lat="50.09309" lon="5.03338">
        <ele>201.3</ele>
        <time>2022-04-21T11:27:50Z</time>
      </trkpt>
      <trkpt lat="50.0931" lon="5.03341">
        <ele>201.3</ele>
        <time>2022-04-21T11:27:51Z</time>
      </trkpt>
      <trkpt lat="50.0931" lon="5.03342">
        <ele>201.2</ele>
        <time>2022-04-21T11:27:52Z</time>
      </trkpt>
      <trkpt lat="50.0931" lon="5.03345">
        <ele>201.2</ele>
        <time>2022-04-21T11:27:53Z</time>
      </trkpt>
      <trkpt lat="50.09311" lon="5.03347">
        <ele>201.2</ele>
        <time>2022-04-21T11:27:54Z</time>
      </trkpt>
      <trkpt lat="50.09311" lon="5.03349">
        <ele>201.2</ele>
        <time>2022-04-21T11:27:55Z</time>
      </trkpt>
      <trkpt lat="50.09312" lon="5.03351">
        <ele>201.2</ele>
        <time>2022-04-21T11:27:56Z</time>
      </trkpt>
      <trkpt lat="50.09313" lon="5.03353">
        <ele>201.1</ele>
        <time>2022-04-21T11:27:57Z</time>
      </trkpt>
      <trkpt lat="50.09313" lon="5.03355">
        <ele>201.1</ele>
        <time>2022-04-21T11:27:58Z</time>
      </trkpt>
      <trkpt lat="50.09314" lon="5.03357">
        <ele>201.1</ele>
        <time>2022-04-21T11:27:59Z</time>
      </trkpt>
      <trkpt lat="50.09314" lon="5.03358">
        <ele>201.1</ele>
        <time>2022-04-21T11:28:00Z</time>
      </trkpt>
      <trkpt lat="50.09315" lon="5.0336">
        <ele>201.1</ele>
        <time>2022-04-21T11:28:01Z</time>
      </trkpt>
      <trkpt lat="50.09315" lon="5.03361">
        <ele>201.1</ele>
        <time>2022-04-21T11:28:02Z</time>
      </trkpt>
      <trkpt lat="50.09316" lon="5.03362">
        <ele>201.1</ele>
        <time>2022-04-21T11:28:03Z</time>
      </trkpt>
      <trkpt lat="50.09316" lon="5.03363">
        <ele>201.1</ele>
        <time>2022-04-21T11:28:04Z</time>
      </trkpt>
      <trkpt lat="50.09316" lon="5.03365">
        <ele>201.1</ele>
        <time>2022-04-21T11:28:05Z</time>
      </trkpt>
      <trkpt lat="50.09316" lon="5.03366">
        <ele>201.1</ele>
        <time>2022-04-21T11:28:06Z</time>
      </trkpt>
      <trkpt lat="50.09317" lon="5.03368">
        <ele>201.1</ele>
        <time>2022-04-21T11:28:07Z</time>
      </trkpt>
      <trkpt lat="50.09317" lon="5.03371">
        <ele>201.1</ele>
        <time>2022-04-21T11:28:09Z</time>
      </trkpt>
      <trkpt lat="50.09318" lon="5.03373">
        <ele>201.1</ele>
        <time>2022-04-21T11:28:10Z</time>
      </trkpt>
      <trkpt lat="50.09318" lon="5.03374">
        <ele>201.1</ele>
        <time>2022-04-21T11:28:11Z</time>
      </trkpt>
      <trkpt lat="50.09319" lon="5.03377">
        <ele>201.1</ele>
        <time>2022-04-21T11:28:12Z</time>
      </trkpt>
      <trkpt lat="50.09319" lon="5.03378">
        <ele>201.1</ele>
        <time>2022-04-21T11:28:13Z</time>
      </trkpt>
      <trkpt lat="50.0932" lon="5.03379">
        <ele>201.1</ele>
        <time>2022-04-21T11:28:14Z</time>
      </trkpt>
      <trkpt lat="50.09322" lon="5.03382">
        <ele>201.1</ele>
        <time>2022-04-21T11:28:15Z</time>
      </trkpt>
      <trkpt lat="50.09322" lon="5.03384">
        <ele>201.1</ele>
        <time>2022-04-21T11:28:16Z</time>
      </trkpt>
      <trkpt lat="50.09324" lon="5.03386">
        <ele>201.1</ele>
        <time>2022-04-21T11:28:17Z</time>
      </trkpt>
      <trkpt lat="50.09324" lon="5.03387">
        <ele>201.1</ele>
        <time>2022-04-21T11:28:18Z</time>
      </trkpt>
      <trkpt lat="50.09325" lon="5.03388">
        <ele>201.1</ele>
        <time>2022-04-21T11:28:19Z</time>
      </trkpt>
      <trkpt lat="50.09326" lon="5.0339">
        <ele>201.1</ele>
        <time>2022-04-21T11:28:20Z</time>
      </trkpt>
      <trkpt lat="50.09328" lon="5.03392">
        <ele>201.2</ele>
        <time>2022-04-21T11:28:22Z</time>
      </trkpt>
      <trkpt lat="50.0933" lon="5.03393">
        <ele>201.2</ele>
        <time>2022-04-21T11:28:23Z</time>
      </trkpt>
      <trkpt lat="50.09331" lon="5.03394">
        <ele>201.2</ele>
        <time>2022-04-21T11:28:24Z</time>
      </trkpt>
      <trkpt lat="50.09332" lon="5.03394">
        <ele>201.2</ele>
        <time>2022-04-21T11:28:25Z</time>
      </trkpt>
      <trkpt lat="50.09333" lon="5.03394">
        <ele>201.2</ele>
        <time>2022-04-21T11:28:26Z</time>
      </trkpt>
      <trkpt lat="50.09334" lon="5.03394">
        <ele>201.2</ele>
        <time>2022-04-21T11:28:27Z</time>
      </trkpt>
      <trkpt lat="50.09335" lon="5.03394">
        <ele>201.2</ele>
        <time>2022-04-21T11:28:28Z</time>
      </trkpt>
      <trkpt lat="50.09336" lon="5.03393">
        <ele>201.2</ele>
        <time>2022-04-21T11:28:29Z</time>
      </trkpt>
      <trkpt lat="50.09337" lon="5.03393">
        <ele>201.2</ele>
        <time>2022-04-21T11:28:30Z</time>
      </trkpt>
      <trkpt lat="50.09338" lon="5.03392">
        <ele>201.2</ele>
        <time>2022-04-21T11:28:31Z</time>
      </trkpt>
      <trkpt lat="50.09338" lon="5.03392">
        <ele>201.2</ele>
        <time>2022-04-21T11:28:32Z</time>
      </trkpt>
      <trkpt lat="50.09341" lon="5.03395">
        <ele>201.3</ele>
        <time>2022-04-21T11:28:33Z</time>
      </trkpt>
      <trkpt lat="50.09341" lon="5.03396">
        <ele>201.3</ele>
        <time>2022-04-21T11:28:34Z</time>
      </trkpt>
      <trkpt lat="50.09343" lon="5.03398">
        <ele>201.3</ele>
        <time>2022-04-21T11:28:35Z</time>
      </trkpt>
      <trkpt lat="50.09343" lon="5.034">
        <ele>201.3</ele>
        <time>2022-04-21T11:28:36Z</time>
      </trkpt>
      <trkpt lat="50.09346" lon="5.03403">
        <ele>201.3</ele>
        <time>2022-04-21T11:28:37Z</time>
      </trkpt>
      <trkpt lat="50.09347" lon="5.03404">
        <ele>201.3</ele>
        <time>2022-04-21T11:28:38Z</time>
      </trkpt>
      <trkpt lat="50.09348" lon="5.03405">
        <ele>201.3</ele>
        <time>2022-04-21T11:28:39Z</time>
      </trkpt>
      <trkpt lat="50.09349" lon="5.03406">
        <ele>201.3</ele>
        <time>2022-04-21T11:28:40Z</time>
      </trkpt>
      <trkpt lat="50.09351" lon="5.03406">
        <ele>201.4</ele>
        <time>2022-04-21T11:28:41Z</time>
      </trkpt>
      <trkpt lat="50.09352" lon="5.03407">
        <ele>201.4</ele>
        <time>2022-04-21T11:28:42Z</time>
      </trkpt>
      <trkpt lat="50.09353" lon="5.03407">
        <ele>201.4</ele>
        <time>2022-04-21T11:28:43Z</time>
      </trkpt>
      <trkpt lat="50.09354" lon="5.03407">
        <ele>201.4</ele>
        <time>2022-04-21T11:28:44Z</time>
      </trkpt>
      <trkpt lat="50.09355" lon="5.03404">
        <ele>201.4</ele>
        <time>2022-04-21T11:28:45Z</time>
      </trkpt>
      <trkpt lat="50.09356" lon="5.03402">
        <ele>201.4</ele>
        <time>2022-04-21T11:28:46Z</time>
      </trkpt>
      <trkpt lat="50.09357" lon="5.03401">
        <ele>201.4</ele>
        <time>2022-04-21T11:28:47Z</time>
      </trkpt>
      <trkpt lat="50.09359" lon="5.034">
        <ele>201.4</ele>
        <time>2022-04-21T11:28:48Z</time>
      </trkpt>
      <trkpt lat="50.09359" lon="5.03397">
        <ele>201.4</ele>
        <time>2022-04-21T11:28:49Z</time>
      </trkpt>
      <trkpt lat="50.0936" lon="5.03396">
        <ele>201.4</ele>
        <time>2022-04-21T11:28:50Z</time>
      </trkpt>
      <trkpt lat="50.09362" lon="5.03394">
        <ele>201.4</ele>
        <time>2022-04-21T11:28:51Z</time>
      </trkpt>
      <trkpt lat="50.09363" lon="5.03392">
        <ele>201.5</ele>
        <time>2022-04-21T11:28:52Z</time>
      </trkpt>
      <trkpt lat="50.09364" lon="5.03391">
        <ele>201.5</ele>
        <time>2022-04-21T11:28:53Z</time>
      </trkpt>
      <trkpt lat="50.09365" lon="5.03389">
        <ele>201.5</ele>
        <time>2022-04-21T11:28:54Z</time>
      </trkpt>
      <trkpt lat="50.09366" lon="5.03388">
        <ele>201.5</ele>
        <time>2022-04-21T11:28:55Z</time>
      </trkpt>
      <trkpt lat="50.09368" lon="5.03387">
        <ele>201.5</ele>
        <time>2022-04-21T11:28:57Z</time>
      </trkpt>
      <trkpt lat="50.09369" lon="5.03387">
        <ele>201.5</ele>
        <time>2022-04-21T11:28:58Z</time>
      </trkpt>
      <trkpt lat="50.0937" lon="5.03387">
        <ele>201.5</ele>
        <time>2022-04-21T11:28:59Z</time>
      </trkpt>
      <trkpt lat="50.09371" lon="5.03386">
        <ele>201.5</ele>
        <time>2022-04-21T11:29:00Z</time>
      </trkpt>
      <trkpt lat="50.09373" lon="5.03386">
        <ele>201.5</ele>
        <time>2022-04-21T11:29:01Z</time>
      </trkpt>
      <trkpt lat="50.09374" lon="5.03386">
        <ele>201.5</ele>
        <time>2022-04-21T11:29:02Z</time>
      </trkpt>
      <trkpt lat="50.09375" lon="5.03387">
        <ele>201.5</ele>
        <time>2022-04-21T11:29:03Z</time>
      </trkpt>
      <trkpt lat="50.09376" lon="5.03387">
        <ele>201.5</ele>
        <time>2022-04-21T11:29:04Z</time>
      </trkpt>
      <trkpt lat="50.09378" lon="5.03387">
        <ele>201.6</ele>
        <time>2022-04-21T11:29:05Z</time>
      </trkpt>
      <trkpt lat="50.09379" lon="5.03386">
        <ele>201.6</ele>
        <time>2022-04-21T11:29:06Z</time>
      </trkpt>
      <trkpt lat="50.09381" lon="5.03386">
        <ele>201.6</ele>
        <time>2022-04-21T11:29:07Z</time>
      </trkpt>
      <trkpt lat="50.09383" lon="5.03385">
        <ele>201.6</ele>
        <time>2022-04-21T11:29:08Z</time>
      </trkpt>
      <trkpt lat="50.09384" lon="5.03385">
        <ele>201.6</ele>
        <time>2022-04-21T11:29:10Z</time>
      </trkpt>
      <trkpt lat="50.09385" lon="5.03384">
        <ele>201.6</ele>
        <time>2022-04-21T11:29:11Z</time>
      </trkpt>
      <trkpt lat="50.09386" lon="5.03384">
        <ele>201.6</ele>
        <time>2022-04-21T11:29:12Z</time>
      </trkpt>
      <trkpt lat="50.09388" lon="5.03383">
        <ele>201.6</ele>
        <time>2022-04-21T11:29:13Z</time>
      </trkpt>
      <trkpt lat="50.0939" lon="5.03383">
        <ele>201.7</ele>
        <time>2022-04-21T11:29:14Z</time>
      </trkpt>
      <trkpt lat="50.0939" lon="5.03382">
        <ele>201.7</ele>
        <time>2022-04-21T11:29:15Z</time>
      </trkpt>
      <trkpt lat="50.09391" lon="5.03382">
        <ele>201.7</ele>
        <time>2022-04-21T11:29:16Z</time>
      </trkpt>
      <trkpt lat="50.09393" lon="5.03381">
        <ele>201.7</ele>
        <time>2022-04-21T11:29:17Z</time>
      </trkpt>
      <trkpt lat="50.09394" lon="5.0338">
        <ele>201.7</ele>
        <time>2022-04-21T11:29:19Z</time>
      </trkpt>
      <trkpt lat="50.09396" lon="5.0338">
        <ele>201.7</ele>
        <time>2022-04-21T11:29:20Z</time>
      </trkpt>
      <trkpt lat="50.09397" lon="5.0338">
        <ele>201.7</ele>
        <time>2022-04-21T11:29:21Z</time>
      </trkpt>
      <trkpt lat="50.09399" lon="5.03379">
        <ele>201.8</ele>
        <time>2022-04-21T11:29:22Z</time>
      </trkpt>
      <trkpt lat="50.094" lon="5.03379">
        <ele>201.8</ele>
        <time>2022-04-21T11:29:23Z</time>
      </trkpt>
      <trkpt lat="50.09402" lon="5.03378">
        <ele>201.8</ele>
        <time>2022-04-21T11:29:24Z</time>
      </trkpt>
      <trkpt lat="50.09403" lon="5.03378">
        <ele>201.8</ele>
        <time>2022-04-21T11:29:25Z</time>
      </trkpt>
      <trkpt lat="50.09404" lon="5.03378">
        <ele>201.8</ele>
        <time>2022-04-21T11:29:26Z</time>
      </trkpt>
      <trkpt lat="50.09406" lon="5.03377">
        <ele>201.8</ele>
        <time>2022-04-21T11:29:27Z</time>
      </trkpt>
      <trkpt lat="50.09406" lon="5.03377">
        <ele>201.8</ele>
        <time>2022-04-21T11:29:28Z</time>
      </trkpt>
      <trkpt lat="50.09408" lon="5.03377">
        <ele>201.9</ele>
        <time>2022-04-21T11:29:29Z</time>
      </trkpt>
      <trkpt lat="50.09409" lon="5.03377">
        <ele>201.9</ele>
        <time>2022-04-21T11:29:30Z</time>
      </trkpt>
      <trkpt lat="50.0941" lon="5.03377">
        <ele>201.9</ele>
        <time>2022-04-21T11:29:31Z</time>
      </trkpt>
      <trkpt lat="50.09412" lon="5.03377">
        <ele>201.9</ele>
        <time>2022-04-21T11:29:32Z</time>
      </trkpt>
      <trkpt lat="50.09414" lon="5.03377">
        <ele>201.9</ele>
        <time>2022-04-21T11:29:34Z</time>
      </trkpt>
      <trkpt lat="50.09415" lon="5.03377">
        <ele>202</ele>
        <time>2022-04-21T11:29:35Z</time>
      </trkpt>
      <trkpt lat="50.09417" lon="5.03377">
        <ele>202</ele>
        <time>2022-04-21T11:29:36Z</time>
      </trkpt>
      <trkpt lat="50.09418" lon="5.03375">
        <ele>202</ele>
        <time>2022-04-21T11:29:37Z</time>
      </trkpt>
      <trkpt lat="50.0942" lon="5.03375">
        <ele>202</ele>
        <time>2022-04-21T11:29:38Z</time>
      </trkpt>
      <trkpt lat="50.09422" lon="5.03374">
        <ele>202</ele>
        <time>2022-04-21T11:29:39Z</time>
      </trkpt>
      <trkpt lat="50.09423" lon="5.03374">
        <ele>202.1</ele>
        <time>2022-04-21T11:29:40Z</time>
      </trkpt>
      <trkpt lat="50.09425" lon="5.03373">
        <ele>202.1</ele>
        <time>2022-04-21T11:29:42Z</time>
      </trkpt>
      <trkpt lat="50.09426" lon="5.03374">
        <ele>202.1</ele>
        <time>2022-04-21T11:29:43Z</time>
      </trkpt>
      <trkpt lat="50.09428" lon="5.03374">
        <ele>202.1</ele>
        <time>2022-04-21T11:29:44Z</time>
      </trkpt>
      <trkpt lat="50.09429" lon="5.03374">
        <ele>202.1</ele>
        <time>2022-04-21T11:29:45Z</time>
      </trkpt>
      <trkpt lat="50.0943" lon="5.03374">
        <ele>202.2</ele>
        <time>2022-04-21T11:29:46Z</time>
      </trkpt>
      <trkpt lat="50.09432" lon="5.03375">
        <ele>202.2</ele>
        <time>2022-04-21T11:29:48Z</time>
      </trkpt>
      <trkpt lat="50.09434" lon="5.03376">
        <ele>202.2</ele>
        <time>2022-04-21T11:29:49Z</time>
      </trkpt>
      <trkpt lat="50.09434" lon="5.03376">
        <ele>202.2</ele>
        <time>2022-04-21T11:29:50Z</time>
      </trkpt>
      <trkpt lat="50.09435" lon="5.03376">
        <ele>202.2</ele>
        <time>2022-04-21T11:29:51Z</time>
      </trkpt>
      <trkpt lat="50.09435" lon="5.03377">
        <ele>202.2</ele>
        <time>2022-04-21T11:29:52Z</time>
      </trkpt>
      <trkpt lat="50.09434" lon="5.03377">
        <ele>202.2</ele>
        <time>2022-04-21T11:29:53Z</time>
      </trkpt>
      <trkpt lat="50.09433" lon="5.03376">
        <ele>202.2</ele>
        <time>2022-04-21T11:29:54Z</time>
      </trkpt>
      <trkpt lat="50.09434" lon="5.03376">
        <ele>202.3</ele>
        <time>2022-04-21T11:29:55Z</time>
      </trkpt>
      <trkpt lat="50.09434" lon="5.03376">
        <ele>202.3</ele>
        <time>2022-04-21T11:29:56Z</time>
      </trkpt>
      <trkpt lat="50.09435" lon="5.03376">
        <ele>202.3</ele>
        <time>2022-04-21T11:29:57Z</time>
      </trkpt>
      <trkpt lat="50.09435" lon="5.03376">
        <ele>202.3</ele>
        <time>2022-04-21T11:29:58Z</time>
      </trkpt>
      <trkpt lat="50.09437" lon="5.03375">
        <ele>202.3</ele>
        <time>2022-04-21T11:29:59Z</time>
      </trkpt>
      <trkpt lat="50.09438" lon="5.03375">
        <ele>202.3</ele>
        <time>2022-04-21T11:30:00Z</time>
      </trkpt>
      <trkpt lat="50.0944" lon="5.03374">
        <ele>202.4</ele>
        <time>2022-04-21T11:30:01Z</time>
      </trkpt>
      <trkpt lat="50.09441" lon="5.03373">
        <ele>202.4</ele>
        <time>2022-04-21T11:30:02Z</time>
      </trkpt>
      <trkpt lat="50.09445" lon="5.03372">
        <ele>202.4</ele>
        <time>2022-04-21T11:30:04Z</time>
      </trkpt>
      <trkpt lat="50.09446" lon="5.03371">
        <ele>202.5</ele>
        <time>2022-04-21T11:30:05Z</time>
      </trkpt>
      <trkpt lat="50.09447" lon="5.03371">
        <ele>202.5</ele>
        <time>2022-04-21T11:30:06Z</time>
      </trkpt>
      <trkpt lat="50.09449" lon="5.03371">
        <ele>202.5</ele>
        <time>2022-04-21T11:30:07Z</time>
      </trkpt>
      <trkpt lat="50.0945" lon="5.03371">
        <ele>202.5</ele>
        <time>2022-04-21T11:30:08Z</time>
      </trkpt>
      <trkpt lat="50.09452" lon="5.0337">
        <ele>202.6</ele>
        <time>2022-04-21T11:30:09Z</time>
      </trkpt>
      <trkpt lat="50.09454" lon="5.03368">
        <ele>202.6</ele>
        <time>2022-04-21T11:30:10Z</time>
      </trkpt>
      <trkpt lat="50.09455" lon="5.03367">
        <ele>202.6</ele>
        <time>2022-04-21T11:30:11Z</time>
      </trkpt>
      <trkpt lat="50.09457" lon="5.03366">
        <ele>202.6</ele>
        <time>2022-04-21T11:30:12Z</time>
      </trkpt>
      <trkpt lat="50.09458" lon="5.03365">
        <ele>202.7</ele>
        <time>2022-04-21T11:30:13Z</time>
      </trkpt>
      <trkpt lat="50.09459" lon="5.03364">
        <ele>202.7</ele>
        <time>2022-04-21T11:30:14Z</time>
      </trkpt>
      <trkpt lat="50.0946" lon="5.03364">
        <ele>202.7</ele>
        <time>2022-04-21T11:30:15Z</time>
      </trkpt>
      <trkpt lat="50.09461" lon="5.03364">
        <ele>202.7</ele>
        <time>2022-04-21T11:30:16Z</time>
      </trkpt>
      <trkpt lat="50.09462" lon="5.03364">
        <ele>202.7</ele>
        <time>2022-04-21T11:30:18Z</time>
      </trkpt>
      <trkpt lat="50.09462" lon="5.03363">
        <ele>202.7</ele>
        <time>2022-04-21T11:30:19Z</time>
      </trkpt>
      <trkpt lat="50.09462" lon="5.03362">
        <ele>202.8</ele>
        <time>2022-04-21T11:30:20Z</time>
      </trkpt>
      <trkpt lat="50.09462" lon="5.03362">
        <ele>202.8</ele>
        <time>2022-04-21T11:30:21Z</time>
      </trkpt>
      <trkpt lat="50.09463" lon="5.03362">
        <ele>202.8</ele>
        <time>2022-04-21T11:30:22Z</time>
      </trkpt>
      <trkpt lat="50.09464" lon="5.03362">
        <ele>202.8</ele>
        <time>2022-04-21T11:30:23Z</time>
      </trkpt>
      <trkpt lat="50.09465" lon="5.03362">
        <ele>202.8</ele>
        <time>2022-04-21T11:30:24Z</time>
      </trkpt>
      <trkpt lat="50.09467" lon="5.03362">
        <ele>202.8</ele>
        <time>2022-04-21T11:30:25Z</time>
      </trkpt>
      <trkpt lat="50.09469" lon="5.03362">
        <ele>202.8</ele>
        <time>2022-04-21T11:30:26Z</time>
      </trkpt>
      <trkpt lat="50.0947" lon="5.03362">
        <ele>202.8</ele>
        <time>2022-04-21T11:30:27Z</time>
      </trkpt>
      <trkpt lat="50.09471" lon="5.03362">
        <ele>202.9</ele>
        <time>2022-04-21T11:30:28Z</time>
      </trkpt>
      <trkpt lat="50.09472" lon="5.03362">
        <ele>202.9</ele>
        <time>2022-04-21T11:30:29Z</time>
      </trkpt>
      <trkpt lat="50.09474" lon="5.03362">
        <ele>202.9</ele>
        <time>2022-04-21T11:30:30Z</time>
      </trkpt>
      <trkpt lat="50.09476" lon="5.03363">
        <ele>202.9</ele>
        <time>2022-04-21T11:30:31Z</time>
      </trkpt>
      <trkpt lat="50.09477" lon="5.03363">
        <ele>202.9</ele>
        <time>2022-04-21T11:30:32Z</time>
      </trkpt>
      <trkpt lat="50.09478" lon="5.03364">
        <ele>203</ele>
        <time>2022-04-21T11:30:33Z</time>
      </trkpt>
      <trkpt lat="50.0948" lon="5.03364">
        <ele>203</ele>
        <time>2022-04-21T11:30:35Z</time>
      </trkpt>
      <trkpt lat="50.09481" lon="5.03365">
        <ele>203</ele>
        <time>2022-04-21T11:30:36Z</time>
      </trkpt>
      <trkpt lat="50.09482" lon="5.03366">
        <ele>203</ele>
        <time>2022-04-21T11:30:37Z</time>
      </trkpt>
      <trkpt lat="50.09482" lon="5.03367">
        <ele>203</ele>
        <time>2022-04-21T11:30:38Z</time>
      </trkpt>
      <trkpt lat="50.09483" lon="5.03366">
        <ele>203.1</ele>
        <time>2022-04-21T11:30:39Z</time>
      </trkpt>
      <trkpt lat="50.09484" lon="5.03366">
        <ele>203.1</ele>
        <time>2022-04-21T11:30:40Z</time>
      </trkpt>
      <trkpt lat="50.09484" lon="5.03366">
        <ele>203.1</ele>
        <time>2022-04-21T11:30:41Z</time>
      </trkpt>
      <trkpt lat="50.09484" lon="5.03366">
        <ele>203.1</ele>
        <time>2022-04-21T11:30:42Z</time>
      </trkpt>
      <trkpt lat="50.09485" lon="5.03365">
        <ele>203.1</ele>
        <time>2022-04-21T11:30:43Z</time>
      </trkpt>
      <trkpt lat="50.09485" lon="5.03365">
        <ele>203.1</ele>
        <time>2022-04-21T11:30:44Z</time>
      </trkpt>
      <trkpt lat="50.09485" lon="5.03365">
        <ele>203.1</ele>
        <time>2022-04-21T11:30:45Z</time>
      </trkpt>
      <trkpt lat="50.09486" lon="5.03364">
        <ele>203.1</ele>
        <time>2022-04-21T11:30:46Z</time>
      </trkpt>
      <trkpt lat="50.09487" lon="5.03364">
        <ele>203.1</ele>
        <time>2022-04-21T11:30:47Z</time>
      </trkpt>
      <trkpt lat="50.09489" lon="5.03364">
        <ele>203.2</ele>
        <time>2022-04-21T11:30:48Z</time>
      </trkpt>
      <trkpt lat="50.0949" lon="5.03365">
        <ele>203.2</ele>
        <time>2022-04-21T11:30:49Z</time>
      </trkpt>
      <trkpt lat="50.09492" lon="5.03364">
        <ele>203.2</ele>
        <time>2022-04-21T11:30:50Z</time>
      </trkpt>
      <trkpt lat="50.09493" lon="5.03364">
        <ele>203.3</ele>
        <time>2022-04-21T11:30:51Z</time>
      </trkpt>
      <trkpt lat="50.09495" lon="5.03363">
        <ele>203.3</ele>
        <time>2022-04-21T11:30:52Z</time>
      </trkpt>
      <trkpt lat="50.09497" lon="5.0336">
        <ele>203.3</ele>
        <time>2022-04-21T11:30:53Z</time>
      </trkpt>
      <trkpt lat="50.09498" lon="5.03359">
        <ele>203.4</ele>
        <time>2022-04-21T11:30:54Z</time>
      </trkpt>
      <trkpt lat="50.09499" lon="5.03358">
        <ele>203.4</ele>
        <time>2022-04-21T11:30:55Z</time>
      </trkpt>
      <trkpt lat="50.095" lon="5.03357">
        <ele>203.4</ele>
        <time>2022-04-21T11:30:56Z</time>
      </trkpt>
      <trkpt lat="50.09502" lon="5.03356">
        <ele>203.5</ele>
        <time>2022-04-21T11:30:57Z</time>
      </trkpt>
      <trkpt lat="50.09503" lon="5.03355">
        <ele>203.5</ele>
        <time>2022-04-21T11:30:58Z</time>
      </trkpt>
      <trkpt lat="50.09505" lon="5.03355">
        <ele>203.5</ele>
        <time>2022-04-21T11:30:59Z</time>
      </trkpt>
      <trkpt lat="50.09506" lon="5.03355">
        <ele>203.6</ele>
        <time>2022-04-21T11:31:00Z</time>
      </trkpt>
      <trkpt lat="50.09509" lon="5.03355">
        <ele>203.6</ele>
        <time>2022-04-21T11:31:02Z</time>
      </trkpt>
      <trkpt lat="50.0951" lon="5.03355">
        <ele>203.7</ele>
        <time>2022-04-21T11:31:03Z</time>
      </trkpt>
      <trkpt lat="50.09511" lon="5.03354">
        <ele>203.7</ele>
        <time>2022-04-21T11:31:04Z</time>
      </trkpt>
      <trkpt lat="50.09512" lon="5.03353">
        <ele>203.7</ele>
        <time>2022-04-21T11:31:05Z</time>
      </trkpt>
      <trkpt lat="50.09513" lon="5.03353">
        <ele>203.7</ele>
        <time>2022-04-21T11:31:06Z</time>
      </trkpt>
      <trkpt lat="50.09514" lon="5.03354">
        <ele>203.8</ele>
        <time>2022-04-21T11:31:07Z</time>
      </trkpt>
      <trkpt lat="50.09515" lon="5.03354">
        <ele>203.8</ele>
        <time>2022-04-21T11:31:08Z</time>
      </trkpt>
      <trkpt lat="50.09516" lon="5.03355">
        <ele>203.8</ele>
        <time>2022-04-21T11:31:09Z</time>
      </trkpt>
      <trkpt lat="50.09516" lon="5.03356">
        <ele>203.9</ele>
        <time>2022-04-21T11:31:10Z</time>
      </trkpt>
      <trkpt lat="50.0952" lon="5.03361">
        <ele>204</ele>
        <time>2022-04-21T11:31:11Z</time>
      </trkpt>
      <trkpt lat="50.09522" lon="5.03363">
        <ele>204.1</ele>
        <time>2022-04-21T11:31:12Z</time>
      </trkpt>
      <trkpt lat="50.09523" lon="5.03362">
        <ele>204.1</ele>
        <time>2022-04-21T11:31:13Z</time>
      </trkpt>
      <trkpt lat="50.09524" lon="5.03361">
        <ele>204.1</ele>
        <time>2022-04-21T11:31:14Z</time>
      </trkpt>
      <trkpt lat="50.09525" lon="5.0336">
        <ele>204.2</ele>
        <time>2022-04-21T11:31:16Z</time>
      </trkpt>
      <trkpt lat="50.09525" lon="5.03359">
        <ele>204.2</ele>
        <time>2022-04-21T11:31:17Z</time>
      </trkpt>
      <trkpt lat="50.09526" lon="5.03357">
        <ele>204.2</ele>
        <time>2022-04-21T11:31:18Z</time>
      </trkpt>
      <trkpt lat="50.09526" lon="5.03356">
        <ele>204.3</ele>
        <time>2022-04-21T11:31:19Z</time>
      </trkpt>
      <trkpt lat="50.09527" lon="5.03355">
        <ele>204.3</ele>
        <time>2022-04-21T11:31:20Z</time>
      </trkpt>
      <trkpt lat="50.09527" lon="5.03354">
        <ele>204.3</ele>
        <time>2022-04-21T11:31:21Z</time>
      </trkpt>
      <trkpt lat="50.09528" lon="5.03353">
        <ele>204.4</ele>
        <time>2022-04-21T11:31:22Z</time>
      </trkpt>
      <trkpt lat="50.0953" lon="5.03352">
        <ele>204.4</ele>
        <time>2022-04-21T11:31:24Z</time>
      </trkpt>
      <trkpt lat="50.09533" lon="5.03351">
        <ele>204.5</ele>
        <time>2022-04-21T11:31:26Z</time>
      </trkpt>
      <trkpt lat="50.09534" lon="5.0335">
        <ele>204.6</ele>
        <time>2022-04-21T11:31:27Z</time>
      </trkpt>
      <trkpt lat="50.09535" lon="5.0335">
        <ele>204.6</ele>
        <time>2022-04-21T11:31:28Z</time>
      </trkpt>
      <trkpt lat="50.09536" lon="5.0335">
        <ele>204.6</ele>
        <time>2022-04-21T11:31:29Z</time>
      </trkpt>
      <trkpt lat="50.09539" lon="5.0335">
        <ele>204.7</ele>
        <time>2022-04-21T11:31:30Z</time>
      </trkpt>
      <trkpt lat="50.09539" lon="5.0335">
        <ele>204.8</ele>
        <time>2022-04-21T11:31:31Z</time>
      </trkpt>
      <trkpt lat="50.0954" lon="5.0335">
        <ele>204.8</ele>
        <time>2022-04-21T11:31:32Z</time>
      </trkpt>
      <trkpt lat="50.09542" lon="5.03349">
        <ele>204.9</ele>
        <time>2022-04-21T11:31:33Z</time>
      </trkpt>
      <trkpt lat="50.09543" lon="5.03348">
        <ele>204.9</ele>
        <time>2022-04-21T11:31:34Z</time>
      </trkpt>
      <trkpt lat="50.09544" lon="5.03348">
        <ele>205</ele>
        <time>2022-04-21T11:31:35Z</time>
      </trkpt>
      <trkpt lat="50.09546" lon="5.03347">
        <ele>205</ele>
        <time>2022-04-21T11:31:36Z</time>
      </trkpt>
      <trkpt lat="50.09548" lon="5.03346">
        <ele>205.1</ele>
        <time>2022-04-21T11:31:37Z</time>
      </trkpt>
      <trkpt lat="50.09549" lon="5.03346">
        <ele>205.2</ele>
        <time>2022-04-21T11:31:38Z</time>
      </trkpt>
      <trkpt lat="50.09551" lon="5.03345">
        <ele>205.2</ele>
        <time>2022-04-21T11:31:40Z</time>
      </trkpt>
      <trkpt lat="50.09552" lon="5.03343">
        <ele>205.3</ele>
        <time>2022-04-21T11:31:41Z</time>
      </trkpt>
      <trkpt lat="50.09553" lon="5.03343">
        <ele>205.4</ele>
        <time>2022-04-21T11:31:42Z</time>
      </trkpt>
      <trkpt lat="50.09555" lon="5.03342">
        <ele>205.5</ele>
        <time>2022-04-21T11:31:43Z</time>
      </trkpt>
      <trkpt lat="50.09557" lon="5.03344">
        <ele>205.5</ele>
        <time>2022-04-21T11:31:44Z</time>
      </trkpt>
      <trkpt lat="50.09558" lon="5.03344">
        <ele>205.6</ele>
        <time>2022-04-21T11:31:45Z</time>
      </trkpt>
      <trkpt lat="50.09559" lon="5.03344">
        <ele>205.7</ele>
        <time>2022-04-21T11:31:46Z</time>
      </trkpt>
      <trkpt lat="50.09561" lon="5.03344">
        <ele>205.7</ele>
        <time>2022-04-21T11:31:47Z</time>
      </trkpt>
      <trkpt lat="50.09562" lon="5.03344">
        <ele>205.8</ele>
        <time>2022-04-21T11:31:48Z</time>
      </trkpt>
      <trkpt lat="50.09564" lon="5.03343">
        <ele>205.9</ele>
        <time>2022-04-21T11:31:49Z</time>
      </trkpt>
      <trkpt lat="50.09565" lon="5.03343">
        <ele>205.9</ele>
        <time>2022-04-21T11:31:50Z</time>
      </trkpt>
      <trkpt lat="50.09567" lon="5.03342">
        <ele>206</ele>
        <time>2022-04-21T11:31:52Z</time>
      </trkpt>
      <trkpt lat="50.09569" lon="5.03342">
        <ele>206.1</ele>
        <time>2022-04-21T11:31:53Z</time>
      </trkpt>
      <trkpt lat="50.09569" lon="5.03342">
        <ele>206.1</ele>
        <time>2022-04-21T11:31:54Z</time>
      </trkpt>
      <trkpt lat="50.0957" lon="5.03342">
        <ele>206.2</ele>
        <time>2022-04-21T11:31:55Z</time>
      </trkpt>
      <trkpt lat="50.09572" lon="5.03343">
        <ele>206.2</ele>
        <time>2022-04-21T11:31:56Z</time>
      </trkpt>
      <trkpt lat="50.09573" lon="5.03343">
        <ele>206.3</ele>
        <time>2022-04-21T11:31:57Z</time>
      </trkpt>
      <trkpt lat="50.09574" lon="5.03343">
        <ele>206.3</ele>
        <time>2022-04-21T11:31:58Z</time>
      </trkpt>
      <trkpt lat="50.09575" lon="5.03343">
        <ele>206.4</ele>
        <time>2022-04-21T11:31:59Z</time>
      </trkpt>
      <trkpt lat="50.09576" lon="5.03343">
        <ele>206.4</ele>
        <time>2022-04-21T11:32:00Z</time>
      </trkpt>
      <trkpt lat="50.09577" lon="5.03344">
        <ele>206.5</ele>
        <time>2022-04-21T11:32:01Z</time>
      </trkpt>
      <trkpt lat="50.09577" lon="5.03345">
        <ele>206.5</ele>
        <time>2022-04-21T11:32:02Z</time>
      </trkpt>
      <trkpt lat="50.09578" lon="5.03346">
        <ele>206.5</ele>
        <time>2022-04-21T11:32:03Z</time>
      </trkpt>
      <trkpt lat="50.09578" lon="5.03347">
        <ele>206.6</ele>
        <time>2022-04-21T11:32:04Z</time>
      </trkpt>
      <trkpt lat="50.09579" lon="5.03347">
        <ele>206.6</ele>
        <time>2022-04-21T11:32:05Z</time>
      </trkpt>
      <trkpt lat="50.0958" lon="5.03353">
        <ele>206.7</ele>
        <time>2022-04-21T11:32:06Z</time>
      </trkpt>
      <trkpt lat="50.09581" lon="5.03355">
        <ele>206.8</ele>
        <time>2022-04-21T11:32:07Z</time>
      </trkpt>
      <trkpt lat="50.09583" lon="5.03355">
        <ele>206.9</ele>
        <time>2022-04-21T11:32:08Z</time>
      </trkpt>
      <trkpt lat="50.09585" lon="5.03356">
        <ele>207</ele>
        <time>2022-04-21T11:32:09Z</time>
      </trkpt>
      <trkpt lat="50.09586" lon="5.03356">
        <ele>207.1</ele>
        <time>2022-04-21T11:32:10Z</time>
      </trkpt>
      <trkpt lat="50.0959" lon="5.03358">
        <ele>207.2</ele>
        <time>2022-04-21T11:32:11Z</time>
      </trkpt>
      <trkpt lat="50.0959" lon="5.03359">
        <ele>207.3</ele>
        <time>2022-04-21T11:32:12Z</time>
      </trkpt>
      <trkpt lat="50.09594" lon="5.03361">
        <ele>207.4</ele>
        <time>2022-04-21T11:32:13Z</time>
      </trkpt>
      <trkpt lat="50.09595" lon="5.03361">
        <ele>207.5</ele>
        <time>2022-04-21T11:32:14Z</time>
      </trkpt>
      <trkpt lat="50.09598" lon="5.03361">
        <ele>207.6</ele>
        <time>2022-04-21T11:32:15Z</time>
      </trkpt>
      <trkpt lat="50.096" lon="5.03361">
        <ele>207.7</ele>
        <time>2022-04-21T11:32:16Z</time>
      </trkpt>
      <trkpt lat="50.09602" lon="5.03356">
        <ele>207.8</ele>
        <time>2022-04-21T11:32:17Z</time>
      </trkpt>
      <trkpt lat="50.09602" lon="5.03355">
        <ele>207.9</ele>
        <time>2022-04-21T11:32:18Z</time>
      </trkpt>
      <trkpt lat="50.09603" lon="5.03352">
        <ele>208</ele>
        <time>2022-04-21T11:32:20Z</time>
      </trkpt>
      <trkpt lat="50.09604" lon="5.03348">
        <ele>208.1</ele>
        <time>2022-04-21T11:32:22Z</time>
      </trkpt>
      <trkpt lat="50.09604" lon="5.03346">
        <ele>208.2</ele>
        <time>2022-04-21T11:32:23Z</time>
      </trkpt>
      <trkpt lat="50.09605" lon="5.03346">
        <ele>208.2</ele>
        <time>2022-04-21T11:32:24Z</time>
      </trkpt>
      <trkpt lat="50.09605" lon="5.03346">
        <ele>208.2</ele>
        <time>2022-04-21T11:32:25Z</time>
      </trkpt>
      <trkpt lat="50.09606" lon="5.03345">
        <ele>208.3</ele>
        <time>2022-04-21T11:32:27Z</time>
      </trkpt>
      <trkpt lat="50.09607" lon="5.03345">
        <ele>208.3</ele>
        <time>2022-04-21T11:32:28Z</time>
      </trkpt>
      <trkpt lat="50.09608" lon="5.03346">
        <ele>208.3</ele>
        <time>2022-04-21T11:32:29Z</time>
      </trkpt>
      <trkpt lat="50.09609" lon="5.03346">
        <ele>208.4</ele>
        <time>2022-04-21T11:32:30Z</time>
      </trkpt>
      <trkpt lat="50.0961" lon="5.03347">
        <ele>208.4</ele>
        <time>2022-04-21T11:32:31Z</time>
      </trkpt>
      <trkpt lat="50.09611" lon="5.03347">
        <ele>208.5</ele>
        <time>2022-04-21T11:32:32Z</time>
      </trkpt>
      <trkpt lat="50.09612" lon="5.03346">
        <ele>208.6</ele>
        <time>2022-04-21T11:32:33Z</time>
      </trkpt>
      <trkpt lat="50.09615" lon="5.03346">
        <ele>208.7</ele>
        <time>2022-04-21T11:32:34Z</time>
      </trkpt>
      <trkpt lat="50.09615" lon="5.03346">
        <ele>208.7</ele>
        <time>2022-04-21T11:32:35Z</time>
      </trkpt>
      <trkpt lat="50.09616" lon="5.03345">
        <ele>208.8</ele>
        <time>2022-04-21T11:32:36Z</time>
      </trkpt>
      <trkpt lat="50.09618" lon="5.03345">
        <ele>208.8</ele>
        <time>2022-04-21T11:32:37Z</time>
      </trkpt>
      <trkpt lat="50.09619" lon="5.03344">
        <ele>208.9</ele>
        <time>2022-04-21T11:32:38Z</time>
      </trkpt>
      <trkpt lat="50.0962" lon="5.03343">
        <ele>209</ele>
        <time>2022-04-21T11:32:39Z</time>
      </trkpt>
      <trkpt lat="50.09621" lon="5.03343">
        <ele>209</ele>
        <time>2022-04-21T11:32:40Z</time>
      </trkpt>
      <trkpt lat="50.09622" lon="5.03342">
        <ele>209.1</ele>
        <time>2022-04-21T11:32:41Z</time>
      </trkpt>
      <trkpt lat="50.09623" lon="5.03342">
        <ele>209.1</ele>
        <time>2022-04-21T11:32:42Z</time>
      </trkpt>
      <trkpt lat="50.09624" lon="5.03342">
        <ele>209.2</ele>
        <time>2022-04-21T11:32:43Z</time>
      </trkpt>
      <trkpt lat="50.09625" lon="5.03342">
        <ele>209.2</ele>
        <time>2022-04-21T11:32:44Z</time>
      </trkpt>
      <trkpt lat="50.09626" lon="5.03341">
        <ele>209.3</ele>
        <time>2022-04-21T11:32:45Z</time>
      </trkpt>
      <trkpt lat="50.09626" lon="5.03341">
        <ele>209.3</ele>
        <time>2022-04-21T11:32:46Z</time>
      </trkpt>
      <trkpt lat="50.09626" lon="5.03341">
        <ele>209.3</ele>
        <time>2022-04-21T11:32:47Z</time>
      </trkpt>
      <trkpt lat="50.09626" lon="5.03341">
        <ele>209.3</ele>
        <time>2022-04-21T11:32:48Z</time>
      </trkpt>
      <trkpt lat="50.09626" lon="5.03341">
        <ele>209.3</ele>
        <time>2022-04-21T11:32:49Z</time>
      </trkpt>
      <trkpt lat="50.09626" lon="5.03341">
        <ele>209.3</ele>
        <time>2022-04-21T11:32:50Z</time>
      </trkpt>
      <trkpt lat="50.09626" lon="5.03341">
        <ele>209.4</ele>
        <time>2022-04-21T11:32:51Z</time>
      </trkpt>
      <trkpt lat="50.09625" lon="5.03341">
        <ele>209.4</ele>
        <time>2022-04-21T11:32:52Z</time>
      </trkpt>
      <trkpt lat="50.09625" lon="5.03341">
        <ele>209.4</ele>
        <time>2022-04-21T11:32:53Z</time>
      </trkpt>
      <trkpt lat="50.09626" lon="5.03342">
        <ele>209.4</ele>
        <time>2022-04-21T11:32:54Z</time>
      </trkpt>
      <trkpt lat="50.09627" lon="5.03342">
        <ele>209.5</ele>
        <time>2022-04-21T11:32:55Z</time>
      </trkpt>
      <trkpt lat="50.09628" lon="5.03342">
        <ele>209.5</ele>
        <time>2022-04-21T11:32:56Z</time>
      </trkpt>
      <trkpt lat="50.09631" lon="5.03343">
        <ele>209.7</ele>
        <time>2022-04-21T11:32:57Z</time>
      </trkpt>
      <trkpt lat="50.09632" lon="5.03343">
        <ele>209.7</ele>
        <time>2022-04-21T11:32:58Z</time>
      </trkpt>
      <trkpt lat="50.09635" lon="5.03343">
        <ele>209.9</ele>
        <time>2022-04-21T11:33:00Z</time>
      </trkpt>
      <trkpt lat="50.09637" lon="5.03343">
        <ele>210</ele>
        <time>2022-04-21T11:33:01Z</time>
      </trkpt>
      <trkpt lat="50.09638" lon="5.03343">
        <ele>210</ele>
        <time>2022-04-21T11:33:02Z</time>
      </trkpt>
      <trkpt lat="50.0964" lon="5.03342">
        <ele>210.1</ele>
        <time>2022-04-21T11:33:03Z</time>
      </trkpt>
      <trkpt lat="50.09641" lon="5.03341">
        <ele>210.2</ele>
        <time>2022-04-21T11:33:04Z</time>
      </trkpt>
      <trkpt lat="50.09643" lon="5.03341">
        <ele>210.3</ele>
        <time>2022-04-21T11:33:05Z</time>
      </trkpt>
      <trkpt lat="50.09644" lon="5.0334">
        <ele>210.3</ele>
        <time>2022-04-21T11:33:06Z</time>
      </trkpt>
      <trkpt lat="50.09645" lon="5.0334">
        <ele>210.4</ele>
        <time>2022-04-21T11:33:07Z</time>
      </trkpt>
      <trkpt lat="50.09647" lon="5.0334">
        <ele>210.5</ele>
        <time>2022-04-21T11:33:08Z</time>
      </trkpt>
      <trkpt lat="50.09649" lon="5.0334">
        <ele>210.6</ele>
        <time>2022-04-21T11:33:10Z</time>
      </trkpt>
      <trkpt lat="50.09651" lon="5.03339">
        <ele>210.7</ele>
        <time>2022-04-21T11:33:11Z</time>
      </trkpt>
      <trkpt lat="50.09652" lon="5.03339">
        <ele>210.8</ele>
        <time>2022-04-21T11:33:12Z</time>
      </trkpt>
      <trkpt lat="50.09655" lon="5.03337">
        <ele>210.9</ele>
        <time>2022-04-21T11:33:13Z</time>
      </trkpt>
      <trkpt lat="50.09656" lon="5.03337">
        <ele>210.9</ele>
        <time>2022-04-21T11:33:14Z</time>
      </trkpt>
      <trkpt lat="50.09658" lon="5.03337">
        <ele>211</ele>
        <time>2022-04-21T11:33:15Z</time>
      </trkpt>
      <trkpt lat="50.09659" lon="5.03337">
        <ele>211.1</ele>
        <time>2022-04-21T11:33:16Z</time>
      </trkpt>
      <trkpt lat="50.0966" lon="5.03337">
        <ele>211.1</ele>
        <time>2022-04-21T11:33:18Z</time>
      </trkpt>
      <trkpt lat="50.09661" lon="5.03337">
        <ele>211.2</ele>
        <time>2022-04-21T11:33:19Z</time>
      </trkpt>
      <trkpt lat="50.09662" lon="5.03337">
        <ele>211.2</ele>
        <time>2022-04-21T11:33:20Z</time>
      </trkpt>
      <trkpt lat="50.09663" lon="5.03338">
        <ele>211.3</ele>
        <time>2022-04-21T11:33:21Z</time>
      </trkpt>
      <trkpt lat="50.09664" lon="5.03338">
        <ele>211.3</ele>
        <time>2022-04-21T11:33:22Z</time>
      </trkpt>
      <trkpt lat="50.09665" lon="5.03338">
        <ele>211.4</ele>
        <time>2022-04-21T11:33:23Z</time>
      </trkpt>
      <trkpt lat="50.09666" lon="5.03338">
        <ele>211.5</ele>
        <time>2022-04-21T11:33:24Z</time>
      </trkpt>
      <trkpt lat="50.09669" lon="5.03339">
        <ele>211.6</ele>
        <time>2022-04-21T11:33:25Z</time>
      </trkpt>
      <trkpt lat="50.09669" lon="5.03339">
        <ele>211.6</ele>
        <time>2022-04-21T11:33:26Z</time>
      </trkpt>
      <trkpt lat="50.0967" lon="5.03339">
        <ele>211.7</ele>
        <time>2022-04-21T11:33:27Z</time>
      </trkpt>
      <trkpt lat="50.09671" lon="5.03339">
        <ele>211.7</ele>
        <time>2022-04-21T11:33:28Z</time>
      </trkpt>
      <trkpt lat="50.09674" lon="5.0334">
        <ele>211.8</ele>
        <time>2022-04-21T11:33:30Z</time>
      </trkpt>
      <trkpt lat="50.09675" lon="5.0334">
        <ele>211.9</ele>
        <time>2022-04-21T11:33:31Z</time>
      </trkpt>
      <trkpt lat="50.09676" lon="5.03341">
        <ele>212</ele>
        <time>2022-04-21T11:33:32Z</time>
      </trkpt>
      <trkpt lat="50.09677" lon="5.03341">
        <ele>212</ele>
        <time>2022-04-21T11:33:33Z</time>
      </trkpt>
      <trkpt lat="50.09678" lon="5.03341">
        <ele>212.1</ele>
        <time>2022-04-21T11:33:34Z</time>
      </trkpt>
      <trkpt lat="50.0968" lon="5.03341">
        <ele>212.2</ele>
        <time>2022-04-21T11:33:35Z</time>
      </trkpt>
      <trkpt lat="50.09681" lon="5.0334">
        <ele>212.3</ele>
        <time>2022-04-21T11:33:36Z</time>
      </trkpt>
      <trkpt lat="50.09682" lon="5.0334">
        <ele>212.3</ele>
        <time>2022-04-21T11:33:37Z</time>
      </trkpt>
      <trkpt lat="50.09684" lon="5.0334">
        <ele>212.4</ele>
        <time>2022-04-21T11:33:38Z</time>
      </trkpt>
      <trkpt lat="50.09685" lon="5.0334">
        <ele>212.4</ele>
        <time>2022-04-21T11:33:39Z</time>
      </trkpt>
      <trkpt lat="50.09686" lon="5.03339">
        <ele>212.5</ele>
        <time>2022-04-21T11:33:40Z</time>
      </trkpt>
      <trkpt lat="50.09687" lon="5.03339">
        <ele>212.6</ele>
        <time>2022-04-21T11:33:41Z</time>
      </trkpt>
      <trkpt lat="50.09688" lon="5.03339">
        <ele>212.6</ele>
        <time>2022-04-21T11:33:42Z</time>
      </trkpt>
      <trkpt lat="50.09689" lon="5.03339">
        <ele>212.7</ele>
        <time>2022-04-21T11:33:43Z</time>
      </trkpt>
      <trkpt lat="50.09691" lon="5.03339">
        <ele>212.8</ele>
        <time>2022-04-21T11:33:44Z</time>
      </trkpt>
      <trkpt lat="50.09692" lon="5.03338">
        <ele>212.8</ele>
        <time>2022-04-21T11:33:45Z</time>
      </trkpt>
      <trkpt lat="50.09693" lon="5.03338">
        <ele>212.9</ele>
        <time>2022-04-21T11:33:46Z</time>
      </trkpt>
      <trkpt lat="50.09695" lon="5.03338">
        <ele>213</ele>
        <time>2022-04-21T11:33:47Z</time>
      </trkpt>
      <trkpt lat="50.09696" lon="5.03338">
        <ele>213.1</ele>
        <time>2022-04-21T11:33:48Z</time>
      </trkpt>
      <trkpt lat="50.097" lon="5.03338">
        <ele>213.3</ele>
        <time>2022-04-21T11:33:50Z</time>
      </trkpt>
      <trkpt lat="50.09701" lon="5.03338">
        <ele>213.4</ele>
        <time>2022-04-21T11:33:51Z</time>
      </trkpt>
      <trkpt lat="50.09702" lon="5.03339">
        <ele>213.4</ele>
        <time>2022-04-21T11:33:52Z</time>
      </trkpt>
      <trkpt lat="50.09703" lon="5.03339">
        <ele>213.5</ele>
        <time>2022-04-21T11:33:53Z</time>
      </trkpt>
      <trkpt lat="50.09705" lon="5.03338">
        <ele>213.6</ele>
        <time>2022-04-21T11:33:54Z</time>
      </trkpt>
      <trkpt lat="50.09706" lon="5.03338">
        <ele>213.6</ele>
        <time>2022-04-21T11:33:55Z</time>
      </trkpt>
      <trkpt lat="50.09707" lon="5.03338">
        <ele>213.7</ele>
        <time>2022-04-21T11:33:56Z</time>
      </trkpt>
      <trkpt lat="50.09708" lon="5.03338">
        <ele>213.7</ele>
        <time>2022-04-21T11:33:58Z</time>
      </trkpt>
      <trkpt lat="50.09709" lon="5.03339">
        <ele>213.8</ele>
        <time>2022-04-21T11:33:59Z</time>
      </trkpt>
      <trkpt lat="50.09711" lon="5.0334">
        <ele>213.9</ele>
        <time>2022-04-21T11:34:00Z</time>
      </trkpt>
      <trkpt lat="50.09712" lon="5.0334">
        <ele>213.9</ele>
        <time>2022-04-21T11:34:01Z</time>
      </trkpt>
      <trkpt lat="50.09713" lon="5.03339">
        <ele>214</ele>
        <time>2022-04-21T11:34:02Z</time>
      </trkpt>
      <trkpt lat="50.09715" lon="5.03339">
        <ele>214.1</ele>
        <time>2022-04-21T11:34:03Z</time>
      </trkpt>
      <trkpt lat="50.09716" lon="5.03338">
        <ele>214.1</ele>
        <time>2022-04-21T11:34:04Z</time>
      </trkpt>
      <trkpt lat="50.09717" lon="5.03338">
        <ele>214.2</ele>
        <time>2022-04-21T11:34:05Z</time>
      </trkpt>
      <trkpt lat="50.09718" lon="5.03338">
        <ele>214.2</ele>
        <time>2022-04-21T11:34:06Z</time>
      </trkpt>
      <trkpt lat="50.0972" lon="5.03339">
        <ele>214.3</ele>
        <time>2022-04-21T11:34:07Z</time>
      </trkpt>
      <trkpt lat="50.09721" lon="5.03339">
        <ele>214.4</ele>
        <time>2022-04-21T11:34:08Z</time>
      </trkpt>
      <trkpt lat="50.09724" lon="5.0334">
        <ele>214.5</ele>
        <time>2022-04-21T11:34:10Z</time>
      </trkpt>
      <trkpt lat="50.09726" lon="5.03339">
        <ele>214.5</ele>
        <time>2022-04-21T11:34:11Z</time>
      </trkpt>
      <trkpt lat="50.09727" lon="5.03339">
        <ele>214.6</ele>
        <time>2022-04-21T11:34:12Z</time>
      </trkpt>
      <trkpt lat="50.09728" lon="5.03339">
        <ele>214.6</ele>
        <time>2022-04-21T11:34:13Z</time>
      </trkpt>
      <trkpt lat="50.09729" lon="5.0334">
        <ele>214.7</ele>
        <time>2022-04-21T11:34:14Z</time>
      </trkpt>
      <trkpt lat="50.09731" lon="5.03342">
        <ele>214.7</ele>
        <time>2022-04-21T11:34:15Z</time>
      </trkpt>
      <trkpt lat="50.09733" lon="5.03343">
        <ele>214.8</ele>
        <time>2022-04-21T11:34:16Z</time>
      </trkpt>
      <trkpt lat="50.09734" lon="5.03343">
        <ele>214.8</ele>
        <time>2022-04-21T11:34:17Z</time>
      </trkpt>
      <trkpt lat="50.09735" lon="5.03343">
        <ele>214.8</ele>
        <time>2022-04-21T11:34:18Z</time>
      </trkpt>
      <trkpt lat="50.09736" lon="5.03344">
        <ele>214.9</ele>
        <time>2022-04-21T11:34:19Z</time>
      </trkpt>
      <trkpt lat="50.09737" lon="5.03345">
        <ele>214.9</ele>
        <time>2022-04-21T11:34:20Z</time>
      </trkpt>
      <trkpt lat="50.09738" lon="5.03345">
        <ele>214.9</ele>
        <time>2022-04-21T11:34:21Z</time>
      </trkpt>
      <trkpt lat="50.0974" lon="5.03346">
        <ele>215</ele>
        <time>2022-04-21T11:34:22Z</time>
      </trkpt>
      <trkpt lat="50.09742" lon="5.03347">
        <ele>215</ele>
        <time>2022-04-21T11:34:24Z</time>
      </trkpt>
      <trkpt lat="50.09743" lon="5.03347">
        <ele>215.1</ele>
        <time>2022-04-21T11:34:25Z</time>
      </trkpt>
      <trkpt lat="50.09745" lon="5.03347">
        <ele>215.1</ele>
        <time>2022-04-21T11:34:26Z</time>
      </trkpt>
      <trkpt lat="50.09746" lon="5.03347">
        <ele>215.1</ele>
        <time>2022-04-21T11:34:27Z</time>
      </trkpt>
      <trkpt lat="50.09747" lon="5.03347">
        <ele>215.2</ele>
        <time>2022-04-21T11:34:28Z</time>
      </trkpt>
      <trkpt lat="50.09749" lon="5.03347">
        <ele>215.2</ele>
        <time>2022-04-21T11:34:29Z</time>
      </trkpt>
      <trkpt lat="50.09751" lon="5.03347">
        <ele>215.2</ele>
        <time>2022-04-21T11:34:30Z</time>
      </trkpt>
      <trkpt lat="50.09753" lon="5.03348">
        <ele>215.2</ele>
        <time>2022-04-21T11:34:31Z</time>
      </trkpt>
      <trkpt lat="50.09753" lon="5.03348">
        <ele>215.3</ele>
        <time>2022-04-21T11:34:32Z</time>
      </trkpt>
      <trkpt lat="50.09754" lon="5.03348">
        <ele>215.3</ele>
        <time>2022-04-21T11:34:33Z</time>
      </trkpt>
      <trkpt lat="50.09756" lon="5.03349">
        <ele>215.3</ele>
        <time>2022-04-21T11:34:34Z</time>
      </trkpt>
      <trkpt lat="50.09757" lon="5.03349">
        <ele>215.3</ele>
        <time>2022-04-21T11:34:35Z</time>
      </trkpt>
      <trkpt lat="50.09758" lon="5.03348">
        <ele>215.3</ele>
        <time>2022-04-21T11:34:36Z</time>
      </trkpt>
      <trkpt lat="50.09759" lon="5.03348">
        <ele>215.3</ele>
        <time>2022-04-21T11:34:38Z</time>
      </trkpt>
      <trkpt lat="50.0976" lon="5.03349">
        <ele>215.4</ele>
        <time>2022-04-21T11:34:39Z</time>
      </trkpt>
      <trkpt lat="50.09761" lon="5.03352">
        <ele>215.4</ele>
        <time>2022-04-21T11:34:40Z</time>
      </trkpt>
      <trkpt lat="50.09762" lon="5.03353">
        <ele>215.4</ele>
        <time>2022-04-21T11:34:41Z</time>
      </trkpt>
      <trkpt lat="50.09762" lon="5.03354">
        <ele>215.4</ele>
        <time>2022-04-21T11:34:42Z</time>
      </trkpt>
      <trkpt lat="50.09762" lon="5.03355">
        <ele>215.4</ele>
        <time>2022-04-21T11:34:43Z</time>
      </trkpt>
      <trkpt lat="50.09761" lon="5.03365">
        <ele>215.6</ele>
        <time>2022-04-21T11:34:44Z</time>
      </trkpt>
      <trkpt lat="50.09762" lon="5.03367">
        <ele>215.6</ele>
        <time>2022-04-21T11:34:45Z</time>
      </trkpt>
      <trkpt lat="50.09765" lon="5.03365">
        <ele>215.7</ele>
        <time>2022-04-21T11:34:47Z</time>
      </trkpt>
      <trkpt lat="50.09767" lon="5.03363">
        <ele>215.7</ele>
        <time>2022-04-21T11:34:48Z</time>
      </trkpt>
      <trkpt lat="50.09768" lon="5.03362">
        <ele>215.7</ele>
        <time>2022-04-21T11:34:49Z</time>
      </trkpt>
      <trkpt lat="50.09769" lon="5.0336">
        <ele>215.8</ele>
        <time>2022-04-21T11:34:50Z</time>
      </trkpt>
      <trkpt lat="50.0977" lon="5.03359">
        <ele>215.8</ele>
        <time>2022-04-21T11:34:51Z</time>
      </trkpt>
      <trkpt lat="50.09771" lon="5.03357">
        <ele>215.8</ele>
        <time>2022-04-21T11:34:52Z</time>
      </trkpt>
      <trkpt lat="50.09772" lon="5.03356">
        <ele>215.9</ele>
        <time>2022-04-21T11:34:53Z</time>
      </trkpt>
      <trkpt lat="50.09773" lon="5.03355">
        <ele>215.9</ele>
        <time>2022-04-21T11:34:54Z</time>
      </trkpt>
      <trkpt lat="50.09775" lon="5.03353">
        <ele>215.9</ele>
        <time>2022-04-21T11:34:55Z</time>
      </trkpt>
      <trkpt lat="50.09776" lon="5.03352">
        <ele>216</ele>
        <time>2022-04-21T11:34:56Z</time>
      </trkpt>
      <trkpt lat="50.09777" lon="5.03351">
        <ele>216</ele>
        <time>2022-04-21T11:34:57Z</time>
      </trkpt>
      <trkpt lat="50.09778" lon="5.0335">
        <ele>216</ele>
        <time>2022-04-21T11:34:58Z</time>
      </trkpt>
      <trkpt lat="50.0978" lon="5.03348">
        <ele>216.1</ele>
        <time>2022-04-21T11:34:59Z</time>
      </trkpt>
      <trkpt lat="50.09781" lon="5.03347">
        <ele>216.1</ele>
        <time>2022-04-21T11:35:00Z</time>
      </trkpt>
      <trkpt lat="50.09782" lon="5.03346">
        <ele>216.2</ele>
        <time>2022-04-21T11:35:01Z</time>
      </trkpt>
      <trkpt lat="50.09784" lon="5.03345">
        <ele>216.2</ele>
        <time>2022-04-21T11:35:03Z</time>
      </trkpt>
      <trkpt lat="50.09785" lon="5.03344">
        <ele>216.3</ele>
        <time>2022-04-21T11:35:04Z</time>
      </trkpt>
      <trkpt lat="50.09787" lon="5.03343">
        <ele>216.3</ele>
        <time>2022-04-21T11:35:05Z</time>
      </trkpt>
      <trkpt lat="50.09789" lon="5.03343">
        <ele>216.4</ele>
        <time>2022-04-21T11:35:06Z</time>
      </trkpt>
      <trkpt lat="50.0979" lon="5.03343">
        <ele>216.4</ele>
        <time>2022-04-21T11:35:07Z</time>
      </trkpt>
      <trkpt lat="50.09791" lon="5.03342">
        <ele>216.5</ele>
        <time>2022-04-21T11:35:08Z</time>
      </trkpt>
      <trkpt lat="50.09792" lon="5.03342">
        <ele>216.5</ele>
        <time>2022-04-21T11:35:09Z</time>
      </trkpt>
      <trkpt lat="50.09794" lon="5.03341">
        <ele>216.6</ele>
        <time>2022-04-21T11:35:10Z</time>
      </trkpt>
      <trkpt lat="50.09795" lon="5.03341">
        <ele>216.6</ele>
        <time>2022-04-21T11:35:11Z</time>
      </trkpt>
      <trkpt lat="50.09796" lon="5.03339">
        <ele>216.7</ele>
        <time>2022-04-21T11:35:12Z</time>
      </trkpt>
      <trkpt lat="50.09798" lon="5.03338">
        <ele>216.8</ele>
        <time>2022-04-21T11:35:13Z</time>
      </trkpt>
      <trkpt lat="50.09799" lon="5.03336">
        <ele>216.8</ele>
        <time>2022-04-21T11:35:14Z</time>
      </trkpt>
      <trkpt lat="50.098" lon="5.03334">
        <ele>216.9</ele>
        <time>2022-04-21T11:35:15Z</time>
      </trkpt>
      <trkpt lat="50.09801" lon="5.03332">
        <ele>216.9</ele>
        <time>2022-04-21T11:35:16Z</time>
      </trkpt>
      <trkpt lat="50.09802" lon="5.03331">
        <ele>217</ele>
        <time>2022-04-21T11:35:17Z</time>
      </trkpt>
      <trkpt lat="50.09802" lon="5.0333">
        <ele>217</ele>
        <time>2022-04-21T11:35:18Z</time>
      </trkpt>
      <trkpt lat="50.09803" lon="5.03329">
        <ele>217.1</ele>
        <time>2022-04-21T11:35:19Z</time>
      </trkpt>
      <trkpt lat="50.09804" lon="5.03328">
        <ele>217.1</ele>
        <time>2022-04-21T11:35:21Z</time>
      </trkpt>
      <trkpt lat="50.09804" lon="5.03328">
        <ele>217.2</ele>
        <time>2022-04-21T11:35:22Z</time>
      </trkpt>
      <trkpt lat="50.09805" lon="5.03329">
        <ele>217.2</ele>
        <time>2022-04-21T11:35:23Z</time>
      </trkpt>
      <trkpt lat="50.09806" lon="5.03329">
        <ele>217.2</ele>
        <time>2022-04-21T11:35:24Z</time>
      </trkpt>
      <trkpt lat="50.09808" lon="5.03329">
        <ele>217.3</ele>
        <time>2022-04-21T11:35:25Z</time>
      </trkpt>
      <trkpt lat="50.09809" lon="5.03329">
        <ele>217.4</ele>
        <time>2022-04-21T11:35:26Z</time>
      </trkpt>
      <trkpt lat="50.0981" lon="5.03329">
        <ele>217.4</ele>
        <time>2022-04-21T11:35:27Z</time>
      </trkpt>
      <trkpt lat="50.09812" lon="5.03329">
        <ele>217.5</ele>
        <time>2022-04-21T11:35:29Z</time>
      </trkpt>
      <trkpt lat="50.09813" lon="5.03329">
        <ele>217.6</ele>
        <time>2022-04-21T11:35:30Z</time>
      </trkpt>
      <trkpt lat="50.09816" lon="5.03329">
        <ele>217.7</ele>
        <time>2022-04-21T11:35:31Z</time>
      </trkpt>
      <trkpt lat="50.09817" lon="5.03329">
        <ele>217.7</ele>
        <time>2022-04-21T11:35:32Z</time>
      </trkpt>
      <trkpt lat="50.0982" lon="5.03328">
        <ele>217.9</ele>
        <time>2022-04-21T11:35:33Z</time>
      </trkpt>
      <trkpt lat="50.09822" lon="5.03329">
        <ele>217.9</ele>
        <time>2022-04-21T11:35:34Z</time>
      </trkpt>
      <trkpt lat="50.09823" lon="5.03328">
        <ele>218</ele>
        <time>2022-04-21T11:35:35Z</time>
      </trkpt>
      <trkpt lat="50.09825" lon="5.03327">
        <ele>218.1</ele>
        <time>2022-04-21T11:35:36Z</time>
      </trkpt>
      <trkpt lat="50.09826" lon="5.03326">
        <ele>218.2</ele>
        <time>2022-04-21T11:35:37Z</time>
      </trkpt>
      <trkpt lat="50.09827" lon="5.03324">
        <ele>218.3</ele>
        <time>2022-04-21T11:35:38Z</time>
      </trkpt>
      <trkpt lat="50.09828" lon="5.03323">
        <ele>218.3</ele>
        <time>2022-04-21T11:35:39Z</time>
      </trkpt>
      <trkpt lat="50.09829" lon="5.03323">
        <ele>218.4</ele>
        <time>2022-04-21T11:35:40Z</time>
      </trkpt>
      <trkpt lat="50.0983" lon="5.03322">
        <ele>218.4</ele>
        <time>2022-04-21T11:35:41Z</time>
      </trkpt>
      <trkpt lat="50.09831" lon="5.03321">
        <ele>218.5</ele>
        <time>2022-04-21T11:35:43Z</time>
      </trkpt>
      <trkpt lat="50.09832" lon="5.03321">
        <ele>218.5</ele>
        <time>2022-04-21T11:35:44Z</time>
      </trkpt>
      <trkpt lat="50.09833" lon="5.03321">
        <ele>218.6</ele>
        <time>2022-04-21T11:35:45Z</time>
      </trkpt>
      <trkpt lat="50.09834" lon="5.03321">
        <ele>218.6</ele>
        <time>2022-04-21T11:35:46Z</time>
      </trkpt>
      <trkpt lat="50.09837" lon="5.03322">
        <ele>218.8</ele>
        <time>2022-04-21T11:35:48Z</time>
      </trkpt>
      <trkpt lat="50.09839" lon="5.03323">
        <ele>218.9</ele>
        <time>2022-04-21T11:35:49Z</time>
      </trkpt>
      <trkpt lat="50.0984" lon="5.03323">
        <ele>218.9</ele>
        <time>2022-04-21T11:35:50Z</time>
      </trkpt>
      <trkpt lat="50.09841" lon="5.03323">
        <ele>219</ele>
        <time>2022-04-21T11:35:51Z</time>
      </trkpt>
      <trkpt lat="50.09843" lon="5.03323">
        <ele>219.1</ele>
        <time>2022-04-21T11:35:52Z</time>
      </trkpt>
      <trkpt lat="50.09844" lon="5.03323">
        <ele>219.1</ele>
        <time>2022-04-21T11:35:53Z</time>
      </trkpt>
      <trkpt lat="50.09846" lon="5.03323">
        <ele>219.2</ele>
        <time>2022-04-21T11:35:54Z</time>
      </trkpt>
      <trkpt lat="50.09847" lon="5.03323">
        <ele>219.3</ele>
        <time>2022-04-21T11:35:55Z</time>
      </trkpt>
      <trkpt lat="50.09848" lon="5.03323">
        <ele>219.3</ele>
        <time>2022-04-21T11:35:56Z</time>
      </trkpt>
      <trkpt lat="50.0985" lon="5.03323">
        <ele>219.5</ele>
        <time>2022-04-21T11:35:57Z</time>
      </trkpt>
      <trkpt lat="50.09851" lon="5.03323">
        <ele>219.5</ele>
        <time>2022-04-21T11:35:58Z</time>
      </trkpt>
      <trkpt lat="50.09853" lon="5.03322">
        <ele>219.6</ele>
        <time>2022-04-21T11:36:00Z</time>
      </trkpt>
      <trkpt lat="50.09854" lon="5.03321">
        <ele>219.6</ele>
        <time>2022-04-21T11:36:01Z</time>
      </trkpt>
      <trkpt lat="50.09855" lon="5.03322">
        <ele>219.7</ele>
        <time>2022-04-21T11:36:02Z</time>
      </trkpt>
      <trkpt lat="50.09856" lon="5.03321">
        <ele>219.7</ele>
        <time>2022-04-21T11:36:03Z</time>
      </trkpt>
      <trkpt lat="50.09856" lon="5.03319">
        <ele>219.8</ele>
        <time>2022-04-21T11:36:04Z</time>
      </trkpt>
      <trkpt lat="50.09856" lon="5.03318">
        <ele>219.9</ele>
        <time>2022-04-21T11:36:05Z</time>
      </trkpt>
      <trkpt lat="50.09856" lon="5.03316">
        <ele>219.9</ele>
        <time>2022-04-21T11:36:06Z</time>
      </trkpt>
      <trkpt lat="50.09858" lon="5.03315">
        <ele>220</ele>
        <time>2022-04-21T11:36:08Z</time>
      </trkpt>
      <trkpt lat="50.09859" lon="5.03315">
        <ele>220.1</ele>
        <time>2022-04-21T11:36:09Z</time>
      </trkpt>
      <trkpt lat="50.0986" lon="5.03315">
        <ele>220.1</ele>
        <time>2022-04-21T11:36:10Z</time>
      </trkpt>
      <trkpt lat="50.09861" lon="5.03314">
        <ele>220.2</ele>
        <time>2022-04-21T11:36:12Z</time>
      </trkpt>
      <trkpt lat="50.09863" lon="5.03313">
        <ele>220.3</ele>
        <time>2022-04-21T11:36:13Z</time>
      </trkpt>
      <trkpt lat="50.09864" lon="5.03313">
        <ele>220.3</ele>
        <time>2022-04-21T11:36:14Z</time>
      </trkpt>
      <trkpt lat="50.09865" lon="5.03312">
        <ele>220.4</ele>
        <time>2022-04-21T11:36:15Z</time>
      </trkpt>
      <trkpt lat="50.09866" lon="5.03312">
        <ele>220.4</ele>
        <time>2022-04-21T11:36:16Z</time>
      </trkpt>
      <trkpt lat="50.09867" lon="5.03312">
        <ele>220.5</ele>
        <time>2022-04-21T11:36:17Z</time>
      </trkpt>
      <trkpt lat="50.09869" lon="5.03313">
        <ele>220.6</ele>
        <time>2022-04-21T11:36:18Z</time>
      </trkpt>
      <trkpt lat="50.0987" lon="5.03313">
        <ele>220.7</ele>
        <time>2022-04-21T11:36:19Z</time>
      </trkpt>
      <trkpt lat="50.09871" lon="5.03314">
        <ele>220.7</ele>
        <time>2022-04-21T11:36:20Z</time>
      </trkpt>
      <trkpt lat="50.09872" lon="5.03314">
        <ele>221</ele>
        <time>2022-04-21T11:36:21Z</time>
      </trkpt>
      <trkpt lat="50.09874" lon="5.03315">
        <ele>221.1</ele>
        <time>2022-04-21T11:36:23Z</time>
      </trkpt>
      <trkpt lat="50.09874" lon="5.03315">
        <ele>221.1</ele>
        <time>2022-04-21T11:36:24Z</time>
      </trkpt>
      <trkpt lat="50.09874" lon="5.03314">
        <ele>221.2</ele>
        <time>2022-04-21T11:36:25Z</time>
      </trkpt>
      <trkpt lat="50.09874" lon="5.03314">
        <ele>221.2</ele>
        <time>2022-04-21T11:36:26Z</time>
      </trkpt>
      <trkpt lat="50.09875" lon="5.03314">
        <ele>221.2</ele>
        <time>2022-04-21T11:36:27Z</time>
      </trkpt>
      <trkpt lat="50.09875" lon="5.03313">
        <ele>221.3</ele>
        <time>2022-04-21T11:36:28Z</time>
      </trkpt>
      <trkpt lat="50.09875" lon="5.03313">
        <ele>221.3</ele>
        <time>2022-04-21T11:36:29Z</time>
      </trkpt>
      <trkpt lat="50.09875" lon="5.03313">
        <ele>221.3</ele>
        <time>2022-04-21T11:36:30Z</time>
      </trkpt>
      <trkpt lat="50.09876" lon="5.03312">
        <ele>221.4</ele>
        <time>2022-04-21T11:36:31Z</time>
      </trkpt>
      <trkpt lat="50.09876" lon="5.03312">
        <ele>221.4</ele>
        <time>2022-04-21T11:36:32Z</time>
      </trkpt>
      <trkpt lat="50.09878" lon="5.03309">
        <ele>221.7</ele>
        <time>2022-04-21T11:36:33Z</time>
      </trkpt>
      <trkpt lat="50.09879" lon="5.03308">
        <ele>221.8</ele>
        <time>2022-04-21T11:36:34Z</time>
      </trkpt>
      <trkpt lat="50.0988" lon="5.03306">
        <ele>222</ele>
        <time>2022-04-21T11:36:35Z</time>
      </trkpt>
      <trkpt lat="50.09882" lon="5.03303">
        <ele>222.2</ele>
        <time>2022-04-21T11:36:37Z</time>
      </trkpt>
      <trkpt lat="50.09882" lon="5.03299">
        <ele>222.5</ele>
        <time>2022-04-21T11:36:38Z</time>
      </trkpt>
      <trkpt lat="50.09883" lon="5.03296">
        <ele>222.7</ele>
        <time>2022-04-21T11:36:40Z</time>
      </trkpt>
      <trkpt lat="50.09883" lon="5.03294">
        <ele>222.9</ele>
        <time>2022-04-21T11:36:41Z</time>
      </trkpt>
      <trkpt lat="50.09885" lon="5.0329">
        <ele>223.1</ele>
        <time>2022-04-21T11:36:43Z</time>
      </trkpt>
      <trkpt lat="50.09886" lon="5.03289">
        <ele>223.3</ele>
        <time>2022-04-21T11:36:44Z</time>
      </trkpt>
      <trkpt lat="50.09886" lon="5.03288">
        <ele>223.4</ele>
        <time>2022-04-21T11:36:45Z</time>
      </trkpt>
      <trkpt lat="50.09887" lon="5.03288">
        <ele>223.5</ele>
        <time>2022-04-21T11:36:46Z</time>
      </trkpt>
      <trkpt lat="50.09888" lon="5.03286">
        <ele>223.6</ele>
        <time>2022-04-21T11:36:48Z</time>
      </trkpt>
      <trkpt lat="50.09889" lon="5.03285">
        <ele>223.7</ele>
        <time>2022-04-21T11:36:49Z</time>
      </trkpt>
      <trkpt lat="50.09889" lon="5.03284">
        <ele>223.8</ele>
        <time>2022-04-21T11:36:50Z</time>
      </trkpt>
      <trkpt lat="50.09889" lon="5.03283">
        <ele>223.9</ele>
        <time>2022-04-21T11:36:51Z</time>
      </trkpt>
      <trkpt lat="50.0989" lon="5.03278">
        <ele>224.2</ele>
        <time>2022-04-21T11:36:52Z</time>
      </trkpt>
      <trkpt lat="50.09891" lon="5.03277">
        <ele>224.3</ele>
        <time>2022-04-21T11:36:53Z</time>
      </trkpt>
      <trkpt lat="50.09892" lon="5.03273">
        <ele>224.6</ele>
        <time>2022-04-21T11:36:54Z</time>
      </trkpt>
      <trkpt lat="50.09892" lon="5.03271">
        <ele>224.8</ele>
        <time>2022-04-21T11:36:55Z</time>
      </trkpt>
      <trkpt lat="50.09893" lon="5.03267">
        <ele>225.1</ele>
        <time>2022-04-21T11:36:57Z</time>
      </trkpt>
      <trkpt lat="50.09893" lon="5.03266">
        <ele>225.2</ele>
        <time>2022-04-21T11:36:58Z</time>
      </trkpt>
      <trkpt lat="50.09894" lon="5.03264">
        <ele>225.3</ele>
        <time>2022-04-21T11:36:59Z</time>
      </trkpt>
      <trkpt lat="50.09894" lon="5.03261">
        <ele>225.5</ele>
        <time>2022-04-21T11:37:00Z</time>
      </trkpt>
      <trkpt lat="50.09893" lon="5.03259">
        <ele>225.7</ele>
        <time>2022-04-21T11:37:01Z</time>
      </trkpt>
      <trkpt lat="50.09894" lon="5.03257">
        <ele>225.8</ele>
        <time>2022-04-21T11:37:02Z</time>
      </trkpt>
      <trkpt lat="50.09894" lon="5.03256">
        <ele>225.9</ele>
        <time>2022-04-21T11:37:03Z</time>
      </trkpt>
      <trkpt lat="50.09895" lon="5.03255">
        <ele>226</ele>
        <time>2022-04-21T11:37:04Z</time>
      </trkpt>
      <trkpt lat="50.09895" lon="5.03253">
        <ele>226.1</ele>
        <time>2022-04-21T11:37:05Z</time>
      </trkpt>
      <trkpt lat="50.09895" lon="5.03251">
        <ele>226.3</ele>
        <time>2022-04-21T11:37:06Z</time>
      </trkpt>
      <trkpt lat="50.09896" lon="5.03249">
        <ele>226.5</ele>
        <time>2022-04-21T11:37:08Z</time>
      </trkpt>
      <trkpt lat="50.09896" lon="5.03247">
        <ele>226.6</ele>
        <time>2022-04-21T11:37:09Z</time>
      </trkpt>
      <trkpt lat="50.09896" lon="5.03244">
        <ele>226.8</ele>
        <time>2022-04-21T11:37:10Z</time>
      </trkpt>
      <trkpt lat="50.09896" lon="5.03242">
        <ele>226.9</ele>
        <time>2022-04-21T11:37:11Z</time>
      </trkpt>
      <trkpt lat="50.09896" lon="5.03241">
        <ele>227</ele>
        <time>2022-04-21T11:37:12Z</time>
      </trkpt>
      <trkpt lat="50.09897" lon="5.03239">
        <ele>227.2</ele>
        <time>2022-04-21T11:37:13Z</time>
      </trkpt>
      <trkpt lat="50.09897" lon="5.03238">
        <ele>227.3</ele>
        <time>2022-04-21T11:37:14Z</time>
      </trkpt>
      <trkpt lat="50.09897" lon="5.03236">
        <ele>227.4</ele>
        <time>2022-04-21T11:37:15Z</time>
      </trkpt>
      <trkpt lat="50.09897" lon="5.03234">
        <ele>227.5</ele>
        <time>2022-04-21T11:37:16Z</time>
      </trkpt>
      <trkpt lat="50.09897" lon="5.03232">
        <ele>227.6</ele>
        <time>2022-04-21T11:37:17Z</time>
      </trkpt>
      <trkpt lat="50.09898" lon="5.03231">
        <ele>227.7</ele>
        <time>2022-04-21T11:37:19Z</time>
      </trkpt>
      <trkpt lat="50.09898" lon="5.03228">
        <ele>227.9</ele>
        <time>2022-04-21T11:37:20Z</time>
      </trkpt>
      <trkpt lat="50.09898" lon="5.03227">
        <ele>228</ele>
        <time>2022-04-21T11:37:21Z</time>
      </trkpt>
      <trkpt lat="50.09898" lon="5.03224">
        <ele>228.2</ele>
        <time>2022-04-21T11:37:23Z</time>
      </trkpt>
      <trkpt lat="50.09898" lon="5.03221">
        <ele>228.4</ele>
        <time>2022-04-21T11:37:24Z</time>
      </trkpt>
      <trkpt lat="50.09898" lon="5.03219">
        <ele>228.5</ele>
        <time>2022-04-21T11:37:26Z</time>
      </trkpt>
      <trkpt lat="50.09899" lon="5.03217">
        <ele>228.7</ele>
        <time>2022-04-21T11:37:27Z</time>
      </trkpt>
      <trkpt lat="50.099" lon="5.03214">
        <ele>228.9</ele>
        <time>2022-04-21T11:37:28Z</time>
      </trkpt>
      <trkpt lat="50.09901" lon="5.03213">
        <ele>229</ele>
        <time>2022-04-21T11:37:29Z</time>
      </trkpt>
      <trkpt lat="50.09901" lon="5.03212">
        <ele>229.1</ele>
        <time>2022-04-21T11:37:30Z</time>
      </trkpt>
      <trkpt lat="50.09902" lon="5.03209">
        <ele>229.3</ele>
        <time>2022-04-21T11:37:31Z</time>
      </trkpt>
      <trkpt lat="50.09903" lon="5.03208">
        <ele>229.4</ele>
        <time>2022-04-21T11:37:32Z</time>
      </trkpt>
      <trkpt lat="50.09903" lon="5.03207">
        <ele>229.5</ele>
        <time>2022-04-21T11:37:33Z</time>
      </trkpt>
      <trkpt lat="50.09904" lon="5.03205">
        <ele>229.6</ele>
        <time>2022-04-21T11:37:34Z</time>
      </trkpt>
      <trkpt lat="50.09905" lon="5.03203">
        <ele>229.7</ele>
        <time>2022-04-21T11:37:35Z</time>
      </trkpt>
      <trkpt lat="50.09905" lon="5.03201">
        <ele>229.9</ele>
        <time>2022-04-21T11:37:36Z</time>
      </trkpt>
      <trkpt lat="50.09906" lon="5.03198">
        <ele>230.1</ele>
        <time>2022-04-21T11:37:38Z</time>
      </trkpt>
      <trkpt lat="50.09906" lon="5.03196">
        <ele>230.2</ele>
        <time>2022-04-21T11:37:39Z</time>
      </trkpt>
      <trkpt lat="50.09906" lon="5.03195">
        <ele>230.3</ele>
        <time>2022-04-21T11:37:40Z</time>
      </trkpt>
      <trkpt lat="50.09906" lon="5.03194">
        <ele>230.3</ele>
        <time>2022-04-21T11:37:41Z</time>
      </trkpt>
      <trkpt lat="50.09906" lon="5.03193">
        <ele>230.4</ele>
        <time>2022-04-21T11:37:42Z</time>
      </trkpt>
      <trkpt lat="50.09906" lon="5.03191">
        <ele>230.5</ele>
        <time>2022-04-21T11:37:43Z</time>
      </trkpt>
      <trkpt lat="50.09906" lon="5.03189">
        <ele>230.6</ele>
        <time>2022-04-21T11:37:44Z</time>
      </trkpt>
      <trkpt lat="50.09907" lon="5.03186">
        <ele>230.8</ele>
        <time>2022-04-21T11:37:46Z</time>
      </trkpt>
      <trkpt lat="50.09908" lon="5.03184">
        <ele>231</ele>
        <time>2022-04-21T11:37:48Z</time>
      </trkpt>
      <trkpt lat="50.09908" lon="5.03183">
        <ele>231.1</ele>
        <time>2022-04-21T11:37:49Z</time>
      </trkpt>
      <trkpt lat="50.09909" lon="5.03179">
        <ele>231.4</ele>
        <time>2022-04-21T11:37:51Z</time>
      </trkpt>
      <trkpt lat="50.0991" lon="5.03177">
        <ele>231.5</ele>
        <time>2022-04-21T11:37:52Z</time>
      </trkpt>
      <trkpt lat="50.0991" lon="5.03175">
        <ele>231.6</ele>
        <time>2022-04-21T11:37:53Z</time>
      </trkpt>
      <trkpt lat="50.09911" lon="5.03173">
        <ele>231.8</ele>
        <time>2022-04-21T11:37:54Z</time>
      </trkpt>
      <trkpt lat="50.09912" lon="5.0317">
        <ele>232</ele>
        <time>2022-04-21T11:37:55Z</time>
      </trkpt>
      <trkpt lat="50.09913" lon="5.03169">
        <ele>232.2</ele>
        <time>2022-04-21T11:37:56Z</time>
      </trkpt>
      <trkpt lat="50.09913" lon="5.03166">
        <ele>232.3</ele>
        <time>2022-04-21T11:37:57Z</time>
      </trkpt>
      <trkpt lat="50.09914" lon="5.03164">
        <ele>232.5</ele>
        <time>2022-04-21T11:37:58Z</time>
      </trkpt>
      <trkpt lat="50.09914" lon="5.03162">
        <ele>232.6</ele>
        <time>2022-04-21T11:37:59Z</time>
      </trkpt>
      <trkpt lat="50.09914" lon="5.03159">
        <ele>232.8</ele>
        <time>2022-04-21T11:38:00Z</time>
      </trkpt>
      <trkpt lat="50.09914" lon="5.03157">
        <ele>233</ele>
        <time>2022-04-21T11:38:01Z</time>
      </trkpt>
      <trkpt lat="50.09915" lon="5.03155">
        <ele>233.1</ele>
        <time>2022-04-21T11:38:02Z</time>
      </trkpt>
      <trkpt lat="50.09915" lon="5.03153">
        <ele>233.3</ele>
        <time>2022-04-21T11:38:03Z</time>
      </trkpt>
      <trkpt lat="50.09916" lon="5.03151">
        <ele>233.4</ele>
        <time>2022-04-21T11:38:04Z</time>
      </trkpt>
      <trkpt lat="50.09917" lon="5.03149">
        <ele>233.6</ele>
        <time>2022-04-21T11:38:05Z</time>
      </trkpt>
      <trkpt lat="50.09918" lon="5.03147">
        <ele>233.8</ele>
        <time>2022-04-21T11:38:06Z</time>
      </trkpt>
      <trkpt lat="50.09918" lon="5.03146">
        <ele>233.9</ele>
        <time>2022-04-21T11:38:07Z</time>
      </trkpt>
      <trkpt lat="50.0992" lon="5.03144">
        <ele>234.1</ele>
        <time>2022-04-21T11:38:09Z</time>
      </trkpt>
      <trkpt lat="50.09921" lon="5.03141">
        <ele>234.3</ele>
        <time>2022-04-21T11:38:10Z</time>
      </trkpt>
      <trkpt lat="50.09921" lon="5.0314">
        <ele>234.4</ele>
        <time>2022-04-21T11:38:11Z</time>
      </trkpt>
      <trkpt lat="50.09921" lon="5.03139">
        <ele>234.5</ele>
        <time>2022-04-21T11:38:12Z</time>
      </trkpt>
      <trkpt lat="50.09922" lon="5.03135">
        <ele>234.7</ele>
        <time>2022-04-21T11:38:13Z</time>
      </trkpt>
      <trkpt lat="50.09922" lon="5.03134">
        <ele>234.8</ele>
        <time>2022-04-21T11:38:14Z</time>
      </trkpt>
      <trkpt lat="50.09922" lon="5.03132">
        <ele>234.9</ele>
        <time>2022-04-21T11:38:15Z</time>
      </trkpt>
      <trkpt lat="50.09923" lon="5.03131">
        <ele>235</ele>
        <time>2022-04-21T11:38:16Z</time>
      </trkpt>
      <trkpt lat="50.09923" lon="5.03129">
        <ele>235.2</ele>
        <time>2022-04-21T11:38:17Z</time>
      </trkpt>
      <trkpt lat="50.09924" lon="5.03127">
        <ele>235.3</ele>
        <time>2022-04-21T11:38:19Z</time>
      </trkpt>
      <trkpt lat="50.09925" lon="5.03124">
        <ele>235.6</ele>
        <time>2022-04-21T11:38:21Z</time>
      </trkpt>
      <trkpt lat="50.09926" lon="5.03123">
        <ele>235.7</ele>
        <time>2022-04-21T11:38:22Z</time>
      </trkpt>
      <trkpt lat="50.09927" lon="5.03121">
        <ele>235.9</ele>
        <time>2022-04-21T11:38:23Z</time>
      </trkpt>
      <trkpt lat="50.09928" lon="5.0312">
        <ele>236</ele>
        <time>2022-04-21T11:38:24Z</time>
      </trkpt>
      <trkpt lat="50.09929" lon="5.03118">
        <ele>236.1</ele>
        <time>2022-04-21T11:38:25Z</time>
      </trkpt>
      <trkpt lat="50.09929" lon="5.03117">
        <ele>236.3</ele>
        <time>2022-04-21T11:38:26Z</time>
      </trkpt>
      <trkpt lat="50.0993" lon="5.03115">
        <ele>236.4</ele>
        <time>2022-04-21T11:38:27Z</time>
      </trkpt>
      <trkpt lat="50.09931" lon="5.03113">
        <ele>236.6</ele>
        <time>2022-04-21T11:38:29Z</time>
      </trkpt>
      <trkpt lat="50.09932" lon="5.0311">
        <ele>236.8</ele>
        <time>2022-04-21T11:38:31Z</time>
      </trkpt>
      <trkpt lat="50.09932" lon="5.03108">
        <ele>237</ele>
        <time>2022-04-21T11:38:32Z</time>
      </trkpt>
      <trkpt lat="50.09932" lon="5.03107">
        <ele>237.1</ele>
        <time>2022-04-21T11:38:33Z</time>
      </trkpt>
      <trkpt lat="50.09933" lon="5.03106">
        <ele>237.2</ele>
        <time>2022-04-21T11:38:34Z</time>
      </trkpt>
      <trkpt lat="50.09934" lon="5.03106">
        <ele>237.4</ele>
        <time>2022-04-21T11:38:35Z</time>
      </trkpt>
      <trkpt lat="50.09935" lon="5.03106">
        <ele>237.5</ele>
        <time>2022-04-21T11:38:36Z</time>
      </trkpt>
      <trkpt lat="50.09937" lon="5.03106">
        <ele>237.6</ele>
        <time>2022-04-21T11:38:37Z</time>
      </trkpt>
      <trkpt lat="50.09938" lon="5.03107">
        <ele>237.7</ele>
        <time>2022-04-21T11:38:38Z</time>
      </trkpt>
      <trkpt lat="50.09939" lon="5.03107">
        <ele>237.9</ele>
        <time>2022-04-21T11:38:39Z</time>
      </trkpt>
      <trkpt lat="50.0994" lon="5.03108">
        <ele>238</ele>
        <time>2022-04-21T11:38:40Z</time>
      </trkpt>
      <trkpt lat="50.09941" lon="5.03108">
        <ele>238.1</ele>
        <time>2022-04-21T11:38:41Z</time>
      </trkpt>
      <trkpt lat="50.09942" lon="5.03106">
        <ele>238.3</ele>
        <time>2022-04-21T11:38:42Z</time>
      </trkpt>
      <trkpt lat="50.09943" lon="5.03105">
        <ele>238.4</ele>
        <time>2022-04-21T11:38:43Z</time>
      </trkpt>
      <trkpt lat="50.09944" lon="5.03104">
        <ele>238.5</ele>
        <time>2022-04-21T11:38:44Z</time>
      </trkpt>
      <trkpt lat="50.09945" lon="5.03099">
        <ele>238.9</ele>
        <time>2022-04-21T11:38:46Z</time>
      </trkpt>
      <trkpt lat="50.09946" lon="5.03097">
        <ele>239</ele>
        <time>2022-04-21T11:38:47Z</time>
      </trkpt>
      <trkpt lat="50.09946" lon="5.03095">
        <ele>239.2</ele>
        <time>2022-04-21T11:38:48Z</time>
      </trkpt>
      <trkpt lat="50.09947" lon="5.03093">
        <ele>239.3</ele>
        <time>2022-04-21T11:38:49Z</time>
      </trkpt>
      <trkpt lat="50.09947" lon="5.03092">
        <ele>239.4</ele>
        <time>2022-04-21T11:38:50Z</time>
      </trkpt>
      <trkpt lat="50.09948" lon="5.03091">
        <ele>239.5</ele>
        <time>2022-04-21T11:38:51Z</time>
      </trkpt>
      <trkpt lat="50.09949" lon="5.0309">
        <ele>239.5</ele>
        <time>2022-04-21T11:38:52Z</time>
      </trkpt>
      <trkpt lat="50.09949" lon="5.03089">
        <ele>239.6</ele>
        <time>2022-04-21T11:38:53Z</time>
      </trkpt>
      <trkpt lat="50.0995" lon="5.03088">
        <ele>239.7</ele>
        <time>2022-04-21T11:38:54Z</time>
      </trkpt>
      <trkpt lat="50.09952" lon="5.03087">
        <ele>239.9</ele>
        <time>2022-04-21T11:38:55Z</time>
      </trkpt>
      <trkpt lat="50.09952" lon="5.03086">
        <ele>240</ele>
        <time>2022-04-21T11:38:56Z</time>
      </trkpt>
      <trkpt lat="50.09953" lon="5.03085">
        <ele>240</ele>
        <time>2022-04-21T11:38:57Z</time>
      </trkpt>
      <trkpt lat="50.09954" lon="5.03084">
        <ele>240.1</ele>
        <time>2022-04-21T11:38:59Z</time>
      </trkpt>
      <trkpt lat="50.09954" lon="5.03083">
        <ele>240.2</ele>
        <time>2022-04-21T11:39:00Z</time>
      </trkpt>
      <trkpt lat="50.09955" lon="5.0308">
        <ele>240.3</ele>
        <time>2022-04-21T11:39:01Z</time>
      </trkpt>
      <trkpt lat="50.09956" lon="5.03079">
        <ele>240.4</ele>
        <time>2022-04-21T11:39:02Z</time>
      </trkpt>
      <trkpt lat="50.09956" lon="5.03076">
        <ele>240.5</ele>
        <time>2022-04-21T11:39:03Z</time>
      </trkpt>
      <trkpt lat="50.09956" lon="5.03074">
        <ele>240.7</ele>
        <time>2022-04-21T11:39:04Z</time>
      </trkpt>
      <trkpt lat="50.09957" lon="5.03071">
        <ele>240.8</ele>
        <time>2022-04-21T11:39:05Z</time>
      </trkpt>
      <trkpt lat="50.09958" lon="5.0307">
        <ele>240.9</ele>
        <time>2022-04-21T11:39:06Z</time>
      </trkpt>
      <trkpt lat="50.09958" lon="5.03069">
        <ele>241</ele>
        <time>2022-04-21T11:39:07Z</time>
      </trkpt>
      <trkpt lat="50.09959" lon="5.03067">
        <ele>241.1</ele>
        <time>2022-04-21T11:39:08Z</time>
      </trkpt>
      <trkpt lat="50.0996" lon="5.03065">
        <ele>241.1</ele>
        <time>2022-04-21T11:39:09Z</time>
      </trkpt>
      <trkpt lat="50.09961" lon="5.03062">
        <ele>241.2</ele>
        <time>2022-04-21T11:39:10Z</time>
      </trkpt>
      <trkpt lat="50.09961" lon="5.03061">
        <ele>241.3</ele>
        <time>2022-04-21T11:39:11Z</time>
      </trkpt>
      <trkpt lat="50.09962" lon="5.03058">
        <ele>241.4</ele>
        <time>2022-04-21T11:39:12Z</time>
      </trkpt>
      <trkpt lat="50.09962" lon="5.03056">
        <ele>241.4</ele>
        <time>2022-04-21T11:39:14Z</time>
      </trkpt>
      <trkpt lat="50.09962" lon="5.03054">
        <ele>241.5</ele>
        <time>2022-04-21T11:39:15Z</time>
      </trkpt>
      <trkpt lat="50.09963" lon="5.03052">
        <ele>241.6</ele>
        <time>2022-04-21T11:39:16Z</time>
      </trkpt>
      <trkpt lat="50.09963" lon="5.0305">
        <ele>241.6</ele>
        <time>2022-04-21T11:39:17Z</time>
      </trkpt>
      <trkpt lat="50.09963" lon="5.03049">
        <ele>241.7</ele>
        <time>2022-04-21T11:39:18Z</time>
      </trkpt>
      <trkpt lat="50.09963" lon="5.03048">
        <ele>241.7</ele>
        <time>2022-04-21T11:39:19Z</time>
      </trkpt>
      <trkpt lat="50.09964" lon="5.03047">
        <ele>241.7</ele>
        <time>2022-04-21T11:39:20Z</time>
      </trkpt>
      <trkpt lat="50.09965" lon="5.03046">
        <ele>241.8</ele>
        <time>2022-04-21T11:39:21Z</time>
      </trkpt>
      <trkpt lat="50.09966" lon="5.03045">
        <ele>241.8</ele>
        <time>2022-04-21T11:39:22Z</time>
      </trkpt>
      <trkpt lat="50.09968" lon="5.03044">
        <ele>241.8</ele>
        <time>2022-04-21T11:39:23Z</time>
      </trkpt>
      <trkpt lat="50.09969" lon="5.03043">
        <ele>241.9</ele>
        <time>2022-04-21T11:39:24Z</time>
      </trkpt>
      <trkpt lat="50.0997" lon="5.03042">
        <ele>241.9</ele>
        <time>2022-04-21T11:39:25Z</time>
      </trkpt>
      <trkpt lat="50.09971" lon="5.03041">
        <ele>241.9</ele>
        <time>2022-04-21T11:39:26Z</time>
      </trkpt>
      <trkpt lat="50.09972" lon="5.0304">
        <ele>241.9</ele>
        <time>2022-04-21T11:39:27Z</time>
      </trkpt>
      <trkpt lat="50.09974" lon="5.03039">
        <ele>241.9</ele>
        <time>2022-04-21T11:39:28Z</time>
      </trkpt>
      <trkpt lat="50.09975" lon="5.03039">
        <ele>241.9</ele>
        <time>2022-04-21T11:39:30Z</time>
      </trkpt>
      <trkpt lat="50.09975" lon="5.03038">
        <ele>241.9</ele>
        <time>2022-04-21T11:39:31Z</time>
      </trkpt>
      <trkpt lat="50.09976" lon="5.03038">
        <ele>241.9</ele>
        <time>2022-04-21T11:39:32Z</time>
      </trkpt>
      <trkpt lat="50.09976" lon="5.03038">
        <ele>241.9</ele>
        <time>2022-04-21T11:39:33Z</time>
      </trkpt>
      <trkpt lat="50.09976" lon="5.03038">
        <ele>241.9</ele>
        <time>2022-04-21T11:39:34Z</time>
      </trkpt>
      <trkpt lat="50.09977" lon="5.03038">
        <ele>241.9</ele>
        <time>2022-04-21T11:39:35Z</time>
      </trkpt>
      <trkpt lat="50.09977" lon="5.03037">
        <ele>241.9</ele>
        <time>2022-04-21T11:39:36Z</time>
      </trkpt>
      <trkpt lat="50.09978" lon="5.03037">
        <ele>241.9</ele>
        <time>2022-04-21T11:39:37Z</time>
      </trkpt>
      <trkpt lat="50.09978" lon="5.03037">
        <ele>241.8</ele>
        <time>2022-04-21T11:39:38Z</time>
      </trkpt>
      <trkpt lat="50.09979" lon="5.03037">
        <ele>241.8</ele>
        <time>2022-04-21T11:39:39Z</time>
      </trkpt>
      <trkpt lat="50.09979" lon="5.03036">
        <ele>241.8</ele>
        <time>2022-04-21T11:39:40Z</time>
      </trkpt>
      <trkpt lat="50.0998" lon="5.03036">
        <ele>241.8</ele>
        <time>2022-04-21T11:39:41Z</time>
      </trkpt>
      <trkpt lat="50.09982" lon="5.03036">
        <ele>241.8</ele>
        <time>2022-04-21T11:39:42Z</time>
      </trkpt>
      <trkpt lat="50.09983" lon="5.03036">
        <ele>241.7</ele>
        <time>2022-04-21T11:39:43Z</time>
      </trkpt>
      <trkpt lat="50.09985" lon="5.03035">
        <ele>241.7</ele>
        <time>2022-04-21T11:39:44Z</time>
      </trkpt>
      <trkpt lat="50.09988" lon="5.03033">
        <ele>241.6</ele>
        <time>2022-04-21T11:39:46Z</time>
      </trkpt>
      <trkpt lat="50.09988" lon="5.03032">
        <ele>241.6</ele>
        <time>2022-04-21T11:39:47Z</time>
      </trkpt>
      <trkpt lat="50.09989" lon="5.03031">
        <ele>241.6</ele>
        <time>2022-04-21T11:39:48Z</time>
      </trkpt>
      <trkpt lat="50.0999" lon="5.0303">
        <ele>241.7</ele>
        <time>2022-04-21T11:39:49Z</time>
      </trkpt>
      <trkpt lat="50.09991" lon="5.03029">
        <ele>241.7</ele>
        <time>2022-04-21T11:39:50Z</time>
      </trkpt>
      <trkpt lat="50.09991" lon="5.03028">
        <ele>241.7</ele>
        <time>2022-04-21T11:39:51Z</time>
      </trkpt>
      <trkpt lat="50.09992" lon="5.03028">
        <ele>241.7</ele>
        <time>2022-04-21T11:39:52Z</time>
      </trkpt>
      <trkpt lat="50.09992" lon="5.03029">
        <ele>241.7</ele>
        <time>2022-04-21T11:39:53Z</time>
      </trkpt>
      <trkpt lat="50.09992" lon="5.03029">
        <ele>241.7</ele>
        <time>2022-04-21T11:39:54Z</time>
      </trkpt>
      <trkpt lat="50.09992" lon="5.03029">
        <ele>241.7</ele>
        <time>2022-04-21T11:39:55Z</time>
      </trkpt>
      <trkpt lat="50.09991" lon="5.03029">
        <ele>241.8</ele>
        <time>2022-04-21T11:39:56Z</time>
      </trkpt>
      <trkpt lat="50.09991" lon="5.03028">
        <ele>241.8</ele>
        <time>2022-04-21T11:39:57Z</time>
      </trkpt>
      <trkpt lat="50.09991" lon="5.03028">
        <ele>241.8</ele>
        <time>2022-04-21T11:39:58Z</time>
      </trkpt>
      <trkpt lat="50.0999" lon="5.03026">
        <ele>241.9</ele>
        <time>2022-04-21T11:39:59Z</time>
      </trkpt>
      <trkpt lat="50.09989" lon="5.03024">
        <ele>241.9</ele>
        <time>2022-04-21T11:40:01Z</time>
      </trkpt>
      <trkpt lat="50.09989" lon="5.03023">
        <ele>242</ele>
        <time>2022-04-21T11:40:02Z</time>
      </trkpt>
      <trkpt lat="50.09989" lon="5.03022">
        <ele>242</ele>
        <time>2022-04-21T11:40:03Z</time>
      </trkpt>
      <trkpt lat="50.09989" lon="5.0302">
        <ele>242.1</ele>
        <time>2022-04-21T11:40:04Z</time>
      </trkpt>
      <trkpt lat="50.09989" lon="5.03018">
        <ele>242.1</ele>
        <time>2022-04-21T11:40:05Z</time>
      </trkpt>
      <trkpt lat="50.0999" lon="5.03017">
        <ele>242.2</ele>
        <time>2022-04-21T11:40:06Z</time>
      </trkpt>
      <trkpt lat="50.0999" lon="5.03017">
        <ele>242.2</ele>
        <time>2022-04-21T11:40:07Z</time>
      </trkpt>
      <trkpt lat="50.09991" lon="5.03017">
        <ele>242.2</ele>
        <time>2022-04-21T11:40:08Z</time>
      </trkpt>
      <trkpt lat="50.09991" lon="5.03016">
        <ele>242.2</ele>
        <time>2022-04-21T11:40:09Z</time>
      </trkpt>
      <trkpt lat="50.09991" lon="5.03016">
        <ele>242.3</ele>
        <time>2022-04-21T11:40:10Z</time>
      </trkpt>
      <trkpt lat="50.09991" lon="5.03016">
        <ele>242.3</ele>
        <time>2022-04-21T11:40:11Z</time>
      </trkpt>
      <trkpt lat="50.09991" lon="5.03016">
        <ele>242.3</ele>
        <time>2022-04-21T11:40:12Z</time>
      </trkpt>
      <trkpt lat="50.09991" lon="5.03016">
        <ele>242.3</ele>
        <time>2022-04-21T11:40:13Z</time>
      </trkpt>
      <trkpt lat="50.09991" lon="5.03016">
        <ele>242.3</ele>
        <time>2022-04-21T11:40:14Z</time>
      </trkpt>
      <trkpt lat="50.09991" lon="5.03017">
        <ele>242.3</ele>
        <time>2022-04-21T11:40:15Z</time>
      </trkpt>
      <trkpt lat="50.09991" lon="5.03017">
        <ele>242.3</ele>
        <time>2022-04-21T11:40:16Z</time>
      </trkpt>
      <trkpt lat="50.09992" lon="5.03017">
        <ele>242.4</ele>
        <time>2022-04-21T11:40:17Z</time>
      </trkpt>
      <trkpt lat="50.09993" lon="5.03018">
        <ele>242.4</ele>
        <time>2022-04-21T11:40:19Z</time>
      </trkpt>
      <trkpt lat="50.09993" lon="5.03018">
        <ele>242.4</ele>
        <time>2022-04-21T11:40:20Z</time>
      </trkpt>
      <trkpt lat="50.09994" lon="5.03018">
        <ele>242.4</ele>
        <time>2022-04-21T11:40:21Z</time>
      </trkpt>
      <trkpt lat="50.09994" lon="5.03018">
        <ele>242.5</ele>
        <time>2022-04-21T11:40:22Z</time>
      </trkpt>
      <trkpt lat="50.09994" lon="5.03018">
        <ele>242.5</ele>
        <time>2022-04-21T11:40:23Z</time>
      </trkpt>
      <trkpt lat="50.09995" lon="5.03018">
        <ele>242.5</ele>
        <time>2022-04-21T11:40:24Z</time>
      </trkpt>
      <trkpt lat="50.09995" lon="5.03018">
        <ele>242.6</ele>
        <time>2022-04-21T11:40:25Z</time>
      </trkpt>
      <trkpt lat="50.09995" lon="5.03017">
        <ele>242.6</ele>
        <time>2022-04-21T11:40:26Z</time>
      </trkpt>
      <trkpt lat="50.09995" lon="5.03017">
        <ele>242.6</ele>
        <time>2022-04-21T11:40:27Z</time>
      </trkpt>
      <trkpt lat="50.09995" lon="5.03017">
        <ele>242.6</ele>
        <time>2022-04-21T11:40:28Z</time>
      </trkpt>
      <trkpt lat="50.09996" lon="5.03017">
        <ele>242.6</ele>
        <time>2022-04-21T11:40:29Z</time>
      </trkpt>
      <trkpt lat="50.09996" lon="5.03017">
        <ele>242.6</ele>
        <time>2022-04-21T11:40:30Z</time>
      </trkpt>
      <trkpt lat="50.09996" lon="5.03017">
        <ele>242.6</ele>
        <time>2022-04-21T11:40:31Z</time>
      </trkpt>
      <trkpt lat="50.09996" lon="5.03017">
        <ele>242.6</ele>
        <time>2022-04-21T11:40:32Z</time>
      </trkpt>
      <trkpt lat="50.09996" lon="5.03017">
        <ele>242.6</ele>
        <time>2022-04-21T11:40:33Z</time>
      </trkpt>
      <trkpt lat="50.09996" lon="5.03016">
        <ele>242.6</ele>
        <time>2022-04-21T11:40:34Z</time>
      </trkpt>
      <trkpt lat="50.09996" lon="5.03016">
        <ele>242.6</ele>
        <time>2022-04-21T11:40:35Z</time>
      </trkpt>
      <trkpt lat="50.09996" lon="5.03016">
        <ele>242.6</ele>
        <time>2022-04-21T11:40:36Z</time>
      </trkpt>
      <trkpt lat="50.09996" lon="5.03016">
        <ele>242.6</ele>
        <time>2022-04-21T11:40:37Z</time>
      </trkpt>
      <trkpt lat="50.09996" lon="5.03016">
        <ele>242.6</ele>
        <time>2022-04-21T11:40:38Z</time>
      </trkpt>
      <trkpt lat="50.09996" lon="5.03016">
        <ele>242.6</ele>
        <time>2022-04-21T11:40:39Z</time>
      </trkpt>
      <trkpt lat="50.09996" lon="5.03016">
        <ele>242.6</ele>
        <time>2022-04-21T11:40:40Z</time>
      </trkpt>
      <trkpt lat="50.09996" lon="5.03016">
        <ele>242.6</ele>
        <time>2022-04-21T11:40:41Z</time>
      </trkpt>
      <trkpt lat="50.09996" lon="5.03016">
        <ele>242.6</ele>
        <time>2022-04-21T11:40:42Z</time>
      </trkpt>
      <trkpt lat="50.09996" lon="5.03016">
        <ele>242.6</ele>
        <time>2022-04-21T11:40:43Z</time>
      </trkpt>
      <trkpt lat="50.09996" lon="5.03016">
        <ele>242.7</ele>
        <time>2022-04-21T11:40:44Z</time>
      </trkpt>
      <trkpt lat="50.09996" lon="5.03016">
        <ele>242.7</ele>
        <time>2022-04-21T11:40:45Z</time>
      </trkpt>
      <trkpt lat="50.09996" lon="5.03016">
        <ele>242.7</ele>
        <time>2022-04-21T11:40:46Z</time>
      </trkpt>
      <trkpt lat="50.09996" lon="5.03016">
        <ele>242.7</ele>
        <time>2022-04-21T11:40:47Z</time>
      </trkpt>
      <trkpt lat="50.09996" lon="5.03016">
        <ele>242.7</ele>
        <time>2022-04-21T11:40:48Z</time>
      </trkpt>
      <trkpt lat="50.09996" lon="5.03016">
        <ele>242.7</ele>
        <time>2022-04-21T11:40:49Z</time>
      </trkpt>
      <trkpt lat="50.09996" lon="5.03016">
        <ele>242.7</ele>
        <time>2022-04-21T11:40:50Z</time>
      </trkpt>
      <trkpt lat="50.09996" lon="5.03016">
        <ele>242.7</ele>
        <time>2022-04-21T11:40:51Z</time>
      </trkpt>
      <trkpt lat="50.09996" lon="5.03016">
        <ele>242.7</ele>
        <time>2022-04-21T11:40:52Z</time>
      </trkpt>
      <trkpt lat="50.09992" lon="5.03019">
        <ele>242.9</ele>
        <time>2022-04-21T11:40:53Z</time>
      </trkpt>
      <trkpt lat="50.09994" lon="5.03018">
        <ele>243.1</ele>
        <time>2022-04-21T11:40:54Z</time>
      </trkpt>
      <trkpt lat="50.09992" lon="5.03019">
        <ele>243.2</ele>
        <time>2022-04-21T11:40:55Z</time>
      </trkpt>
      <trkpt lat="50.09991" lon="5.0302">
        <ele>243.3</ele>
        <time>2022-04-21T11:40:56Z</time>
      </trkpt>
      <trkpt lat="50.0999" lon="5.03021">
        <ele>243.4</ele>
        <time>2022-04-21T11:40:57Z</time>
      </trkpt>
      <trkpt lat="50.09989" lon="5.03022">
        <ele>243.5</ele>
        <time>2022-04-21T11:40:59Z</time>
      </trkpt>
      <trkpt lat="50.09988" lon="5.03023">
        <ele>243.6</ele>
        <time>2022-04-21T11:41:00Z</time>
      </trkpt>
      <trkpt lat="50.09988" lon="5.03026">
        <ele>243.8</ele>
        <time>2022-04-21T11:41:01Z</time>
      </trkpt>
      <trkpt lat="50.09988" lon="5.03029">
        <ele>244</ele>
        <time>2022-04-21T11:41:02Z</time>
      </trkpt>
      <trkpt lat="50.09988" lon="5.03031">
        <ele>244.1</ele>
        <time>2022-04-21T11:41:03Z</time>
      </trkpt>
      <trkpt lat="50.09988" lon="5.03033">
        <ele>244.2</ele>
        <time>2022-04-21T11:41:04Z</time>
      </trkpt>
      <trkpt lat="50.09986" lon="5.03038">
        <ele>244.5</ele>
        <time>2022-04-21T11:41:05Z</time>
      </trkpt>
      <trkpt lat="50.09986" lon="5.03039">
        <ele>244.6</ele>
        <time>2022-04-21T11:41:06Z</time>
      </trkpt>
      <trkpt lat="50.09985" lon="5.03041">
        <ele>244.8</ele>
        <time>2022-04-21T11:41:07Z</time>
      </trkpt>
      <trkpt lat="50.09985" lon="5.03044">
        <ele>244.9</ele>
        <time>2022-04-21T11:41:08Z</time>
      </trkpt>
      <trkpt lat="50.09984" lon="5.03047">
        <ele>245.1</ele>
        <time>2022-04-21T11:41:09Z</time>
      </trkpt>
      <trkpt lat="50.09984" lon="5.03048">
        <ele>245.2</ele>
        <time>2022-04-21T11:41:10Z</time>
      </trkpt>
      <trkpt lat="50.09984" lon="5.0305">
        <ele>245.3</ele>
        <time>2022-04-21T11:41:11Z</time>
      </trkpt>
      <trkpt lat="50.09984" lon="5.03051">
        <ele>245.4</ele>
        <time>2022-04-21T11:41:12Z</time>
      </trkpt>
      <trkpt lat="50.09984" lon="5.03053">
        <ele>245.5</ele>
        <time>2022-04-21T11:41:13Z</time>
      </trkpt>
      <trkpt lat="50.09984" lon="5.03054">
        <ele>245.6</ele>
        <time>2022-04-21T11:41:14Z</time>
      </trkpt>
      <trkpt lat="50.09983" lon="5.03056">
        <ele>245.6</ele>
        <time>2022-04-21T11:41:15Z</time>
      </trkpt>
      <trkpt lat="50.09983" lon="5.03058">
        <ele>245.8</ele>
        <time>2022-04-21T11:41:17Z</time>
      </trkpt>
      <trkpt lat="50.09983" lon="5.03059">
        <ele>245.8</ele>
        <time>2022-04-21T11:41:18Z</time>
      </trkpt>
      <trkpt lat="50.09983" lon="5.03061">
        <ele>245.9</ele>
        <time>2022-04-21T11:41:19Z</time>
      </trkpt>
      <trkpt lat="50.09983" lon="5.03064">
        <ele>246.1</ele>
        <time>2022-04-21T11:41:20Z</time>
      </trkpt>
      <trkpt lat="50.09984" lon="5.0307">
        <ele>246.3</ele>
        <time>2022-04-21T11:41:22Z</time>
      </trkpt>
      <trkpt lat="50.09984" lon="5.03071">
        <ele>246.4</ele>
        <time>2022-04-21T11:41:23Z</time>
      </trkpt>
      <trkpt lat="50.09984" lon="5.03073">
        <ele>246.5</ele>
        <time>2022-04-21T11:41:24Z</time>
      </trkpt>
      <trkpt lat="50.09985" lon="5.03075">
        <ele>246.6</ele>
        <time>2022-04-21T11:41:25Z</time>
      </trkpt>
      <trkpt lat="50.09987" lon="5.03077">
        <ele>246.8</ele>
        <time>2022-04-21T11:41:26Z</time>
      </trkpt>
      <trkpt lat="50.09987" lon="5.03077">
        <ele>246.8</ele>
        <time>2022-04-21T11:41:27Z</time>
      </trkpt>
      <trkpt lat="50.09988" lon="5.03078">
        <ele>246.9</ele>
        <time>2022-04-21T11:41:28Z</time>
      </trkpt>
      <trkpt lat="50.0999" lon="5.03078">
        <ele>247</ele>
        <time>2022-04-21T11:41:30Z</time>
      </trkpt>
      <trkpt lat="50.09991" lon="5.03079">
        <ele>247</ele>
        <time>2022-04-21T11:41:31Z</time>
      </trkpt>
      <trkpt lat="50.09992" lon="5.0308">
        <ele>247.1</ele>
        <time>2022-04-21T11:41:32Z</time>
      </trkpt>
      <trkpt lat="50.09993" lon="5.0308">
        <ele>247.2</ele>
        <time>2022-04-21T11:41:33Z</time>
      </trkpt>
      <trkpt lat="50.09994" lon="5.03081">
        <ele>247.3</ele>
        <time>2022-04-21T11:41:34Z</time>
      </trkpt>
      <trkpt lat="50.09996" lon="5.03082">
        <ele>247.4</ele>
        <time>2022-04-21T11:41:36Z</time>
      </trkpt>
      <trkpt lat="50.09997" lon="5.03083">
        <ele>247.5</ele>
        <time>2022-04-21T11:41:37Z</time>
      </trkpt>
      <trkpt lat="50.09998" lon="5.03083">
        <ele>247.5</ele>
        <time>2022-04-21T11:41:38Z</time>
      </trkpt>
      <trkpt lat="50.09999" lon="5.03083">
        <ele>247.6</ele>
        <time>2022-04-21T11:41:39Z</time>
      </trkpt>
      <trkpt lat="50.10001" lon="5.03083">
        <ele>247.7</ele>
        <time>2022-04-21T11:41:40Z</time>
      </trkpt>
      <trkpt lat="50.10003" lon="5.03082">
        <ele>247.8</ele>
        <time>2022-04-21T11:41:41Z</time>
      </trkpt>
      <trkpt lat="50.10004" lon="5.03081">
        <ele>247.9</ele>
        <time>2022-04-21T11:41:42Z</time>
      </trkpt>
      <trkpt lat="50.10006" lon="5.03081">
        <ele>248</ele>
        <time>2022-04-21T11:41:43Z</time>
      </trkpt>
      <trkpt lat="50.10007" lon="5.03081">
        <ele>248</ele>
        <time>2022-04-21T11:41:44Z</time>
      </trkpt>
      <trkpt lat="50.10009" lon="5.0308">
        <ele>248.1</ele>
        <time>2022-04-21T11:41:46Z</time>
      </trkpt>
      <trkpt lat="50.1001" lon="5.03079">
        <ele>248.2</ele>
        <time>2022-04-21T11:41:47Z</time>
      </trkpt>
      <trkpt lat="50.1001" lon="5.03079">
        <ele>248.3</ele>
        <time>2022-04-21T11:41:48Z</time>
      </trkpt>
      <trkpt lat="50.10012" lon="5.03078">
        <ele>248.3</ele>
        <time>2022-04-21T11:41:49Z</time>
      </trkpt>
      <trkpt lat="50.10013" lon="5.03077">
        <ele>248.4</ele>
        <time>2022-04-21T11:41:50Z</time>
      </trkpt>
      <trkpt lat="50.10014" lon="5.03077">
        <ele>248.5</ele>
        <time>2022-04-21T11:41:51Z</time>
      </trkpt>
      <trkpt lat="50.10015" lon="5.03077">
        <ele>248.5</ele>
        <time>2022-04-21T11:41:52Z</time>
      </trkpt>
      <trkpt lat="50.10016" lon="5.03077">
        <ele>248.6</ele>
        <time>2022-04-21T11:41:53Z</time>
      </trkpt>
      <trkpt lat="50.10017" lon="5.03076">
        <ele>248.6</ele>
        <time>2022-04-21T11:41:54Z</time>
      </trkpt>
      <trkpt lat="50.10018" lon="5.03075">
        <ele>248.7</ele>
        <time>2022-04-21T11:41:55Z</time>
      </trkpt>
      <trkpt lat="50.10019" lon="5.03073">
        <ele>248.7</ele>
        <time>2022-04-21T11:41:56Z</time>
      </trkpt>
      <trkpt lat="50.1002" lon="5.03072">
        <ele>248.8</ele>
        <time>2022-04-21T11:41:58Z</time>
      </trkpt>
      <trkpt lat="50.10021" lon="5.03071">
        <ele>248.8</ele>
        <time>2022-04-21T11:41:59Z</time>
      </trkpt>
      <trkpt lat="50.10021" lon="5.03071">
        <ele>248.8</ele>
        <time>2022-04-21T11:42:00Z</time>
      </trkpt>
      <trkpt lat="50.10023" lon="5.03071">
        <ele>248.9</ele>
        <time>2022-04-21T11:42:01Z</time>
      </trkpt>
      <trkpt lat="50.10023" lon="5.03071">
        <ele>248.9</ele>
        <time>2022-04-21T11:42:02Z</time>
      </trkpt>
      <trkpt lat="50.10024" lon="5.0307">
        <ele>248.9</ele>
        <time>2022-04-21T11:42:03Z</time>
      </trkpt>
      <trkpt lat="50.10024" lon="5.03069">
        <ele>249</ele>
        <time>2022-04-21T11:42:04Z</time>
      </trkpt>
      <trkpt lat="50.10025" lon="5.03068">
        <ele>249</ele>
        <time>2022-04-21T11:42:06Z</time>
      </trkpt>
      <trkpt lat="50.10026" lon="5.03067">
        <ele>249</ele>
        <time>2022-04-21T11:42:07Z</time>
      </trkpt>
      <trkpt lat="50.10027" lon="5.03066">
        <ele>249</ele>
        <time>2022-04-21T11:42:08Z</time>
      </trkpt>
      <trkpt lat="50.10027" lon="5.03064">
        <ele>249.1</ele>
        <time>2022-04-21T11:42:09Z</time>
      </trkpt>
      <trkpt lat="50.10028" lon="5.03063">
        <ele>249.1</ele>
        <time>2022-04-21T11:42:10Z</time>
      </trkpt>
      <trkpt lat="50.1003" lon="5.03061">
        <ele>249.1</ele>
        <time>2022-04-21T11:42:11Z</time>
      </trkpt>
      <trkpt lat="50.10031" lon="5.0306">
        <ele>249.1</ele>
        <time>2022-04-21T11:42:12Z</time>
      </trkpt>
      <trkpt lat="50.10032" lon="5.0306">
        <ele>249.2</ele>
        <time>2022-04-21T11:42:13Z</time>
      </trkpt>
      <trkpt lat="50.10034" lon="5.03059">
        <ele>249.2</ele>
        <time>2022-04-21T11:42:14Z</time>
      </trkpt>
      <trkpt lat="50.10035" lon="5.03058">
        <ele>249.2</ele>
        <time>2022-04-21T11:42:16Z</time>
      </trkpt>
      <trkpt lat="50.10036" lon="5.03057">
        <ele>249.2</ele>
        <time>2022-04-21T11:42:17Z</time>
      </trkpt>
      <trkpt lat="50.10038" lon="5.03057">
        <ele>249.3</ele>
        <time>2022-04-21T11:42:18Z</time>
      </trkpt>
      <trkpt lat="50.10039" lon="5.03057">
        <ele>249.3</ele>
        <time>2022-04-21T11:42:19Z</time>
      </trkpt>
      <trkpt lat="50.10041" lon="5.03056">
        <ele>249.3</ele>
        <time>2022-04-21T11:42:20Z</time>
      </trkpt>
      <trkpt lat="50.10043" lon="5.03056">
        <ele>249.3</ele>
        <time>2022-04-21T11:42:21Z</time>
      </trkpt>
      <trkpt lat="50.10044" lon="5.03056">
        <ele>249.4</ele>
        <time>2022-04-21T11:42:22Z</time>
      </trkpt>
      <trkpt lat="50.10046" lon="5.03055">
        <ele>249.4</ele>
        <time>2022-04-21T11:42:23Z</time>
      </trkpt>
      <trkpt lat="50.10047" lon="5.03055">
        <ele>249.4</ele>
        <time>2022-04-21T11:42:24Z</time>
      </trkpt>
      <trkpt lat="50.10048" lon="5.03054">
        <ele>249.4</ele>
        <time>2022-04-21T11:42:25Z</time>
      </trkpt>
      <trkpt lat="50.1005" lon="5.03054">
        <ele>249.5</ele>
        <time>2022-04-21T11:42:27Z</time>
      </trkpt>
      <trkpt lat="50.10051" lon="5.03054">
        <ele>249.5</ele>
        <time>2022-04-21T11:42:28Z</time>
      </trkpt>
      <trkpt lat="50.10051" lon="5.03054">
        <ele>249.5</ele>
        <time>2022-04-21T11:42:29Z</time>
      </trkpt>
      <trkpt lat="50.10051" lon="5.03054">
        <ele>249.5</ele>
        <time>2022-04-21T11:42:30Z</time>
      </trkpt>
      <trkpt lat="50.1005" lon="5.03051">
        <ele>249.5</ele>
        <time>2022-04-21T11:42:31Z</time>
      </trkpt>
      <trkpt lat="50.10049" lon="5.0305">
        <ele>249.5</ele>
        <time>2022-04-21T11:42:32Z</time>
      </trkpt>
      <trkpt lat="50.1005" lon="5.03048">
        <ele>249.5</ele>
        <time>2022-04-21T11:42:34Z</time>
      </trkpt>
      <trkpt lat="50.1005" lon="5.03048">
        <ele>249.5</ele>
        <time>2022-04-21T11:42:35Z</time>
      </trkpt>
      <trkpt lat="50.10051" lon="5.03048">
        <ele>249.5</ele>
        <time>2022-04-21T11:42:36Z</time>
      </trkpt>
      <trkpt lat="50.10052" lon="5.03048">
        <ele>249.6</ele>
        <time>2022-04-21T11:42:37Z</time>
      </trkpt>
      <trkpt lat="50.10052" lon="5.03047">
        <ele>249.6</ele>
        <time>2022-04-21T11:42:38Z</time>
      </trkpt>
      <trkpt lat="50.10053" lon="5.03047">
        <ele>249.6</ele>
        <time>2022-04-21T11:42:39Z</time>
      </trkpt>
      <trkpt lat="50.10054" lon="5.03047">
        <ele>249.6</ele>
        <time>2022-04-21T11:42:40Z</time>
      </trkpt>
      <trkpt lat="50.10054" lon="5.03047">
        <ele>249.6</ele>
        <time>2022-04-21T11:42:41Z</time>
      </trkpt>
      <trkpt lat="50.10055" lon="5.03047">
        <ele>249.6</ele>
        <time>2022-04-21T11:42:43Z</time>
      </trkpt>
      <trkpt lat="50.10056" lon="5.03047">
        <ele>249.6</ele>
        <time>2022-04-21T11:42:44Z</time>
      </trkpt>
      <trkpt lat="50.10056" lon="5.03047">
        <ele>249.6</ele>
        <time>2022-04-21T11:42:45Z</time>
      </trkpt>
      <trkpt lat="50.10058" lon="5.03045">
        <ele>249.6</ele>
        <time>2022-04-21T11:42:46Z</time>
      </trkpt>
      <trkpt lat="50.10059" lon="5.03044">
        <ele>249.7</ele>
        <time>2022-04-21T11:42:47Z</time>
      </trkpt>
      <trkpt lat="50.10059" lon="5.03043">
        <ele>249.7</ele>
        <time>2022-04-21T11:42:48Z</time>
      </trkpt>
      <trkpt lat="50.1006" lon="5.03042">
        <ele>249.7</ele>
        <time>2022-04-21T11:42:49Z</time>
      </trkpt>
      <trkpt lat="50.10062" lon="5.0304">
        <ele>249.7</ele>
        <time>2022-04-21T11:42:50Z</time>
      </trkpt>
      <trkpt lat="50.10064" lon="5.03039">
        <ele>249.7</ele>
        <time>2022-04-21T11:42:51Z</time>
      </trkpt>
      <trkpt lat="50.10064" lon="5.03038">
        <ele>249.7</ele>
        <time>2022-04-21T11:42:52Z</time>
      </trkpt>
      <trkpt lat="50.10065" lon="5.03038">
        <ele>249.7</ele>
        <time>2022-04-21T11:42:53Z</time>
      </trkpt>
      <trkpt lat="50.10066" lon="5.03038">
        <ele>249.8</ele>
        <time>2022-04-21T11:42:54Z</time>
      </trkpt>
      <trkpt lat="50.10067" lon="5.03038">
        <ele>249.8</ele>
        <time>2022-04-21T11:42:55Z</time>
      </trkpt>
      <trkpt lat="50.10068" lon="5.03037">
        <ele>249.8</ele>
        <time>2022-04-21T11:42:56Z</time>
      </trkpt>
      <trkpt lat="50.10068" lon="5.03037">
        <ele>249.8</ele>
        <time>2022-04-21T11:42:57Z</time>
      </trkpt>
      <trkpt lat="50.10069" lon="5.03037">
        <ele>249.8</ele>
        <time>2022-04-21T11:42:58Z</time>
      </trkpt>
      <trkpt lat="50.1007" lon="5.03037">
        <ele>249.8</ele>
        <time>2022-04-21T11:42:59Z</time>
      </trkpt>
      <trkpt lat="50.10071" lon="5.03036">
        <ele>249.8</ele>
        <time>2022-04-21T11:43:00Z</time>
      </trkpt>
      <trkpt lat="50.10072" lon="5.03034">
        <ele>249.8</ele>
        <time>2022-04-21T11:43:01Z</time>
      </trkpt>
      <trkpt lat="50.10073" lon="5.03033">
        <ele>249.9</ele>
        <time>2022-04-21T11:43:02Z</time>
      </trkpt>
      <trkpt lat="50.10076" lon="5.0303">
        <ele>249.9</ele>
        <time>2022-04-21T11:43:04Z</time>
      </trkpt>
      <trkpt lat="50.10076" lon="5.03029">
        <ele>249.9</ele>
        <time>2022-04-21T11:43:05Z</time>
      </trkpt>
      <trkpt lat="50.10077" lon="5.03027">
        <ele>249.9</ele>
        <time>2022-04-21T11:43:06Z</time>
      </trkpt>
      <trkpt lat="50.10078" lon="5.03026">
        <ele>250</ele>
        <time>2022-04-21T11:43:07Z</time>
      </trkpt>
      <trkpt lat="50.10079" lon="5.03025">
        <ele>250</ele>
        <time>2022-04-21T11:43:08Z</time>
      </trkpt>
      <trkpt lat="50.1008" lon="5.03024">
        <ele>250</ele>
        <time>2022-04-21T11:43:09Z</time>
      </trkpt>
      <trkpt lat="50.10081" lon="5.03023">
        <ele>250</ele>
        <time>2022-04-21T11:43:10Z</time>
      </trkpt>
      <trkpt lat="50.10082" lon="5.03021">
        <ele>250</ele>
        <time>2022-04-21T11:43:11Z</time>
      </trkpt>
      <trkpt lat="50.10082" lon="5.0302">
        <ele>250.1</ele>
        <time>2022-04-21T11:43:12Z</time>
      </trkpt>
      <trkpt lat="50.10083" lon="5.0302">
        <ele>250.1</ele>
        <time>2022-04-21T11:43:14Z</time>
      </trkpt>
      <trkpt lat="50.10084" lon="5.03019">
        <ele>250.1</ele>
        <time>2022-04-21T11:43:15Z</time>
      </trkpt>
      <trkpt lat="50.10085" lon="5.03017">
        <ele>250.1</ele>
        <time>2022-04-21T11:43:17Z</time>
      </trkpt>
      <trkpt lat="50.10086" lon="5.03016">
        <ele>250.1</ele>
        <time>2022-04-21T11:43:18Z</time>
      </trkpt>
      <trkpt lat="50.10087" lon="5.03014">
        <ele>250.2</ele>
        <time>2022-04-21T11:43:19Z</time>
      </trkpt>
      <trkpt lat="50.10088" lon="5.03012">
        <ele>250.2</ele>
        <time>2022-04-21T11:43:20Z</time>
      </trkpt>
      <trkpt lat="50.10088" lon="5.03011">
        <ele>250.3</ele>
        <time>2022-04-21T11:43:21Z</time>
      </trkpt>
      <trkpt lat="50.10089" lon="5.0301">
        <ele>250.3</ele>
        <time>2022-04-21T11:43:22Z</time>
      </trkpt>
      <trkpt lat="50.10091" lon="5.03008">
        <ele>250.3</ele>
        <time>2022-04-21T11:43:23Z</time>
      </trkpt>
      <trkpt lat="50.10092" lon="5.03006">
        <ele>250.4</ele>
        <time>2022-04-21T11:43:24Z</time>
      </trkpt>
      <trkpt lat="50.10093" lon="5.03006">
        <ele>250.4</ele>
        <time>2022-04-21T11:43:25Z</time>
      </trkpt>
      <trkpt lat="50.10094" lon="5.03005">
        <ele>250.4</ele>
        <time>2022-04-21T11:43:26Z</time>
      </trkpt>
      <trkpt lat="50.10095" lon="5.03003">
        <ele>250.5</ele>
        <time>2022-04-21T11:43:27Z</time>
      </trkpt>
      <trkpt lat="50.10096" lon="5.03003">
        <ele>250.5</ele>
        <time>2022-04-21T11:43:28Z</time>
      </trkpt>
      <trkpt lat="50.10097" lon="5.03002">
        <ele>250.6</ele>
        <time>2022-04-21T11:43:29Z</time>
      </trkpt>
      <trkpt lat="50.10098" lon="5.03001">
        <ele>250.6</ele>
        <time>2022-04-21T11:43:30Z</time>
      </trkpt>
      <trkpt lat="50.10098" lon="5.03">
        <ele>250.6</ele>
        <time>2022-04-21T11:43:31Z</time>
      </trkpt>
      <trkpt lat="50.10099" lon="5.02999">
        <ele>250.7</ele>
        <time>2022-04-21T11:43:33Z</time>
      </trkpt>
      <trkpt lat="50.101" lon="5.02997">
        <ele>250.7</ele>
        <time>2022-04-21T11:43:34Z</time>
      </trkpt>
      <trkpt lat="50.101" lon="5.02996">
        <ele>250.7</ele>
        <time>2022-04-21T11:43:35Z</time>
      </trkpt>
      <trkpt lat="50.10101" lon="5.02995">
        <ele>250.7</ele>
        <time>2022-04-21T11:43:36Z</time>
      </trkpt>
      <trkpt lat="50.10102" lon="5.02994">
        <ele>250.8</ele>
        <time>2022-04-21T11:43:37Z</time>
      </trkpt>
      <trkpt lat="50.10102" lon="5.02993">
        <ele>250.8</ele>
        <time>2022-04-21T11:43:38Z</time>
      </trkpt>
      <trkpt lat="50.10103" lon="5.02991">
        <ele>250.9</ele>
        <time>2022-04-21T11:43:39Z</time>
      </trkpt>
      <trkpt lat="50.10104" lon="5.0299">
        <ele>250.9</ele>
        <time>2022-04-21T11:43:40Z</time>
      </trkpt>
      <trkpt lat="50.10106" lon="5.02988">
        <ele>251</ele>
        <time>2022-04-21T11:43:41Z</time>
      </trkpt>
      <trkpt lat="50.10107" lon="5.02986">
        <ele>251.1</ele>
        <time>2022-04-21T11:43:42Z</time>
      </trkpt>
      <trkpt lat="50.10108" lon="5.02984">
        <ele>251.1</ele>
        <time>2022-04-21T11:43:43Z</time>
      </trkpt>
      <trkpt lat="50.10109" lon="5.02982">
        <ele>251.2</ele>
        <time>2022-04-21T11:43:45Z</time>
      </trkpt>
      <trkpt lat="50.10111" lon="5.02979">
        <ele>251.3</ele>
        <time>2022-04-21T11:43:47Z</time>
      </trkpt>
      <trkpt lat="50.10111" lon="5.02979">
        <ele>251.4</ele>
        <time>2022-04-21T11:43:48Z</time>
      </trkpt>
      <trkpt lat="50.10112" lon="5.02979">
        <ele>251.4</ele>
        <time>2022-04-21T11:43:49Z</time>
      </trkpt>
      <trkpt lat="50.10112" lon="5.02978">
        <ele>251.4</ele>
        <time>2022-04-21T11:43:50Z</time>
      </trkpt>
      <trkpt lat="50.10113" lon="5.02976">
        <ele>251.5</ele>
        <time>2022-04-21T11:43:51Z</time>
      </trkpt>
      <trkpt lat="50.10113" lon="5.02975">
        <ele>251.5</ele>
        <time>2022-04-21T11:43:52Z</time>
      </trkpt>
      <trkpt lat="50.10113" lon="5.02974">
        <ele>251.5</ele>
        <time>2022-04-21T11:43:53Z</time>
      </trkpt>
      <trkpt lat="50.10114" lon="5.02973">
        <ele>251.6</ele>
        <time>2022-04-21T11:43:54Z</time>
      </trkpt>
      <trkpt lat="50.10114" lon="5.02972">
        <ele>251.6</ele>
        <time>2022-04-21T11:43:55Z</time>
      </trkpt>
      <trkpt lat="50.10116" lon="5.0297">
        <ele>251.7</ele>
        <time>2022-04-21T11:43:56Z</time>
      </trkpt>
      <trkpt lat="50.10116" lon="5.02969">
        <ele>251.8</ele>
        <time>2022-04-21T11:43:57Z</time>
      </trkpt>
      <trkpt lat="50.10118" lon="5.02967">
        <ele>251.9</ele>
        <time>2022-04-21T11:43:59Z</time>
      </trkpt>
      <trkpt lat="50.10119" lon="5.02966">
        <ele>251.9</ele>
        <time>2022-04-21T11:44:00Z</time>
      </trkpt>
      <trkpt lat="50.1012" lon="5.02964">
        <ele>252</ele>
        <time>2022-04-21T11:44:02Z</time>
      </trkpt>
      <trkpt lat="50.10121" lon="5.02963">
        <ele>252.1</ele>
        <time>2022-04-21T11:44:03Z</time>
      </trkpt>
      <trkpt lat="50.10121" lon="5.02962">
        <ele>252.1</ele>
        <time>2022-04-21T11:44:04Z</time>
      </trkpt>
      <trkpt lat="50.10122" lon="5.02961">
        <ele>252.2</ele>
        <time>2022-04-21T11:44:05Z</time>
      </trkpt>
      <trkpt lat="50.10122" lon="5.0296">
        <ele>252.2</ele>
        <time>2022-04-21T11:44:06Z</time>
      </trkpt>
      <trkpt lat="50.10123" lon="5.0296">
        <ele>252.3</ele>
        <time>2022-04-21T11:44:07Z</time>
      </trkpt>
      <trkpt lat="50.10124" lon="5.02959">
        <ele>252.3</ele>
        <time>2022-04-21T11:44:08Z</time>
      </trkpt>
      <trkpt lat="50.10124" lon="5.02959">
        <ele>252.4</ele>
        <time>2022-04-21T11:44:09Z</time>
      </trkpt>
      <trkpt lat="50.10125" lon="5.02958">
        <ele>252.4</ele>
        <time>2022-04-21T11:44:10Z</time>
      </trkpt>
      <trkpt lat="50.10126" lon="5.02958">
        <ele>252.5</ele>
        <time>2022-04-21T11:44:12Z</time>
      </trkpt>
      <trkpt lat="50.10127" lon="5.02957">
        <ele>252.5</ele>
        <time>2022-04-21T11:44:13Z</time>
      </trkpt>
      <trkpt lat="50.10127" lon="5.02956">
        <ele>252.6</ele>
        <time>2022-04-21T11:44:14Z</time>
      </trkpt>
      <trkpt lat="50.10127" lon="5.02955">
        <ele>252.6</ele>
        <time>2022-04-21T11:44:15Z</time>
      </trkpt>
      <trkpt lat="50.10127" lon="5.02954">
        <ele>252.6</ele>
        <time>2022-04-21T11:44:17Z</time>
      </trkpt>
      <trkpt lat="50.10127" lon="5.02954">
        <ele>252.6</ele>
        <time>2022-04-21T11:44:18Z</time>
      </trkpt>
      <trkpt lat="50.10127" lon="5.02954">
        <ele>252.7</ele>
        <time>2022-04-21T11:44:19Z</time>
      </trkpt>
      <trkpt lat="50.10127" lon="5.02954">
        <ele>252.7</ele>
        <time>2022-04-21T11:44:20Z</time>
      </trkpt>
      <trkpt lat="50.10127" lon="5.02954">
        <ele>252.7</ele>
        <time>2022-04-21T11:44:21Z</time>
      </trkpt>
      <trkpt lat="50.10128" lon="5.02954">
        <ele>252.7</ele>
        <time>2022-04-21T11:44:22Z</time>
      </trkpt>
      <trkpt lat="50.10128" lon="5.02954">
        <ele>252.6</ele>
        <time>2022-04-21T11:44:23Z</time>
      </trkpt>
      <trkpt lat="50.10128" lon="5.02954">
        <ele>252.6</ele>
        <time>2022-04-21T11:44:24Z</time>
      </trkpt>
      <trkpt lat="50.10127" lon="5.02954">
        <ele>252.6</ele>
        <time>2022-04-21T11:44:25Z</time>
      </trkpt>
      <trkpt lat="50.10127" lon="5.02954">
        <ele>252.6</ele>
        <time>2022-04-21T11:44:27Z</time>
      </trkpt>
      <trkpt lat="50.10127" lon="5.02954">
        <ele>252.6</ele>
        <time>2022-04-21T11:44:28Z</time>
      </trkpt>
      <trkpt lat="50.10127" lon="5.02954">
        <ele>252.6</ele>
        <time>2022-04-21T11:44:29Z</time>
      </trkpt>
      <trkpt lat="50.10127" lon="5.02954">
        <ele>252.6</ele>
        <time>2022-04-21T11:44:30Z</time>
      </trkpt>
      <trkpt lat="50.10127" lon="5.02954">
        <ele>252.6</ele>
        <time>2022-04-21T11:44:31Z</time>
      </trkpt>
      <trkpt lat="50.10127" lon="5.02954">
        <ele>252.6</ele>
        <time>2022-04-21T11:44:32Z</time>
      </trkpt>
      <trkpt lat="50.10127" lon="5.02954">
        <ele>252.6</ele>
        <time>2022-04-21T11:44:33Z</time>
      </trkpt>
      <trkpt lat="50.10127" lon="5.02954">
        <ele>252.6</ele>
        <time>2022-04-21T11:44:34Z</time>
      </trkpt>
      <trkpt lat="50.10127" lon="5.02954">
        <ele>252.6</ele>
        <time>2022-04-21T11:44:35Z</time>
      </trkpt>
      <trkpt lat="50.10127" lon="5.02954">
        <ele>252.6</ele>
        <time>2022-04-21T11:44:36Z</time>
      </trkpt>
      <trkpt lat="50.10127" lon="5.02954">
        <ele>252.5</ele>
        <time>2022-04-21T11:44:37Z</time>
      </trkpt>
      <trkpt lat="50.10127" lon="5.02954">
        <ele>252.5</ele>
        <time>2022-04-21T11:44:38Z</time>
      </trkpt>
      <trkpt lat="50.10127" lon="5.02954">
        <ele>252.5</ele>
        <time>2022-04-21T11:44:39Z</time>
      </trkpt>
      <trkpt lat="50.10127" lon="5.02954">
        <ele>252.5</ele>
        <time>2022-04-21T11:44:40Z</time>
      </trkpt>
      <trkpt lat="50.10127" lon="5.02954">
        <ele>252.5</ele>
        <time>2022-04-21T11:44:41Z</time>
      </trkpt>
      <trkpt lat="50.10127" lon="5.02954">
        <ele>252.5</ele>
        <time>2022-04-21T11:44:42Z</time>
      </trkpt>
      <trkpt lat="50.10127" lon="5.02954">
        <ele>252.5</ele>
        <time>2022-04-21T11:44:43Z</time>
      </trkpt>
      <trkpt lat="50.10127" lon="5.02954">
        <ele>252.5</ele>
        <time>2022-04-21T11:44:44Z</time>
      </trkpt>
      <trkpt lat="50.10127" lon="5.02954">
        <ele>252.5</ele>
        <time>2022-04-21T11:44:45Z</time>
      </trkpt>
      <trkpt lat="50.10127" lon="5.02954">
        <ele>252.5</ele>
        <time>2022-04-21T11:44:46Z</time>
      </trkpt>
      <trkpt lat="50.10127" lon="5.02954">
        <ele>252.5</ele>
        <time>2022-04-21T11:44:47Z</time>
      </trkpt>
      <trkpt lat="50.10127" lon="5.02954">
        <ele>252.5</ele>
        <time>2022-04-21T11:44:48Z</time>
      </trkpt>
      <trkpt lat="50.10127" lon="5.02954">
        <ele>252.5</ele>
        <time>2022-04-21T11:44:49Z</time>
      </trkpt>
      <trkpt lat="50.10127" lon="5.02954">
        <ele>252.4</ele>
        <time>2022-04-21T11:44:50Z</time>
      </trkpt>
      <trkpt lat="50.10127" lon="5.02954">
        <ele>252.4</ele>
        <time>2022-04-21T11:44:51Z</time>
      </trkpt>
      <trkpt lat="50.10127" lon="5.02953">
        <ele>252.4</ele>
        <time>2022-04-21T11:44:52Z</time>
      </trkpt>
      <trkpt lat="50.10128" lon="5.02953">
        <ele>252.5</ele>
        <time>2022-04-21T11:44:53Z</time>
      </trkpt>
      <trkpt lat="50.10129" lon="5.0295">
        <ele>252.6</ele>
        <time>2022-04-21T11:44:54Z</time>
      </trkpt>
      <trkpt lat="50.1013" lon="5.02947">
        <ele>252.8</ele>
        <time>2022-04-21T11:44:56Z</time>
      </trkpt>
      <trkpt lat="50.10131" lon="5.02945">
        <ele>252.9</ele>
        <time>2022-04-21T11:44:57Z</time>
      </trkpt>
      <trkpt lat="50.10132" lon="5.02943">
        <ele>252.9</ele>
        <time>2022-04-21T11:44:58Z</time>
      </trkpt>
      <trkpt lat="50.10133" lon="5.02942">
        <ele>253</ele>
        <time>2022-04-21T11:44:59Z</time>
      </trkpt>
      <trkpt lat="50.10134" lon="5.0294">
        <ele>253.1</ele>
        <time>2022-04-21T11:45:00Z</time>
      </trkpt>
      <trkpt lat="50.10134" lon="5.02939">
        <ele>253.2</ele>
        <time>2022-04-21T11:45:01Z</time>
      </trkpt>
      <trkpt lat="50.10135" lon="5.02939">
        <ele>253.2</ele>
        <time>2022-04-21T11:45:03Z</time>
      </trkpt>
      <trkpt lat="50.10135" lon="5.02938">
        <ele>253.2</ele>
        <time>2022-04-21T11:45:04Z</time>
      </trkpt>
      <trkpt lat="50.10136" lon="5.02938">
        <ele>253.2</ele>
        <time>2022-04-21T11:45:05Z</time>
      </trkpt>
      <trkpt lat="50.10137" lon="5.02937">
        <ele>253.3</ele>
        <time>2022-04-21T11:45:06Z</time>
      </trkpt>
      <trkpt lat="50.10139" lon="5.02936">
        <ele>253.5</ele>
        <time>2022-04-21T11:45:07Z</time>
      </trkpt>
      <trkpt lat="50.1014" lon="5.02936">
        <ele>253.5</ele>
        <time>2022-04-21T11:45:08Z</time>
      </trkpt>
      <trkpt lat="50.1014" lon="5.02935">
        <ele>253.6</ele>
        <time>2022-04-21T11:45:09Z</time>
      </trkpt>
      <trkpt lat="50.10142" lon="5.02935">
        <ele>253.7</ele>
        <time>2022-04-21T11:45:10Z</time>
      </trkpt>
      <trkpt lat="50.10144" lon="5.02934">
        <ele>253.8</ele>
        <time>2022-04-21T11:45:12Z</time>
      </trkpt>
      <trkpt lat="50.10145" lon="5.02933">
        <ele>253.9</ele>
        <time>2022-04-21T11:45:13Z</time>
      </trkpt>
      <trkpt lat="50.10146" lon="5.02932">
        <ele>254</ele>
        <time>2022-04-21T11:45:14Z</time>
      </trkpt>
      <trkpt lat="50.10147" lon="5.02931">
        <ele>254.1</ele>
        <time>2022-04-21T11:45:15Z</time>
      </trkpt>
      <trkpt lat="50.10148" lon="5.0293">
        <ele>254.2</ele>
        <time>2022-04-21T11:45:16Z</time>
      </trkpt>
      <trkpt lat="50.1015" lon="5.02929">
        <ele>254.4</ele>
        <time>2022-04-21T11:45:17Z</time>
      </trkpt>
      <trkpt lat="50.10151" lon="5.02929">
        <ele>254.3</ele>
        <time>2022-04-21T11:45:18Z</time>
      </trkpt>
      <trkpt lat="50.10152" lon="5.02928">
        <ele>254.4</ele>
        <time>2022-04-21T11:45:19Z</time>
      </trkpt>
      <trkpt lat="50.10152" lon="5.02928">
        <ele>254.5</ele>
        <time>2022-04-21T11:45:20Z</time>
      </trkpt>
      <trkpt lat="50.10154" lon="5.02928">
        <ele>254.6</ele>
        <time>2022-04-21T11:45:22Z</time>
      </trkpt>
      <trkpt lat="50.10154" lon="5.02927">
        <ele>254.7</ele>
        <time>2022-04-21T11:45:23Z</time>
      </trkpt>
      <trkpt lat="50.10155" lon="5.02926">
        <ele>254.7</ele>
        <time>2022-04-21T11:45:24Z</time>
      </trkpt>
      <trkpt lat="50.10156" lon="5.02925">
        <ele>254.9</ele>
        <time>2022-04-21T11:45:25Z</time>
      </trkpt>
      <trkpt lat="50.10157" lon="5.02924">
        <ele>254.9</ele>
        <time>2022-04-21T11:45:26Z</time>
      </trkpt>
      <trkpt lat="50.10158" lon="5.02924">
        <ele>254.9</ele>
        <time>2022-04-21T11:45:27Z</time>
      </trkpt>
      <trkpt lat="50.10158" lon="5.02923">
        <ele>255</ele>
        <time>2022-04-21T11:45:28Z</time>
      </trkpt>
      <trkpt lat="50.10159" lon="5.02923">
        <ele>255.1</ele>
        <time>2022-04-21T11:45:29Z</time>
      </trkpt>
      <trkpt lat="50.1016" lon="5.02922">
        <ele>255.1</ele>
        <time>2022-04-21T11:45:30Z</time>
      </trkpt>
      <trkpt lat="50.10161" lon="5.02921">
        <ele>255.2</ele>
        <time>2022-04-21T11:45:31Z</time>
      </trkpt>
      <trkpt lat="50.10162" lon="5.02921">
        <ele>255.3</ele>
        <time>2022-04-21T11:45:32Z</time>
      </trkpt>
      <trkpt lat="50.10163" lon="5.02921">
        <ele>255.4</ele>
        <time>2022-04-21T11:45:33Z</time>
      </trkpt>
      <trkpt lat="50.10164" lon="5.02921">
        <ele>255.4</ele>
        <time>2022-04-21T11:45:35Z</time>
      </trkpt>
      <trkpt lat="50.10165" lon="5.02921">
        <ele>255.6</ele>
        <time>2022-04-21T11:45:36Z</time>
      </trkpt>
      <trkpt lat="50.10167" lon="5.02921">
        <ele>255.7</ele>
        <time>2022-04-21T11:45:37Z</time>
      </trkpt>
      <trkpt lat="50.10169" lon="5.0292">
        <ele>255.8</ele>
        <time>2022-04-21T11:45:38Z</time>
      </trkpt>
      <trkpt lat="50.1017" lon="5.0292">
        <ele>255.9</ele>
        <time>2022-04-21T11:45:39Z</time>
      </trkpt>
      <trkpt lat="50.10171" lon="5.0292">
        <ele>256</ele>
        <time>2022-04-21T11:45:40Z</time>
      </trkpt>
      <trkpt lat="50.10172" lon="5.0292">
        <ele>256.1</ele>
        <time>2022-04-21T11:45:41Z</time>
      </trkpt>
      <trkpt lat="50.10174" lon="5.0292">
        <ele>256.2</ele>
        <time>2022-04-21T11:45:42Z</time>
      </trkpt>
      <trkpt lat="50.10176" lon="5.0292">
        <ele>256.4</ele>
        <time>2022-04-21T11:45:43Z</time>
      </trkpt>
      <trkpt lat="50.10178" lon="5.02922">
        <ele>256.5</ele>
        <time>2022-04-21T11:45:45Z</time>
      </trkpt>
      <trkpt lat="50.10179" lon="5.02923">
        <ele>256.6</ele>
        <time>2022-04-21T11:45:46Z</time>
      </trkpt>
      <trkpt lat="50.10181" lon="5.02925">
        <ele>256.7</ele>
        <time>2022-04-21T11:45:47Z</time>
      </trkpt>
      <trkpt lat="50.10182" lon="5.02926">
        <ele>256.8</ele>
        <time>2022-04-21T11:45:48Z</time>
      </trkpt>
      <trkpt lat="50.10183" lon="5.02928">
        <ele>256.8</ele>
        <time>2022-04-21T11:45:49Z</time>
      </trkpt>
      <trkpt lat="50.10184" lon="5.0293">
        <ele>256.9</ele>
        <time>2022-04-21T11:45:50Z</time>
      </trkpt>
      <trkpt lat="50.10185" lon="5.02932">
        <ele>257</ele>
        <time>2022-04-21T11:45:51Z</time>
      </trkpt>
      <trkpt lat="50.10186" lon="5.02935">
        <ele>257.1</ele>
        <time>2022-04-21T11:45:52Z</time>
      </trkpt>
      <trkpt lat="50.10186" lon="5.02936">
        <ele>257.2</ele>
        <time>2022-04-21T11:45:54Z</time>
      </trkpt>
      <trkpt lat="50.10187" lon="5.02938">
        <ele>257.2</ele>
        <time>2022-04-21T11:45:55Z</time>
      </trkpt>
      <trkpt lat="50.10188" lon="5.02939">
        <ele>257.3</ele>
        <time>2022-04-21T11:45:56Z</time>
      </trkpt>
      <trkpt lat="50.10189" lon="5.02941">
        <ele>257.4</ele>
        <time>2022-04-21T11:45:57Z</time>
      </trkpt>
      <trkpt lat="50.1019" lon="5.02943">
        <ele>257.5</ele>
        <time>2022-04-21T11:45:58Z</time>
      </trkpt>
      <trkpt lat="50.10191" lon="5.02944">
        <ele>257.5</ele>
        <time>2022-04-21T11:46:00Z</time>
      </trkpt>
      <trkpt lat="50.10191" lon="5.02945">
        <ele>257.6</ele>
        <time>2022-04-21T11:46:01Z</time>
      </trkpt>
      <trkpt lat="50.10192" lon="5.02947">
        <ele>257.6</ele>
        <time>2022-04-21T11:46:02Z</time>
      </trkpt>
      <trkpt lat="50.10193" lon="5.02949">
        <ele>257.7</ele>
        <time>2022-04-21T11:46:03Z</time>
      </trkpt>
      <trkpt lat="50.10194" lon="5.02951">
        <ele>257.8</ele>
        <time>2022-04-21T11:46:04Z</time>
      </trkpt>
      <trkpt lat="50.10195" lon="5.02953">
        <ele>257.9</ele>
        <time>2022-04-21T11:46:05Z</time>
      </trkpt>
      <trkpt lat="50.10197" lon="5.02956">
        <ele>258</ele>
        <time>2022-04-21T11:46:06Z</time>
      </trkpt>
      <trkpt lat="50.10197" lon="5.02957">
        <ele>258.1</ele>
        <time>2022-04-21T11:46:07Z</time>
      </trkpt>
      <trkpt lat="50.10198" lon="5.0296">
        <ele>258.2</ele>
        <time>2022-04-21T11:46:08Z</time>
      </trkpt>
      <trkpt lat="50.10198" lon="5.02962">
        <ele>258.3</ele>
        <time>2022-04-21T11:46:10Z</time>
      </trkpt>
      <trkpt lat="50.10199" lon="5.02964">
        <ele>258.3</ele>
        <time>2022-04-21T11:46:11Z</time>
      </trkpt>
      <trkpt lat="50.102" lon="5.02965">
        <ele>258.4</ele>
        <time>2022-04-21T11:46:12Z</time>
      </trkpt>
      <trkpt lat="50.102" lon="5.02967">
        <ele>258.4</ele>
        <time>2022-04-21T11:46:13Z</time>
      </trkpt>
      <trkpt lat="50.102" lon="5.02969">
        <ele>258.5</ele>
        <time>2022-04-21T11:46:14Z</time>
      </trkpt>
      <trkpt lat="50.102" lon="5.02971">
        <ele>258.6</ele>
        <time>2022-04-21T11:46:15Z</time>
      </trkpt>
      <trkpt lat="50.10198" lon="5.02976">
        <ele>258.7</ele>
        <time>2022-04-21T11:46:17Z</time>
      </trkpt>
      <trkpt lat="50.10198" lon="5.02977">
        <ele>258.8</ele>
        <time>2022-04-21T11:46:18Z</time>
      </trkpt>
      <trkpt lat="50.10198" lon="5.02979">
        <ele>258.8</ele>
        <time>2022-04-21T11:46:19Z</time>
      </trkpt>
      <trkpt lat="50.10198" lon="5.02981">
        <ele>258.9</ele>
        <time>2022-04-21T11:46:20Z</time>
      </trkpt>
      <trkpt lat="50.10199" lon="5.02985">
        <ele>259</ele>
        <time>2022-04-21T11:46:21Z</time>
      </trkpt>
      <trkpt lat="50.102" lon="5.02986">
        <ele>259</ele>
        <time>2022-04-21T11:46:22Z</time>
      </trkpt>
      <trkpt lat="50.10201" lon="5.02988">
        <ele>259.1</ele>
        <time>2022-04-21T11:46:23Z</time>
      </trkpt>
      <trkpt lat="50.10202" lon="5.02991">
        <ele>259.1</ele>
        <time>2022-04-21T11:46:25Z</time>
      </trkpt>
      <trkpt lat="50.10203" lon="5.02993">
        <ele>259.2</ele>
        <time>2022-04-21T11:46:26Z</time>
      </trkpt>
      <trkpt lat="50.10204" lon="5.02995">
        <ele>259.3</ele>
        <time>2022-04-21T11:46:27Z</time>
      </trkpt>
      <trkpt lat="50.10205" lon="5.02998">
        <ele>259.3</ele>
        <time>2022-04-21T11:46:28Z</time>
      </trkpt>
      <trkpt lat="50.10206" lon="5.02999">
        <ele>259.3</ele>
        <time>2022-04-21T11:46:29Z</time>
      </trkpt>
      <trkpt lat="50.10206" lon="5.03">
        <ele>259.3</ele>
        <time>2022-04-21T11:46:30Z</time>
      </trkpt>
      <trkpt lat="50.10207" lon="5.03002">
        <ele>259.3</ele>
        <time>2022-04-21T11:46:31Z</time>
      </trkpt>
      <trkpt lat="50.10208" lon="5.03004">
        <ele>259.3</ele>
        <time>2022-04-21T11:46:32Z</time>
      </trkpt>
      <trkpt lat="50.10209" lon="5.03006">
        <ele>259.3</ele>
        <time>2022-04-21T11:46:33Z</time>
      </trkpt>
      <trkpt lat="50.1021" lon="5.03007">
        <ele>259.3</ele>
        <time>2022-04-21T11:46:34Z</time>
      </trkpt>
      <trkpt lat="50.10211" lon="5.03009">
        <ele>259.3</ele>
        <time>2022-04-21T11:46:35Z</time>
      </trkpt>
      <trkpt lat="50.10212" lon="5.0301">
        <ele>259.3</ele>
        <time>2022-04-21T11:46:36Z</time>
      </trkpt>
      <trkpt lat="50.10214" lon="5.03012">
        <ele>259.3</ele>
        <time>2022-04-21T11:46:38Z</time>
      </trkpt>
      <trkpt lat="50.10215" lon="5.03013">
        <ele>259.3</ele>
        <time>2022-04-21T11:46:39Z</time>
      </trkpt>
      <trkpt lat="50.10216" lon="5.03014">
        <ele>259.3</ele>
        <time>2022-04-21T11:46:40Z</time>
      </trkpt>
      <trkpt lat="50.10216" lon="5.03015">
        <ele>259.2</ele>
        <time>2022-04-21T11:46:41Z</time>
      </trkpt>
      <trkpt lat="50.10217" lon="5.03016">
        <ele>259.1</ele>
        <time>2022-04-21T11:46:42Z</time>
      </trkpt>
      <trkpt lat="50.10217" lon="5.03017">
        <ele>259</ele>
        <time>2022-04-21T11:46:43Z</time>
      </trkpt>
      <trkpt lat="50.10218" lon="5.03019">
        <ele>259</ele>
        <time>2022-04-21T11:46:44Z</time>
      </trkpt>
      <trkpt lat="50.10218" lon="5.0302">
        <ele>258.9</ele>
        <time>2022-04-21T11:46:45Z</time>
      </trkpt>
      <trkpt lat="50.10218" lon="5.03022">
        <ele>258.7</ele>
        <time>2022-04-21T11:46:47Z</time>
      </trkpt>
      <trkpt lat="50.10218" lon="5.03024">
        <ele>258.7</ele>
        <time>2022-04-21T11:46:48Z</time>
      </trkpt>
      <trkpt lat="50.10218" lon="5.03025">
        <ele>258.6</ele>
        <time>2022-04-21T11:46:49Z</time>
      </trkpt>
      <trkpt lat="50.10218" lon="5.03027">
        <ele>258.5</ele>
        <time>2022-04-21T11:46:50Z</time>
      </trkpt>
      <trkpt lat="50.10217" lon="5.03028">
        <ele>258.4</ele>
        <time>2022-04-21T11:46:51Z</time>
      </trkpt>
      <trkpt lat="50.10217" lon="5.03031">
        <ele>258.2</ele>
        <time>2022-04-21T11:46:52Z</time>
      </trkpt>
      <trkpt lat="50.10216" lon="5.03033">
        <ele>258.1</ele>
        <time>2022-04-21T11:46:53Z</time>
      </trkpt>
      <trkpt lat="50.10216" lon="5.03034">
        <ele>258</ele>
        <time>2022-04-21T11:46:54Z</time>
      </trkpt>
      <trkpt lat="50.10216" lon="5.03035">
        <ele>257.9</ele>
        <time>2022-04-21T11:46:55Z</time>
      </trkpt>
      <trkpt lat="50.10216" lon="5.03038">
        <ele>257.8</ele>
        <time>2022-04-21T11:46:56Z</time>
      </trkpt>
      <trkpt lat="50.10216" lon="5.03039">
        <ele>257.7</ele>
        <time>2022-04-21T11:46:58Z</time>
      </trkpt>
      <trkpt lat="50.10216" lon="5.0304">
        <ele>257.7</ele>
        <time>2022-04-21T11:46:59Z</time>
      </trkpt>
      <trkpt lat="50.10216" lon="5.03041">
        <ele>257.6</ele>
        <time>2022-04-21T11:47:00Z</time>
      </trkpt>
      <trkpt lat="50.10217" lon="5.03045">
        <ele>257.4</ele>
        <time>2022-04-21T11:47:01Z</time>
      </trkpt>
      <trkpt lat="50.10217" lon="5.03047">
        <ele>257.3</ele>
        <time>2022-04-21T11:47:02Z</time>
      </trkpt>
      <trkpt lat="50.10218" lon="5.03049">
        <ele>257.2</ele>
        <time>2022-04-21T11:47:03Z</time>
      </trkpt>
      <trkpt lat="50.10218" lon="5.03052">
        <ele>257</ele>
        <time>2022-04-21T11:47:04Z</time>
      </trkpt>
      <trkpt lat="50.10218" lon="5.03057">
        <ele>256.8</ele>
        <time>2022-04-21T11:47:05Z</time>
      </trkpt>
      <trkpt lat="50.10218" lon="5.03058">
        <ele>256.7</ele>
        <time>2022-04-21T11:47:06Z</time>
      </trkpt>
      <trkpt lat="50.10219" lon="5.03062">
        <ele>256.5</ele>
        <time>2022-04-21T11:47:07Z</time>
      </trkpt>
      <trkpt lat="50.10219" lon="5.03064">
        <ele>256.5</ele>
        <time>2022-04-21T11:47:08Z</time>
      </trkpt>
      <trkpt lat="50.10218" lon="5.03065">
        <ele>256.4</ele>
        <time>2022-04-21T11:47:09Z</time>
      </trkpt>
      <trkpt lat="50.10218" lon="5.03067">
        <ele>256.3</ele>
        <time>2022-04-21T11:47:10Z</time>
      </trkpt>
      <trkpt lat="50.10218" lon="5.03068">
        <ele>256.3</ele>
        <time>2022-04-21T11:47:11Z</time>
      </trkpt>
      <trkpt lat="50.10217" lon="5.0307">
        <ele>256.2</ele>
        <time>2022-04-21T11:47:12Z</time>
      </trkpt>
      <trkpt lat="50.10216" lon="5.0307">
        <ele>256.2</ele>
        <time>2022-04-21T11:47:13Z</time>
      </trkpt>
      <trkpt lat="50.10215" lon="5.03071">
        <ele>256.1</ele>
        <time>2022-04-21T11:47:14Z</time>
      </trkpt>
      <trkpt lat="50.10215" lon="5.03072">
        <ele>256.1</ele>
        <time>2022-04-21T11:47:15Z</time>
      </trkpt>
      <trkpt lat="50.10214" lon="5.03074">
        <ele>256</ele>
        <time>2022-04-21T11:47:17Z</time>
      </trkpt>
      <trkpt lat="50.10214" lon="5.03075">
        <ele>256</ele>
        <time>2022-04-21T11:47:18Z</time>
      </trkpt>
      <trkpt lat="50.10213" lon="5.03076">
        <ele>256</ele>
        <time>2022-04-21T11:47:19Z</time>
      </trkpt>
      <trkpt lat="50.10213" lon="5.03077">
        <ele>255.9</ele>
        <time>2022-04-21T11:47:20Z</time>
      </trkpt>
      <trkpt lat="50.10212" lon="5.03077">
        <ele>255.9</ele>
        <time>2022-04-21T11:47:21Z</time>
      </trkpt>
      <trkpt lat="50.10212" lon="5.03078">
        <ele>255.9</ele>
        <time>2022-04-21T11:47:22Z</time>
      </trkpt>
      <trkpt lat="50.10211" lon="5.03079">
        <ele>255.8</ele>
        <time>2022-04-21T11:47:23Z</time>
      </trkpt>
      <trkpt lat="50.1021" lon="5.03079">
        <ele>255.8</ele>
        <time>2022-04-21T11:47:24Z</time>
      </trkpt>
      <trkpt lat="50.10209" lon="5.0308">
        <ele>255.7</ele>
        <time>2022-04-21T11:47:25Z</time>
      </trkpt>
      <trkpt lat="50.10209" lon="5.03081">
        <ele>255.7</ele>
        <time>2022-04-21T11:47:26Z</time>
      </trkpt>
      <trkpt lat="50.10208" lon="5.03082">
        <ele>255.6</ele>
        <time>2022-04-21T11:47:27Z</time>
      </trkpt>
      <trkpt lat="50.10208" lon="5.03083">
        <ele>255.6</ele>
        <time>2022-04-21T11:47:28Z</time>
      </trkpt>
      <trkpt lat="50.10207" lon="5.03084">
        <ele>255.6</ele>
        <time>2022-04-21T11:47:30Z</time>
      </trkpt>
      <trkpt lat="50.10206" lon="5.03085">
        <ele>255.5</ele>
        <time>2022-04-21T11:47:31Z</time>
      </trkpt>
      <trkpt lat="50.10206" lon="5.03086">
        <ele>255.5</ele>
        <time>2022-04-21T11:47:32Z</time>
      </trkpt>
      <trkpt lat="50.10204" lon="5.03089">
        <ele>255.3</ele>
        <time>2022-04-21T11:47:33Z</time>
      </trkpt>
      <trkpt lat="50.10203" lon="5.0309">
        <ele>255.3</ele>
        <time>2022-04-21T11:47:34Z</time>
      </trkpt>
      <trkpt lat="50.10202" lon="5.03092">
        <ele>255.2</ele>
        <time>2022-04-21T11:47:35Z</time>
      </trkpt>
      <trkpt lat="50.10201" lon="5.03094">
        <ele>255.2</ele>
        <time>2022-04-21T11:47:36Z</time>
      </trkpt>
      <trkpt lat="50.102" lon="5.03096">
        <ele>255.1</ele>
        <time>2022-04-21T11:47:37Z</time>
      </trkpt>
      <trkpt lat="50.10199" lon="5.03097">
        <ele>255</ele>
        <time>2022-04-21T11:47:38Z</time>
      </trkpt>
      <trkpt lat="50.10199" lon="5.03098">
        <ele>255</ele>
        <time>2022-04-21T11:47:39Z</time>
      </trkpt>
      <trkpt lat="50.10198" lon="5.03099">
        <ele>254.9</ele>
        <time>2022-04-21T11:47:40Z</time>
      </trkpt>
      <trkpt lat="50.10196" lon="5.03099">
        <ele>254.9</ele>
        <time>2022-04-21T11:47:41Z</time>
      </trkpt>
      <trkpt lat="50.10195" lon="5.031">
        <ele>254.8</ele>
        <time>2022-04-21T11:47:42Z</time>
      </trkpt>
      <trkpt lat="50.10194" lon="5.03101">
        <ele>254.8</ele>
        <time>2022-04-21T11:47:43Z</time>
      </trkpt>
      <trkpt lat="50.10192" lon="5.03102">
        <ele>254.7</ele>
        <time>2022-04-21T11:47:44Z</time>
      </trkpt>
      <trkpt lat="50.10191" lon="5.03103">
        <ele>254.7</ele>
        <time>2022-04-21T11:47:45Z</time>
      </trkpt>
      <trkpt lat="50.10189" lon="5.03104">
        <ele>254.6</ele>
        <time>2022-04-21T11:47:46Z</time>
      </trkpt>
      <trkpt lat="50.10188" lon="5.03105">
        <ele>254.6</ele>
        <time>2022-04-21T11:47:47Z</time>
      </trkpt>
      <trkpt lat="50.10188" lon="5.03107">
        <ele>254.5</ele>
        <time>2022-04-21T11:47:48Z</time>
      </trkpt>
      <trkpt lat="50.10187" lon="5.03109">
        <ele>254.4</ele>
        <time>2022-04-21T11:47:50Z</time>
      </trkpt>
      <trkpt lat="50.10187" lon="5.0311">
        <ele>254.4</ele>
        <time>2022-04-21T11:47:51Z</time>
      </trkpt>
      <trkpt lat="50.10186" lon="5.03112">
        <ele>254.4</ele>
        <time>2022-04-21T11:47:52Z</time>
      </trkpt>
      <trkpt lat="50.10185" lon="5.03113">
        <ele>254.3</ele>
        <time>2022-04-21T11:47:53Z</time>
      </trkpt>
      <trkpt lat="50.10185" lon="5.03114">
        <ele>254.3</ele>
        <time>2022-04-21T11:47:54Z</time>
      </trkpt>
      <trkpt lat="50.10184" lon="5.03116">
        <ele>254.3</ele>
        <time>2022-04-21T11:47:55Z</time>
      </trkpt>
      <trkpt lat="50.10183" lon="5.03117">
        <ele>254.2</ele>
        <time>2022-04-21T11:47:57Z</time>
      </trkpt>
      <trkpt lat="50.10182" lon="5.03119">
        <ele>254.1</ele>
        <time>2022-04-21T11:47:58Z</time>
      </trkpt>
      <trkpt lat="50.1018" lon="5.0312">
        <ele>254.1</ele>
        <time>2022-04-21T11:47:59Z</time>
      </trkpt>
      <trkpt lat="50.10179" lon="5.03121">
        <ele>254</ele>
        <time>2022-04-21T11:48:00Z</time>
      </trkpt>
      <trkpt lat="50.10177" lon="5.03122">
        <ele>254</ele>
        <time>2022-04-21T11:48:01Z</time>
      </trkpt>
      <trkpt lat="50.10175" lon="5.03124">
        <ele>253.9</ele>
        <time>2022-04-21T11:48:02Z</time>
      </trkpt>
      <trkpt lat="50.10174" lon="5.03125">
        <ele>253.8</ele>
        <time>2022-04-21T11:48:03Z</time>
      </trkpt>
      <trkpt lat="50.10173" lon="5.03126">
        <ele>253.8</ele>
        <time>2022-04-21T11:48:04Z</time>
      </trkpt>
      <trkpt lat="50.10171" lon="5.03126">
        <ele>253.7</ele>
        <time>2022-04-21T11:48:05Z</time>
      </trkpt>
      <trkpt lat="50.1017" lon="5.03127">
        <ele>253.7</ele>
        <time>2022-04-21T11:48:06Z</time>
      </trkpt>
      <trkpt lat="50.10169" lon="5.03128">
        <ele>253.6</ele>
        <time>2022-04-21T11:48:07Z</time>
      </trkpt>
      <trkpt lat="50.10168" lon="5.03129">
        <ele>253.6</ele>
        <time>2022-04-21T11:48:09Z</time>
      </trkpt>
      <trkpt lat="50.10167" lon="5.03129">
        <ele>253.5</ele>
        <time>2022-04-21T11:48:10Z</time>
      </trkpt>
      <trkpt lat="50.10167" lon="5.03129">
        <ele>253.5</ele>
        <time>2022-04-21T11:48:11Z</time>
      </trkpt>
      <trkpt lat="50.10166" lon="5.0313">
        <ele>253.5</ele>
        <time>2022-04-21T11:48:12Z</time>
      </trkpt>
      <trkpt lat="50.10165" lon="5.03131">
        <ele>253.4</ele>
        <time>2022-04-21T11:48:14Z</time>
      </trkpt>
      <trkpt lat="50.10164" lon="5.03132">
        <ele>253.4</ele>
        <time>2022-04-21T11:48:15Z</time>
      </trkpt>
      <trkpt lat="50.10163" lon="5.03133">
        <ele>253.4</ele>
        <time>2022-04-21T11:48:16Z</time>
      </trkpt>
      <trkpt lat="50.10162" lon="5.03133">
        <ele>253.3</ele>
        <time>2022-04-21T11:48:17Z</time>
      </trkpt>
      <trkpt lat="50.10162" lon="5.03134">
        <ele>253.3</ele>
        <time>2022-04-21T11:48:18Z</time>
      </trkpt>
      <trkpt lat="50.10161" lon="5.03134">
        <ele>253.2</ele>
        <time>2022-04-21T11:48:19Z</time>
      </trkpt>
      <trkpt lat="50.1016" lon="5.03135">
        <ele>253.2</ele>
        <time>2022-04-21T11:48:20Z</time>
      </trkpt>
      <trkpt lat="50.10159" lon="5.03136">
        <ele>253.1</ele>
        <time>2022-04-21T11:48:21Z</time>
      </trkpt>
      <trkpt lat="50.10158" lon="5.03137">
        <ele>253</ele>
        <time>2022-04-21T11:48:22Z</time>
      </trkpt>
      <trkpt lat="50.10156" lon="5.03138">
        <ele>252.9</ele>
        <time>2022-04-21T11:48:23Z</time>
      </trkpt>
      <trkpt lat="50.10155" lon="5.03141">
        <ele>252.7</ele>
        <time>2022-04-21T11:48:24Z</time>
      </trkpt>
      <trkpt lat="50.10154" lon="5.03143">
        <ele>252.6</ele>
        <time>2022-04-21T11:48:26Z</time>
      </trkpt>
      <trkpt lat="50.10154" lon="5.03144">
        <ele>252.6</ele>
        <time>2022-04-21T11:48:27Z</time>
      </trkpt>
      <trkpt lat="50.10154" lon="5.03146">
        <ele>252.5</ele>
        <time>2022-04-21T11:48:28Z</time>
      </trkpt>
      <trkpt lat="50.10153" lon="5.03147">
        <ele>252.4</ele>
        <time>2022-04-21T11:48:30Z</time>
      </trkpt>
      <trkpt lat="50.10153" lon="5.03149">
        <ele>252.3</ele>
        <time>2022-04-21T11:48:31Z</time>
      </trkpt>
      <trkpt lat="50.10152" lon="5.0315">
        <ele>252.2</ele>
        <time>2022-04-21T11:48:32Z</time>
      </trkpt>
      <trkpt lat="50.10152" lon="5.03152">
        <ele>252.1</ele>
        <time>2022-04-21T11:48:33Z</time>
      </trkpt>
      <trkpt lat="50.10152" lon="5.03154">
        <ele>252</ele>
        <time>2022-04-21T11:48:34Z</time>
      </trkpt>
      <trkpt lat="50.10152" lon="5.03156">
        <ele>251.8</ele>
        <time>2022-04-21T11:48:35Z</time>
      </trkpt>
      <trkpt lat="50.10152" lon="5.03161">
        <ele>251.5</ele>
        <time>2022-04-21T11:48:36Z</time>
      </trkpt>
      <trkpt lat="50.10152" lon="5.03162">
        <ele>251.5</ele>
        <time>2022-04-21T11:48:37Z</time>
      </trkpt>
      <trkpt lat="50.10152" lon="5.03165">
        <ele>251.3</ele>
        <time>2022-04-21T11:48:38Z</time>
      </trkpt>
      <trkpt lat="50.10153" lon="5.03167">
        <ele>251.2</ele>
        <time>2022-04-21T11:48:39Z</time>
      </trkpt>
      <trkpt lat="50.10154" lon="5.03169">
        <ele>251</ele>
        <time>2022-04-21T11:48:40Z</time>
      </trkpt>
      <trkpt lat="50.10154" lon="5.03172">
        <ele>250.9</ele>
        <time>2022-04-21T11:48:41Z</time>
      </trkpt>
      <trkpt lat="50.10155" lon="5.03173">
        <ele>250.8</ele>
        <time>2022-04-21T11:48:42Z</time>
      </trkpt>
      <trkpt lat="50.10155" lon="5.03174">
        <ele>250.7</ele>
        <time>2022-04-21T11:48:43Z</time>
      </trkpt>
      <trkpt lat="50.10156" lon="5.03175">
        <ele>250.6</ele>
        <time>2022-04-21T11:48:44Z</time>
      </trkpt>
      <trkpt lat="50.10157" lon="5.03176">
        <ele>250.5</ele>
        <time>2022-04-21T11:48:45Z</time>
      </trkpt>
      <trkpt lat="50.10157" lon="5.03177">
        <ele>250.4</ele>
        <time>2022-04-21T11:48:46Z</time>
      </trkpt>
      <trkpt lat="50.10158" lon="5.03178">
        <ele>250.4</ele>
        <time>2022-04-21T11:48:48Z</time>
      </trkpt>
      <trkpt lat="50.10158" lon="5.03179">
        <ele>250.3</ele>
        <time>2022-04-21T11:48:49Z</time>
      </trkpt>
      <trkpt lat="50.10158" lon="5.03182">
        <ele>250.1</ele>
        <time>2022-04-21T11:48:50Z</time>
      </trkpt>
      <trkpt lat="50.10158" lon="5.03183">
        <ele>250</ele>
        <time>2022-04-21T11:48:51Z</time>
      </trkpt>
      <trkpt lat="50.10158" lon="5.03185">
        <ele>249.9</ele>
        <time>2022-04-21T11:48:52Z</time>
      </trkpt>
      <trkpt lat="50.10159" lon="5.03189">
        <ele>249.7</ele>
        <time>2022-04-21T11:48:53Z</time>
      </trkpt>
      <trkpt lat="50.1016" lon="5.03191">
        <ele>249.5</ele>
        <time>2022-04-21T11:48:55Z</time>
      </trkpt>
      <trkpt lat="50.1016" lon="5.03193">
        <ele>249.4</ele>
        <time>2022-04-21T11:48:56Z</time>
      </trkpt>
      <trkpt lat="50.10161" lon="5.03195">
        <ele>249.2</ele>
        <time>2022-04-21T11:48:57Z</time>
      </trkpt>
      <trkpt lat="50.10162" lon="5.03199">
        <ele>249</ele>
        <time>2022-04-21T11:48:59Z</time>
      </trkpt>
      <trkpt lat="50.10162" lon="5.032">
        <ele>248.9</ele>
        <time>2022-04-21T11:49:00Z</time>
      </trkpt>
      <trkpt lat="50.10162" lon="5.03201">
        <ele>248.9</ele>
        <time>2022-04-21T11:49:01Z</time>
      </trkpt>
      <trkpt lat="50.10162" lon="5.03203">
        <ele>248.8</ele>
        <time>2022-04-21T11:49:02Z</time>
      </trkpt>
      <trkpt lat="50.10163" lon="5.03204">
        <ele>248.6</ele>
        <time>2022-04-21T11:49:03Z</time>
      </trkpt>
      <trkpt lat="50.10164" lon="5.03206">
        <ele>248.5</ele>
        <time>2022-04-21T11:49:05Z</time>
      </trkpt>
      <trkpt lat="50.10165" lon="5.03208">
        <ele>248.4</ele>
        <time>2022-04-21T11:49:06Z</time>
      </trkpt>
      <trkpt lat="50.10165" lon="5.0321">
        <ele>248.3</ele>
        <time>2022-04-21T11:49:08Z</time>
      </trkpt>
      <trkpt lat="50.10166" lon="5.03211">
        <ele>248.2</ele>
        <time>2022-04-21T11:49:09Z</time>
      </trkpt>
      <trkpt lat="50.10167" lon="5.03213">
        <ele>248</ele>
        <time>2022-04-21T11:49:10Z</time>
      </trkpt>
      <trkpt lat="50.10168" lon="5.03218">
        <ele>247.7</ele>
        <time>2022-04-21T11:49:11Z</time>
      </trkpt>
      <trkpt lat="50.10169" lon="5.03219">
        <ele>247.7</ele>
        <time>2022-04-21T11:49:12Z</time>
      </trkpt>
      <trkpt lat="50.10169" lon="5.03222">
        <ele>247.5</ele>
        <time>2022-04-21T11:49:13Z</time>
      </trkpt>
      <trkpt lat="50.1017" lon="5.03224">
        <ele>247.4</ele>
        <time>2022-04-21T11:49:14Z</time>
      </trkpt>
      <trkpt lat="50.1017" lon="5.03227">
        <ele>247.2</ele>
        <time>2022-04-21T11:49:16Z</time>
      </trkpt>
      <trkpt lat="50.10171" lon="5.03229">
        <ele>247</ele>
        <time>2022-04-21T11:49:17Z</time>
      </trkpt>
      <trkpt lat="50.10172" lon="5.03231">
        <ele>246.9</ele>
        <time>2022-04-21T11:49:18Z</time>
      </trkpt>
      <trkpt lat="50.10173" lon="5.03233">
        <ele>246.8</ele>
        <time>2022-04-21T11:49:19Z</time>
      </trkpt>
      <trkpt lat="50.10174" lon="5.03236">
        <ele>246.6</ele>
        <time>2022-04-21T11:49:21Z</time>
      </trkpt>
      <trkpt lat="50.10175" lon="5.03238">
        <ele>246.5</ele>
        <time>2022-04-21T11:49:22Z</time>
      </trkpt>
      <trkpt lat="50.10175" lon="5.03239">
        <ele>246.4</ele>
        <time>2022-04-21T11:49:23Z</time>
      </trkpt>
      <trkpt lat="50.10176" lon="5.0324">
        <ele>246.3</ele>
        <time>2022-04-21T11:49:24Z</time>
      </trkpt>
      <trkpt lat="50.10176" lon="5.03242">
        <ele>246.2</ele>
        <time>2022-04-21T11:49:25Z</time>
      </trkpt>
      <trkpt lat="50.10176" lon="5.03246">
        <ele>246</ele>
        <time>2022-04-21T11:49:26Z</time>
      </trkpt>
      <trkpt lat="50.10177" lon="5.03247">
        <ele>245.9</ele>
        <time>2022-04-21T11:49:27Z</time>
      </trkpt>
      <trkpt lat="50.10177" lon="5.03248">
        <ele>245.8</ele>
        <time>2022-04-21T11:49:28Z</time>
      </trkpt>
      <trkpt lat="50.10177" lon="5.03252">
        <ele>245.6</ele>
        <time>2022-04-21T11:49:29Z</time>
      </trkpt>
      <trkpt lat="50.10177" lon="5.03254">
        <ele>245.5</ele>
        <time>2022-04-21T11:49:30Z</time>
      </trkpt>
      <trkpt lat="50.10177" lon="5.03255">
        <ele>245.4</ele>
        <time>2022-04-21T11:49:31Z</time>
      </trkpt>
      <trkpt lat="50.10178" lon="5.03257">
        <ele>245.3</ele>
        <time>2022-04-21T11:49:32Z</time>
      </trkpt>
      <trkpt lat="50.10178" lon="5.03258">
        <ele>245.2</ele>
        <time>2022-04-21T11:49:34Z</time>
      </trkpt>
      <trkpt lat="50.10179" lon="5.0326">
        <ele>245.1</ele>
        <time>2022-04-21T11:49:35Z</time>
      </trkpt>
      <trkpt lat="50.10179" lon="5.03261">
        <ele>245</ele>
        <time>2022-04-21T11:49:36Z</time>
      </trkpt>
      <trkpt lat="50.1018" lon="5.03263">
        <ele>244.9</ele>
        <time>2022-04-21T11:49:37Z</time>
      </trkpt>
      <trkpt lat="50.1018" lon="5.03264">
        <ele>244.8</ele>
        <time>2022-04-21T11:49:38Z</time>
      </trkpt>
      <trkpt lat="50.10181" lon="5.03266">
        <ele>244.7</ele>
        <time>2022-04-21T11:49:39Z</time>
      </trkpt>
      <trkpt lat="50.10181" lon="5.03268">
        <ele>244.6</ele>
        <time>2022-04-21T11:49:40Z</time>
      </trkpt>
      <trkpt lat="50.10182" lon="5.03272">
        <ele>244.3</ele>
        <time>2022-04-21T11:49:42Z</time>
      </trkpt>
      <trkpt lat="50.10183" lon="5.03273">
        <ele>244.2</ele>
        <time>2022-04-21T11:49:43Z</time>
      </trkpt>
      <trkpt lat="50.10184" lon="5.03276">
        <ele>244.1</ele>
        <time>2022-04-21T11:49:44Z</time>
      </trkpt>
      <trkpt lat="50.10184" lon="5.03277">
        <ele>243.9</ele>
        <time>2022-04-21T11:49:46Z</time>
      </trkpt>
      <trkpt lat="50.10185" lon="5.03279">
        <ele>243.8</ele>
        <time>2022-04-21T11:49:47Z</time>
      </trkpt>
      <trkpt lat="50.10185" lon="5.0328">
        <ele>243.7</ele>
        <time>2022-04-21T11:49:48Z</time>
      </trkpt>
      <trkpt lat="50.10185" lon="5.03282">
        <ele>243.7</ele>
        <time>2022-04-21T11:49:49Z</time>
      </trkpt>
      <trkpt lat="50.10186" lon="5.03283">
        <ele>243.6</ele>
        <time>2022-04-21T11:49:50Z</time>
      </trkpt>
      <trkpt lat="50.10186" lon="5.03285">
        <ele>243.4</ele>
        <time>2022-04-21T11:49:52Z</time>
      </trkpt>
      <trkpt lat="50.10186" lon="5.03287">
        <ele>243.3</ele>
        <time>2022-04-21T11:49:53Z</time>
      </trkpt>
      <trkpt lat="50.10187" lon="5.03288">
        <ele>243.2</ele>
        <time>2022-04-21T11:49:54Z</time>
      </trkpt>
      <trkpt lat="50.10187" lon="5.03289">
        <ele>243.2</ele>
        <time>2022-04-21T11:49:56Z</time>
      </trkpt>
      <trkpt lat="50.10187" lon="5.0329">
        <ele>243.1</ele>
        <time>2022-04-21T11:49:57Z</time>
      </trkpt>
      <trkpt lat="50.10188" lon="5.03291">
        <ele>243</ele>
        <time>2022-04-21T11:49:58Z</time>
      </trkpt>
      <trkpt lat="50.10189" lon="5.03292">
        <ele>242.9</ele>
        <time>2022-04-21T11:49:59Z</time>
      </trkpt>
      <trkpt lat="50.10189" lon="5.03294">
        <ele>242.7</ele>
        <time>2022-04-21T11:50:00Z</time>
      </trkpt>
      <trkpt lat="50.1019" lon="5.03296">
        <ele>242.6</ele>
        <time>2022-04-21T11:50:01Z</time>
      </trkpt>
      <trkpt lat="50.1019" lon="5.03299">
        <ele>242.4</ele>
        <time>2022-04-21T11:50:02Z</time>
      </trkpt>
      <trkpt lat="50.10191" lon="5.03301">
        <ele>242.3</ele>
        <time>2022-04-21T11:50:03Z</time>
      </trkpt>
      <trkpt lat="50.10191" lon="5.03303">
        <ele>242.1</ele>
        <time>2022-04-21T11:50:04Z</time>
      </trkpt>
      <trkpt lat="50.10192" lon="5.03307">
        <ele>241.8</ele>
        <time>2022-04-21T11:50:05Z</time>
      </trkpt>
      <trkpt lat="50.10193" lon="5.03309">
        <ele>241.7</ele>
        <time>2022-04-21T11:50:06Z</time>
      </trkpt>
      <trkpt lat="50.10193" lon="5.0331">
        <ele>241.6</ele>
        <time>2022-04-21T11:50:08Z</time>
      </trkpt>
      <trkpt lat="50.10194" lon="5.03312">
        <ele>241.4</ele>
        <time>2022-04-21T11:50:09Z</time>
      </trkpt>
      <trkpt lat="50.10194" lon="5.03313">
        <ele>241.3</ele>
        <time>2022-04-21T11:50:10Z</time>
      </trkpt>
      <trkpt lat="50.10195" lon="5.03314">
        <ele>241.3</ele>
        <time>2022-04-21T11:50:11Z</time>
      </trkpt>
      <trkpt lat="50.10196" lon="5.03315">
        <ele>241.1</ele>
        <time>2022-04-21T11:50:12Z</time>
      </trkpt>
      <trkpt lat="50.10196" lon="5.03316">
        <ele>241.1</ele>
        <time>2022-04-21T11:50:13Z</time>
      </trkpt>
      <trkpt lat="50.10197" lon="5.03317">
        <ele>241</ele>
        <time>2022-04-21T11:50:14Z</time>
      </trkpt>
      <trkpt lat="50.10197" lon="5.03317">
        <ele>241</ele>
        <time>2022-04-21T11:50:15Z</time>
      </trkpt>
      <trkpt lat="50.10197" lon="5.03318">
        <ele>240.9</ele>
        <time>2022-04-21T11:50:16Z</time>
      </trkpt>
      <trkpt lat="50.10198" lon="5.03319">
        <ele>240.8</ele>
        <time>2022-04-21T11:50:17Z</time>
      </trkpt>
      <trkpt lat="50.10197" lon="5.0332">
        <ele>240.7</ele>
        <time>2022-04-21T11:50:18Z</time>
      </trkpt>
      <trkpt lat="50.10197" lon="5.03321">
        <ele>240.7</ele>
        <time>2022-04-21T11:50:19Z</time>
      </trkpt>
      <trkpt lat="50.10195" lon="5.03323">
        <ele>240.4</ele>
        <time>2022-04-21T11:50:20Z</time>
      </trkpt>
      <trkpt lat="50.10194" lon="5.03324">
        <ele>240.3</ele>
        <time>2022-04-21T11:50:21Z</time>
      </trkpt>
      <trkpt lat="50.10193" lon="5.03325">
        <ele>240.2</ele>
        <time>2022-04-21T11:50:22Z</time>
      </trkpt>
      <trkpt lat="50.10192" lon="5.03326">
        <ele>240</ele>
        <time>2022-04-21T11:50:23Z</time>
      </trkpt>
      <trkpt lat="50.10191" lon="5.03328">
        <ele>239.9</ele>
        <time>2022-04-21T11:50:24Z</time>
      </trkpt>
      <trkpt lat="50.1019" lon="5.03329">
        <ele>239.8</ele>
        <time>2022-04-21T11:50:25Z</time>
      </trkpt>
      <trkpt lat="50.10188" lon="5.03331">
        <ele>239.6</ele>
        <time>2022-04-21T11:50:26Z</time>
      </trkpt>
      <trkpt lat="50.10188" lon="5.03332">
        <ele>239.5</ele>
        <time>2022-04-21T11:50:28Z</time>
      </trkpt>
      <trkpt lat="50.10187" lon="5.03333">
        <ele>239.4</ele>
        <time>2022-04-21T11:50:29Z</time>
      </trkpt>
      <trkpt lat="50.10186" lon="5.03334">
        <ele>239.3</ele>
        <time>2022-04-21T11:50:30Z</time>
      </trkpt>
      <trkpt lat="50.10186" lon="5.03334">
        <ele>239.3</ele>
        <time>2022-04-21T11:50:31Z</time>
      </trkpt>
      <trkpt lat="50.10185" lon="5.03335">
        <ele>239.2</ele>
        <time>2022-04-21T11:50:32Z</time>
      </trkpt>
      <trkpt lat="50.10185" lon="5.03336">
        <ele>239.2</ele>
        <time>2022-04-21T11:50:33Z</time>
      </trkpt>
      <trkpt lat="50.10185" lon="5.03336">
        <ele>239.1</ele>
        <time>2022-04-21T11:50:34Z</time>
      </trkpt>
      <trkpt lat="50.10184" lon="5.03337">
        <ele>239.1</ele>
        <time>2022-04-21T11:50:35Z</time>
      </trkpt>
      <trkpt lat="50.10184" lon="5.03337">
        <ele>239.1</ele>
        <time>2022-04-21T11:50:36Z</time>
      </trkpt>
      <trkpt lat="50.10184" lon="5.03337">
        <ele>239.1</ele>
        <time>2022-04-21T11:50:37Z</time>
      </trkpt>
      <trkpt lat="50.10184" lon="5.03337">
        <ele>239.1</ele>
        <time>2022-04-21T11:50:38Z</time>
      </trkpt>
      <trkpt lat="50.10184" lon="5.03337">
        <ele>239</ele>
        <time>2022-04-21T11:50:39Z</time>
      </trkpt>
      <trkpt lat="50.10184" lon="5.03337">
        <ele>239</ele>
        <time>2022-04-21T11:50:40Z</time>
      </trkpt>
      <trkpt lat="50.10184" lon="5.03337">
        <ele>239</ele>
        <time>2022-04-21T11:50:41Z</time>
      </trkpt>
      <trkpt lat="50.10184" lon="5.03337">
        <ele>239</ele>
        <time>2022-04-21T11:50:42Z</time>
      </trkpt>
      <trkpt lat="50.10184" lon="5.03337">
        <ele>239</ele>
        <time>2022-04-21T11:50:43Z</time>
      </trkpt>
      <trkpt lat="50.10184" lon="5.03337">
        <ele>239</ele>
        <time>2022-04-21T11:50:44Z</time>
      </trkpt>
      <trkpt lat="50.10184" lon="5.03337">
        <ele>239</ele>
        <time>2022-04-21T11:50:45Z</time>
      </trkpt>
      <trkpt lat="50.10184" lon="5.03337">
        <ele>239</ele>
        <time>2022-04-21T11:50:46Z</time>
      </trkpt>
      <trkpt lat="50.10184" lon="5.03337">
        <ele>239</ele>
        <time>2022-04-21T11:50:47Z</time>
      </trkpt>
      <trkpt lat="50.10184" lon="5.03337">
        <ele>239</ele>
        <time>2022-04-21T11:50:48Z</time>
      </trkpt>
      <trkpt lat="50.10183" lon="5.03338">
        <ele>238.9</ele>
        <time>2022-04-21T11:50:50Z</time>
      </trkpt>
      <trkpt lat="50.10182" lon="5.0334">
        <ele>238.7</ele>
        <time>2022-04-21T11:50:51Z</time>
      </trkpt>
      <trkpt lat="50.10182" lon="5.03341">
        <ele>238.7</ele>
        <time>2022-04-21T11:50:52Z</time>
      </trkpt>
      <trkpt lat="50.10181" lon="5.03343">
        <ele>238.6</ele>
        <time>2022-04-21T11:50:53Z</time>
      </trkpt>
      <trkpt lat="50.1018" lon="5.03344">
        <ele>238.5</ele>
        <time>2022-04-21T11:50:54Z</time>
      </trkpt>
      <trkpt lat="50.10179" lon="5.03345">
        <ele>238.4</ele>
        <time>2022-04-21T11:50:55Z</time>
      </trkpt>
      <trkpt lat="50.10178" lon="5.03347">
        <ele>238.2</ele>
        <time>2022-04-21T11:50:57Z</time>
      </trkpt>
      <trkpt lat="50.10178" lon="5.03348">
        <ele>238.2</ele>
        <time>2022-04-21T11:50:58Z</time>
      </trkpt>
      <trkpt lat="50.10177" lon="5.03349">
        <ele>238.1</ele>
        <time>2022-04-21T11:50:59Z</time>
      </trkpt>
      <trkpt lat="50.10176" lon="5.0335">
        <ele>238</ele>
        <time>2022-04-21T11:51:00Z</time>
      </trkpt>
      <trkpt lat="50.10175" lon="5.03351">
        <ele>237.9</ele>
        <time>2022-04-21T11:51:02Z</time>
      </trkpt>
      <trkpt lat="50.10174" lon="5.03352">
        <ele>237.8</ele>
        <time>2022-04-21T11:51:03Z</time>
      </trkpt>
      <trkpt lat="50.10173" lon="5.03354">
        <ele>237.7</ele>
        <time>2022-04-21T11:51:04Z</time>
      </trkpt>
      <trkpt lat="50.10172" lon="5.03355">
        <ele>237.6</ele>
        <time>2022-04-21T11:51:05Z</time>
      </trkpt>
      <trkpt lat="50.10171" lon="5.03356">
        <ele>237.5</ele>
        <time>2022-04-21T11:51:06Z</time>
      </trkpt>
      <trkpt lat="50.1017" lon="5.03356">
        <ele>237.4</ele>
        <time>2022-04-21T11:51:07Z</time>
      </trkpt>
      <trkpt lat="50.10169" lon="5.03357">
        <ele>237.4</ele>
        <time>2022-04-21T11:51:08Z</time>
      </trkpt>
      <trkpt lat="50.10167" lon="5.03357">
        <ele>237.3</ele>
        <time>2022-04-21T11:51:09Z</time>
      </trkpt>
      <trkpt lat="50.10166" lon="5.03357">
        <ele>237.2</ele>
        <time>2022-04-21T11:51:10Z</time>
      </trkpt>
      <trkpt lat="50.10166" lon="5.03358">
        <ele>237.1</ele>
        <time>2022-04-21T11:51:11Z</time>
      </trkpt>
      <trkpt lat="50.10165" lon="5.03359">
        <ele>237</ele>
        <time>2022-04-21T11:51:12Z</time>
      </trkpt>
      <trkpt lat="50.10164" lon="5.0336">
        <ele>237</ele>
        <time>2022-04-21T11:51:13Z</time>
      </trkpt>
      <trkpt lat="50.10163" lon="5.03361">
        <ele>236.9</ele>
        <time>2022-04-21T11:51:14Z</time>
      </trkpt>
      <trkpt lat="50.10163" lon="5.03361">
        <ele>236.9</ele>
        <time>2022-04-21T11:51:15Z</time>
      </trkpt>
      <trkpt lat="50.10161" lon="5.03362">
        <ele>236.8</ele>
        <time>2022-04-21T11:51:17Z</time>
      </trkpt>
      <trkpt lat="50.1016" lon="5.03362">
        <ele>236.7</ele>
        <time>2022-04-21T11:51:18Z</time>
      </trkpt>
      <trkpt lat="50.10158" lon="5.03364">
        <ele>236.5</ele>
        <time>2022-04-21T11:51:19Z</time>
      </trkpt>
      <trkpt lat="50.10158" lon="5.03365">
        <ele>236.5</ele>
        <time>2022-04-21T11:51:20Z</time>
      </trkpt>
      <trkpt lat="50.10157" lon="5.03366">
        <ele>236.4</ele>
        <time>2022-04-21T11:51:21Z</time>
      </trkpt>
      <trkpt lat="50.10156" lon="5.03367">
        <ele>236.3</ele>
        <time>2022-04-21T11:51:22Z</time>
      </trkpt>
      <trkpt lat="50.10155" lon="5.03368">
        <ele>236.2</ele>
        <time>2022-04-21T11:51:23Z</time>
      </trkpt>
      <trkpt lat="50.10154" lon="5.03369">
        <ele>236.2</ele>
        <time>2022-04-21T11:51:24Z</time>
      </trkpt>
      <trkpt lat="50.10154" lon="5.0337">
        <ele>236.1</ele>
        <time>2022-04-21T11:51:25Z</time>
      </trkpt>
      <trkpt lat="50.10154" lon="5.03372">
        <ele>236.1</ele>
        <time>2022-04-21T11:51:26Z</time>
      </trkpt>
      <trkpt lat="50.10155" lon="5.03372">
        <ele>236</ele>
        <time>2022-04-21T11:51:27Z</time>
      </trkpt>
      <trkpt lat="50.10156" lon="5.03373">
        <ele>235.9</ele>
        <time>2022-04-21T11:51:28Z</time>
      </trkpt>
      <trkpt lat="50.10157" lon="5.03373">
        <ele>235.8</ele>
        <time>2022-04-21T11:51:29Z</time>
      </trkpt>
      <trkpt lat="50.10157" lon="5.03373">
        <ele>235.8</ele>
        <time>2022-04-21T11:51:30Z</time>
      </trkpt>
      <trkpt lat="50.10157" lon="5.03374">
        <ele>235.8</ele>
        <time>2022-04-21T11:51:31Z</time>
      </trkpt>
      <trkpt lat="50.10156" lon="5.03374">
        <ele>235.7</ele>
        <time>2022-04-21T11:51:32Z</time>
      </trkpt>
      <trkpt lat="50.10156" lon="5.03375">
        <ele>235.7</ele>
        <time>2022-04-21T11:51:33Z</time>
      </trkpt>
      <trkpt lat="50.10155" lon="5.03375">
        <ele>235.6</ele>
        <time>2022-04-21T11:51:34Z</time>
      </trkpt>
      <trkpt lat="50.10155" lon="5.03375">
        <ele>235.6</ele>
        <time>2022-04-21T11:51:35Z</time>
      </trkpt>
      <trkpt lat="50.10154" lon="5.03376">
        <ele>235.5</ele>
        <time>2022-04-21T11:51:36Z</time>
      </trkpt>
      <trkpt lat="50.10154" lon="5.03376">
        <ele>235.5</ele>
        <time>2022-04-21T11:51:37Z</time>
      </trkpt>
      <trkpt lat="50.10152" lon="5.03377">
        <ele>235.3</ele>
        <time>2022-04-21T11:51:38Z</time>
      </trkpt>
      <trkpt lat="50.10151" lon="5.03377">
        <ele>235.3</ele>
        <time>2022-04-21T11:51:39Z</time>
      </trkpt>
      <trkpt lat="50.1015" lon="5.03377">
        <ele>235.2</ele>
        <time>2022-04-21T11:51:40Z</time>
      </trkpt>
      <trkpt lat="50.10149" lon="5.03377">
        <ele>235.1</ele>
        <time>2022-04-21T11:51:41Z</time>
      </trkpt>
      <trkpt lat="50.10148" lon="5.03377">
        <ele>235.1</ele>
        <time>2022-04-21T11:51:42Z</time>
      </trkpt>
      <trkpt lat="50.10147" lon="5.03377">
        <ele>235</ele>
        <time>2022-04-21T11:51:43Z</time>
      </trkpt>
      <trkpt lat="50.10145" lon="5.03378">
        <ele>234.8</ele>
        <time>2022-04-21T11:51:44Z</time>
      </trkpt>
      <trkpt lat="50.10144" lon="5.03378">
        <ele>234.8</ele>
        <time>2022-04-21T11:51:45Z</time>
      </trkpt>
      <trkpt lat="50.10143" lon="5.03379">
        <ele>234.7</ele>
        <time>2022-04-21T11:51:46Z</time>
      </trkpt>
      <trkpt lat="50.10141" lon="5.0338">
        <ele>234.5</ele>
        <time>2022-04-21T11:51:47Z</time>
      </trkpt>
      <trkpt lat="50.1014" lon="5.03381">
        <ele>234.5</ele>
        <time>2022-04-21T11:51:48Z</time>
      </trkpt>
      <trkpt lat="50.10137" lon="5.03383">
        <ele>234.3</ele>
        <time>2022-04-21T11:51:49Z</time>
      </trkpt>
      <trkpt lat="50.10136" lon="5.03383">
        <ele>234.2</ele>
        <time>2022-04-21T11:51:50Z</time>
      </trkpt>
      <trkpt lat="50.10133" lon="5.03384">
        <ele>234</ele>
        <time>2022-04-21T11:51:51Z</time>
      </trkpt>
      <trkpt lat="50.10132" lon="5.03385">
        <ele>233.9</ele>
        <time>2022-04-21T11:51:52Z</time>
      </trkpt>
      <trkpt lat="50.10131" lon="5.03386">
        <ele>233.9</ele>
        <time>2022-04-21T11:51:53Z</time>
      </trkpt>
      <trkpt lat="50.1013" lon="5.03386">
        <ele>233.8</ele>
        <time>2022-04-21T11:51:55Z</time>
      </trkpt>
      <trkpt lat="50.10129" lon="5.03386">
        <ele>233.7</ele>
        <time>2022-04-21T11:51:56Z</time>
      </trkpt>
      <trkpt lat="50.10128" lon="5.03386">
        <ele>233.7</ele>
        <time>2022-04-21T11:51:57Z</time>
      </trkpt>
      <trkpt lat="50.10128" lon="5.03386">
        <ele>233.7</ele>
        <time>2022-04-21T11:51:58Z</time>
      </trkpt>
      <trkpt lat="50.10127" lon="5.03387">
        <ele>233.6</ele>
        <time>2022-04-21T11:51:59Z</time>
      </trkpt>
      <trkpt lat="50.10126" lon="5.03388">
        <ele>233.5</ele>
        <time>2022-04-21T11:52:00Z</time>
      </trkpt>
      <trkpt lat="50.10123" lon="5.0339">
        <ele>233.3</ele>
        <time>2022-04-21T11:52:02Z</time>
      </trkpt>
      <trkpt lat="50.10122" lon="5.0339">
        <ele>233.3</ele>
        <time>2022-04-21T11:52:03Z</time>
      </trkpt>
      <trkpt lat="50.10121" lon="5.03391">
        <ele>233.2</ele>
        <time>2022-04-21T11:52:04Z</time>
      </trkpt>
      <trkpt lat="50.10119" lon="5.03392">
        <ele>233.1</ele>
        <time>2022-04-21T11:52:05Z</time>
      </trkpt>
      <trkpt lat="50.10118" lon="5.03393">
        <ele>233</ele>
        <time>2022-04-21T11:52:06Z</time>
      </trkpt>
      <trkpt lat="50.10116" lon="5.03394">
        <ele>232.9</ele>
        <time>2022-04-21T11:52:08Z</time>
      </trkpt>
      <trkpt lat="50.10115" lon="5.03394">
        <ele>232.8</ele>
        <time>2022-04-21T11:52:09Z</time>
      </trkpt>
      <trkpt lat="50.10115" lon="5.03394">
        <ele>232.8</ele>
        <time>2022-04-21T11:52:10Z</time>
      </trkpt>
      <trkpt lat="50.10114" lon="5.03395">
        <ele>232.8</ele>
        <time>2022-04-21T11:52:11Z</time>
      </trkpt>
      <trkpt lat="50.10114" lon="5.03396">
        <ele>232.7</ele>
        <time>2022-04-21T11:52:13Z</time>
      </trkpt>
      <trkpt lat="50.10114" lon="5.03397">
        <ele>232.7</ele>
        <time>2022-04-21T11:52:14Z</time>
      </trkpt>
      <trkpt lat="50.10114" lon="5.03398">
        <ele>232.7</ele>
        <time>2022-04-21T11:52:15Z</time>
      </trkpt>
      <trkpt lat="50.10114" lon="5.03399">
        <ele>232.6</ele>
        <time>2022-04-21T11:52:16Z</time>
      </trkpt>
      <trkpt lat="50.10114" lon="5.03399">
        <ele>232.6</ele>
        <time>2022-04-21T11:52:17Z</time>
      </trkpt>
      <trkpt lat="50.10115" lon="5.03399">
        <ele>232.6</ele>
        <time>2022-04-21T11:52:18Z</time>
      </trkpt>
      <trkpt lat="50.10114" lon="5.03398">
        <ele>232.6</ele>
        <time>2022-04-21T11:52:19Z</time>
      </trkpt>
      <trkpt lat="50.10114" lon="5.03398">
        <ele>232.6</ele>
        <time>2022-04-21T11:52:20Z</time>
      </trkpt>
      <trkpt lat="50.10114" lon="5.03397">
        <ele>232.5</ele>
        <time>2022-04-21T11:52:21Z</time>
      </trkpt>
      <trkpt lat="50.10114" lon="5.03396">
        <ele>232.5</ele>
        <time>2022-04-21T11:52:22Z</time>
      </trkpt>
      <trkpt lat="50.10114" lon="5.03396">
        <ele>232.5</ele>
        <time>2022-04-21T11:52:23Z</time>
      </trkpt>
      <trkpt lat="50.10113" lon="5.03397">
        <ele>232.4</ele>
        <time>2022-04-21T11:52:24Z</time>
      </trkpt>
      <trkpt lat="50.10112" lon="5.03397">
        <ele>232.3</ele>
        <time>2022-04-21T11:52:25Z</time>
      </trkpt>
      <trkpt lat="50.10111" lon="5.03398">
        <ele>232.3</ele>
        <time>2022-04-21T11:52:26Z</time>
      </trkpt>
      <trkpt lat="50.10109" lon="5.03402">
        <ele>232.1</ele>
        <time>2022-04-21T11:52:27Z</time>
      </trkpt>
      <trkpt lat="50.10108" lon="5.03403">
        <ele>232.1</ele>
        <time>2022-04-21T11:52:28Z</time>
      </trkpt>
      <trkpt lat="50.10107" lon="5.03405">
        <ele>232</ele>
        <time>2022-04-21T11:52:29Z</time>
      </trkpt>
      <trkpt lat="50.10105" lon="5.03406">
        <ele>231.9</ele>
        <time>2022-04-21T11:52:30Z</time>
      </trkpt>
      <trkpt lat="50.10102" lon="5.03407">
        <ele>231.7</ele>
        <time>2022-04-21T11:52:32Z</time>
      </trkpt>
      <trkpt lat="50.10101" lon="5.03407">
        <ele>231.7</ele>
        <time>2022-04-21T11:52:33Z</time>
      </trkpt>
      <trkpt lat="50.10097" lon="5.03406">
        <ele>231.5</ele>
        <time>2022-04-21T11:52:35Z</time>
      </trkpt>
      <trkpt lat="50.10096" lon="5.03404">
        <ele>231.4</ele>
        <time>2022-04-21T11:52:36Z</time>
      </trkpt>
      <trkpt lat="50.10095" lon="5.03403">
        <ele>231.3</ele>
        <time>2022-04-21T11:52:37Z</time>
      </trkpt>
      <trkpt lat="50.10095" lon="5.03401">
        <ele>231.2</ele>
        <time>2022-04-21T11:52:38Z</time>
      </trkpt>
      <trkpt lat="50.10096" lon="5.03399">
        <ele>231.2</ele>
        <time>2022-04-21T11:52:39Z</time>
      </trkpt>
      <trkpt lat="50.10096" lon="5.03398">
        <ele>231.2</ele>
        <time>2022-04-21T11:52:40Z</time>
      </trkpt>
      <trkpt lat="50.10095" lon="5.03398">
        <ele>231.1</ele>
        <time>2022-04-21T11:52:41Z</time>
      </trkpt>
      <trkpt lat="50.10095" lon="5.03398">
        <ele>231.1</ele>
        <time>2022-04-21T11:52:42Z</time>
      </trkpt>
      <trkpt lat="50.10095" lon="5.03399">
        <ele>231.1</ele>
        <time>2022-04-21T11:52:43Z</time>
      </trkpt>
      <trkpt lat="50.10095" lon="5.03399">
        <ele>231.1</ele>
        <time>2022-04-21T11:52:44Z</time>
      </trkpt>
      <trkpt lat="50.10094" lon="5.03399">
        <ele>231.1</ele>
        <time>2022-04-21T11:52:45Z</time>
      </trkpt>
      <trkpt lat="50.10094" lon="5.03399">
        <ele>231.1</ele>
        <time>2022-04-21T11:52:46Z</time>
      </trkpt>
      <trkpt lat="50.10094" lon="5.034">
        <ele>231</ele>
        <time>2022-04-21T11:52:47Z</time>
      </trkpt>
      <trkpt lat="50.10093" lon="5.034">
        <ele>231</ele>
        <time>2022-04-21T11:52:48Z</time>
      </trkpt>
      <trkpt lat="50.10093" lon="5.034">
        <ele>231</ele>
        <time>2022-04-21T11:52:49Z</time>
      </trkpt>
      <trkpt lat="50.10093" lon="5.034">
        <ele>231</ele>
        <time>2022-04-21T11:52:50Z</time>
      </trkpt>
      <trkpt lat="50.10093" lon="5.03401">
        <ele>231</ele>
        <time>2022-04-21T11:52:51Z</time>
      </trkpt>
      <trkpt lat="50.10092" lon="5.03401">
        <ele>231</ele>
        <time>2022-04-21T11:52:52Z</time>
      </trkpt>
      <trkpt lat="50.10092" lon="5.03401">
        <ele>230.9</ele>
        <time>2022-04-21T11:52:53Z</time>
      </trkpt>
      <trkpt lat="50.1009" lon="5.03402">
        <ele>230.8</ele>
        <time>2022-04-21T11:52:54Z</time>
      </trkpt>
      <trkpt lat="50.10089" lon="5.03402">
        <ele>230.8</ele>
        <time>2022-04-21T11:52:55Z</time>
      </trkpt>
      <trkpt lat="50.10088" lon="5.03402">
        <ele>230.7</ele>
        <time>2022-04-21T11:52:57Z</time>
      </trkpt>
      <trkpt lat="50.10087" lon="5.03402">
        <ele>230.6</ele>
        <time>2022-04-21T11:52:58Z</time>
      </trkpt>
      <trkpt lat="50.10084" lon="5.03402">
        <ele>230.5</ele>
        <time>2022-04-21T11:52:59Z</time>
      </trkpt>
      <trkpt lat="50.10083" lon="5.03402">
        <ele>230.4</ele>
        <time>2022-04-21T11:53:00Z</time>
      </trkpt>
      <trkpt lat="50.10083" lon="5.03402">
        <ele>230.4</ele>
        <time>2022-04-21T11:53:01Z</time>
      </trkpt>
      <trkpt lat="50.10081" lon="5.03402">
        <ele>230.3</ele>
        <time>2022-04-21T11:53:02Z</time>
      </trkpt>
      <trkpt lat="50.10079" lon="5.03402">
        <ele>230.2</ele>
        <time>2022-04-21T11:53:03Z</time>
      </trkpt>
      <trkpt lat="50.10078" lon="5.03402">
        <ele>230.1</ele>
        <time>2022-04-21T11:53:04Z</time>
      </trkpt>
      <trkpt lat="50.10076" lon="5.03402">
        <ele>230.1</ele>
        <time>2022-04-21T11:53:05Z</time>
      </trkpt>
      <trkpt lat="50.10073" lon="5.034">
        <ele>229.9</ele>
        <time>2022-04-21T11:53:07Z</time>
      </trkpt>
      <trkpt lat="50.10072" lon="5.034">
        <ele>229.8</ele>
        <time>2022-04-21T11:53:08Z</time>
      </trkpt>
      <trkpt lat="50.1007" lon="5.034">
        <ele>229.7</ele>
        <time>2022-04-21T11:53:09Z</time>
      </trkpt>
      <trkpt lat="50.10069" lon="5.03399">
        <ele>229.7</ele>
        <time>2022-04-21T11:53:10Z</time>
      </trkpt>
      <trkpt lat="50.10068" lon="5.03399">
        <ele>229.6</ele>
        <time>2022-04-21T11:53:11Z</time>
      </trkpt>
      <trkpt lat="50.10065" lon="5.03401">
        <ele>229.5</ele>
        <time>2022-04-21T11:53:13Z</time>
      </trkpt>
      <trkpt lat="50.10064" lon="5.03401">
        <ele>229.4</ele>
        <time>2022-04-21T11:53:14Z</time>
      </trkpt>
      <trkpt lat="50.10063" lon="5.03402">
        <ele>229.4</ele>
        <time>2022-04-21T11:53:15Z</time>
      </trkpt>
      <trkpt lat="50.10062" lon="5.03401">
        <ele>229.3</ele>
        <time>2022-04-21T11:53:16Z</time>
      </trkpt>
      <trkpt lat="50.10062" lon="5.03401">
        <ele>229.3</ele>
        <time>2022-04-21T11:53:17Z</time>
      </trkpt>
      <trkpt lat="50.10061" lon="5.034">
        <ele>229.2</ele>
        <time>2022-04-21T11:53:18Z</time>
      </trkpt>
      <trkpt lat="50.10061" lon="5.034">
        <ele>229.2</ele>
        <time>2022-04-21T11:53:19Z</time>
      </trkpt>
      <trkpt lat="50.1006" lon="5.03398">
        <ele>229.2</ele>
        <time>2022-04-21T11:53:20Z</time>
      </trkpt>
      <trkpt lat="50.10059" lon="5.03397">
        <ele>229.1</ele>
        <time>2022-04-21T11:53:21Z</time>
      </trkpt>
      <trkpt lat="50.10057" lon="5.03396">
        <ele>229</ele>
        <time>2022-04-21T11:53:22Z</time>
      </trkpt>
      <trkpt lat="50.10055" lon="5.03395">
        <ele>228.9</ele>
        <time>2022-04-21T11:53:23Z</time>
      </trkpt>
      <trkpt lat="50.10054" lon="5.03395">
        <ele>228.8</ele>
        <time>2022-04-21T11:53:24Z</time>
      </trkpt>
      <trkpt lat="50.10052" lon="5.03395">
        <ele>228.7</ele>
        <time>2022-04-21T11:53:25Z</time>
      </trkpt>
      <trkpt lat="50.1005" lon="5.03395">
        <ele>228.6</ele>
        <time>2022-04-21T11:53:26Z</time>
      </trkpt>
      <trkpt lat="50.10048" lon="5.03395">
        <ele>228.5</ele>
        <time>2022-04-21T11:53:28Z</time>
      </trkpt>
      <trkpt lat="50.10047" lon="5.03395">
        <ele>228.5</ele>
        <time>2022-04-21T11:53:29Z</time>
      </trkpt>
      <trkpt lat="50.10046" lon="5.03395">
        <ele>228.5</ele>
        <time>2022-04-21T11:53:30Z</time>
      </trkpt>
      <trkpt lat="50.10046" lon="5.03396">
        <ele>228.4</ele>
        <time>2022-04-21T11:53:31Z</time>
      </trkpt>
      <trkpt lat="50.10044" lon="5.03398">
        <ele>228.3</ele>
        <time>2022-04-21T11:53:33Z</time>
      </trkpt>
      <trkpt lat="50.10044" lon="5.03398">
        <ele>228.3</ele>
        <time>2022-04-21T11:53:34Z</time>
      </trkpt>
      <trkpt lat="50.10043" lon="5.03398">
        <ele>228.3</ele>
        <time>2022-04-21T11:53:35Z</time>
      </trkpt>
      <trkpt lat="50.10042" lon="5.03398">
        <ele>228.2</ele>
        <time>2022-04-21T11:53:36Z</time>
      </trkpt>
      <trkpt lat="50.10041" lon="5.03398">
        <ele>228.2</ele>
        <time>2022-04-21T11:53:37Z</time>
      </trkpt>
      <trkpt lat="50.10039" lon="5.03395">
        <ele>228.1</ele>
        <time>2022-04-21T11:53:39Z</time>
      </trkpt>
      <trkpt lat="50.10038" lon="5.03394">
        <ele>228</ele>
        <time>2022-04-21T11:53:40Z</time>
      </trkpt>
      <trkpt lat="50.10036" lon="5.03392">
        <ele>227.9</ele>
        <time>2022-04-21T11:53:41Z</time>
      </trkpt>
      <trkpt lat="50.10035" lon="5.03391">
        <ele>227.9</ele>
        <time>2022-04-21T11:53:42Z</time>
      </trkpt>
      <trkpt lat="50.10034" lon="5.03389">
        <ele>227.8</ele>
        <time>2022-04-21T11:53:43Z</time>
      </trkpt>
      <trkpt lat="50.10032" lon="5.03388">
        <ele>227.7</ele>
        <time>2022-04-21T11:53:44Z</time>
      </trkpt>
      <trkpt lat="50.1003" lon="5.03387">
        <ele>227.7</ele>
        <time>2022-04-21T11:53:45Z</time>
      </trkpt>
      <trkpt lat="50.10029" lon="5.03386">
        <ele>227.6</ele>
        <time>2022-04-21T11:53:46Z</time>
      </trkpt>
      <trkpt lat="50.10028" lon="5.03387">
        <ele>227.6</ele>
        <time>2022-04-21T11:53:47Z</time>
      </trkpt>
      <trkpt lat="50.10026" lon="5.03386">
        <ele>227.5</ele>
        <time>2022-04-21T11:53:48Z</time>
      </trkpt>
      <trkpt lat="50.10025" lon="5.03386">
        <ele>227.4</ele>
        <time>2022-04-21T11:53:50Z</time>
      </trkpt>
      <trkpt lat="50.10024" lon="5.03384">
        <ele>227.4</ele>
        <time>2022-04-21T11:53:51Z</time>
      </trkpt>
      <trkpt lat="50.10023" lon="5.03383">
        <ele>227.4</ele>
        <time>2022-04-21T11:53:52Z</time>
      </trkpt>
      <trkpt lat="50.10022" lon="5.03383">
        <ele>227.3</ele>
        <time>2022-04-21T11:53:53Z</time>
      </trkpt>
      <trkpt lat="50.10022" lon="5.03382">
        <ele>227.3</ele>
        <time>2022-04-21T11:53:54Z</time>
      </trkpt>
      <trkpt lat="50.10021" lon="5.03381">
        <ele>227.3</ele>
        <time>2022-04-21T11:53:55Z</time>
      </trkpt>
      <trkpt lat="50.1002" lon="5.0338">
        <ele>227.2</ele>
        <time>2022-04-21T11:53:56Z</time>
      </trkpt>
      <trkpt lat="50.10019" lon="5.03379">
        <ele>227.2</ele>
        <time>2022-04-21T11:53:57Z</time>
      </trkpt>
      <trkpt lat="50.10018" lon="5.03378">
        <ele>227.2</ele>
        <time>2022-04-21T11:53:58Z</time>
      </trkpt>
      <trkpt lat="50.10016" lon="5.03376">
        <ele>227.1</ele>
        <time>2022-04-21T11:53:59Z</time>
      </trkpt>
      <trkpt lat="50.10015" lon="5.03376">
        <ele>227.1</ele>
        <time>2022-04-21T11:54:00Z</time>
      </trkpt>
      <trkpt lat="50.10014" lon="5.03375">
        <ele>227</ele>
        <time>2022-04-21T11:54:01Z</time>
      </trkpt>
      <trkpt lat="50.10012" lon="5.03374">
        <ele>227</ele>
        <time>2022-04-21T11:54:02Z</time>
      </trkpt>
      <trkpt lat="50.10011" lon="5.03373">
        <ele>226.9</ele>
        <time>2022-04-21T11:54:04Z</time>
      </trkpt>
      <trkpt lat="50.1001" lon="5.03372">
        <ele>226.9</ele>
        <time>2022-04-21T11:54:05Z</time>
      </trkpt>
      <trkpt lat="50.10009" lon="5.03371">
        <ele>226.9</ele>
        <time>2022-04-21T11:54:06Z</time>
      </trkpt>
      <trkpt lat="50.10008" lon="5.03371">
        <ele>226.8</ele>
        <time>2022-04-21T11:54:07Z</time>
      </trkpt>
      <trkpt lat="50.10007" lon="5.03372">
        <ele>226.8</ele>
        <time>2022-04-21T11:54:08Z</time>
      </trkpt>
      <trkpt lat="50.10006" lon="5.03372">
        <ele>226.8</ele>
        <time>2022-04-21T11:54:09Z</time>
      </trkpt>
      <trkpt lat="50.10005" lon="5.03373">
        <ele>226.8</ele>
        <time>2022-04-21T11:54:10Z</time>
      </trkpt>
      <trkpt lat="50.10005" lon="5.03374">
        <ele>226.7</ele>
        <time>2022-04-21T11:54:11Z</time>
      </trkpt>
      <trkpt lat="50.10005" lon="5.03374">
        <ele>226.7</ele>
        <time>2022-04-21T11:54:12Z</time>
      </trkpt>
      <trkpt lat="50.10004" lon="5.03374">
        <ele>226.7</ele>
        <time>2022-04-21T11:54:13Z</time>
      </trkpt>
      <trkpt lat="50.10004" lon="5.03375">
        <ele>226.7</ele>
        <time>2022-04-21T11:54:14Z</time>
      </trkpt>
      <trkpt lat="50.10004" lon="5.03374">
        <ele>226.7</ele>
        <time>2022-04-21T11:54:15Z</time>
      </trkpt>
      <trkpt lat="50.10004" lon="5.03374">
        <ele>226.7</ele>
        <time>2022-04-21T11:54:16Z</time>
      </trkpt>
      <trkpt lat="50.10004" lon="5.03373">
        <ele>226.7</ele>
        <time>2022-04-21T11:54:18Z</time>
      </trkpt>
      <trkpt lat="50.10004" lon="5.03373">
        <ele>226.7</ele>
        <time>2022-04-21T11:54:19Z</time>
      </trkpt>
      <trkpt lat="50.10004" lon="5.03373">
        <ele>226.7</ele>
        <time>2022-04-21T11:54:20Z</time>
      </trkpt>
      <trkpt lat="50.10004" lon="5.03374">
        <ele>226.7</ele>
        <time>2022-04-21T11:54:21Z</time>
      </trkpt>
      <trkpt lat="50.10003" lon="5.03375">
        <ele>226.6</ele>
        <time>2022-04-21T11:54:22Z</time>
      </trkpt>
      <trkpt lat="50.10002" lon="5.03376">
        <ele>226.6</ele>
        <time>2022-04-21T11:54:23Z</time>
      </trkpt>
      <trkpt lat="50.09999" lon="5.03375">
        <ele>226.5</ele>
        <time>2022-04-21T11:54:24Z</time>
      </trkpt>
      <trkpt lat="50.09998" lon="5.03375">
        <ele>226.5</ele>
        <time>2022-04-21T11:54:25Z</time>
      </trkpt>
      <trkpt lat="50.09995" lon="5.03372">
        <ele>226.4</ele>
        <time>2022-04-21T11:54:26Z</time>
      </trkpt>
      <trkpt lat="50.09994" lon="5.03371">
        <ele>226.4</ele>
        <time>2022-04-21T11:54:27Z</time>
      </trkpt>
      <trkpt lat="50.09993" lon="5.03366">
        <ele>226.4</ele>
        <time>2022-04-21T11:54:28Z</time>
      </trkpt>
      <trkpt lat="50.09993" lon="5.03365">
        <ele>226.3</ele>
        <time>2022-04-21T11:54:29Z</time>
      </trkpt>
      <trkpt lat="50.09993" lon="5.03363">
        <ele>226.3</ele>
        <time>2022-04-21T11:54:30Z</time>
      </trkpt>
      <trkpt lat="50.09992" lon="5.0336">
        <ele>226.2</ele>
        <time>2022-04-21T11:54:32Z</time>
      </trkpt>
      <trkpt lat="50.09992" lon="5.03359">
        <ele>226.2</ele>
        <time>2022-04-21T11:54:33Z</time>
      </trkpt>
      <trkpt lat="50.09991" lon="5.03358">
        <ele>226.2</ele>
        <time>2022-04-21T11:54:34Z</time>
      </trkpt>
      <trkpt lat="50.0999" lon="5.03358">
        <ele>226.1</ele>
        <time>2022-04-21T11:54:35Z</time>
      </trkpt>
      <trkpt lat="50.09989" lon="5.03358">
        <ele>226.1</ele>
        <time>2022-04-21T11:54:36Z</time>
      </trkpt>
      <trkpt lat="50.09987" lon="5.03358">
        <ele>226</ele>
        <time>2022-04-21T11:54:37Z</time>
      </trkpt>
      <trkpt lat="50.09986" lon="5.03357">
        <ele>226</ele>
        <time>2022-04-21T11:54:39Z</time>
      </trkpt>
      <trkpt lat="50.09985" lon="5.03356">
        <ele>225.9</ele>
        <time>2022-04-21T11:54:40Z</time>
      </trkpt>
      <trkpt lat="50.09984" lon="5.03354">
        <ele>225.9</ele>
        <time>2022-04-21T11:54:41Z</time>
      </trkpt>
      <trkpt lat="50.09983" lon="5.03352">
        <ele>225.8</ele>
        <time>2022-04-21T11:54:42Z</time>
      </trkpt>
      <trkpt lat="50.09982" lon="5.0335">
        <ele>225.7</ele>
        <time>2022-04-21T11:54:43Z</time>
      </trkpt>
      <trkpt lat="50.0998" lon="5.03349">
        <ele>225.7</ele>
        <time>2022-04-21T11:54:45Z</time>
      </trkpt>
      <trkpt lat="50.09977" lon="5.03348">
        <ele>225.5</ele>
        <time>2022-04-21T11:54:47Z</time>
      </trkpt>
      <trkpt lat="50.09976" lon="5.03349">
        <ele>225.5</ele>
        <time>2022-04-21T11:54:48Z</time>
      </trkpt>
      <trkpt lat="50.09974" lon="5.0335">
        <ele>225.4</ele>
        <time>2022-04-21T11:54:49Z</time>
      </trkpt>
      <trkpt lat="50.09971" lon="5.03349">
        <ele>225.3</ele>
        <time>2022-04-21T11:54:50Z</time>
      </trkpt>
      <trkpt lat="50.09971" lon="5.03349">
        <ele>225.3</ele>
        <time>2022-04-21T11:54:52Z</time>
      </trkpt>
      <trkpt lat="50.0997" lon="5.03348">
        <ele>225.2</ele>
        <time>2022-04-21T11:54:53Z</time>
      </trkpt>
      <trkpt lat="50.09969" lon="5.03348">
        <ele>225.2</ele>
        <time>2022-04-21T11:54:54Z</time>
      </trkpt>
      <trkpt lat="50.09968" lon="5.03348">
        <ele>225.2</ele>
        <time>2022-04-21T11:54:55Z</time>
      </trkpt>
      <trkpt lat="50.09967" lon="5.03347">
        <ele>225.1</ele>
        <time>2022-04-21T11:54:56Z</time>
      </trkpt>
      <trkpt lat="50.09966" lon="5.03347">
        <ele>225.1</ele>
        <time>2022-04-21T11:54:57Z</time>
      </trkpt>
      <trkpt lat="50.09965" lon="5.03346">
        <ele>225</ele>
        <time>2022-04-21T11:54:58Z</time>
      </trkpt>
      <trkpt lat="50.09965" lon="5.03345">
        <ele>225</ele>
        <time>2022-04-21T11:54:59Z</time>
      </trkpt>
      <trkpt lat="50.09963" lon="5.03344">
        <ele>224.9</ele>
        <time>2022-04-21T11:55:00Z</time>
      </trkpt>
      <trkpt lat="50.09962" lon="5.03342">
        <ele>224.8</ele>
        <time>2022-04-21T11:55:01Z</time>
      </trkpt>
      <trkpt lat="50.09961" lon="5.03341">
        <ele>224.8</ele>
        <time>2022-04-21T11:55:02Z</time>
      </trkpt>
      <trkpt lat="50.09959" lon="5.0334">
        <ele>224.7</ele>
        <time>2022-04-21T11:55:03Z</time>
      </trkpt>
      <trkpt lat="50.09957" lon="5.03338">
        <ele>224.6</ele>
        <time>2022-04-21T11:55:04Z</time>
      </trkpt>
      <trkpt lat="50.09956" lon="5.03337">
        <ele>224.5</ele>
        <time>2022-04-21T11:55:05Z</time>
      </trkpt>
      <trkpt lat="50.09954" lon="5.03336">
        <ele>224.5</ele>
        <time>2022-04-21T11:55:06Z</time>
      </trkpt>
      <trkpt lat="50.09953" lon="5.03335">
        <ele>224.4</ele>
        <time>2022-04-21T11:55:07Z</time>
      </trkpt>
      <trkpt lat="50.09952" lon="5.03335">
        <ele>224.3</ele>
        <time>2022-04-21T11:55:08Z</time>
      </trkpt>
      <trkpt lat="50.0995" lon="5.03335">
        <ele>224.3</ele>
        <time>2022-04-21T11:55:09Z</time>
      </trkpt>
      <trkpt lat="50.09949" lon="5.03335">
        <ele>224.2</ele>
        <time>2022-04-21T11:55:10Z</time>
      </trkpt>
      <trkpt lat="50.09948" lon="5.03335">
        <ele>224.1</ele>
        <time>2022-04-21T11:55:11Z</time>
      </trkpt>
      <trkpt lat="50.09947" lon="5.03335">
        <ele>224.1</ele>
        <time>2022-04-21T11:55:13Z</time>
      </trkpt>
      <trkpt lat="50.09946" lon="5.03336">
        <ele>224</ele>
        <time>2022-04-21T11:55:14Z</time>
      </trkpt>
      <trkpt lat="50.09945" lon="5.03336">
        <ele>224</ele>
        <time>2022-04-21T11:55:15Z</time>
      </trkpt>
      <trkpt lat="50.09944" lon="5.03336">
        <ele>224</ele>
        <time>2022-04-21T11:55:16Z</time>
      </trkpt>
      <trkpt lat="50.09943" lon="5.03335">
        <ele>223.9</ele>
        <time>2022-04-21T11:55:17Z</time>
      </trkpt>
      <trkpt lat="50.09942" lon="5.03335">
        <ele>223.8</ele>
        <time>2022-04-21T11:55:18Z</time>
      </trkpt>
      <trkpt lat="50.09941" lon="5.03334">
        <ele>223.8</ele>
        <time>2022-04-21T11:55:19Z</time>
      </trkpt>
      <trkpt lat="50.0994" lon="5.03334">
        <ele>223.8</ele>
        <time>2022-04-21T11:55:20Z</time>
      </trkpt>
      <trkpt lat="50.09939" lon="5.03333">
        <ele>223.7</ele>
        <time>2022-04-21T11:55:21Z</time>
      </trkpt>
      <trkpt lat="50.09938" lon="5.03332">
        <ele>223.7</ele>
        <time>2022-04-21T11:55:22Z</time>
      </trkpt>
      <trkpt lat="50.09937" lon="5.03331">
        <ele>223.6</ele>
        <time>2022-04-21T11:55:23Z</time>
      </trkpt>
      <trkpt lat="50.09936" lon="5.03331">
        <ele>223.5</ele>
        <time>2022-04-21T11:55:24Z</time>
      </trkpt>
      <trkpt lat="50.09935" lon="5.0333">
        <ele>223.5</ele>
        <time>2022-04-21T11:55:25Z</time>
      </trkpt>
      <trkpt lat="50.09934" lon="5.03329">
        <ele>223.4</ele>
        <time>2022-04-21T11:55:26Z</time>
      </trkpt>
      <trkpt lat="50.09932" lon="5.03328">
        <ele>223.3</ele>
        <time>2022-04-21T11:55:27Z</time>
      </trkpt>
      <trkpt lat="50.0993" lon="5.03327">
        <ele>223.2</ele>
        <time>2022-04-21T11:55:28Z</time>
      </trkpt>
      <trkpt lat="50.09929" lon="5.03327">
        <ele>223.1</ele>
        <time>2022-04-21T11:55:29Z</time>
      </trkpt>
      <trkpt lat="50.09927" lon="5.03326">
        <ele>223.1</ele>
        <time>2022-04-21T11:55:30Z</time>
      </trkpt>
      <trkpt lat="50.09926" lon="5.03326">
        <ele>223</ele>
        <time>2022-04-21T11:55:31Z</time>
      </trkpt>
      <trkpt lat="50.09924" lon="5.03327">
        <ele>222.9</ele>
        <time>2022-04-21T11:55:32Z</time>
      </trkpt>
      <trkpt lat="50.09923" lon="5.03328">
        <ele>222.8</ele>
        <time>2022-04-21T11:55:33Z</time>
      </trkpt>
      <trkpt lat="50.09922" lon="5.03328">
        <ele>222.8</ele>
        <time>2022-04-21T11:55:34Z</time>
      </trkpt>
      <trkpt lat="50.09921" lon="5.03328">
        <ele>222.7</ele>
        <time>2022-04-21T11:55:36Z</time>
      </trkpt>
      <trkpt lat="50.0992" lon="5.03328">
        <ele>222.7</ele>
        <time>2022-04-21T11:55:37Z</time>
      </trkpt>
      <trkpt lat="50.09919" lon="5.03328">
        <ele>222.6</ele>
        <time>2022-04-21T11:55:38Z</time>
      </trkpt>
      <trkpt lat="50.09918" lon="5.03328">
        <ele>222.6</ele>
        <time>2022-04-21T11:55:39Z</time>
      </trkpt>
      <trkpt lat="50.09916" lon="5.03326">
        <ele>222.5</ele>
        <time>2022-04-21T11:55:41Z</time>
      </trkpt>
      <trkpt lat="50.09913" lon="5.03325">
        <ele>222.3</ele>
        <time>2022-04-21T11:55:43Z</time>
      </trkpt>
      <trkpt lat="50.09912" lon="5.03324">
        <ele>222.3</ele>
        <time>2022-04-21T11:55:44Z</time>
      </trkpt>
      <trkpt lat="50.09909" lon="5.03323">
        <ele>222.2</ele>
        <time>2022-04-21T11:55:45Z</time>
      </trkpt>
      <trkpt lat="50.09908" lon="5.03323">
        <ele>222.1</ele>
        <time>2022-04-21T11:55:46Z</time>
      </trkpt>
      <trkpt lat="50.09905" lon="5.03323">
        <ele>222</ele>
        <time>2022-04-21T11:55:47Z</time>
      </trkpt>
      <trkpt lat="50.09904" lon="5.03323">
        <ele>221.9</ele>
        <time>2022-04-21T11:55:48Z</time>
      </trkpt>
      <trkpt lat="50.09903" lon="5.03323">
        <ele>221.9</ele>
        <time>2022-04-21T11:55:49Z</time>
      </trkpt>
      <trkpt lat="50.09901" lon="5.03323">
        <ele>221.8</ele>
        <time>2022-04-21T11:55:50Z</time>
      </trkpt>
      <trkpt lat="50.099" lon="5.03323">
        <ele>221.8</ele>
        <time>2022-04-21T11:55:51Z</time>
      </trkpt>
      <trkpt lat="50.09898" lon="5.03324">
        <ele>221.7</ele>
        <time>2022-04-21T11:55:52Z</time>
      </trkpt>
      <trkpt lat="50.09897" lon="5.03325">
        <ele>221.7</ele>
        <time>2022-04-21T11:55:54Z</time>
      </trkpt>
      <trkpt lat="50.09896" lon="5.03326">
        <ele>221.7</ele>
        <time>2022-04-21T11:55:55Z</time>
      </trkpt>
      <trkpt lat="50.09896" lon="5.03327">
        <ele>221.7</ele>
        <time>2022-04-21T11:55:56Z</time>
      </trkpt>
      <trkpt lat="50.09895" lon="5.03327">
        <ele>221.6</ele>
        <time>2022-04-21T11:55:57Z</time>
      </trkpt>
      <trkpt lat="50.09894" lon="5.03328">
        <ele>221.6</ele>
        <time>2022-04-21T11:55:58Z</time>
      </trkpt>
      <trkpt lat="50.09894" lon="5.03328">
        <ele>221.6</ele>
        <time>2022-04-21T11:55:59Z</time>
      </trkpt>
      <trkpt lat="50.09894" lon="5.03328">
        <ele>221.6</ele>
        <time>2022-04-21T11:56:00Z</time>
      </trkpt>
      <trkpt lat="50.09893" lon="5.03328">
        <ele>221.6</ele>
        <time>2022-04-21T11:56:01Z</time>
      </trkpt>
      <trkpt lat="50.09892" lon="5.03327">
        <ele>221.6</ele>
        <time>2022-04-21T11:56:02Z</time>
      </trkpt>
      <trkpt lat="50.09891" lon="5.03325">
        <ele>221.5</ele>
        <time>2022-04-21T11:56:03Z</time>
      </trkpt>
      <trkpt lat="50.0989" lon="5.03324">
        <ele>221.5</ele>
        <time>2022-04-21T11:56:04Z</time>
      </trkpt>
      <trkpt lat="50.09889" lon="5.03324">
        <ele>221.5</ele>
        <time>2022-04-21T11:56:05Z</time>
      </trkpt>
      <trkpt lat="50.09886" lon="5.03323">
        <ele>221.4</ele>
        <time>2022-04-21T11:56:06Z</time>
      </trkpt>
      <trkpt lat="50.09885" lon="5.03323">
        <ele>221.4</ele>
        <time>2022-04-21T11:56:07Z</time>
      </trkpt>
      <trkpt lat="50.09884" lon="5.03322">
        <ele>221.3</ele>
        <time>2022-04-21T11:56:08Z</time>
      </trkpt>
      <trkpt lat="50.09882" lon="5.03322">
        <ele>221.3</ele>
        <time>2022-04-21T11:56:09Z</time>
      </trkpt>
      <trkpt lat="50.09881" lon="5.03322">
        <ele>221.2</ele>
        <time>2022-04-21T11:56:10Z</time>
      </trkpt>
      <trkpt lat="50.09879" lon="5.03323">
        <ele>221.2</ele>
        <time>2022-04-21T11:56:11Z</time>
      </trkpt>
      <trkpt lat="50.09878" lon="5.03323">
        <ele>221.1</ele>
        <time>2022-04-21T11:56:12Z</time>
      </trkpt>
      <trkpt lat="50.09877" lon="5.03323">
        <ele>220.6</ele>
        <time>2022-04-21T11:56:13Z</time>
      </trkpt>
      <trkpt lat="50.09876" lon="5.03325">
        <ele>220.5</ele>
        <time>2022-04-21T11:56:15Z</time>
      </trkpt>
      <trkpt lat="50.09875" lon="5.03327">
        <ele>220.3</ele>
        <time>2022-04-21T11:56:16Z</time>
      </trkpt>
      <trkpt lat="50.09875" lon="5.03329">
        <ele>220.2</ele>
        <time>2022-04-21T11:56:17Z</time>
      </trkpt>
      <trkpt lat="50.09874" lon="5.0333">
        <ele>220.2</ele>
        <time>2022-04-21T11:56:18Z</time>
      </trkpt>
      <trkpt lat="50.09874" lon="5.03331">
        <ele>220.1</ele>
        <time>2022-04-21T11:56:19Z</time>
      </trkpt>
      <trkpt lat="50.09874" lon="5.03332">
        <ele>220.1</ele>
        <time>2022-04-21T11:56:20Z</time>
      </trkpt>
      <trkpt lat="50.09874" lon="5.03332">
        <ele>220</ele>
        <time>2022-04-21T11:56:22Z</time>
      </trkpt>
      <trkpt lat="50.09873" lon="5.03333">
        <ele>220</ele>
        <time>2022-04-21T11:56:23Z</time>
      </trkpt>
      <trkpt lat="50.09873" lon="5.03336">
        <ele>219.8</ele>
        <time>2022-04-21T11:56:24Z</time>
      </trkpt>
      <trkpt lat="50.09872" lon="5.03337">
        <ele>219.7</ele>
        <time>2022-04-21T11:56:25Z</time>
      </trkpt>
      <trkpt lat="50.09872" lon="5.03339">
        <ele>219.7</ele>
        <time>2022-04-21T11:56:26Z</time>
      </trkpt>
      <trkpt lat="50.0987" lon="5.03341">
        <ele>219.5</ele>
        <time>2022-04-21T11:56:27Z</time>
      </trkpt>
      <trkpt lat="50.0987" lon="5.03343">
        <ele>219.4</ele>
        <time>2022-04-21T11:56:28Z</time>
      </trkpt>
      <trkpt lat="50.09869" lon="5.03344">
        <ele>219.4</ele>
        <time>2022-04-21T11:56:29Z</time>
      </trkpt>
      <trkpt lat="50.09869" lon="5.03345">
        <ele>219.3</ele>
        <time>2022-04-21T11:56:30Z</time>
      </trkpt>
      <trkpt lat="50.09868" lon="5.03347">
        <ele>219.2</ele>
        <time>2022-04-21T11:56:31Z</time>
      </trkpt>
      <trkpt lat="50.09866" lon="5.0335">
        <ele>219</ele>
        <time>2022-04-21T11:56:32Z</time>
      </trkpt>
      <trkpt lat="50.09866" lon="5.03351">
        <ele>218.9</ele>
        <time>2022-04-21T11:56:33Z</time>
      </trkpt>
      <trkpt lat="50.09865" lon="5.03353">
        <ele>218.8</ele>
        <time>2022-04-21T11:56:34Z</time>
      </trkpt>
      <trkpt lat="50.09864" lon="5.03355">
        <ele>218.7</ele>
        <time>2022-04-21T11:56:35Z</time>
      </trkpt>
      <trkpt lat="50.09863" lon="5.03357">
        <ele>218.6</ele>
        <time>2022-04-21T11:56:36Z</time>
      </trkpt>
      <trkpt lat="50.09863" lon="5.03359">
        <ele>218.6</ele>
        <time>2022-04-21T11:56:37Z</time>
      </trkpt>
      <trkpt lat="50.09864" lon="5.0336">
        <ele>218.5</ele>
        <time>2022-04-21T11:56:38Z</time>
      </trkpt>
      <trkpt lat="50.09863" lon="5.03363">
        <ele>218.4</ele>
        <time>2022-04-21T11:56:39Z</time>
      </trkpt>
      <trkpt lat="50.09863" lon="5.03366">
        <ele>218.3</ele>
        <time>2022-04-21T11:56:41Z</time>
      </trkpt>
      <trkpt lat="50.09862" lon="5.03367">
        <ele>218.2</ele>
        <time>2022-04-21T11:56:42Z</time>
      </trkpt>
      <trkpt lat="50.09861" lon="5.03367">
        <ele>218.2</ele>
        <time>2022-04-21T11:56:43Z</time>
      </trkpt>
      <trkpt lat="50.0986" lon="5.03367">
        <ele>218.1</ele>
        <time>2022-04-21T11:56:44Z</time>
      </trkpt>
      <trkpt lat="50.0986" lon="5.03368">
        <ele>218.1</ele>
        <time>2022-04-21T11:56:45Z</time>
      </trkpt>
      <trkpt lat="50.09859" lon="5.03369">
        <ele>218.1</ele>
        <time>2022-04-21T11:56:47Z</time>
      </trkpt>
      <trkpt lat="50.0986" lon="5.03369">
        <ele>218</ele>
        <time>2022-04-21T11:56:48Z</time>
      </trkpt>
      <trkpt lat="50.0986" lon="5.0337">
        <ele>218</ele>
        <time>2022-04-21T11:56:49Z</time>
      </trkpt>
      <trkpt lat="50.09861" lon="5.03372">
        <ele>217.9</ele>
        <time>2022-04-21T11:56:51Z</time>
      </trkpt>
      <trkpt lat="50.09861" lon="5.03373">
        <ele>217.9</ele>
        <time>2022-04-21T11:56:53Z</time>
      </trkpt>
      <trkpt lat="50.0986" lon="5.03375">
        <ele>217.8</ele>
        <time>2022-04-21T11:56:54Z</time>
      </trkpt>
      <trkpt lat="50.0986" lon="5.03376">
        <ele>217.8</ele>
        <time>2022-04-21T11:56:55Z</time>
      </trkpt>
      <trkpt lat="50.0986" lon="5.03377">
        <ele>217.8</ele>
        <time>2022-04-21T11:56:56Z</time>
      </trkpt>
      <trkpt lat="50.0986" lon="5.03378">
        <ele>217.7</ele>
        <time>2022-04-21T11:56:57Z</time>
      </trkpt>
      <trkpt lat="50.0986" lon="5.0338">
        <ele>217.7</ele>
        <time>2022-04-21T11:56:58Z</time>
      </trkpt>
      <trkpt lat="50.0986" lon="5.03381">
        <ele>217.7</ele>
        <time>2022-04-21T11:56:59Z</time>
      </trkpt>
      <trkpt lat="50.09859" lon="5.03382">
        <ele>217.6</ele>
        <time>2022-04-21T11:57:00Z</time>
      </trkpt>
      <trkpt lat="50.09858" lon="5.03383">
        <ele>217.6</ele>
        <time>2022-04-21T11:57:01Z</time>
      </trkpt>
      <trkpt lat="50.09858" lon="5.03385">
        <ele>217.5</ele>
        <time>2022-04-21T11:57:02Z</time>
      </trkpt>
      <trkpt lat="50.09857" lon="5.03386">
        <ele>217.5</ele>
        <time>2022-04-21T11:57:03Z</time>
      </trkpt>
      <trkpt lat="50.09857" lon="5.03388">
        <ele>217.4</ele>
        <time>2022-04-21T11:57:04Z</time>
      </trkpt>
      <trkpt lat="50.09856" lon="5.0339">
        <ele>217.4</ele>
        <time>2022-04-21T11:57:05Z</time>
      </trkpt>
      <trkpt lat="50.09856" lon="5.03392">
        <ele>217.3</ele>
        <time>2022-04-21T11:57:07Z</time>
      </trkpt>
      <trkpt lat="50.09855" lon="5.03396">
        <ele>217.2</ele>
        <time>2022-04-21T11:57:08Z</time>
      </trkpt>
      <trkpt lat="50.09855" lon="5.03397">
        <ele>217.2</ele>
        <time>2022-04-21T11:57:09Z</time>
      </trkpt>
      <trkpt lat="50.09855" lon="5.03398">
        <ele>217.2</ele>
        <time>2022-04-21T11:57:10Z</time>
      </trkpt>
      <trkpt lat="50.09854" lon="5.034">
        <ele>217.1</ele>
        <time>2022-04-21T11:57:11Z</time>
      </trkpt>
      <trkpt lat="50.09854" lon="5.03402">
        <ele>217.1</ele>
        <time>2022-04-21T11:57:12Z</time>
      </trkpt>
      <trkpt lat="50.09853" lon="5.03403">
        <ele>217</ele>
        <time>2022-04-21T11:57:13Z</time>
      </trkpt>
      <trkpt lat="50.09853" lon="5.03406">
        <ele>217</ele>
        <time>2022-04-21T11:57:14Z</time>
      </trkpt>
      <trkpt lat="50.09852" lon="5.03407">
        <ele>216.9</ele>
        <time>2022-04-21T11:57:15Z</time>
      </trkpt>
      <trkpt lat="50.09852" lon="5.03408">
        <ele>216.9</ele>
        <time>2022-04-21T11:57:16Z</time>
      </trkpt>
      <trkpt lat="50.09852" lon="5.03409">
        <ele>216.9</ele>
        <time>2022-04-21T11:57:17Z</time>
      </trkpt>
      <trkpt lat="50.09851" lon="5.03412">
        <ele>216.8</ele>
        <time>2022-04-21T11:57:18Z</time>
      </trkpt>
      <trkpt lat="50.09851" lon="5.03413">
        <ele>216.8</ele>
        <time>2022-04-21T11:57:19Z</time>
      </trkpt>
      <trkpt lat="50.0985" lon="5.03415">
        <ele>216.7</ele>
        <time>2022-04-21T11:57:20Z</time>
      </trkpt>
      <trkpt lat="50.0985" lon="5.03417">
        <ele>216.7</ele>
        <time>2022-04-21T11:57:21Z</time>
      </trkpt>
      <trkpt lat="50.09849" lon="5.0342">
        <ele>216.6</ele>
        <time>2022-04-21T11:57:22Z</time>
      </trkpt>
      <trkpt lat="50.09849" lon="5.03421">
        <ele>216.6</ele>
        <time>2022-04-21T11:57:23Z</time>
      </trkpt>
      <trkpt lat="50.09849" lon="5.03423">
        <ele>216.5</ele>
        <time>2022-04-21T11:57:24Z</time>
      </trkpt>
      <trkpt lat="50.09848" lon="5.03426">
        <ele>216.5</ele>
        <time>2022-04-21T11:57:26Z</time>
      </trkpt>
      <trkpt lat="50.09847" lon="5.03427">
        <ele>216.4</ele>
        <time>2022-04-21T11:57:27Z</time>
      </trkpt>
      <trkpt lat="50.09847" lon="5.03428">
        <ele>216.4</ele>
        <time>2022-04-21T11:57:28Z</time>
      </trkpt>
      <trkpt lat="50.09847" lon="5.03429">
        <ele>216.4</ele>
        <time>2022-04-21T11:57:29Z</time>
      </trkpt>
      <trkpt lat="50.09846" lon="5.0343">
        <ele>216.3</ele>
        <time>2022-04-21T11:57:30Z</time>
      </trkpt>
      <trkpt lat="50.09846" lon="5.03431">
        <ele>216.3</ele>
        <time>2022-04-21T11:57:31Z</time>
      </trkpt>
      <trkpt lat="50.09845" lon="5.03433">
        <ele>216.3</ele>
        <time>2022-04-21T11:57:32Z</time>
      </trkpt>
      <trkpt lat="50.09845" lon="5.03436">
        <ele>216.2</ele>
        <time>2022-04-21T11:57:33Z</time>
      </trkpt>
      <trkpt lat="50.09845" lon="5.03438">
        <ele>216.2</ele>
        <time>2022-04-21T11:57:34Z</time>
      </trkpt>
      <trkpt lat="50.09844" lon="5.03441">
        <ele>216.1</ele>
        <time>2022-04-21T11:57:35Z</time>
      </trkpt>
      <trkpt lat="50.09843" lon="5.03444">
        <ele>216.1</ele>
        <time>2022-04-21T11:57:36Z</time>
      </trkpt>
      <trkpt lat="50.09843" lon="5.03445">
        <ele>216</ele>
        <time>2022-04-21T11:57:37Z</time>
      </trkpt>
      <trkpt lat="50.09843" lon="5.03446">
        <ele>216</ele>
        <time>2022-04-21T11:57:38Z</time>
      </trkpt>
      <trkpt lat="50.09842" lon="5.03447">
        <ele>216</ele>
        <time>2022-04-21T11:57:39Z</time>
      </trkpt>
      <trkpt lat="50.09842" lon="5.03449">
        <ele>216</ele>
        <time>2022-04-21T11:57:40Z</time>
      </trkpt>
      <trkpt lat="50.09842" lon="5.03449">
        <ele>215.9</ele>
        <time>2022-04-21T11:57:41Z</time>
      </trkpt>
      <trkpt lat="50.09842" lon="5.0345">
        <ele>215.9</ele>
        <time>2022-04-21T11:57:42Z</time>
      </trkpt>
      <trkpt lat="50.09841" lon="5.03453">
        <ele>215.9</ele>
        <time>2022-04-21T11:57:43Z</time>
      </trkpt>
      <trkpt lat="50.09841" lon="5.03454">
        <ele>215.9</ele>
        <time>2022-04-21T11:57:44Z</time>
      </trkpt>
      <trkpt lat="50.0984" lon="5.03456">
        <ele>215.8</ele>
        <time>2022-04-21T11:57:45Z</time>
      </trkpt>
      <trkpt lat="50.0984" lon="5.03458">
        <ele>215.8</ele>
        <time>2022-04-21T11:57:46Z</time>
      </trkpt>
      <trkpt lat="50.0984" lon="5.0346">
        <ele>215.8</ele>
        <time>2022-04-21T11:57:47Z</time>
      </trkpt>
      <trkpt lat="50.09839" lon="5.03463">
        <ele>215.7</ele>
        <time>2022-04-21T11:57:48Z</time>
      </trkpt>
      <trkpt lat="50.09838" lon="5.03465">
        <ele>215.7</ele>
        <time>2022-04-21T11:57:49Z</time>
      </trkpt>
      <trkpt lat="50.09838" lon="5.03467">
        <ele>215.6</ele>
        <time>2022-04-21T11:57:50Z</time>
      </trkpt>
      <trkpt lat="50.09837" lon="5.03469">
        <ele>215.6</ele>
        <time>2022-04-21T11:57:52Z</time>
      </trkpt>
      <trkpt lat="50.09836" lon="5.03471">
        <ele>215.6</ele>
        <time>2022-04-21T11:57:53Z</time>
      </trkpt>
      <trkpt lat="50.09836" lon="5.03473">
        <ele>215.5</ele>
        <time>2022-04-21T11:57:54Z</time>
      </trkpt>
      <trkpt lat="50.09835" lon="5.03474">
        <ele>215.5</ele>
        <time>2022-04-21T11:57:55Z</time>
      </trkpt>
      <trkpt lat="50.09835" lon="5.03475">
        <ele>215.5</ele>
        <time>2022-04-21T11:57:56Z</time>
      </trkpt>
      <trkpt lat="50.09835" lon="5.03476">
        <ele>215.5</ele>
        <time>2022-04-21T11:57:57Z</time>
      </trkpt>
      <trkpt lat="50.09834" lon="5.03478">
        <ele>215.5</ele>
        <time>2022-04-21T11:57:58Z</time>
      </trkpt>
      <trkpt lat="50.09833" lon="5.03481">
        <ele>215.4</ele>
        <time>2022-04-21T11:57:59Z</time>
      </trkpt>
      <trkpt lat="50.09833" lon="5.03482">
        <ele>215.4</ele>
        <time>2022-04-21T11:58:00Z</time>
      </trkpt>
      <trkpt lat="50.09832" lon="5.03484">
        <ele>215.4</ele>
        <time>2022-04-21T11:58:01Z</time>
      </trkpt>
      <trkpt lat="50.09831" lon="5.03486">
        <ele>215.3</ele>
        <time>2022-04-21T11:58:02Z</time>
      </trkpt>
      <trkpt lat="50.09831" lon="5.03488">
        <ele>215.3</ele>
        <time>2022-04-21T11:58:03Z</time>
      </trkpt>
      <trkpt lat="50.0983" lon="5.03491">
        <ele>215.2</ele>
        <time>2022-04-21T11:58:05Z</time>
      </trkpt>
      <trkpt lat="50.0983" lon="5.03493">
        <ele>215.2</ele>
        <time>2022-04-21T11:58:06Z</time>
      </trkpt>
      <trkpt lat="50.0983" lon="5.03494">
        <ele>215.2</ele>
        <time>2022-04-21T11:58:07Z</time>
      </trkpt>
      <trkpt lat="50.09829" lon="5.03495">
        <ele>215.2</ele>
        <time>2022-04-21T11:58:08Z</time>
      </trkpt>
      <trkpt lat="50.09829" lon="5.03497">
        <ele>215.2</ele>
        <time>2022-04-21T11:58:09Z</time>
      </trkpt>
      <trkpt lat="50.09828" lon="5.03497">
        <ele>215.1</ele>
        <time>2022-04-21T11:58:10Z</time>
      </trkpt>
      <trkpt lat="50.09828" lon="5.03498">
        <ele>215.1</ele>
        <time>2022-04-21T11:58:11Z</time>
      </trkpt>
      <trkpt lat="50.09827" lon="5.035">
        <ele>215.1</ele>
        <time>2022-04-21T11:58:12Z</time>
      </trkpt>
      <trkpt lat="50.09826" lon="5.03502">
        <ele>215.1</ele>
        <time>2022-04-21T11:58:13Z</time>
      </trkpt>
      <trkpt lat="50.09824" lon="5.03504">
        <ele>215</ele>
        <time>2022-04-21T11:58:14Z</time>
      </trkpt>
      <trkpt lat="50.09823" lon="5.03505">
        <ele>215</ele>
        <time>2022-04-21T11:58:15Z</time>
      </trkpt>
      <trkpt lat="50.09822" lon="5.03507">
        <ele>215</ele>
        <time>2022-04-21T11:58:16Z</time>
      </trkpt>
      <trkpt lat="50.09822" lon="5.03508">
        <ele>215</ele>
        <time>2022-04-21T11:58:17Z</time>
      </trkpt>
      <trkpt lat="50.09821" lon="5.0351">
        <ele>214.9</ele>
        <time>2022-04-21T11:58:19Z</time>
      </trkpt>
      <trkpt lat="50.0982" lon="5.03511">
        <ele>214.9</ele>
        <time>2022-04-21T11:58:20Z</time>
      </trkpt>
      <trkpt lat="50.0982" lon="5.03512">
        <ele>214.9</ele>
        <time>2022-04-21T11:58:21Z</time>
      </trkpt>
      <trkpt lat="50.09819" lon="5.03513">
        <ele>214.9</ele>
        <time>2022-04-21T11:58:22Z</time>
      </trkpt>
      <trkpt lat="50.09818" lon="5.03514">
        <ele>214.9</ele>
        <time>2022-04-21T11:58:23Z</time>
      </trkpt>
      <trkpt lat="50.09818" lon="5.03516">
        <ele>214.8</ele>
        <time>2022-04-21T11:58:24Z</time>
      </trkpt>
      <trkpt lat="50.09817" lon="5.03517">
        <ele>214.8</ele>
        <time>2022-04-21T11:58:25Z</time>
      </trkpt>
      <trkpt lat="50.09816" lon="5.0352">
        <ele>214.8</ele>
        <time>2022-04-21T11:58:26Z</time>
      </trkpt>
      <trkpt lat="50.09815" lon="5.03521">
        <ele>214.8</ele>
        <time>2022-04-21T11:58:27Z</time>
      </trkpt>
      <trkpt lat="50.09814" lon="5.03522">
        <ele>214.8</ele>
        <time>2022-04-21T11:58:28Z</time>
      </trkpt>
      <trkpt lat="50.09813" lon="5.03524">
        <ele>214.7</ele>
        <time>2022-04-21T11:58:29Z</time>
      </trkpt>
      <trkpt lat="50.09812" lon="5.03526">
        <ele>214.7</ele>
        <time>2022-04-21T11:58:30Z</time>
      </trkpt>
      <trkpt lat="50.09811" lon="5.03527">
        <ele>214.7</ele>
        <time>2022-04-21T11:58:31Z</time>
      </trkpt>
      <trkpt lat="50.0981" lon="5.03529">
        <ele>214.6</ele>
        <time>2022-04-21T11:58:32Z</time>
      </trkpt>
      <trkpt lat="50.09809" lon="5.0353">
        <ele>214.6</ele>
        <time>2022-04-21T11:58:33Z</time>
      </trkpt>
      <trkpt lat="50.09808" lon="5.0353">
        <ele>214.6</ele>
        <time>2022-04-21T11:58:34Z</time>
      </trkpt>
      <trkpt lat="50.09808" lon="5.03531">
        <ele>214.6</ele>
        <time>2022-04-21T11:58:35Z</time>
      </trkpt>
      <trkpt lat="50.09807" lon="5.03532">
        <ele>214.6</ele>
        <time>2022-04-21T11:58:36Z</time>
      </trkpt>
      <trkpt lat="50.09805" lon="5.03535">
        <ele>214.6</ele>
        <time>2022-04-21T11:58:38Z</time>
      </trkpt>
      <trkpt lat="50.09805" lon="5.03536">
        <ele>214.6</ele>
        <time>2022-04-21T11:58:39Z</time>
      </trkpt>
      <trkpt lat="50.09805" lon="5.03536">
        <ele>214.5</ele>
        <time>2022-04-21T11:58:40Z</time>
      </trkpt>
      <trkpt lat="50.09803" lon="5.03538">
        <ele>214.5</ele>
        <time>2022-04-21T11:58:41Z</time>
      </trkpt>
      <trkpt lat="50.09802" lon="5.0354">
        <ele>214.5</ele>
        <time>2022-04-21T11:58:42Z</time>
      </trkpt>
      <trkpt lat="50.09801" lon="5.03542">
        <ele>214.5</ele>
        <time>2022-04-21T11:58:43Z</time>
      </trkpt>
      <trkpt lat="50.098" lon="5.03544">
        <ele>214.4</ele>
        <time>2022-04-21T11:58:44Z</time>
      </trkpt>
      <trkpt lat="50.09799" lon="5.03546">
        <ele>214.4</ele>
        <time>2022-04-21T11:58:45Z</time>
      </trkpt>
      <trkpt lat="50.09798" lon="5.03547">
        <ele>214.4</ele>
        <time>2022-04-21T11:58:46Z</time>
      </trkpt>
      <trkpt lat="50.09797" lon="5.03548">
        <ele>214.4</ele>
        <time>2022-04-21T11:58:47Z</time>
      </trkpt>
      <trkpt lat="50.09796" lon="5.0355">
        <ele>214.4</ele>
        <time>2022-04-21T11:58:49Z</time>
      </trkpt>
      <trkpt lat="50.09796" lon="5.03551">
        <ele>214.4</ele>
        <time>2022-04-21T11:58:50Z</time>
      </trkpt>
      <trkpt lat="50.09795" lon="5.03552">
        <ele>214.4</ele>
        <time>2022-04-21T11:58:51Z</time>
      </trkpt>
      <trkpt lat="50.09794" lon="5.03554">
        <ele>214.4</ele>
        <time>2022-04-21T11:58:52Z</time>
      </trkpt>
      <trkpt lat="50.09794" lon="5.03555">
        <ele>214.4</ele>
        <time>2022-04-21T11:58:53Z</time>
      </trkpt>
      <trkpt lat="50.09794" lon="5.03557">
        <ele>214.3</ele>
        <time>2022-04-21T11:58:54Z</time>
      </trkpt>
      <trkpt lat="50.09793" lon="5.03559">
        <ele>214.3</ele>
        <time>2022-04-21T11:58:55Z</time>
      </trkpt>
      <trkpt lat="50.09793" lon="5.0356">
        <ele>214.3</ele>
        <time>2022-04-21T11:58:56Z</time>
      </trkpt>
      <trkpt lat="50.09792" lon="5.03562">
        <ele>214.3</ele>
        <time>2022-04-21T11:58:57Z</time>
      </trkpt>
      <trkpt lat="50.09791" lon="5.03565">
        <ele>214.3</ele>
        <time>2022-04-21T11:58:58Z</time>
      </trkpt>
      <trkpt lat="50.0979" lon="5.03567">
        <ele>214.3</ele>
        <time>2022-04-21T11:58:59Z</time>
      </trkpt>
      <trkpt lat="50.09789" lon="5.03569">
        <ele>214.3</ele>
        <time>2022-04-21T11:59:00Z</time>
      </trkpt>
      <trkpt lat="50.09788" lon="5.03571">
        <ele>214.3</ele>
        <time>2022-04-21T11:59:01Z</time>
      </trkpt>
      <trkpt lat="50.09788" lon="5.03572">
        <ele>214.3</ele>
        <time>2022-04-21T11:59:02Z</time>
      </trkpt>
      <trkpt lat="50.09787" lon="5.03574">
        <ele>214.3</ele>
        <time>2022-04-21T11:59:03Z</time>
      </trkpt>
      <trkpt lat="50.09787" lon="5.03575">
        <ele>214.3</ele>
        <time>2022-04-21T11:59:04Z</time>
      </trkpt>
      <trkpt lat="50.09786" lon="5.03577">
        <ele>214.3</ele>
        <time>2022-04-21T11:59:05Z</time>
      </trkpt>
      <trkpt lat="50.09786" lon="5.03578">
        <ele>214.3</ele>
        <time>2022-04-21T11:59:06Z</time>
      </trkpt>
      <trkpt lat="50.09785" lon="5.03579">
        <ele>214.3</ele>
        <time>2022-04-21T11:59:07Z</time>
      </trkpt>
      <trkpt lat="50.09785" lon="5.03581">
        <ele>214.3</ele>
        <time>2022-04-21T11:59:08Z</time>
      </trkpt>
      <trkpt lat="50.09785" lon="5.03583">
        <ele>214.3</ele>
        <time>2022-04-21T11:59:09Z</time>
      </trkpt>
      <trkpt lat="50.09784" lon="5.03585">
        <ele>214.3</ele>
        <time>2022-04-21T11:59:10Z</time>
      </trkpt>
      <trkpt lat="50.09784" lon="5.03587">
        <ele>214.3</ele>
        <time>2022-04-21T11:59:11Z</time>
      </trkpt>
      <trkpt lat="50.09783" lon="5.0359">
        <ele>214.3</ele>
        <time>2022-04-21T11:59:12Z</time>
      </trkpt>
      <trkpt lat="50.09782" lon="5.03592">
        <ele>214.3</ele>
        <time>2022-04-21T11:59:13Z</time>
      </trkpt>
      <trkpt lat="50.09782" lon="5.03594">
        <ele>214.3</ele>
        <time>2022-04-21T11:59:14Z</time>
      </trkpt>
      <trkpt lat="50.09781" lon="5.03595">
        <ele>214.3</ele>
        <time>2022-04-21T11:59:15Z</time>
      </trkpt>
      <trkpt lat="50.0978" lon="5.03598">
        <ele>214.3</ele>
        <time>2022-04-21T11:59:17Z</time>
      </trkpt>
      <trkpt lat="50.0978" lon="5.036">
        <ele>214.3</ele>
        <time>2022-04-21T11:59:18Z</time>
      </trkpt>
      <trkpt lat="50.09779" lon="5.03602">
        <ele>214.3</ele>
        <time>2022-04-21T11:59:20Z</time>
      </trkpt>
      <trkpt lat="50.09778" lon="5.03603">
        <ele>214.3</ele>
        <time>2022-04-21T11:59:21Z</time>
      </trkpt>
      <trkpt lat="50.09778" lon="5.03605">
        <ele>214.3</ele>
        <time>2022-04-21T11:59:22Z</time>
      </trkpt>
      <trkpt lat="50.09778" lon="5.03608">
        <ele>214.3</ele>
        <time>2022-04-21T11:59:24Z</time>
      </trkpt>
      <trkpt lat="50.09778" lon="5.0361">
        <ele>214.4</ele>
        <time>2022-04-21T11:59:25Z</time>
      </trkpt>
      <trkpt lat="50.09777" lon="5.03612">
        <ele>214.4</ele>
        <time>2022-04-21T11:59:26Z</time>
      </trkpt>
      <trkpt lat="50.09776" lon="5.03617">
        <ele>214.4</ele>
        <time>2022-04-21T11:59:27Z</time>
      </trkpt>
      <trkpt lat="50.09776" lon="5.03618">
        <ele>214.4</ele>
        <time>2022-04-21T11:59:28Z</time>
      </trkpt>
      <trkpt lat="50.09775" lon="5.03621">
        <ele>214.4</ele>
        <time>2022-04-21T11:59:29Z</time>
      </trkpt>
      <trkpt lat="50.09774" lon="5.03623">
        <ele>214.4</ele>
        <time>2022-04-21T11:59:30Z</time>
      </trkpt>
      <trkpt lat="50.09774" lon="5.03625">
        <ele>214.4</ele>
        <time>2022-04-21T11:59:31Z</time>
      </trkpt>
      <trkpt lat="50.09774" lon="5.03626">
        <ele>214.4</ele>
        <time>2022-04-21T11:59:32Z</time>
      </trkpt>
      <trkpt lat="50.09774" lon="5.03628">
        <ele>214.4</ele>
        <time>2022-04-21T11:59:33Z</time>
      </trkpt>
      <trkpt lat="50.09774" lon="5.03631">
        <ele>214.5</ele>
        <time>2022-04-21T11:59:35Z</time>
      </trkpt>
      <trkpt lat="50.09774" lon="5.03632">
        <ele>214.5</ele>
        <time>2022-04-21T11:59:36Z</time>
      </trkpt>
      <trkpt lat="50.09774" lon="5.03634">
        <ele>214.5</ele>
        <time>2022-04-21T11:59:37Z</time>
      </trkpt>
      <trkpt lat="50.09774" lon="5.03637">
        <ele>214.5</ele>
        <time>2022-04-21T11:59:38Z</time>
      </trkpt>
      <trkpt lat="50.09773" lon="5.03639">
        <ele>214.5</ele>
        <time>2022-04-21T11:59:39Z</time>
      </trkpt>
      <trkpt lat="50.09773" lon="5.03641">
        <ele>214.5</ele>
        <time>2022-04-21T11:59:40Z</time>
      </trkpt>
      <trkpt lat="50.09772" lon="5.03643">
        <ele>214.6</ele>
        <time>2022-04-21T11:59:42Z</time>
      </trkpt>
      <trkpt lat="50.09771" lon="5.03645">
        <ele>214.6</ele>
        <time>2022-04-21T11:59:43Z</time>
      </trkpt>
      <trkpt lat="50.0977" lon="5.03647">
        <ele>214.6</ele>
        <time>2022-04-21T11:59:44Z</time>
      </trkpt>
      <trkpt lat="50.0977" lon="5.03648">
        <ele>214.6</ele>
        <time>2022-04-21T11:59:45Z</time>
      </trkpt>
      <trkpt lat="50.09769" lon="5.03649">
        <ele>214.7</ele>
        <time>2022-04-21T11:59:46Z</time>
      </trkpt>
      <trkpt lat="50.09769" lon="5.0365">
        <ele>214.7</ele>
        <time>2022-04-21T11:59:47Z</time>
      </trkpt>
      <trkpt lat="50.09768" lon="5.03652">
        <ele>214.7</ele>
        <time>2022-04-21T11:59:48Z</time>
      </trkpt>
      <trkpt lat="50.09767" lon="5.03655">
        <ele>214.7</ele>
        <time>2022-04-21T11:59:50Z</time>
      </trkpt>
      <trkpt lat="50.09767" lon="5.03657">
        <ele>214.8</ele>
        <time>2022-04-21T11:59:51Z</time>
      </trkpt>
      <trkpt lat="50.09766" lon="5.0366">
        <ele>214.8</ele>
        <time>2022-04-21T11:59:52Z</time>
      </trkpt>
      <trkpt lat="50.09765" lon="5.03664">
        <ele>214.9</ele>
        <time>2022-04-21T11:59:53Z</time>
      </trkpt>
      <trkpt lat="50.09764" lon="5.03665">
        <ele>214.9</ele>
        <time>2022-04-21T11:59:54Z</time>
      </trkpt>
      <trkpt lat="50.09763" lon="5.03667">
        <ele>215</ele>
        <time>2022-04-21T11:59:55Z</time>
      </trkpt>
      <trkpt lat="50.09762" lon="5.03668">
        <ele>215</ele>
        <time>2022-04-21T11:59:57Z</time>
      </trkpt>
      <trkpt lat="50.09762" lon="5.0367">
        <ele>215.1</ele>
        <time>2022-04-21T11:59:58Z</time>
      </trkpt>
      <trkpt lat="50.09762" lon="5.03671">
        <ele>215.1</ele>
        <time>2022-04-21T11:59:59Z</time>
      </trkpt>
      <trkpt lat="50.09761" lon="5.03672">
        <ele>215.1</ele>
        <time>2022-04-21T12:00:00Z</time>
      </trkpt>
      <trkpt lat="50.09761" lon="5.03673">
        <ele>215.2</ele>
        <time>2022-04-21T12:00:01Z</time>
      </trkpt>
      <trkpt lat="50.0976" lon="5.03674">
        <ele>215.2</ele>
        <time>2022-04-21T12:00:02Z</time>
      </trkpt>
      <trkpt lat="50.0976" lon="5.03677">
        <ele>215.3</ele>
        <time>2022-04-21T12:00:03Z</time>
      </trkpt>
      <trkpt lat="50.09759" lon="5.03678">
        <ele>215.3</ele>
        <time>2022-04-21T12:00:04Z</time>
      </trkpt>
      <trkpt lat="50.09759" lon="5.03679">
        <ele>215.4</ele>
        <time>2022-04-21T12:00:05Z</time>
      </trkpt>
      <trkpt lat="50.09758" lon="5.03683">
        <ele>215.5</ele>
        <time>2022-04-21T12:00:06Z</time>
      </trkpt>
      <trkpt lat="50.09757" lon="5.03685">
        <ele>215.6</ele>
        <time>2022-04-21T12:00:08Z</time>
      </trkpt>
      <trkpt lat="50.09756" lon="5.03687">
        <ele>215.6</ele>
        <time>2022-04-21T12:00:09Z</time>
      </trkpt>
      <trkpt lat="50.09755" lon="5.03689">
        <ele>215.7</ele>
        <time>2022-04-21T12:00:10Z</time>
      </trkpt>
      <trkpt lat="50.09754" lon="5.0369">
        <ele>215.8</ele>
        <time>2022-04-21T12:00:11Z</time>
      </trkpt>
      <trkpt lat="50.09754" lon="5.03691">
        <ele>215.8</ele>
        <time>2022-04-21T12:00:12Z</time>
      </trkpt>
      <trkpt lat="50.09753" lon="5.03693">
        <ele>215.9</ele>
        <time>2022-04-21T12:00:13Z</time>
      </trkpt>
      <trkpt lat="50.09752" lon="5.03695">
        <ele>216</ele>
        <time>2022-04-21T12:00:14Z</time>
      </trkpt>
      <trkpt lat="50.09751" lon="5.03696">
        <ele>216.1</ele>
        <time>2022-04-21T12:00:15Z</time>
      </trkpt>
      <trkpt lat="50.0975" lon="5.03696">
        <ele>216.1</ele>
        <time>2022-04-21T12:00:16Z</time>
      </trkpt>
      <trkpt lat="50.09749" lon="5.03697">
        <ele>216.2</ele>
        <time>2022-04-21T12:00:17Z</time>
      </trkpt>
      <trkpt lat="50.09747" lon="5.03698">
        <ele>216.3</ele>
        <time>2022-04-21T12:00:18Z</time>
      </trkpt>
      <trkpt lat="50.09745" lon="5.037">
        <ele>216.5</ele>
        <time>2022-04-21T12:00:20Z</time>
      </trkpt>
      <trkpt lat="50.09744" lon="5.037">
        <ele>216.6</ele>
        <time>2022-04-21T12:00:21Z</time>
      </trkpt>
      <trkpt lat="50.09742" lon="5.03702">
        <ele>216.7</ele>
        <time>2022-04-21T12:00:23Z</time>
      </trkpt>
      <trkpt lat="50.09742" lon="5.03703">
        <ele>216.7</ele>
        <time>2022-04-21T12:00:24Z</time>
      </trkpt>
      <trkpt lat="50.09741" lon="5.03704">
        <ele>216.8</ele>
        <time>2022-04-21T12:00:25Z</time>
      </trkpt>
      <trkpt lat="50.0974" lon="5.03705">
        <ele>216.9</ele>
        <time>2022-04-21T12:00:26Z</time>
      </trkpt>
      <trkpt lat="50.09739" lon="5.03707">
        <ele>217</ele>
        <time>2022-04-21T12:00:28Z</time>
      </trkpt>
      <trkpt lat="50.09738" lon="5.03708">
        <ele>217.1</ele>
        <time>2022-04-21T12:00:29Z</time>
      </trkpt>
      <trkpt lat="50.09736" lon="5.0371">
        <ele>217.2</ele>
        <time>2022-04-21T12:00:30Z</time>
      </trkpt>
      <trkpt lat="50.09733" lon="5.03712">
        <ele>217.5</ele>
        <time>2022-04-21T12:00:31Z</time>
      </trkpt>
      <trkpt lat="50.09733" lon="5.03712">
        <ele>217.5</ele>
        <time>2022-04-21T12:00:32Z</time>
      </trkpt>
      <trkpt lat="50.09732" lon="5.03712">
        <ele>217.6</ele>
        <time>2022-04-21T12:00:33Z</time>
      </trkpt>
      <trkpt lat="50.09731" lon="5.03713">
        <ele>217.6</ele>
        <time>2022-04-21T12:00:34Z</time>
      </trkpt>
      <trkpt lat="50.0973" lon="5.03714">
        <ele>217.7</ele>
        <time>2022-04-21T12:00:36Z</time>
      </trkpt>
      <trkpt lat="50.09729" lon="5.03714">
        <ele>217.8</ele>
        <time>2022-04-21T12:00:37Z</time>
      </trkpt>
      <trkpt lat="50.09729" lon="5.03714">
        <ele>217.9</ele>
        <time>2022-04-21T12:00:38Z</time>
      </trkpt>
      <trkpt lat="50.09728" lon="5.03715">
        <ele>217.9</ele>
        <time>2022-04-21T12:00:39Z</time>
      </trkpt>
      <trkpt lat="50.09726" lon="5.03716">
        <ele>218.1</ele>
        <time>2022-04-21T12:00:40Z</time>
      </trkpt>
      <trkpt lat="50.09725" lon="5.03717">
        <ele>218.1</ele>
        <time>2022-04-21T12:00:41Z</time>
      </trkpt>
      <trkpt lat="50.09724" lon="5.03717">
        <ele>218.2</ele>
        <time>2022-04-21T12:00:42Z</time>
      </trkpt>
      <trkpt lat="50.09722" lon="5.03719">
        <ele>218.4</ele>
        <time>2022-04-21T12:00:43Z</time>
      </trkpt>
      <trkpt lat="50.09721" lon="5.0372">
        <ele>218.4</ele>
        <time>2022-04-21T12:00:44Z</time>
      </trkpt>
      <trkpt lat="50.09719" lon="5.03721">
        <ele>218.5</ele>
        <time>2022-04-21T12:00:45Z</time>
      </trkpt>
      <trkpt lat="50.09718" lon="5.03722">
        <ele>218.6</ele>
        <time>2022-04-21T12:00:46Z</time>
      </trkpt>
      <trkpt lat="50.09716" lon="5.03723">
        <ele>218.7</ele>
        <time>2022-04-21T12:00:47Z</time>
      </trkpt>
      <trkpt lat="50.09715" lon="5.03724">
        <ele>218.8</ele>
        <time>2022-04-21T12:00:48Z</time>
      </trkpt>
      <trkpt lat="50.09715" lon="5.03726">
        <ele>218.9</ele>
        <time>2022-04-21T12:00:50Z</time>
      </trkpt>
      <trkpt lat="50.09715" lon="5.03726">
        <ele>218.9</ele>
        <time>2022-04-21T12:00:51Z</time>
      </trkpt>
      <trkpt lat="50.09714" lon="5.03727">
        <ele>219</ele>
        <time>2022-04-21T12:00:52Z</time>
      </trkpt>
      <trkpt lat="50.09714" lon="5.03727">
        <ele>219</ele>
        <time>2022-04-21T12:00:53Z</time>
      </trkpt>
      <trkpt lat="50.09714" lon="5.03725">
        <ele>219.1</ele>
        <time>2022-04-21T12:00:54Z</time>
      </trkpt>
      <trkpt lat="50.09715" lon="5.03724">
        <ele>219.1</ele>
        <time>2022-04-21T12:00:55Z</time>
      </trkpt>
      <trkpt lat="50.09714" lon="5.03724">
        <ele>219.1</ele>
        <time>2022-04-21T12:00:56Z</time>
      </trkpt>
      <trkpt lat="50.09714" lon="5.03724">
        <ele>219.2</ele>
        <time>2022-04-21T12:00:57Z</time>
      </trkpt>
      <trkpt lat="50.09714" lon="5.03724">
        <ele>219.2</ele>
        <time>2022-04-21T12:00:58Z</time>
      </trkpt>
      <trkpt lat="50.09714" lon="5.03725">
        <ele>219.2</ele>
        <time>2022-04-21T12:00:59Z</time>
      </trkpt>
      <trkpt lat="50.09721" lon="5.03724">
        <ele>219.6</ele>
        <time>2022-04-21T12:01:01Z</time>
      </trkpt>
      <trkpt lat="50.09727" lon="5.03722">
        <ele>219.9</ele>
        <time>2022-04-21T12:01:02Z</time>
      </trkpt>
      <trkpt lat="50.0973" lon="5.03722">
        <ele>220</ele>
        <time>2022-04-21T12:01:03Z</time>
      </trkpt>
      <trkpt lat="50.09729" lon="5.03724">
        <ele>220.1</ele>
        <time>2022-04-21T12:01:04Z</time>
      </trkpt>
      <trkpt lat="50.09728" lon="5.03726">
        <ele>220.2</ele>
        <time>2022-04-21T12:01:05Z</time>
      </trkpt>
      <trkpt lat="50.09727" lon="5.03728">
        <ele>220.2</ele>
        <time>2022-04-21T12:01:07Z</time>
      </trkpt>
      <trkpt lat="50.09726" lon="5.0373">
        <ele>220.3</ele>
        <time>2022-04-21T12:01:08Z</time>
      </trkpt>
      <trkpt lat="50.09725" lon="5.03732">
        <ele>220.4</ele>
        <time>2022-04-21T12:01:09Z</time>
      </trkpt>
      <trkpt lat="50.09723" lon="5.03736">
        <ele>220.5</ele>
        <time>2022-04-21T12:01:10Z</time>
      </trkpt>
      <trkpt lat="50.09723" lon="5.03738">
        <ele>220.6</ele>
        <time>2022-04-21T12:01:11Z</time>
      </trkpt>
      <trkpt lat="50.09722" lon="5.0374">
        <ele>220.6</ele>
        <time>2022-04-21T12:01:13Z</time>
      </trkpt>
      <trkpt lat="50.09722" lon="5.03741">
        <ele>220.7</ele>
        <time>2022-04-21T12:01:14Z</time>
      </trkpt>
      <trkpt lat="50.0972" lon="5.03743">
        <ele>220.8</ele>
        <time>2022-04-21T12:01:16Z</time>
      </trkpt>
      <trkpt lat="50.09719" lon="5.03744">
        <ele>220.8</ele>
        <time>2022-04-21T12:01:17Z</time>
      </trkpt>
      <trkpt lat="50.09718" lon="5.03743">
        <ele>220.8</ele>
        <time>2022-04-21T12:01:18Z</time>
      </trkpt>
      <trkpt lat="50.09717" lon="5.03742">
        <ele>220.9</ele>
        <time>2022-04-21T12:01:19Z</time>
      </trkpt>
      <trkpt lat="50.09717" lon="5.03741">
        <ele>220.9</ele>
        <time>2022-04-21T12:01:20Z</time>
      </trkpt>
      <trkpt lat="50.09714" lon="5.0374">
        <ele>221</ele>
        <time>2022-04-21T12:01:22Z</time>
      </trkpt>
      <trkpt lat="50.09713" lon="5.0374">
        <ele>221</ele>
        <time>2022-04-21T12:01:23Z</time>
      </trkpt>
      <trkpt lat="50.0971" lon="5.0374">
        <ele>221.2</ele>
        <time>2022-04-21T12:01:24Z</time>
      </trkpt>
      <trkpt lat="50.09708" lon="5.0374">
        <ele>221.2</ele>
        <time>2022-04-21T12:01:25Z</time>
      </trkpt>
      <trkpt lat="50.09706" lon="5.03741">
        <ele>221.3</ele>
        <time>2022-04-21T12:01:26Z</time>
      </trkpt>
      <trkpt lat="50.09705" lon="5.03741">
        <ele>221.3</ele>
        <time>2022-04-21T12:01:27Z</time>
      </trkpt>
      <trkpt lat="50.09703" lon="5.03742">
        <ele>221.4</ele>
        <time>2022-04-21T12:01:28Z</time>
      </trkpt>
      <trkpt lat="50.09702" lon="5.03742">
        <ele>221.4</ele>
        <time>2022-04-21T12:01:29Z</time>
      </trkpt>
      <trkpt lat="50.09701" lon="5.03743">
        <ele>221.5</ele>
        <time>2022-04-21T12:01:30Z</time>
      </trkpt>
      <trkpt lat="50.097" lon="5.03744">
        <ele>221.5</ele>
        <time>2022-04-21T12:01:31Z</time>
      </trkpt>
      <trkpt lat="50.09699" lon="5.03745">
        <ele>221.5</ele>
        <time>2022-04-21T12:01:32Z</time>
      </trkpt>
      <trkpt lat="50.09697" lon="5.03747">
        <ele>221.6</ele>
        <time>2022-04-21T12:01:33Z</time>
      </trkpt>
      <trkpt lat="50.09696" lon="5.03748">
        <ele>221.7</ele>
        <time>2022-04-21T12:01:36Z</time>
      </trkpt>
      <trkpt lat="50.09695" lon="5.0375">
        <ele>221.7</ele>
        <time>2022-04-21T12:01:37Z</time>
      </trkpt>
      <trkpt lat="50.09694" lon="5.03751">
        <ele>221.7</ele>
        <time>2022-04-21T12:01:38Z</time>
      </trkpt>
      <trkpt lat="50.09693" lon="5.03752">
        <ele>221.8</ele>
        <time>2022-04-21T12:01:39Z</time>
      </trkpt>
      <trkpt lat="50.09692" lon="5.03754">
        <ele>221.8</ele>
        <time>2022-04-21T12:01:40Z</time>
      </trkpt>
      <trkpt lat="50.09692" lon="5.03756">
        <ele>221.8</ele>
        <time>2022-04-21T12:01:41Z</time>
      </trkpt>
      <trkpt lat="50.09691" lon="5.03758">
        <ele>221.9</ele>
        <time>2022-04-21T12:01:42Z</time>
      </trkpt>
      <trkpt lat="50.0969" lon="5.0376">
        <ele>221.9</ele>
        <time>2022-04-21T12:01:43Z</time>
      </trkpt>
      <trkpt lat="50.09689" lon="5.03762">
        <ele>222</ele>
        <time>2022-04-21T12:01:44Z</time>
      </trkpt>
      <trkpt lat="50.09688" lon="5.03764">
        <ele>222</ele>
        <time>2022-04-21T12:01:45Z</time>
      </trkpt>
      <trkpt lat="50.09687" lon="5.03765">
        <ele>222.1</ele>
        <time>2022-04-21T12:01:46Z</time>
      </trkpt>
      <trkpt lat="50.09686" lon="5.03766">
        <ele>222.1</ele>
        <time>2022-04-21T12:01:47Z</time>
      </trkpt>
      <trkpt lat="50.09685" lon="5.03769">
        <ele>222.1</ele>
        <time>2022-04-21T12:01:48Z</time>
      </trkpt>
      <trkpt lat="50.09684" lon="5.0377">
        <ele>222.2</ele>
        <time>2022-04-21T12:01:49Z</time>
      </trkpt>
      <trkpt lat="50.09684" lon="5.03771">
        <ele>222.2</ele>
        <time>2022-04-21T12:01:50Z</time>
      </trkpt>
      <trkpt lat="50.09682" lon="5.03774">
        <ele>222.2</ele>
        <time>2022-04-21T12:01:51Z</time>
      </trkpt>
      <trkpt lat="50.09682" lon="5.03775">
        <ele>222.2</ele>
        <time>2022-04-21T12:01:52Z</time>
      </trkpt>
      <trkpt lat="50.09681" lon="5.03776">
        <ele>222.3</ele>
        <time>2022-04-21T12:01:53Z</time>
      </trkpt>
      <trkpt lat="50.0968" lon="5.03778">
        <ele>222.3</ele>
        <time>2022-04-21T12:01:54Z</time>
      </trkpt>
      <trkpt lat="50.0968" lon="5.0378">
        <ele>222.3</ele>
        <time>2022-04-21T12:01:55Z</time>
      </trkpt>
      <trkpt lat="50.09679" lon="5.03781">
        <ele>222.3</ele>
        <time>2022-04-21T12:01:56Z</time>
      </trkpt>
      <trkpt lat="50.09678" lon="5.03782">
        <ele>222.3</ele>
        <time>2022-04-21T12:01:58Z</time>
      </trkpt>
      <trkpt lat="50.09677" lon="5.03784">
        <ele>222.4</ele>
        <time>2022-04-21T12:01:59Z</time>
      </trkpt>
      <trkpt lat="50.09676" lon="5.03786">
        <ele>222.4</ele>
        <time>2022-04-21T12:02:00Z</time>
      </trkpt>
      <trkpt lat="50.09676" lon="5.03787">
        <ele>222.4</ele>
        <time>2022-04-21T12:02:01Z</time>
      </trkpt>
      <trkpt lat="50.09674" lon="5.0379">
        <ele>222.4</ele>
        <time>2022-04-21T12:02:02Z</time>
      </trkpt>
      <trkpt lat="50.09674" lon="5.03791">
        <ele>222.5</ele>
        <time>2022-04-21T12:02:03Z</time>
      </trkpt>
      <trkpt lat="50.09673" lon="5.03791">
        <ele>222.5</ele>
        <time>2022-04-21T12:02:04Z</time>
      </trkpt>
      <trkpt lat="50.09671" lon="5.03794">
        <ele>222.5</ele>
        <time>2022-04-21T12:02:05Z</time>
      </trkpt>
      <trkpt lat="50.09671" lon="5.03795">
        <ele>222.5</ele>
        <time>2022-04-21T12:02:06Z</time>
      </trkpt>
      <trkpt lat="50.0967" lon="5.03796">
        <ele>222.5</ele>
        <time>2022-04-21T12:02:07Z</time>
      </trkpt>
      <trkpt lat="50.09669" lon="5.03797">
        <ele>222.6</ele>
        <time>2022-04-21T12:02:08Z</time>
      </trkpt>
      <trkpt lat="50.09668" lon="5.03798">
        <ele>222.6</ele>
        <time>2022-04-21T12:02:09Z</time>
      </trkpt>
      <trkpt lat="50.09667" lon="5.038">
        <ele>222.6</ele>
        <time>2022-04-21T12:02:10Z</time>
      </trkpt>
      <trkpt lat="50.09666" lon="5.03801">
        <ele>222.6</ele>
        <time>2022-04-21T12:02:11Z</time>
      </trkpt>
      <trkpt lat="50.09664" lon="5.03802">
        <ele>222.6</ele>
        <time>2022-04-21T12:02:12Z</time>
      </trkpt>
      <trkpt lat="50.09663" lon="5.03803">
        <ele>222.7</ele>
        <time>2022-04-21T12:02:13Z</time>
      </trkpt>
      <trkpt lat="50.09662" lon="5.03805">
        <ele>222.7</ele>
        <time>2022-04-21T12:02:14Z</time>
      </trkpt>
      <trkpt lat="50.09661" lon="5.03806">
        <ele>222.7</ele>
        <time>2022-04-21T12:02:15Z</time>
      </trkpt>
      <trkpt lat="50.0966" lon="5.03808">
        <ele>222.7</ele>
        <time>2022-04-21T12:02:16Z</time>
      </trkpt>
      <trkpt lat="50.09659" lon="5.0381">
        <ele>222.7</ele>
        <time>2022-04-21T12:02:17Z</time>
      </trkpt>
      <trkpt lat="50.09658" lon="5.03811">
        <ele>222.8</ele>
        <time>2022-04-21T12:02:18Z</time>
      </trkpt>
      <trkpt lat="50.09657" lon="5.03813">
        <ele>222.8</ele>
        <time>2022-04-21T12:02:19Z</time>
      </trkpt>
      <trkpt lat="50.09656" lon="5.03815">
        <ele>222.8</ele>
        <time>2022-04-21T12:02:20Z</time>
      </trkpt>
      <trkpt lat="50.09655" lon="5.03816">
        <ele>222.8</ele>
        <time>2022-04-21T12:02:21Z</time>
      </trkpt>
      <trkpt lat="50.09655" lon="5.03818">
        <ele>222.8</ele>
        <time>2022-04-21T12:02:22Z</time>
      </trkpt>
      <trkpt lat="50.09654" lon="5.03819">
        <ele>222.8</ele>
        <time>2022-04-21T12:02:23Z</time>
      </trkpt>
      <trkpt lat="50.09654" lon="5.03821">
        <ele>222.9</ele>
        <time>2022-04-21T12:02:24Z</time>
      </trkpt>
      <trkpt lat="50.09653" lon="5.03822">
        <ele>222.9</ele>
        <time>2022-04-21T12:02:25Z</time>
      </trkpt>
      <trkpt lat="50.09653" lon="5.03825">
        <ele>222.9</ele>
        <time>2022-04-21T12:02:26Z</time>
      </trkpt>
      <trkpt lat="50.09653" lon="5.03827">
        <ele>222.9</ele>
        <time>2022-04-21T12:02:27Z</time>
      </trkpt>
      <trkpt lat="50.09652" lon="5.03828">
        <ele>222.9</ele>
        <time>2022-04-21T12:02:29Z</time>
      </trkpt>
      <trkpt lat="50.09652" lon="5.0383">
        <ele>222.9</ele>
        <time>2022-04-21T12:02:30Z</time>
      </trkpt>
      <trkpt lat="50.09652" lon="5.03832">
        <ele>222.9</ele>
        <time>2022-04-21T12:02:31Z</time>
      </trkpt>
      <trkpt lat="50.09652" lon="5.03833">
        <ele>223</ele>
        <time>2022-04-21T12:02:32Z</time>
      </trkpt>
      <trkpt lat="50.09652" lon="5.03836">
        <ele>223</ele>
        <time>2022-04-21T12:02:33Z</time>
      </trkpt>
      <trkpt lat="50.09651" lon="5.03838">
        <ele>223</ele>
        <time>2022-04-21T12:02:34Z</time>
      </trkpt>
      <trkpt lat="50.09651" lon="5.03841">
        <ele>223</ele>
        <time>2022-04-21T12:02:35Z</time>
      </trkpt>
      <trkpt lat="50.0965" lon="5.03842">
        <ele>223</ele>
        <time>2022-04-21T12:02:36Z</time>
      </trkpt>
      <trkpt lat="50.0965" lon="5.03844">
        <ele>223</ele>
        <time>2022-04-21T12:02:37Z</time>
      </trkpt>
      <trkpt lat="50.0965" lon="5.03846">
        <ele>223</ele>
        <time>2022-04-21T12:02:38Z</time>
      </trkpt>
      <trkpt lat="50.09649" lon="5.03848">
        <ele>223</ele>
        <time>2022-04-21T12:02:39Z</time>
      </trkpt>
      <trkpt lat="50.09649" lon="5.0385">
        <ele>223</ele>
        <time>2022-04-21T12:02:40Z</time>
      </trkpt>
      <trkpt lat="50.09649" lon="5.03853">
        <ele>223</ele>
        <time>2022-04-21T12:02:41Z</time>
      </trkpt>
      <trkpt lat="50.09648" lon="5.03855">
        <ele>223</ele>
        <time>2022-04-21T12:02:42Z</time>
      </trkpt>
      <trkpt lat="50.09648" lon="5.03857">
        <ele>223</ele>
        <time>2022-04-21T12:02:43Z</time>
      </trkpt>
      <trkpt lat="50.09648" lon="5.03859">
        <ele>223</ele>
        <time>2022-04-21T12:02:44Z</time>
      </trkpt>
      <trkpt lat="50.09648" lon="5.03862">
        <ele>223</ele>
        <time>2022-04-21T12:02:45Z</time>
      </trkpt>
      <trkpt lat="50.09647" lon="5.03864">
        <ele>223</ele>
        <time>2022-04-21T12:02:46Z</time>
      </trkpt>
      <trkpt lat="50.09647" lon="5.03866">
        <ele>223</ele>
        <time>2022-04-21T12:02:47Z</time>
      </trkpt>
      <trkpt lat="50.09647" lon="5.03868">
        <ele>223</ele>
        <time>2022-04-21T12:02:48Z</time>
      </trkpt>
      <trkpt lat="50.09647" lon="5.0387">
        <ele>223</ele>
        <time>2022-04-21T12:02:49Z</time>
      </trkpt>
      <trkpt lat="50.09647" lon="5.03873">
        <ele>222.9</ele>
        <time>2022-04-21T12:02:50Z</time>
      </trkpt>
      <trkpt lat="50.09647" lon="5.03875">
        <ele>222.9</ele>
        <time>2022-04-21T12:02:51Z</time>
      </trkpt>
      <trkpt lat="50.09648" lon="5.03878">
        <ele>222.9</ele>
        <time>2022-04-21T12:02:52Z</time>
      </trkpt>
      <trkpt lat="50.09648" lon="5.03879">
        <ele>222.9</ele>
        <time>2022-04-21T12:02:53Z</time>
      </trkpt>
      <trkpt lat="50.09648" lon="5.03881">
        <ele>222.9</ele>
        <time>2022-04-21T12:02:54Z</time>
      </trkpt>
      <trkpt lat="50.09648" lon="5.03883">
        <ele>222.9</ele>
        <time>2022-04-21T12:02:55Z</time>
      </trkpt>
      <trkpt lat="50.09648" lon="5.03884">
        <ele>222.8</ele>
        <time>2022-04-21T12:02:56Z</time>
      </trkpt>
      <trkpt lat="50.09649" lon="5.03887">
        <ele>222.8</ele>
        <time>2022-04-21T12:02:58Z</time>
      </trkpt>
      <trkpt lat="50.09649" lon="5.0389">
        <ele>222.8</ele>
        <time>2022-04-21T12:02:59Z</time>
      </trkpt>
      <trkpt lat="50.09648" lon="5.03892">
        <ele>222.7</ele>
        <time>2022-04-21T12:03:00Z</time>
      </trkpt>
      <trkpt lat="50.09648" lon="5.03893">
        <ele>222.7</ele>
        <time>2022-04-21T12:03:01Z</time>
      </trkpt>
      <trkpt lat="50.09649" lon="5.03895">
        <ele>222.7</ele>
        <time>2022-04-21T12:03:02Z</time>
      </trkpt>
      <trkpt lat="50.09649" lon="5.03897">
        <ele>222.7</ele>
        <time>2022-04-21T12:03:03Z</time>
      </trkpt>
      <trkpt lat="50.09649" lon="5.03898">
        <ele>222.7</ele>
        <time>2022-04-21T12:03:04Z</time>
      </trkpt>
      <trkpt lat="50.09648" lon="5.039">
        <ele>222.6</ele>
        <time>2022-04-21T12:03:05Z</time>
      </trkpt>
      <trkpt lat="50.09648" lon="5.03902">
        <ele>222.6</ele>
        <time>2022-04-21T12:03:06Z</time>
      </trkpt>
      <trkpt lat="50.09648" lon="5.03903">
        <ele>222.6</ele>
        <time>2022-04-21T12:03:07Z</time>
      </trkpt>
      <trkpt lat="50.09649" lon="5.03906">
        <ele>222.6</ele>
        <time>2022-04-21T12:03:09Z</time>
      </trkpt>
      <trkpt lat="50.09649" lon="5.03907">
        <ele>222.5</ele>
        <time>2022-04-21T12:03:10Z</time>
      </trkpt>
      <trkpt lat="50.09649" lon="5.03911">
        <ele>222.5</ele>
        <time>2022-04-21T12:03:12Z</time>
      </trkpt>
      <trkpt lat="50.09649" lon="5.03913">
        <ele>222.5</ele>
        <time>2022-04-21T12:03:13Z</time>
      </trkpt>
      <trkpt lat="50.09649" lon="5.03915">
        <ele>222.4</ele>
        <time>2022-04-21T12:03:14Z</time>
      </trkpt>
      <trkpt lat="50.09649" lon="5.03919">
        <ele>222.4</ele>
        <time>2022-04-21T12:03:15Z</time>
      </trkpt>
      <trkpt lat="50.09649" lon="5.03921">
        <ele>222.4</ele>
        <time>2022-04-21T12:03:16Z</time>
      </trkpt>
      <trkpt lat="50.09649" lon="5.03923">
        <ele>222.3</ele>
        <time>2022-04-21T12:03:17Z</time>
      </trkpt>
      <trkpt lat="50.09649" lon="5.03926">
        <ele>222.3</ele>
        <time>2022-04-21T12:03:18Z</time>
      </trkpt>
      <trkpt lat="50.09649" lon="5.03929">
        <ele>222.3</ele>
        <time>2022-04-21T12:03:19Z</time>
      </trkpt>
      <trkpt lat="50.09649" lon="5.0393">
        <ele>222.3</ele>
        <time>2022-04-21T12:03:20Z</time>
      </trkpt>
      <trkpt lat="50.09649" lon="5.03932">
        <ele>222.3</ele>
        <time>2022-04-21T12:03:21Z</time>
      </trkpt>
      <trkpt lat="50.09649" lon="5.03935">
        <ele>222.2</ele>
        <time>2022-04-21T12:03:22Z</time>
      </trkpt>
      <trkpt lat="50.09649" lon="5.03937">
        <ele>222.2</ele>
        <time>2022-04-21T12:03:23Z</time>
      </trkpt>
      <trkpt lat="50.0965" lon="5.03939">
        <ele>222.2</ele>
        <time>2022-04-21T12:03:24Z</time>
      </trkpt>
      <trkpt lat="50.0965" lon="5.03941">
        <ele>222.2</ele>
        <time>2022-04-21T12:03:25Z</time>
      </trkpt>
      <trkpt lat="50.0965" lon="5.03944">
        <ele>222.2</ele>
        <time>2022-04-21T12:03:26Z</time>
      </trkpt>
      <trkpt lat="50.0965" lon="5.03946">
        <ele>222.1</ele>
        <time>2022-04-21T12:03:27Z</time>
      </trkpt>
      <trkpt lat="50.09651" lon="5.03948">
        <ele>222.1</ele>
        <time>2022-04-21T12:03:28Z</time>
      </trkpt>
      <trkpt lat="50.09651" lon="5.0395">
        <ele>222.1</ele>
        <time>2022-04-21T12:03:29Z</time>
      </trkpt>
      <trkpt lat="50.09651" lon="5.03952">
        <ele>222.1</ele>
        <time>2022-04-21T12:03:30Z</time>
      </trkpt>
      <trkpt lat="50.09651" lon="5.03953">
        <ele>222.1</ele>
        <time>2022-04-21T12:03:31Z</time>
      </trkpt>
      <trkpt lat="50.09651" lon="5.03955">
        <ele>222.1</ele>
        <time>2022-04-21T12:03:32Z</time>
      </trkpt>
      <trkpt lat="50.09651" lon="5.03956">
        <ele>222.1</ele>
        <time>2022-04-21T12:03:33Z</time>
      </trkpt>
      <trkpt lat="50.09651" lon="5.03958">
        <ele>222.1</ele>
        <time>2022-04-21T12:03:34Z</time>
      </trkpt>
      <trkpt lat="50.09651" lon="5.03959">
        <ele>222.1</ele>
        <time>2022-04-21T12:03:35Z</time>
      </trkpt>
      <trkpt lat="50.0965" lon="5.0396">
        <ele>222.1</ele>
        <time>2022-04-21T12:03:37Z</time>
      </trkpt>
      <trkpt lat="50.0965" lon="5.03961">
        <ele>222.1</ele>
        <time>2022-04-21T12:03:38Z</time>
      </trkpt>
      <trkpt lat="50.0965" lon="5.03961">
        <ele>222.1</ele>
        <time>2022-04-21T12:03:39Z</time>
      </trkpt>
      <trkpt lat="50.09649" lon="5.03963">
        <ele>222.1</ele>
        <time>2022-04-21T12:03:40Z</time>
      </trkpt>
      <trkpt lat="50.09649" lon="5.03965">
        <ele>222.1</ele>
        <time>2022-04-21T12:03:41Z</time>
      </trkpt>
      <trkpt lat="50.09648" lon="5.03966">
        <ele>222.1</ele>
        <time>2022-04-21T12:03:42Z</time>
      </trkpt>
      <trkpt lat="50.09648" lon="5.03967">
        <ele>222.1</ele>
        <time>2022-04-21T12:03:43Z</time>
      </trkpt>
      <trkpt lat="50.09648" lon="5.03968">
        <ele>222.1</ele>
        <time>2022-04-21T12:03:44Z</time>
      </trkpt>
      <trkpt lat="50.09647" lon="5.03971">
        <ele>222.1</ele>
        <time>2022-04-21T12:03:45Z</time>
      </trkpt>
      <trkpt lat="50.09647" lon="5.03973">
        <ele>222.1</ele>
        <time>2022-04-21T12:03:46Z</time>
      </trkpt>
      <trkpt lat="50.09647" lon="5.03974">
        <ele>222.1</ele>
        <time>2022-04-21T12:03:47Z</time>
      </trkpt>
      <trkpt lat="50.09646" lon="5.03977">
        <ele>222.2</ele>
        <time>2022-04-21T12:03:48Z</time>
      </trkpt>
      <trkpt lat="50.09646" lon="5.03979">
        <ele>222.2</ele>
        <time>2022-04-21T12:03:49Z</time>
      </trkpt>
      <trkpt lat="50.09645" lon="5.03983">
        <ele>222.4</ele>
        <time>2022-04-21T12:03:51Z</time>
      </trkpt>
      <trkpt lat="50.09644" lon="5.03985">
        <ele>222.4</ele>
        <time>2022-04-21T12:03:53Z</time>
      </trkpt>
      <trkpt lat="50.09645" lon="5.03986">
        <ele>222.5</ele>
        <time>2022-04-21T12:03:54Z</time>
      </trkpt>
      <trkpt lat="50.09645" lon="5.03987">
        <ele>222.5</ele>
        <time>2022-04-21T12:03:55Z</time>
      </trkpt>
      <trkpt lat="50.09645" lon="5.03987">
        <ele>222.5</ele>
        <time>2022-04-21T12:03:56Z</time>
      </trkpt>
      <trkpt lat="50.09646" lon="5.03987">
        <ele>222.5</ele>
        <time>2022-04-21T12:03:57Z</time>
      </trkpt>
      <trkpt lat="50.09646" lon="5.03987">
        <ele>222.6</ele>
        <time>2022-04-21T12:03:58Z</time>
      </trkpt>
      <trkpt lat="50.09646" lon="5.03987">
        <ele>222.6</ele>
        <time>2022-04-21T12:04:00Z</time>
      </trkpt>
      <trkpt lat="50.09646" lon="5.03987">
        <ele>222.6</ele>
        <time>2022-04-21T12:04:01Z</time>
      </trkpt>
      <trkpt lat="50.09647" lon="5.03987">
        <ele>222.6</ele>
        <time>2022-04-21T12:04:02Z</time>
      </trkpt>
      <trkpt lat="50.09647" lon="5.03988">
        <ele>222.6</ele>
        <time>2022-04-21T12:04:04Z</time>
      </trkpt>
      <trkpt lat="50.09647" lon="5.03988">
        <ele>222.6</ele>
        <time>2022-04-21T12:04:05Z</time>
      </trkpt>
      <trkpt lat="50.09647" lon="5.03988">
        <ele>222.7</ele>
        <time>2022-04-21T12:04:06Z</time>
      </trkpt>
      <trkpt lat="50.09648" lon="5.03988">
        <ele>222.7</ele>
        <time>2022-04-21T12:04:07Z</time>
      </trkpt>
      <trkpt lat="50.09648" lon="5.0399">
        <ele>222.8</ele>
        <time>2022-04-21T12:04:08Z</time>
      </trkpt>
      <trkpt lat="50.0965" lon="5.03991">
        <ele>222.9</ele>
        <time>2022-04-21T12:04:09Z</time>
      </trkpt>
      <trkpt lat="50.09651" lon="5.03992">
        <ele>222.9</ele>
        <time>2022-04-21T12:04:10Z</time>
      </trkpt>
      <trkpt lat="50.09651" lon="5.03994">
        <ele>223</ele>
        <time>2022-04-21T12:04:11Z</time>
      </trkpt>
      <trkpt lat="50.09651" lon="5.03996">
        <ele>223.1</ele>
        <time>2022-04-21T12:04:12Z</time>
      </trkpt>
      <trkpt lat="50.0965" lon="5.03998">
        <ele>223.2</ele>
        <time>2022-04-21T12:04:13Z</time>
      </trkpt>
      <trkpt lat="50.0965" lon="5.04">
        <ele>223.3</ele>
        <time>2022-04-21T12:04:14Z</time>
      </trkpt>
      <trkpt lat="50.09649" lon="5.04003">
        <ele>223.5</ele>
        <time>2022-04-21T12:04:15Z</time>
      </trkpt>
      <trkpt lat="50.09649" lon="5.04005">
        <ele>223.6</ele>
        <time>2022-04-21T12:04:16Z</time>
      </trkpt>
      <trkpt lat="50.0965" lon="5.04006">
        <ele>223.6</ele>
        <time>2022-04-21T12:04:17Z</time>
      </trkpt>
      <trkpt lat="50.0965" lon="5.04008">
        <ele>223.7</ele>
        <time>2022-04-21T12:04:18Z</time>
      </trkpt>
      <trkpt lat="50.0965" lon="5.04011">
        <ele>223.9</ele>
        <time>2022-04-21T12:04:19Z</time>
      </trkpt>
      <trkpt lat="50.0965" lon="5.04013">
        <ele>224</ele>
        <time>2022-04-21T12:04:21Z</time>
      </trkpt>
      <trkpt lat="50.0965" lon="5.04015">
        <ele>224.1</ele>
        <time>2022-04-21T12:04:22Z</time>
      </trkpt>
      <trkpt lat="50.09651" lon="5.04017">
        <ele>224.2</ele>
        <time>2022-04-21T12:04:23Z</time>
      </trkpt>
      <trkpt lat="50.09652" lon="5.04019">
        <ele>224.3</ele>
        <time>2022-04-21T12:04:24Z</time>
      </trkpt>
      <trkpt lat="50.09652" lon="5.0402">
        <ele>224.4</ele>
        <time>2022-04-21T12:04:25Z</time>
      </trkpt>
      <trkpt lat="50.09653" lon="5.04022">
        <ele>224.5</ele>
        <time>2022-04-21T12:04:26Z</time>
      </trkpt>
      <trkpt lat="50.09654" lon="5.04024">
        <ele>224.6</ele>
        <time>2022-04-21T12:04:27Z</time>
      </trkpt>
      <trkpt lat="50.09654" lon="5.04026">
        <ele>224.7</ele>
        <time>2022-04-21T12:04:28Z</time>
      </trkpt>
      <trkpt lat="50.09655" lon="5.04028">
        <ele>224.9</ele>
        <time>2022-04-21T12:04:30Z</time>
      </trkpt>
      <trkpt lat="50.09656" lon="5.04029">
        <ele>225</ele>
        <time>2022-04-21T12:04:31Z</time>
      </trkpt>
      <trkpt lat="50.09657" lon="5.0403">
        <ele>225</ele>
        <time>2022-04-21T12:04:32Z</time>
      </trkpt>
      <trkpt lat="50.09658" lon="5.04031">
        <ele>225.1</ele>
        <time>2022-04-21T12:04:33Z</time>
      </trkpt>
      <trkpt lat="50.0966" lon="5.04033">
        <ele>225.3</ele>
        <time>2022-04-21T12:04:34Z</time>
      </trkpt>
      <trkpt lat="50.09661" lon="5.04035">
        <ele>225.4</ele>
        <time>2022-04-21T12:04:35Z</time>
      </trkpt>
      <trkpt lat="50.09662" lon="5.04036">
        <ele>225.5</ele>
        <time>2022-04-21T12:04:36Z</time>
      </trkpt>
      <trkpt lat="50.09663" lon="5.04038">
        <ele>225.6</ele>
        <time>2022-04-21T12:04:37Z</time>
      </trkpt>
      <trkpt lat="50.09664" lon="5.0404">
        <ele>225.7</ele>
        <time>2022-04-21T12:04:39Z</time>
      </trkpt>
      <trkpt lat="50.09665" lon="5.04042">
        <ele>225.8</ele>
        <time>2022-04-21T12:04:40Z</time>
      </trkpt>
      <trkpt lat="50.09666" lon="5.04044">
        <ele>225.9</ele>
        <time>2022-04-21T12:04:41Z</time>
      </trkpt>
      <trkpt lat="50.09667" lon="5.04045">
        <ele>226</ele>
        <time>2022-04-21T12:04:42Z</time>
      </trkpt>
      <trkpt lat="50.09668" lon="5.04046">
        <ele>226</ele>
        <time>2022-04-21T12:04:43Z</time>
      </trkpt>
      <trkpt lat="50.09669" lon="5.04048">
        <ele>226.1</ele>
        <time>2022-04-21T12:04:44Z</time>
      </trkpt>
      <trkpt lat="50.0967" lon="5.04049">
        <ele>226.2</ele>
        <time>2022-04-21T12:04:45Z</time>
      </trkpt>
      <trkpt lat="50.09671" lon="5.04051">
        <ele>226.3</ele>
        <time>2022-04-21T12:04:46Z</time>
      </trkpt>
      <trkpt lat="50.09672" lon="5.04053">
        <ele>226.4</ele>
        <time>2022-04-21T12:04:47Z</time>
      </trkpt>
      <trkpt lat="50.09672" lon="5.04055">
        <ele>226.5</ele>
        <time>2022-04-21T12:04:49Z</time>
      </trkpt>
      <trkpt lat="50.09673" lon="5.04057">
        <ele>226.5</ele>
        <time>2022-04-21T12:04:50Z</time>
      </trkpt>
      <trkpt lat="50.09673" lon="5.04059">
        <ele>226.6</ele>
        <time>2022-04-21T12:04:51Z</time>
      </trkpt>
      <trkpt lat="50.09674" lon="5.0406">
        <ele>226.6</ele>
        <time>2022-04-21T12:04:52Z</time>
      </trkpt>
      <trkpt lat="50.09674" lon="5.04062">
        <ele>226.7</ele>
        <time>2022-04-21T12:04:53Z</time>
      </trkpt>
      <trkpt lat="50.09675" lon="5.04063">
        <ele>226.7</ele>
        <time>2022-04-21T12:04:54Z</time>
      </trkpt>
      <trkpt lat="50.09675" lon="5.04064">
        <ele>226.8</ele>
        <time>2022-04-21T12:04:55Z</time>
      </trkpt>
      <trkpt lat="50.09676" lon="5.04066">
        <ele>226.9</ele>
        <time>2022-04-21T12:04:56Z</time>
      </trkpt>
      <trkpt lat="50.09677" lon="5.04069">
        <ele>227</ele>
        <time>2022-04-21T12:04:57Z</time>
      </trkpt>
      <trkpt lat="50.09678" lon="5.04071">
        <ele>227</ele>
        <time>2022-04-21T12:04:58Z</time>
      </trkpt>
      <trkpt lat="50.09679" lon="5.04072">
        <ele>227.1</ele>
        <time>2022-04-21T12:04:59Z</time>
      </trkpt>
      <trkpt lat="50.0968" lon="5.04074">
        <ele>227.2</ele>
        <time>2022-04-21T12:05:00Z</time>
      </trkpt>
      <trkpt lat="50.09682" lon="5.04076">
        <ele>227.3</ele>
        <time>2022-04-21T12:05:02Z</time>
      </trkpt>
      <trkpt lat="50.09682" lon="5.04078">
        <ele>227.3</ele>
        <time>2022-04-21T12:05:03Z</time>
      </trkpt>
      <trkpt lat="50.09684" lon="5.04079">
        <ele>227.4</ele>
        <time>2022-04-21T12:05:04Z</time>
      </trkpt>
      <trkpt lat="50.09685" lon="5.04081">
        <ele>227.5</ele>
        <time>2022-04-21T12:05:05Z</time>
      </trkpt>
      <trkpt lat="50.09686" lon="5.04082">
        <ele>227.5</ele>
        <time>2022-04-21T12:05:06Z</time>
      </trkpt>
      <trkpt lat="50.09687" lon="5.04083">
        <ele>227.6</ele>
        <time>2022-04-21T12:05:07Z</time>
      </trkpt>
      <trkpt lat="50.09688" lon="5.04085">
        <ele>227.7</ele>
        <time>2022-04-21T12:05:08Z</time>
      </trkpt>
      <trkpt lat="50.09689" lon="5.04087">
        <ele>227.7</ele>
        <time>2022-04-21T12:05:09Z</time>
      </trkpt>
      <trkpt lat="50.0969" lon="5.04091">
        <ele>227.9</ele>
        <time>2022-04-21T12:05:10Z</time>
      </trkpt>
      <trkpt lat="50.0969" lon="5.04093">
        <ele>227.9</ele>
        <time>2022-04-21T12:05:11Z</time>
      </trkpt>
      <trkpt lat="50.0969" lon="5.04094">
        <ele>228</ele>
        <time>2022-04-21T12:05:12Z</time>
      </trkpt>
      <trkpt lat="50.09691" lon="5.04097">
        <ele>228.1</ele>
        <time>2022-04-21T12:05:13Z</time>
      </trkpt>
      <trkpt lat="50.09691" lon="5.04099">
        <ele>228.1</ele>
        <time>2022-04-21T12:05:14Z</time>
      </trkpt>
      <trkpt lat="50.09692" lon="5.04101">
        <ele>228.2</ele>
        <time>2022-04-21T12:05:16Z</time>
      </trkpt>
      <trkpt lat="50.09693" lon="5.04104">
        <ele>228.3</ele>
        <time>2022-04-21T12:05:18Z</time>
      </trkpt>
      <trkpt lat="50.09693" lon="5.04106">
        <ele>228.4</ele>
        <time>2022-04-21T12:05:19Z</time>
      </trkpt>
      <trkpt lat="50.09694" lon="5.04107">
        <ele>228.4</ele>
        <time>2022-04-21T12:05:20Z</time>
      </trkpt>
      <trkpt lat="50.09694" lon="5.04109">
        <ele>228.5</ele>
        <time>2022-04-21T12:05:21Z</time>
      </trkpt>
      <trkpt lat="50.09695" lon="5.04112">
        <ele>228.6</ele>
        <time>2022-04-21T12:05:22Z</time>
      </trkpt>
      <trkpt lat="50.09696" lon="5.04113">
        <ele>228.6</ele>
        <time>2022-04-21T12:05:23Z</time>
      </trkpt>
      <trkpt lat="50.09696" lon="5.04115">
        <ele>228.7</ele>
        <time>2022-04-21T12:05:24Z</time>
      </trkpt>
      <trkpt lat="50.09696" lon="5.04117">
        <ele>228.7</ele>
        <time>2022-04-21T12:05:25Z</time>
      </trkpt>
      <trkpt lat="50.09697" lon="5.04119">
        <ele>228.8</ele>
        <time>2022-04-21T12:05:26Z</time>
      </trkpt>
      <trkpt lat="50.09698" lon="5.04123">
        <ele>229</ele>
        <time>2022-04-21T12:05:27Z</time>
      </trkpt>
      <trkpt lat="50.09699" lon="5.04124">
        <ele>229</ele>
        <time>2022-04-21T12:05:28Z</time>
      </trkpt>
      <trkpt lat="50.097" lon="5.04126">
        <ele>229.1</ele>
        <time>2022-04-21T12:05:29Z</time>
      </trkpt>
      <trkpt lat="50.097" lon="5.04127">
        <ele>229.1</ele>
        <time>2022-04-21T12:05:31Z</time>
      </trkpt>
      <trkpt lat="50.097" lon="5.04128">
        <ele>229.1</ele>
        <time>2022-04-21T12:05:32Z</time>
      </trkpt>
      <trkpt lat="50.09701" lon="5.04129">
        <ele>229.2</ele>
        <time>2022-04-21T12:05:33Z</time>
      </trkpt>
      <trkpt lat="50.09701" lon="5.0413">
        <ele>229.2</ele>
        <time>2022-04-21T12:05:34Z</time>
      </trkpt>
      <trkpt lat="50.09702" lon="5.04131">
        <ele>229.3</ele>
        <time>2022-04-21T12:05:35Z</time>
      </trkpt>
      <trkpt lat="50.09703" lon="5.04133">
        <ele>229.3</ele>
        <time>2022-04-21T12:05:36Z</time>
      </trkpt>
      <trkpt lat="50.09704" lon="5.04134">
        <ele>229.4</ele>
        <time>2022-04-21T12:05:37Z</time>
      </trkpt>
      <trkpt lat="50.09704" lon="5.04136">
        <ele>229.5</ele>
        <time>2022-04-21T12:05:38Z</time>
      </trkpt>
      <trkpt lat="50.09705" lon="5.04138">
        <ele>229.6</ele>
        <time>2022-04-21T12:05:39Z</time>
      </trkpt>
      <trkpt lat="50.09706" lon="5.04141">
        <ele>229.6</ele>
        <time>2022-04-21T12:05:40Z</time>
      </trkpt>
      <trkpt lat="50.09706" lon="5.04143">
        <ele>229.7</ele>
        <time>2022-04-21T12:05:41Z</time>
      </trkpt>
      <trkpt lat="50.09707" lon="5.04145">
        <ele>229.8</ele>
        <time>2022-04-21T12:05:42Z</time>
      </trkpt>
      <trkpt lat="50.09708" lon="5.04148">
        <ele>229.9</ele>
        <time>2022-04-21T12:05:44Z</time>
      </trkpt>
      <trkpt lat="50.09709" lon="5.04149">
        <ele>229.9</ele>
        <time>2022-04-21T12:05:45Z</time>
      </trkpt>
      <trkpt lat="50.09709" lon="5.04151">
        <ele>230</ele>
        <time>2022-04-21T12:05:46Z</time>
      </trkpt>
      <trkpt lat="50.0971" lon="5.04153">
        <ele>230</ele>
        <time>2022-04-21T12:05:47Z</time>
      </trkpt>
      <trkpt lat="50.0971" lon="5.04154">
        <ele>230.1</ele>
        <time>2022-04-21T12:05:48Z</time>
      </trkpt>
      <trkpt lat="50.0971" lon="5.04157">
        <ele>230.2</ele>
        <time>2022-04-21T12:05:49Z</time>
      </trkpt>
      <trkpt lat="50.09711" lon="5.04158">
        <ele>230.2</ele>
        <time>2022-04-21T12:05:50Z</time>
      </trkpt>
      <trkpt lat="50.09711" lon="5.04159">
        <ele>230.2</ele>
        <time>2022-04-21T12:05:51Z</time>
      </trkpt>
      <trkpt lat="50.09711" lon="5.04163">
        <ele>230.3</ele>
        <time>2022-04-21T12:05:52Z</time>
      </trkpt>
      <trkpt lat="50.09711" lon="5.04164">
        <ele>230.3</ele>
        <time>2022-04-21T12:05:53Z</time>
      </trkpt>
      <trkpt lat="50.09712" lon="5.04165">
        <ele>230.3</ele>
        <time>2022-04-21T12:05:54Z</time>
      </trkpt>
      <trkpt lat="50.09712" lon="5.04167">
        <ele>230.4</ele>
        <time>2022-04-21T12:05:55Z</time>
      </trkpt>
      <trkpt lat="50.09713" lon="5.04168">
        <ele>230.4</ele>
        <time>2022-04-21T12:05:57Z</time>
      </trkpt>
      <trkpt lat="50.09714" lon="5.04169">
        <ele>230.5</ele>
        <time>2022-04-21T12:05:58Z</time>
      </trkpt>
      <trkpt lat="50.09714" lon="5.0417">
        <ele>230.5</ele>
        <time>2022-04-21T12:05:59Z</time>
      </trkpt>
      <trkpt lat="50.09715" lon="5.04171">
        <ele>230.5</ele>
        <time>2022-04-21T12:06:00Z</time>
      </trkpt>
      <trkpt lat="50.09716" lon="5.04172">
        <ele>230.5</ele>
        <time>2022-04-21T12:06:01Z</time>
      </trkpt>
      <trkpt lat="50.09716" lon="5.04173">
        <ele>230.6</ele>
        <time>2022-04-21T12:06:02Z</time>
      </trkpt>
      <trkpt lat="50.09717" lon="5.04174">
        <ele>230.6</ele>
        <time>2022-04-21T12:06:03Z</time>
      </trkpt>
      <trkpt lat="50.09718" lon="5.04175">
        <ele>230.6</ele>
        <time>2022-04-21T12:06:04Z</time>
      </trkpt>
      <trkpt lat="50.09718" lon="5.04177">
        <ele>230.7</ele>
        <time>2022-04-21T12:06:05Z</time>
      </trkpt>
      <trkpt lat="50.09719" lon="5.04179">
        <ele>230.7</ele>
        <time>2022-04-21T12:06:06Z</time>
      </trkpt>
      <trkpt lat="50.09719" lon="5.04182">
        <ele>230.7</ele>
        <time>2022-04-21T12:06:07Z</time>
      </trkpt>
      <trkpt lat="50.09719" lon="5.04184">
        <ele>230.8</ele>
        <time>2022-04-21T12:06:08Z</time>
      </trkpt>
      <trkpt lat="50.0972" lon="5.04187">
        <ele>230.8</ele>
        <time>2022-04-21T12:06:09Z</time>
      </trkpt>
      <trkpt lat="50.0972" lon="5.04189">
        <ele>230.9</ele>
        <time>2022-04-21T12:06:10Z</time>
      </trkpt>
      <trkpt lat="50.0972" lon="5.04192">
        <ele>230.9</ele>
        <time>2022-04-21T12:06:11Z</time>
      </trkpt>
      <trkpt lat="50.09721" lon="5.04194">
        <ele>231</ele>
        <time>2022-04-21T12:06:13Z</time>
      </trkpt>
      <trkpt lat="50.09721" lon="5.04196">
        <ele>231</ele>
        <time>2022-04-21T12:06:14Z</time>
      </trkpt>
      <trkpt lat="50.09722" lon="5.04199">
        <ele>231</ele>
        <time>2022-04-21T12:06:15Z</time>
      </trkpt>
      <trkpt lat="50.09722" lon="5.042">
        <ele>231.1</ele>
        <time>2022-04-21T12:06:16Z</time>
      </trkpt>
      <trkpt lat="50.09723" lon="5.04203">
        <ele>231.1</ele>
        <time>2022-04-21T12:06:17Z</time>
      </trkpt>
      <trkpt lat="50.09723" lon="5.04205">
        <ele>231.1</ele>
        <time>2022-04-21T12:06:18Z</time>
      </trkpt>
      <trkpt lat="50.09724" lon="5.04206">
        <ele>231.2</ele>
        <time>2022-04-21T12:06:19Z</time>
      </trkpt>
      <trkpt lat="50.09725" lon="5.04207">
        <ele>231.2</ele>
        <time>2022-04-21T12:06:20Z</time>
      </trkpt>
      <trkpt lat="50.09725" lon="5.04208">
        <ele>231.2</ele>
        <time>2022-04-21T12:06:21Z</time>
      </trkpt>
      <trkpt lat="50.09726" lon="5.04209">
        <ele>231.2</ele>
        <time>2022-04-21T12:06:22Z</time>
      </trkpt>
      <trkpt lat="50.09727" lon="5.04211">
        <ele>231.3</ele>
        <time>2022-04-21T12:06:23Z</time>
      </trkpt>
      <trkpt lat="50.09728" lon="5.04214">
        <ele>231.3</ele>
        <time>2022-04-21T12:06:24Z</time>
      </trkpt>
      <trkpt lat="50.09728" lon="5.04216">
        <ele>231.3</ele>
        <time>2022-04-21T12:06:25Z</time>
      </trkpt>
      <trkpt lat="50.09729" lon="5.04218">
        <ele>231.4</ele>
        <time>2022-04-21T12:06:26Z</time>
      </trkpt>
      <trkpt lat="50.0973" lon="5.0422">
        <ele>231.4</ele>
        <time>2022-04-21T12:06:27Z</time>
      </trkpt>
      <trkpt lat="50.09731" lon="5.04222">
        <ele>231.4</ele>
        <time>2022-04-21T12:06:28Z</time>
      </trkpt>
      <trkpt lat="50.09732" lon="5.04225">
        <ele>231.5</ele>
        <time>2022-04-21T12:06:29Z</time>
      </trkpt>
      <trkpt lat="50.09733" lon="5.04227">
        <ele>231.5</ele>
        <time>2022-04-21T12:06:30Z</time>
      </trkpt>
      <trkpt lat="50.09734" lon="5.04229">
        <ele>231.6</ele>
        <time>2022-04-21T12:06:31Z</time>
      </trkpt>
      <trkpt lat="50.09734" lon="5.04231">
        <ele>231.6</ele>
        <time>2022-04-21T12:06:32Z</time>
      </trkpt>
      <trkpt lat="50.09735" lon="5.04232">
        <ele>231.6</ele>
        <time>2022-04-21T12:06:33Z</time>
      </trkpt>
      <trkpt lat="50.09735" lon="5.04234">
        <ele>231.6</ele>
        <time>2022-04-21T12:06:35Z</time>
      </trkpt>
      <trkpt lat="50.09736" lon="5.04235">
        <ele>231.6</ele>
        <time>2022-04-21T12:06:36Z</time>
      </trkpt>
      <trkpt lat="50.09736" lon="5.04237">
        <ele>231.7</ele>
        <time>2022-04-21T12:06:37Z</time>
      </trkpt>
      <trkpt lat="50.09737" lon="5.04238">
        <ele>231.7</ele>
        <time>2022-04-21T12:06:38Z</time>
      </trkpt>
      <trkpt lat="50.09738" lon="5.04239">
        <ele>231.7</ele>
        <time>2022-04-21T12:06:39Z</time>
      </trkpt>
      <trkpt lat="50.09738" lon="5.0424">
        <ele>231.7</ele>
        <time>2022-04-21T12:06:40Z</time>
      </trkpt>
      <trkpt lat="50.09738" lon="5.04242">
        <ele>231.7</ele>
        <time>2022-04-21T12:06:41Z</time>
      </trkpt>
      <trkpt lat="50.09738" lon="5.04243">
        <ele>231.8</ele>
        <time>2022-04-21T12:06:42Z</time>
      </trkpt>
      <trkpt lat="50.09738" lon="5.04244">
        <ele>231.8</ele>
        <time>2022-04-21T12:06:43Z</time>
      </trkpt>
      <trkpt lat="50.09738" lon="5.04245">
        <ele>231.8</ele>
        <time>2022-04-21T12:06:44Z</time>
      </trkpt>
      <trkpt lat="50.09738" lon="5.04247">
        <ele>231.8</ele>
        <time>2022-04-21T12:06:45Z</time>
      </trkpt>
      <trkpt lat="50.09738" lon="5.04249">
        <ele>231.8</ele>
        <time>2022-04-21T12:06:46Z</time>
      </trkpt>
      <trkpt lat="50.09738" lon="5.04251">
        <ele>231.9</ele>
        <time>2022-04-21T12:06:47Z</time>
      </trkpt>
      <trkpt lat="50.09738" lon="5.04253">
        <ele>231.9</ele>
        <time>2022-04-21T12:06:48Z</time>
      </trkpt>
      <trkpt lat="50.09738" lon="5.04255">
        <ele>231.9</ele>
        <time>2022-04-21T12:06:49Z</time>
      </trkpt>
      <trkpt lat="50.09738" lon="5.04259">
        <ele>232</ele>
        <time>2022-04-21T12:06:50Z</time>
      </trkpt>
      <trkpt lat="50.09738" lon="5.04261">
        <ele>232</ele>
        <time>2022-04-21T12:06:51Z</time>
      </trkpt>
      <trkpt lat="50.09739" lon="5.04265">
        <ele>232.1</ele>
        <time>2022-04-21T12:06:52Z</time>
      </trkpt>
      <trkpt lat="50.09739" lon="5.04266">
        <ele>232.1</ele>
        <time>2022-04-21T12:06:53Z</time>
      </trkpt>
      <trkpt lat="50.09739" lon="5.04267">
        <ele>232.1</ele>
        <time>2022-04-21T12:06:54Z</time>
      </trkpt>
      <trkpt lat="50.0974" lon="5.0427">
        <ele>232.1</ele>
        <time>2022-04-21T12:06:56Z</time>
      </trkpt>
      <trkpt lat="50.09741" lon="5.04271">
        <ele>232.1</ele>
        <time>2022-04-21T12:06:57Z</time>
      </trkpt>
      <trkpt lat="50.09742" lon="5.04272">
        <ele>232.1</ele>
        <time>2022-04-21T12:06:58Z</time>
      </trkpt>
      <trkpt lat="50.09742" lon="5.04273">
        <ele>232.1</ele>
        <time>2022-04-21T12:06:59Z</time>
      </trkpt>
      <trkpt lat="50.09743" lon="5.04275">
        <ele>232.1</ele>
        <time>2022-04-21T12:07:00Z</time>
      </trkpt>
      <trkpt lat="50.09744" lon="5.04277">
        <ele>232.2</ele>
        <time>2022-04-21T12:07:02Z</time>
      </trkpt>
      <trkpt lat="50.09745" lon="5.04278">
        <ele>232.2</ele>
        <time>2022-04-21T12:07:03Z</time>
      </trkpt>
      <trkpt lat="50.09745" lon="5.04281">
        <ele>232.2</ele>
        <time>2022-04-21T12:07:04Z</time>
      </trkpt>
      <trkpt lat="50.09745" lon="5.04283">
        <ele>232.2</ele>
        <time>2022-04-21T12:07:05Z</time>
      </trkpt>
      <trkpt lat="50.09746" lon="5.04284">
        <ele>232.1</ele>
        <time>2022-04-21T12:07:06Z</time>
      </trkpt>
      <trkpt lat="50.09746" lon="5.04286">
        <ele>232.1</ele>
        <time>2022-04-21T12:07:07Z</time>
      </trkpt>
      <trkpt lat="50.09746" lon="5.04287">
        <ele>232</ele>
        <time>2022-04-21T12:07:08Z</time>
      </trkpt>
      <trkpt lat="50.09745" lon="5.04289">
        <ele>232</ele>
        <time>2022-04-21T12:07:10Z</time>
      </trkpt>
      <trkpt lat="50.09745" lon="5.04292">
        <ele>231.9</ele>
        <time>2022-04-21T12:07:11Z</time>
      </trkpt>
      <trkpt lat="50.09745" lon="5.04293">
        <ele>231.8</ele>
        <time>2022-04-21T12:07:12Z</time>
      </trkpt>
      <trkpt lat="50.09745" lon="5.04294">
        <ele>231.8</ele>
        <time>2022-04-21T12:07:13Z</time>
      </trkpt>
      <trkpt lat="50.09745" lon="5.04298">
        <ele>231.7</ele>
        <time>2022-04-21T12:07:14Z</time>
      </trkpt>
      <trkpt lat="50.09745" lon="5.04299">
        <ele>231.6</ele>
        <time>2022-04-21T12:07:16Z</time>
      </trkpt>
      <trkpt lat="50.09745" lon="5.04301">
        <ele>231.5</ele>
        <time>2022-04-21T12:07:17Z</time>
      </trkpt>
      <trkpt lat="50.09745" lon="5.04303">
        <ele>231.5</ele>
        <time>2022-04-21T12:07:19Z</time>
      </trkpt>
      <trkpt lat="50.09745" lon="5.04304">
        <ele>231.4</ele>
        <time>2022-04-21T12:07:20Z</time>
      </trkpt>
      <trkpt lat="50.09744" lon="5.04307">
        <ele>231.3</ele>
        <time>2022-04-21T12:07:21Z</time>
      </trkpt>
      <trkpt lat="50.09744" lon="5.04309">
        <ele>231.2</ele>
        <time>2022-04-21T12:07:22Z</time>
      </trkpt>
      <trkpt lat="50.09744" lon="5.0431">
        <ele>231.1</ele>
        <time>2022-04-21T12:07:23Z</time>
      </trkpt>
      <trkpt lat="50.09745" lon="5.04312">
        <ele>231</ele>
        <time>2022-04-21T12:07:24Z</time>
      </trkpt>
      <trkpt lat="50.09745" lon="5.04313">
        <ele>231</ele>
        <time>2022-04-21T12:07:25Z</time>
      </trkpt>
      <trkpt lat="50.09745" lon="5.04316">
        <ele>230.9</ele>
        <time>2022-04-21T12:07:26Z</time>
      </trkpt>
      <trkpt lat="50.09745" lon="5.04317">
        <ele>230.8</ele>
        <time>2022-04-21T12:07:27Z</time>
      </trkpt>
      <trkpt lat="50.09745" lon="5.04319">
        <ele>230.7</ele>
        <time>2022-04-21T12:07:28Z</time>
      </trkpt>
      <trkpt lat="50.09745" lon="5.04321">
        <ele>230.7</ele>
        <time>2022-04-21T12:07:29Z</time>
      </trkpt>
      <trkpt lat="50.09745" lon="5.04322">
        <ele>230.6</ele>
        <time>2022-04-21T12:07:30Z</time>
      </trkpt>
      <trkpt lat="50.09744" lon="5.04324">
        <ele>230.5</ele>
        <time>2022-04-21T12:07:31Z</time>
      </trkpt>
      <trkpt lat="50.09744" lon="5.04326">
        <ele>230.4</ele>
        <time>2022-04-21T12:07:33Z</time>
      </trkpt>
      <trkpt lat="50.09743" lon="5.04328">
        <ele>230.3</ele>
        <time>2022-04-21T12:07:34Z</time>
      </trkpt>
      <trkpt lat="50.09742" lon="5.0433">
        <ele>230.3</ele>
        <time>2022-04-21T12:07:35Z</time>
      </trkpt>
      <trkpt lat="50.09741" lon="5.04332">
        <ele>230.2</ele>
        <time>2022-04-21T12:07:36Z</time>
      </trkpt>
      <trkpt lat="50.0974" lon="5.04334">
        <ele>230.1</ele>
        <time>2022-04-21T12:07:37Z</time>
      </trkpt>
      <trkpt lat="50.09739" lon="5.04335">
        <ele>230.1</ele>
        <time>2022-04-21T12:07:38Z</time>
      </trkpt>
      <trkpt lat="50.09739" lon="5.04337">
        <ele>230</ele>
        <time>2022-04-21T12:07:39Z</time>
      </trkpt>
      <trkpt lat="50.09738" lon="5.04339">
        <ele>230</ele>
        <time>2022-04-21T12:07:40Z</time>
      </trkpt>
      <trkpt lat="50.09738" lon="5.04342">
        <ele>229.9</ele>
        <time>2022-04-21T12:07:42Z</time>
      </trkpt>
      <trkpt lat="50.09738" lon="5.04344">
        <ele>229.9</ele>
        <time>2022-04-21T12:07:43Z</time>
      </trkpt>
      <trkpt lat="50.09737" lon="5.04345">
        <ele>229.8</ele>
        <time>2022-04-21T12:07:44Z</time>
      </trkpt>
      <trkpt lat="50.09737" lon="5.04347">
        <ele>229.8</ele>
        <time>2022-04-21T12:07:45Z</time>
      </trkpt>
      <trkpt lat="50.09735" lon="5.04351">
        <ele>229.7</ele>
        <time>2022-04-21T12:07:47Z</time>
      </trkpt>
      <trkpt lat="50.09735" lon="5.04352">
        <ele>229.7</ele>
        <time>2022-04-21T12:07:48Z</time>
      </trkpt>
      <trkpt lat="50.09734" lon="5.04354">
        <ele>229.7</ele>
        <time>2022-04-21T12:07:49Z</time>
      </trkpt>
      <trkpt lat="50.09734" lon="5.04356">
        <ele>229.7</ele>
        <time>2022-04-21T12:07:50Z</time>
      </trkpt>
      <trkpt lat="50.09732" lon="5.0436">
        <ele>229.6</ele>
        <time>2022-04-21T12:07:51Z</time>
      </trkpt>
      <trkpt lat="50.09731" lon="5.04364">
        <ele>229.6</ele>
        <time>2022-04-21T12:07:52Z</time>
      </trkpt>
      <trkpt lat="50.09731" lon="5.04365">
        <ele>229.6</ele>
        <time>2022-04-21T12:07:53Z</time>
      </trkpt>
      <trkpt lat="50.09728" lon="5.04369">
        <ele>229.5</ele>
        <time>2022-04-21T12:07:54Z</time>
      </trkpt>
      <trkpt lat="50.09727" lon="5.0437">
        <ele>229.5</ele>
        <time>2022-04-21T12:07:55Z</time>
      </trkpt>
      <trkpt lat="50.09725" lon="5.04373">
        <ele>229.5</ele>
        <time>2022-04-21T12:07:56Z</time>
      </trkpt>
      <trkpt lat="50.09723" lon="5.04377">
        <ele>229.5</ele>
        <time>2022-04-21T12:07:57Z</time>
      </trkpt>
      <trkpt lat="50.09723" lon="5.04378">
        <ele>229.5</ele>
        <time>2022-04-21T12:07:58Z</time>
      </trkpt>
      <trkpt lat="50.09722" lon="5.04379">
        <ele>229.5</ele>
        <time>2022-04-21T12:07:59Z</time>
      </trkpt>
      <trkpt lat="50.09721" lon="5.04381">
        <ele>229.5</ele>
        <time>2022-04-21T12:08:00Z</time>
      </trkpt>
      <trkpt lat="50.09721" lon="5.04382">
        <ele>229.5</ele>
        <time>2022-04-21T12:08:02Z</time>
      </trkpt>
      <trkpt lat="50.09721" lon="5.04384">
        <ele>229.5</ele>
        <time>2022-04-21T12:08:03Z</time>
      </trkpt>
      <trkpt lat="50.09721" lon="5.04384">
        <ele>229.5</ele>
        <time>2022-04-21T12:08:04Z</time>
      </trkpt>
      <trkpt lat="50.09721" lon="5.04385">
        <ele>229.5</ele>
        <time>2022-04-21T12:08:05Z</time>
      </trkpt>
      <trkpt lat="50.09721" lon="5.04387">
        <ele>229.5</ele>
        <time>2022-04-21T12:08:06Z</time>
      </trkpt>
      <trkpt lat="50.0972" lon="5.04388">
        <ele>229.5</ele>
        <time>2022-04-21T12:08:07Z</time>
      </trkpt>
      <trkpt lat="50.09719" lon="5.0439">
        <ele>229.5</ele>
        <time>2022-04-21T12:08:08Z</time>
      </trkpt>
      <trkpt lat="50.09719" lon="5.04391">
        <ele>229.5</ele>
        <time>2022-04-21T12:08:09Z</time>
      </trkpt>
      <trkpt lat="50.09717" lon="5.04394">
        <ele>229.5</ele>
        <time>2022-04-21T12:08:10Z</time>
      </trkpt>
      <trkpt lat="50.09716" lon="5.04395">
        <ele>229.5</ele>
        <time>2022-04-21T12:08:11Z</time>
      </trkpt>
      <trkpt lat="50.09716" lon="5.04396">
        <ele>229.5</ele>
        <time>2022-04-21T12:08:12Z</time>
      </trkpt>
      <trkpt lat="50.09715" lon="5.04398">
        <ele>229.5</ele>
        <time>2022-04-21T12:08:13Z</time>
      </trkpt>
      <trkpt lat="50.09714" lon="5.04399">
        <ele>229.5</ele>
        <time>2022-04-21T12:08:14Z</time>
      </trkpt>
      <trkpt lat="50.09712" lon="5.04404">
        <ele>229.5</ele>
        <time>2022-04-21T12:08:15Z</time>
      </trkpt>
      <trkpt lat="50.09712" lon="5.04404">
        <ele>229.5</ele>
        <time>2022-04-21T12:08:16Z</time>
      </trkpt>
      <trkpt lat="50.0971" lon="5.04406">
        <ele>229.5</ele>
        <time>2022-04-21T12:08:18Z</time>
      </trkpt>
      <trkpt lat="50.09709" lon="5.04407">
        <ele>229.5</ele>
        <time>2022-04-21T12:08:19Z</time>
      </trkpt>
      <trkpt lat="50.09709" lon="5.04408">
        <ele>229.5</ele>
        <time>2022-04-21T12:08:20Z</time>
      </trkpt>
      <trkpt lat="50.09709" lon="5.04409">
        <ele>229.5</ele>
        <time>2022-04-21T12:08:21Z</time>
      </trkpt>
      <trkpt lat="50.09708" lon="5.04411">
        <ele>229.5</ele>
        <time>2022-04-21T12:08:22Z</time>
      </trkpt>
      <trkpt lat="50.09708" lon="5.04412">
        <ele>229.6</ele>
        <time>2022-04-21T12:08:23Z</time>
      </trkpt>
      <trkpt lat="50.09708" lon="5.04414">
        <ele>229.6</ele>
        <time>2022-04-21T12:08:24Z</time>
      </trkpt>
      <trkpt lat="50.09708" lon="5.04416">
        <ele>229.6</ele>
        <time>2022-04-21T12:08:25Z</time>
      </trkpt>
      <trkpt lat="50.09707" lon="5.04418">
        <ele>229.6</ele>
        <time>2022-04-21T12:08:26Z</time>
      </trkpt>
      <trkpt lat="50.09707" lon="5.0442">
        <ele>229.6</ele>
        <time>2022-04-21T12:08:27Z</time>
      </trkpt>
      <trkpt lat="50.09706" lon="5.04422">
        <ele>229.6</ele>
        <time>2022-04-21T12:08:29Z</time>
      </trkpt>
      <trkpt lat="50.09707" lon="5.04423">
        <ele>229.6</ele>
        <time>2022-04-21T12:08:30Z</time>
      </trkpt>
      <trkpt lat="50.09707" lon="5.04423">
        <ele>229.6</ele>
        <time>2022-04-21T12:08:31Z</time>
      </trkpt>
      <trkpt lat="50.09707" lon="5.04424">
        <ele>229.6</ele>
        <time>2022-04-21T12:08:32Z</time>
      </trkpt>
      <trkpt lat="50.09706" lon="5.04424">
        <ele>229.7</ele>
        <time>2022-04-21T12:08:33Z</time>
      </trkpt>
      <trkpt lat="50.09705" lon="5.04425">
        <ele>229.7</ele>
        <time>2022-04-21T12:08:34Z</time>
      </trkpt>
      <trkpt lat="50.09705" lon="5.04425">
        <ele>229.7</ele>
        <time>2022-04-21T12:08:35Z</time>
      </trkpt>
      <trkpt lat="50.09704" lon="5.04425">
        <ele>229.7</ele>
        <time>2022-04-21T12:08:36Z</time>
      </trkpt>
      <trkpt lat="50.09703" lon="5.04424">
        <ele>229.7</ele>
        <time>2022-04-21T12:08:37Z</time>
      </trkpt>
      <trkpt lat="50.09703" lon="5.04424">
        <ele>229.7</ele>
        <time>2022-04-21T12:08:38Z</time>
      </trkpt>
      <trkpt lat="50.09702" lon="5.04423">
        <ele>229.7</ele>
        <time>2022-04-21T12:08:39Z</time>
      </trkpt>
      <trkpt lat="50.09702" lon="5.04423">
        <ele>229.6</ele>
        <time>2022-04-21T12:08:40Z</time>
      </trkpt>
      <trkpt lat="50.09702" lon="5.04422">
        <ele>229.6</ele>
        <time>2022-04-21T12:08:41Z</time>
      </trkpt>
      <trkpt lat="50.09702" lon="5.04422">
        <ele>229.6</ele>
        <time>2022-04-21T12:08:42Z</time>
      </trkpt>
      <trkpt lat="50.09703" lon="5.04423">
        <ele>229.6</ele>
        <time>2022-04-21T12:08:43Z</time>
      </trkpt>
      <trkpt lat="50.09703" lon="5.04424">
        <ele>229.6</ele>
        <time>2022-04-21T12:08:44Z</time>
      </trkpt>
      <trkpt lat="50.09703" lon="5.04425">
        <ele>229.6</ele>
        <time>2022-04-21T12:08:45Z</time>
      </trkpt>
      <trkpt lat="50.09702" lon="5.04427">
        <ele>229.6</ele>
        <time>2022-04-21T12:08:46Z</time>
      </trkpt>
      <trkpt lat="50.09702" lon="5.04428">
        <ele>229.6</ele>
        <time>2022-04-21T12:08:47Z</time>
      </trkpt>
      <trkpt lat="50.09702" lon="5.04428">
        <ele>229.6</ele>
        <time>2022-04-21T12:08:48Z</time>
      </trkpt>
      <trkpt lat="50.09702" lon="5.04428">
        <ele>229.6</ele>
        <time>2022-04-21T12:08:49Z</time>
      </trkpt>
      <trkpt lat="50.09702" lon="5.04429">
        <ele>229.6</ele>
        <time>2022-04-21T12:08:50Z</time>
      </trkpt>
      <trkpt lat="50.09703" lon="5.04429">
        <ele>229.6</ele>
        <time>2022-04-21T12:08:51Z</time>
      </trkpt>
      <trkpt lat="50.09703" lon="5.04429">
        <ele>229.6</ele>
        <time>2022-04-21T12:08:52Z</time>
      </trkpt>
      <trkpt lat="50.09703" lon="5.04429">
        <ele>229.6</ele>
        <time>2022-04-21T12:08:53Z</time>
      </trkpt>
      <trkpt lat="50.09703" lon="5.04429">
        <ele>229.6</ele>
        <time>2022-04-21T12:08:54Z</time>
      </trkpt>
      <trkpt lat="50.09703" lon="5.04429">
        <ele>229.6</ele>
        <time>2022-04-21T12:08:55Z</time>
      </trkpt>
      <trkpt lat="50.09703" lon="5.04429">
        <ele>229.6</ele>
        <time>2022-04-21T12:08:56Z</time>
      </trkpt>
      <trkpt lat="50.09703" lon="5.04429">
        <ele>229.6</ele>
        <time>2022-04-21T12:08:57Z</time>
      </trkpt>
      <trkpt lat="50.09703" lon="5.04429">
        <ele>229.6</ele>
        <time>2022-04-21T12:08:58Z</time>
      </trkpt>
      <trkpt lat="50.09703" lon="5.04429">
        <ele>229.6</ele>
        <time>2022-04-21T12:08:59Z</time>
      </trkpt>
      <trkpt lat="50.09703" lon="5.04429">
        <ele>229.6</ele>
        <time>2022-04-21T12:09:00Z</time>
      </trkpt>
      <trkpt lat="50.09703" lon="5.04429">
        <ele>229.6</ele>
        <time>2022-04-21T12:09:01Z</time>
      </trkpt>
      <trkpt lat="50.09703" lon="5.04429">
        <ele>229.6</ele>
        <time>2022-04-21T12:09:02Z</time>
      </trkpt>
      <trkpt lat="50.09704" lon="5.04428">
        <ele>229.6</ele>
        <time>2022-04-21T12:09:03Z</time>
      </trkpt>
      <trkpt lat="50.09705" lon="5.04428">
        <ele>229.6</ele>
        <time>2022-04-21T12:09:04Z</time>
      </trkpt>
      <trkpt lat="50.09705" lon="5.04428">
        <ele>229.6</ele>
        <time>2022-04-21T12:09:05Z</time>
      </trkpt>
      <trkpt lat="50.09706" lon="5.04428">
        <ele>229.5</ele>
        <time>2022-04-21T12:09:06Z</time>
      </trkpt>
      <trkpt lat="50.09707" lon="5.04428">
        <ele>229.5</ele>
        <time>2022-04-21T12:09:07Z</time>
      </trkpt>
      <trkpt lat="50.09707" lon="5.04428">
        <ele>229.5</ele>
        <time>2022-04-21T12:09:08Z</time>
      </trkpt>
      <trkpt lat="50.09707" lon="5.04427">
        <ele>229.5</ele>
        <time>2022-04-21T12:09:09Z</time>
      </trkpt>
      <trkpt lat="50.09707" lon="5.04427">
        <ele>229.5</ele>
        <time>2022-04-21T12:09:10Z</time>
      </trkpt>
      <trkpt lat="50.09707" lon="5.04427">
        <ele>229.5</ele>
        <time>2022-04-21T12:09:11Z</time>
      </trkpt>
      <trkpt lat="50.09707" lon="5.04427">
        <ele>229.5</ele>
        <time>2022-04-21T12:09:12Z</time>
      </trkpt>
      <trkpt lat="50.09707" lon="5.04427">
        <ele>229.5</ele>
        <time>2022-04-21T12:09:13Z</time>
      </trkpt>
      <trkpt lat="50.09707" lon="5.04427">
        <ele>229.5</ele>
        <time>2022-04-21T12:09:14Z</time>
      </trkpt>
      <trkpt lat="50.09707" lon="5.04427">
        <ele>229.5</ele>
        <time>2022-04-21T12:09:15Z</time>
      </trkpt>
      <trkpt lat="50.09707" lon="5.04427">
        <ele>229.5</ele>
        <time>2022-04-21T12:09:16Z</time>
      </trkpt>
      <trkpt lat="50.09707" lon="5.04427">
        <ele>229.5</ele>
        <time>2022-04-21T12:09:17Z</time>
      </trkpt>
      <trkpt lat="50.09707" lon="5.04428">
        <ele>229.5</ele>
        <time>2022-04-21T12:09:18Z</time>
      </trkpt>
      <trkpt lat="50.09707" lon="5.04428">
        <ele>229.5</ele>
        <time>2022-04-21T12:09:19Z</time>
      </trkpt>
      <trkpt lat="50.09706" lon="5.04429">
        <ele>229.5</ele>
        <time>2022-04-21T12:09:20Z</time>
      </trkpt>
      <trkpt lat="50.09705" lon="5.04429">
        <ele>229.5</ele>
        <time>2022-04-21T12:09:21Z</time>
      </trkpt>
      <trkpt lat="50.09704" lon="5.0443">
        <ele>229.5</ele>
        <time>2022-04-21T12:09:22Z</time>
      </trkpt>
      <trkpt lat="50.09703" lon="5.04431">
        <ele>229.5</ele>
        <time>2022-04-21T12:09:23Z</time>
      </trkpt>
      <trkpt lat="50.09701" lon="5.04433">
        <ele>229.5</ele>
        <time>2022-04-21T12:09:24Z</time>
      </trkpt>
      <trkpt lat="50.09699" lon="5.04436">
        <ele>229.4</ele>
        <time>2022-04-21T12:09:26Z</time>
      </trkpt>
      <trkpt lat="50.09698" lon="5.04438">
        <ele>229.4</ele>
        <time>2022-04-21T12:09:27Z</time>
      </trkpt>
      <trkpt lat="50.09696" lon="5.04441">
        <ele>229.4</ele>
        <time>2022-04-21T12:09:28Z</time>
      </trkpt>
      <trkpt lat="50.09694" lon="5.04443">
        <ele>229.4</ele>
        <time>2022-04-21T12:09:29Z</time>
      </trkpt>
      <trkpt lat="50.09694" lon="5.04443">
        <ele>229.4</ele>
        <time>2022-04-21T12:09:30Z</time>
      </trkpt>
      <trkpt lat="50.09693" lon="5.04444">
        <ele>229.4</ele>
        <time>2022-04-21T12:09:31Z</time>
      </trkpt>
      <trkpt lat="50.09692" lon="5.04445">
        <ele>229.4</ele>
        <time>2022-04-21T12:09:32Z</time>
      </trkpt>
      <trkpt lat="50.09691" lon="5.04446">
        <ele>229.3</ele>
        <time>2022-04-21T12:09:33Z</time>
      </trkpt>
      <trkpt lat="50.09691" lon="5.04447">
        <ele>229.3</ele>
        <time>2022-04-21T12:09:34Z</time>
      </trkpt>
      <trkpt lat="50.0969" lon="5.04449">
        <ele>229.3</ele>
        <time>2022-04-21T12:09:35Z</time>
      </trkpt>
      <trkpt lat="50.09689" lon="5.0445">
        <ele>229.3</ele>
        <time>2022-04-21T12:09:36Z</time>
      </trkpt>
      <trkpt lat="50.09689" lon="5.04451">
        <ele>229.3</ele>
        <time>2022-04-21T12:09:37Z</time>
      </trkpt>
      <trkpt lat="50.09688" lon="5.04453">
        <ele>229.3</ele>
        <time>2022-04-21T12:09:38Z</time>
      </trkpt>
      <trkpt lat="50.09688" lon="5.04454">
        <ele>229.3</ele>
        <time>2022-04-21T12:09:39Z</time>
      </trkpt>
      <trkpt lat="50.09687" lon="5.04457">
        <ele>229.3</ele>
        <time>2022-04-21T12:09:40Z</time>
      </trkpt>
      <trkpt lat="50.09686" lon="5.04458">
        <ele>229.2</ele>
        <time>2022-04-21T12:09:41Z</time>
      </trkpt>
      <trkpt lat="50.09686" lon="5.04459">
        <ele>229.2</ele>
        <time>2022-04-21T12:09:42Z</time>
      </trkpt>
      <trkpt lat="50.09685" lon="5.0446">
        <ele>229.2</ele>
        <time>2022-04-21T12:09:43Z</time>
      </trkpt>
      <trkpt lat="50.09684" lon="5.04462">
        <ele>229.2</ele>
        <time>2022-04-21T12:09:44Z</time>
      </trkpt>
      <trkpt lat="50.09683" lon="5.04464">
        <ele>229.2</ele>
        <time>2022-04-21T12:09:45Z</time>
      </trkpt>
      <trkpt lat="50.09681" lon="5.04466">
        <ele>229.2</ele>
        <time>2022-04-21T12:09:46Z</time>
      </trkpt>
      <trkpt lat="50.0968" lon="5.0447">
        <ele>229.1</ele>
        <time>2022-04-21T12:09:48Z</time>
      </trkpt>
      <trkpt lat="50.09679" lon="5.04471">
        <ele>229.1</ele>
        <time>2022-04-21T12:09:49Z</time>
      </trkpt>
      <trkpt lat="50.09678" lon="5.04475">
        <ele>229.1</ele>
        <time>2022-04-21T12:09:50Z</time>
      </trkpt>
      <trkpt lat="50.09678" lon="5.04476">
        <ele>229.1</ele>
        <time>2022-04-21T12:09:51Z</time>
      </trkpt>
      <trkpt lat="50.09676" lon="5.04481">
        <ele>229</ele>
        <time>2022-04-21T12:09:52Z</time>
      </trkpt>
      <trkpt lat="50.09676" lon="5.04482">
        <ele>229</ele>
        <time>2022-04-21T12:09:53Z</time>
      </trkpt>
      <trkpt lat="50.09674" lon="5.04486">
        <ele>229</ele>
        <time>2022-04-21T12:09:54Z</time>
      </trkpt>
      <trkpt lat="50.09674" lon="5.04487">
        <ele>228.9</ele>
        <time>2022-04-21T12:09:55Z</time>
      </trkpt>
      <trkpt lat="50.09673" lon="5.04489">
        <ele>228.9</ele>
        <time>2022-04-21T12:09:56Z</time>
      </trkpt>
      <trkpt lat="50.09672" lon="5.04491">
        <ele>228.9</ele>
        <time>2022-04-21T12:09:57Z</time>
      </trkpt>
      <trkpt lat="50.09671" lon="5.04493">
        <ele>228.9</ele>
        <time>2022-04-21T12:09:58Z</time>
      </trkpt>
      <trkpt lat="50.0967" lon="5.04494">
        <ele>228.8</ele>
        <time>2022-04-21T12:09:59Z</time>
      </trkpt>
      <trkpt lat="50.09668" lon="5.04498">
        <ele>228.8</ele>
        <time>2022-04-21T12:10:00Z</time>
      </trkpt>
      <trkpt lat="50.09668" lon="5.045">
        <ele>228.8</ele>
        <time>2022-04-21T12:10:01Z</time>
      </trkpt>
      <trkpt lat="50.09668" lon="5.04502">
        <ele>228.7</ele>
        <time>2022-04-21T12:10:02Z</time>
      </trkpt>
      <trkpt lat="50.09668" lon="5.04504">
        <ele>228.7</ele>
        <time>2022-04-21T12:10:04Z</time>
      </trkpt>
      <trkpt lat="50.09668" lon="5.04506">
        <ele>228.7</ele>
        <time>2022-04-21T12:10:05Z</time>
      </trkpt>
      <trkpt lat="50.09668" lon="5.04507">
        <ele>228.7</ele>
        <time>2022-04-21T12:10:06Z</time>
      </trkpt>
      <trkpt lat="50.09667" lon="5.04509">
        <ele>228.7</ele>
        <time>2022-04-21T12:10:07Z</time>
      </trkpt>
      <trkpt lat="50.09667" lon="5.04511">
        <ele>228.6</ele>
        <time>2022-04-21T12:10:08Z</time>
      </trkpt>
      <trkpt lat="50.09666" lon="5.04513">
        <ele>228.6</ele>
        <time>2022-04-21T12:10:09Z</time>
      </trkpt>
      <trkpt lat="50.09666" lon="5.04515">
        <ele>228.6</ele>
        <time>2022-04-21T12:10:10Z</time>
      </trkpt>
      <trkpt lat="50.09665" lon="5.04517">
        <ele>228.5</ele>
        <time>2022-04-21T12:10:11Z</time>
      </trkpt>
      <trkpt lat="50.09664" lon="5.0452">
        <ele>228.5</ele>
        <time>2022-04-21T12:10:13Z</time>
      </trkpt>
      <trkpt lat="50.09663" lon="5.04521">
        <ele>228.5</ele>
        <time>2022-04-21T12:10:15Z</time>
      </trkpt>
      <trkpt lat="50.09662" lon="5.04522">
        <ele>228.4</ele>
        <time>2022-04-21T12:10:16Z</time>
      </trkpt>
      <trkpt lat="50.09662" lon="5.04524">
        <ele>228.4</ele>
        <time>2022-04-21T12:10:17Z</time>
      </trkpt>
      <trkpt lat="50.09661" lon="5.04525">
        <ele>228.4</ele>
        <time>2022-04-21T12:10:18Z</time>
      </trkpt>
      <trkpt lat="50.09661" lon="5.04526">
        <ele>228.3</ele>
        <time>2022-04-21T12:10:19Z</time>
      </trkpt>
      <trkpt lat="50.0966" lon="5.04528">
        <ele>228.3</ele>
        <time>2022-04-21T12:10:20Z</time>
      </trkpt>
      <trkpt lat="50.0966" lon="5.04529">
        <ele>228.3</ele>
        <time>2022-04-21T12:10:21Z</time>
      </trkpt>
      <trkpt lat="50.09659" lon="5.0453">
        <ele>228.3</ele>
        <time>2022-04-21T12:10:22Z</time>
      </trkpt>
      <trkpt lat="50.09659" lon="5.0453">
        <ele>228.2</ele>
        <time>2022-04-21T12:10:23Z</time>
      </trkpt>
      <trkpt lat="50.09658" lon="5.04531">
        <ele>228.2</ele>
        <time>2022-04-21T12:10:24Z</time>
      </trkpt>
      <trkpt lat="50.09657" lon="5.04531">
        <ele>228.2</ele>
        <time>2022-04-21T12:10:25Z</time>
      </trkpt>
      <trkpt lat="50.09657" lon="5.0453">
        <ele>228.2</ele>
        <time>2022-04-21T12:10:26Z</time>
      </trkpt>
      <trkpt lat="50.09656" lon="5.0453">
        <ele>228.2</ele>
        <time>2022-04-21T12:10:27Z</time>
      </trkpt>
      <trkpt lat="50.09656" lon="5.04531">
        <ele>228.1</ele>
        <time>2022-04-21T12:10:28Z</time>
      </trkpt>
      <trkpt lat="50.09657" lon="5.04534">
        <ele>228.1</ele>
        <time>2022-04-21T12:10:29Z</time>
      </trkpt>
      <trkpt lat="50.09658" lon="5.04536">
        <ele>228</ele>
        <time>2022-04-21T12:10:30Z</time>
      </trkpt>
      <trkpt lat="50.09658" lon="5.04537">
        <ele>228</ele>
        <time>2022-04-21T12:10:31Z</time>
      </trkpt>
      <trkpt lat="50.09658" lon="5.04539">
        <ele>228</ele>
        <time>2022-04-21T12:10:32Z</time>
      </trkpt>
      <trkpt lat="50.09659" lon="5.04542">
        <ele>227.9</ele>
        <time>2022-04-21T12:10:33Z</time>
      </trkpt>
      <trkpt lat="50.0966" lon="5.04544">
        <ele>227.8</ele>
        <time>2022-04-21T12:10:34Z</time>
      </trkpt>
      <trkpt lat="50.0966" lon="5.04545">
        <ele>227.8</ele>
        <time>2022-04-21T12:10:35Z</time>
      </trkpt>
      <trkpt lat="50.09662" lon="5.04549">
        <ele>227.6</ele>
        <time>2022-04-21T12:10:36Z</time>
      </trkpt>
      <trkpt lat="50.09663" lon="5.0455">
        <ele>227.6</ele>
        <time>2022-04-21T12:10:37Z</time>
      </trkpt>
      <trkpt lat="50.09663" lon="5.04553">
        <ele>227.5</ele>
        <time>2022-04-21T12:10:38Z</time>
      </trkpt>
      <trkpt lat="50.09664" lon="5.04554">
        <ele>227.5</ele>
        <time>2022-04-21T12:10:39Z</time>
      </trkpt>
      <trkpt lat="50.09665" lon="5.04558">
        <ele>227.3</ele>
        <time>2022-04-21T12:10:40Z</time>
      </trkpt>
      <trkpt lat="50.09665" lon="5.04559">
        <ele>227.3</ele>
        <time>2022-04-21T12:10:41Z</time>
      </trkpt>
      <trkpt lat="50.09665" lon="5.04561">
        <ele>227.2</ele>
        <time>2022-04-21T12:10:42Z</time>
      </trkpt>
      <trkpt lat="50.09665" lon="5.04564">
        <ele>227.1</ele>
        <time>2022-04-21T12:10:43Z</time>
      </trkpt>
      <trkpt lat="50.09665" lon="5.04566">
        <ele>227.1</ele>
        <time>2022-04-21T12:10:44Z</time>
      </trkpt>
      <trkpt lat="50.09666" lon="5.04568">
        <ele>227</ele>
        <time>2022-04-21T12:10:45Z</time>
      </trkpt>
      <trkpt lat="50.09668" lon="5.04569">
        <ele>226.9</ele>
        <time>2022-04-21T12:10:46Z</time>
      </trkpt>
      <trkpt lat="50.09669" lon="5.04571">
        <ele>226.8</ele>
        <time>2022-04-21T12:10:47Z</time>
      </trkpt>
      <trkpt lat="50.09669" lon="5.04572">
        <ele>226.7</ele>
        <time>2022-04-21T12:10:48Z</time>
      </trkpt>
      <trkpt lat="50.0967" lon="5.04574">
        <ele>226.6</ele>
        <time>2022-04-21T12:10:49Z</time>
      </trkpt>
      <trkpt lat="50.09671" lon="5.04576">
        <ele>226.6</ele>
        <time>2022-04-21T12:10:50Z</time>
      </trkpt>
      <trkpt lat="50.09672" lon="5.04579">
        <ele>226.4</ele>
        <time>2022-04-21T12:10:51Z</time>
      </trkpt>
      <trkpt lat="50.09672" lon="5.0458">
        <ele>226.4</ele>
        <time>2022-04-21T12:10:52Z</time>
      </trkpt>
      <trkpt lat="50.09672" lon="5.04582">
        <ele>226.3</ele>
        <time>2022-04-21T12:10:53Z</time>
      </trkpt>
      <trkpt lat="50.09673" lon="5.04583">
        <ele>226.3</ele>
        <time>2022-04-21T12:10:54Z</time>
      </trkpt>
      <trkpt lat="50.09673" lon="5.04585">
        <ele>226.2</ele>
        <time>2022-04-21T12:10:55Z</time>
      </trkpt>
      <trkpt lat="50.09673" lon="5.04586">
        <ele>226.1</ele>
        <time>2022-04-21T12:10:56Z</time>
      </trkpt>
      <trkpt lat="50.09674" lon="5.04588">
        <ele>226</ele>
        <time>2022-04-21T12:10:57Z</time>
      </trkpt>
      <trkpt lat="50.09675" lon="5.0459">
        <ele>225.9</ele>
        <time>2022-04-21T12:10:59Z</time>
      </trkpt>
      <trkpt lat="50.09675" lon="5.04592">
        <ele>225.8</ele>
        <time>2022-04-21T12:11:00Z</time>
      </trkpt>
      <trkpt lat="50.09676" lon="5.04594">
        <ele>225.7</ele>
        <time>2022-04-21T12:11:01Z</time>
      </trkpt>
      <trkpt lat="50.09677" lon="5.04597">
        <ele>225.5</ele>
        <time>2022-04-21T12:11:02Z</time>
      </trkpt>
      <trkpt lat="50.09677" lon="5.04598">
        <ele>225.4</ele>
        <time>2022-04-21T12:11:03Z</time>
      </trkpt>
      <trkpt lat="50.09678" lon="5.04599">
        <ele>225.4</ele>
        <time>2022-04-21T12:11:04Z</time>
      </trkpt>
      <trkpt lat="50.09678" lon="5.04601">
        <ele>225.3</ele>
        <time>2022-04-21T12:11:05Z</time>
      </trkpt>
      <trkpt lat="50.09678" lon="5.04603">
        <ele>225.2</ele>
        <time>2022-04-21T12:11:06Z</time>
      </trkpt>
      <trkpt lat="50.09679" lon="5.04608">
        <ele>224.9</ele>
        <time>2022-04-21T12:11:08Z</time>
      </trkpt>
      <trkpt lat="50.0968" lon="5.0461">
        <ele>224.7</ele>
        <time>2022-04-21T12:11:10Z</time>
      </trkpt>
      <trkpt lat="50.0968" lon="5.04611">
        <ele>224.7</ele>
        <time>2022-04-21T12:11:11Z</time>
      </trkpt>
      <trkpt lat="50.0968" lon="5.04614">
        <ele>224.5</ele>
        <time>2022-04-21T12:11:12Z</time>
      </trkpt>
      <trkpt lat="50.09681" lon="5.04616">
        <ele>224.5</ele>
        <time>2022-04-21T12:11:13Z</time>
      </trkpt>
      <trkpt lat="50.09681" lon="5.04617">
        <ele>224.4</ele>
        <time>2022-04-21T12:11:14Z</time>
      </trkpt>
      <trkpt lat="50.09681" lon="5.04619">
        <ele>224.3</ele>
        <time>2022-04-21T12:11:15Z</time>
      </trkpt>
      <trkpt lat="50.09682" lon="5.04621">
        <ele>224.1</ele>
        <time>2022-04-21T12:11:16Z</time>
      </trkpt>
      <trkpt lat="50.09682" lon="5.04623">
        <ele>224</ele>
        <time>2022-04-21T12:11:17Z</time>
      </trkpt>
      <trkpt lat="50.09681" lon="5.04625">
        <ele>223.8</ele>
        <time>2022-04-21T12:11:18Z</time>
      </trkpt>
      <trkpt lat="50.09681" lon="5.04629">
        <ele>223.6</ele>
        <time>2022-04-21T12:11:19Z</time>
      </trkpt>
      <trkpt lat="50.09681" lon="5.0463">
        <ele>223.5</ele>
        <time>2022-04-21T12:11:20Z</time>
      </trkpt>
      <trkpt lat="50.09681" lon="5.04632">
        <ele>223.4</ele>
        <time>2022-04-21T12:11:21Z</time>
      </trkpt>
      <trkpt lat="50.09681" lon="5.04634">
        <ele>223.2</ele>
        <time>2022-04-21T12:11:22Z</time>
      </trkpt>
      <trkpt lat="50.09681" lon="5.04636">
        <ele>223.1</ele>
        <time>2022-04-21T12:11:23Z</time>
      </trkpt>
      <trkpt lat="50.09682" lon="5.04639">
        <ele>222.9</ele>
        <time>2022-04-21T12:11:24Z</time>
      </trkpt>
      <trkpt lat="50.09682" lon="5.04641">
        <ele>222.8</ele>
        <time>2022-04-21T12:11:25Z</time>
      </trkpt>
      <trkpt lat="50.09682" lon="5.04642">
        <ele>222.7</ele>
        <time>2022-04-21T12:11:26Z</time>
      </trkpt>
      <trkpt lat="50.09683" lon="5.04644">
        <ele>222.6</ele>
        <time>2022-04-21T12:11:27Z</time>
      </trkpt>
      <trkpt lat="50.09683" lon="5.04645">
        <ele>222.5</ele>
        <time>2022-04-21T12:11:28Z</time>
      </trkpt>
      <trkpt lat="50.09684" lon="5.04646">
        <ele>222.4</ele>
        <time>2022-04-21T12:11:29Z</time>
      </trkpt>
      <trkpt lat="50.09685" lon="5.04646">
        <ele>222.3</ele>
        <time>2022-04-21T12:11:30Z</time>
      </trkpt>
      <trkpt lat="50.09685" lon="5.04646">
        <ele>222.2</ele>
        <time>2022-04-21T12:11:31Z</time>
      </trkpt>
      <trkpt lat="50.09686" lon="5.04646">
        <ele>222.1</ele>
        <time>2022-04-21T12:11:33Z</time>
      </trkpt>
      <trkpt lat="50.09687" lon="5.04647">
        <ele>222</ele>
        <time>2022-04-21T12:11:34Z</time>
      </trkpt>
      <trkpt lat="50.09688" lon="5.04648">
        <ele>221.9</ele>
        <time>2022-04-21T12:11:35Z</time>
      </trkpt>
      <trkpt lat="50.09689" lon="5.04649">
        <ele>221.8</ele>
        <time>2022-04-21T12:11:36Z</time>
      </trkpt>
      <trkpt lat="50.09689" lon="5.04651">
        <ele>221.7</ele>
        <time>2022-04-21T12:11:37Z</time>
      </trkpt>
      <trkpt lat="50.0969" lon="5.04652">
        <ele>221.6</ele>
        <time>2022-04-21T12:11:38Z</time>
      </trkpt>
      <trkpt lat="50.0969" lon="5.04654">
        <ele>221.5</ele>
        <time>2022-04-21T12:11:39Z</time>
      </trkpt>
      <trkpt lat="50.0969" lon="5.04656">
        <ele>221.3</ele>
        <time>2022-04-21T12:11:40Z</time>
      </trkpt>
      <trkpt lat="50.0969" lon="5.04661">
        <ele>220.9</ele>
        <time>2022-04-21T12:11:42Z</time>
      </trkpt>
      <trkpt lat="50.09691" lon="5.04666">
        <ele>220.5</ele>
        <time>2022-04-21T12:11:43Z</time>
      </trkpt>
      <trkpt lat="50.09691" lon="5.04668">
        <ele>220.4</ele>
        <time>2022-04-21T12:11:44Z</time>
      </trkpt>
      <trkpt lat="50.09692" lon="5.04672">
        <ele>220</ele>
        <time>2022-04-21T12:11:45Z</time>
      </trkpt>
      <trkpt lat="50.09692" lon="5.04673">
        <ele>219.9</ele>
        <time>2022-04-21T12:11:46Z</time>
      </trkpt>
      <trkpt lat="50.09693" lon="5.04675">
        <ele>219.7</ele>
        <time>2022-04-21T12:11:47Z</time>
      </trkpt>
      <trkpt lat="50.09694" lon="5.04677">
        <ele>219.6</ele>
        <time>2022-04-21T12:11:48Z</time>
      </trkpt>
      <trkpt lat="50.09694" lon="5.04678">
        <ele>219.4</ele>
        <time>2022-04-21T12:11:49Z</time>
      </trkpt>
      <trkpt lat="50.09695" lon="5.04679">
        <ele>219.3</ele>
        <time>2022-04-21T12:11:50Z</time>
      </trkpt>
      <trkpt lat="50.09695" lon="5.0468">
        <ele>219.2</ele>
        <time>2022-04-21T12:11:51Z</time>
      </trkpt>
      <trkpt lat="50.09696" lon="5.0468">
        <ele>219.1</ele>
        <time>2022-04-21T12:11:52Z</time>
      </trkpt>
      <trkpt lat="50.09697" lon="5.04683">
        <ele>218.9</ele>
        <time>2022-04-21T12:11:53Z</time>
      </trkpt>
      <trkpt lat="50.09697" lon="5.04684">
        <ele>218.8</ele>
        <time>2022-04-21T12:11:54Z</time>
      </trkpt>
      <trkpt lat="50.09698" lon="5.04685">
        <ele>218.7</ele>
        <time>2022-04-21T12:11:55Z</time>
      </trkpt>
      <trkpt lat="50.09698" lon="5.04686">
        <ele>218.6</ele>
        <time>2022-04-21T12:11:56Z</time>
      </trkpt>
      <trkpt lat="50.09699" lon="5.04689">
        <ele>218.3</ele>
        <time>2022-04-21T12:11:57Z</time>
      </trkpt>
      <trkpt lat="50.09699" lon="5.0469">
        <ele>218.2</ele>
        <time>2022-04-21T12:11:58Z</time>
      </trkpt>
      <trkpt lat="50.097" lon="5.04691">
        <ele>218.1</ele>
        <time>2022-04-21T12:11:59Z</time>
      </trkpt>
      <trkpt lat="50.097" lon="5.04693">
        <ele>217.9</ele>
        <time>2022-04-21T12:12:00Z</time>
      </trkpt>
      <trkpt lat="50.09701" lon="5.04694">
        <ele>217.8</ele>
        <time>2022-04-21T12:12:01Z</time>
      </trkpt>
      <trkpt lat="50.09702" lon="5.04696">
        <ele>217.7</ele>
        <time>2022-04-21T12:12:02Z</time>
      </trkpt>
      <trkpt lat="50.09702" lon="5.04699">
        <ele>217.4</ele>
        <time>2022-04-21T12:12:03Z</time>
      </trkpt>
      <trkpt lat="50.09702" lon="5.047">
        <ele>217.3</ele>
        <time>2022-04-21T12:12:04Z</time>
      </trkpt>
      <trkpt lat="50.09703" lon="5.04701">
        <ele>217.2</ele>
        <time>2022-04-21T12:12:05Z</time>
      </trkpt>
      <trkpt lat="50.09703" lon="5.04703">
        <ele>217</ele>
        <time>2022-04-21T12:12:06Z</time>
      </trkpt>
      <trkpt lat="50.09703" lon="5.04704">
        <ele>216.9</ele>
        <time>2022-04-21T12:12:08Z</time>
      </trkpt>
      <trkpt lat="50.09704" lon="5.04706">
        <ele>216.7</ele>
        <time>2022-04-21T12:12:09Z</time>
      </trkpt>
      <trkpt lat="50.09705" lon="5.04709">
        <ele>216.4</ele>
        <time>2022-04-21T12:12:10Z</time>
      </trkpt>
      <trkpt lat="50.09705" lon="5.04711">
        <ele>216.3</ele>
        <time>2022-04-21T12:12:11Z</time>
      </trkpt>
      <trkpt lat="50.09705" lon="5.04712">
        <ele>216.2</ele>
        <time>2022-04-21T12:12:12Z</time>
      </trkpt>
      <trkpt lat="50.09706" lon="5.04716">
        <ele>215.8</ele>
        <time>2022-04-21T12:12:13Z</time>
      </trkpt>
      <trkpt lat="50.09707" lon="5.04718">
        <ele>215.6</ele>
        <time>2022-04-21T12:12:14Z</time>
      </trkpt>
      <trkpt lat="50.09708" lon="5.04721">
        <ele>215.3</ele>
        <time>2022-04-21T12:12:15Z</time>
      </trkpt>
      <trkpt lat="50.09708" lon="5.04722">
        <ele>215.2</ele>
        <time>2022-04-21T12:12:16Z</time>
      </trkpt>
      <trkpt lat="50.09708" lon="5.04723">
        <ele>215.1</ele>
        <time>2022-04-21T12:12:17Z</time>
      </trkpt>
      <trkpt lat="50.09709" lon="5.04726">
        <ele>214.9</ele>
        <time>2022-04-21T12:12:18Z</time>
      </trkpt>
      <trkpt lat="50.09709" lon="5.04727">
        <ele>214.7</ele>
        <time>2022-04-21T12:12:19Z</time>
      </trkpt>
      <trkpt lat="50.0971" lon="5.04729">
        <ele>214.6</ele>
        <time>2022-04-21T12:12:20Z</time>
      </trkpt>
      <trkpt lat="50.0971" lon="5.04731">
        <ele>214.4</ele>
        <time>2022-04-21T12:12:21Z</time>
      </trkpt>
      <trkpt lat="50.0971" lon="5.04733">
        <ele>214.3</ele>
        <time>2022-04-21T12:12:22Z</time>
      </trkpt>
      <trkpt lat="50.09711" lon="5.04734">
        <ele>214.1</ele>
        <time>2022-04-21T12:12:23Z</time>
      </trkpt>
      <trkpt lat="50.09711" lon="5.04735">
        <ele>214</ele>
        <time>2022-04-21T12:12:24Z</time>
      </trkpt>
      <trkpt lat="50.09711" lon="5.04737">
        <ele>213.9</ele>
        <time>2022-04-21T12:12:25Z</time>
      </trkpt>
      <trkpt lat="50.09711" lon="5.04739">
        <ele>213.7</ele>
        <time>2022-04-21T12:12:26Z</time>
      </trkpt>
      <trkpt lat="50.09711" lon="5.04741">
        <ele>213.5</ele>
        <time>2022-04-21T12:12:28Z</time>
      </trkpt>
      <trkpt lat="50.09712" lon="5.04744">
        <ele>213.3</ele>
        <time>2022-04-21T12:12:29Z</time>
      </trkpt>
      <trkpt lat="50.09712" lon="5.04746">
        <ele>213.1</ele>
        <time>2022-04-21T12:12:30Z</time>
      </trkpt>
      <trkpt lat="50.09712" lon="5.04748">
        <ele>212.9</ele>
        <time>2022-04-21T12:12:31Z</time>
      </trkpt>
      <trkpt lat="50.09712" lon="5.0475">
        <ele>212.8</ele>
        <time>2022-04-21T12:12:32Z</time>
      </trkpt>
      <trkpt lat="50.09712" lon="5.04751">
        <ele>212.7</ele>
        <time>2022-04-21T12:12:33Z</time>
      </trkpt>
      <trkpt lat="50.09712" lon="5.04752">
        <ele>212.6</ele>
        <time>2022-04-21T12:12:34Z</time>
      </trkpt>
      <trkpt lat="50.09713" lon="5.04753">
        <ele>212.5</ele>
        <time>2022-04-21T12:12:35Z</time>
      </trkpt>
      <trkpt lat="50.09713" lon="5.04754">
        <ele>212.4</ele>
        <time>2022-04-21T12:12:36Z</time>
      </trkpt>
      <trkpt lat="50.09713" lon="5.04756">
        <ele>212.3</ele>
        <time>2022-04-21T12:12:37Z</time>
      </trkpt>
      <trkpt lat="50.09714" lon="5.04757">
        <ele>212.1</ele>
        <time>2022-04-21T12:12:38Z</time>
      </trkpt>
      <trkpt lat="50.09715" lon="5.04759">
        <ele>211.9</ele>
        <time>2022-04-21T12:12:39Z</time>
      </trkpt>
      <trkpt lat="50.09715" lon="5.04761">
        <ele>211.7</ele>
        <time>2022-04-21T12:12:41Z</time>
      </trkpt>
      <trkpt lat="50.09715" lon="5.04766">
        <ele>211.4</ele>
        <time>2022-04-21T12:12:42Z</time>
      </trkpt>
      <trkpt lat="50.09715" lon="5.04768">
        <ele>211.1</ele>
        <time>2022-04-21T12:12:43Z</time>
      </trkpt>
      <trkpt lat="50.09715" lon="5.04771">
        <ele>210.9</ele>
        <time>2022-04-21T12:12:44Z</time>
      </trkpt>
      <trkpt lat="50.09716" lon="5.04773">
        <ele>210.7</ele>
        <time>2022-04-21T12:12:45Z</time>
      </trkpt>
      <trkpt lat="50.09716" lon="5.04776">
        <ele>210.5</ele>
        <time>2022-04-21T12:12:46Z</time>
      </trkpt>
      <trkpt lat="50.09717" lon="5.04778">
        <ele>210.3</ele>
        <time>2022-04-21T12:12:47Z</time>
      </trkpt>
      <trkpt lat="50.09717" lon="5.0478">
        <ele>210.1</ele>
        <time>2022-04-21T12:12:48Z</time>
      </trkpt>
      <trkpt lat="50.09718" lon="5.04781">
        <ele>209.9</ele>
        <time>2022-04-21T12:12:50Z</time>
      </trkpt>
      <trkpt lat="50.09719" lon="5.04783">
        <ele>209.7</ele>
        <time>2022-04-21T12:12:51Z</time>
      </trkpt>
      <trkpt lat="50.0972" lon="5.04785">
        <ele>209.5</ele>
        <time>2022-04-21T12:12:52Z</time>
      </trkpt>
      <trkpt lat="50.09721" lon="5.04787">
        <ele>209.4</ele>
        <time>2022-04-21T12:12:53Z</time>
      </trkpt>
      <trkpt lat="50.09721" lon="5.04789">
        <ele>209.2</ele>
        <time>2022-04-21T12:12:54Z</time>
      </trkpt>
      <trkpt lat="50.09722" lon="5.04791">
        <ele>209</ele>
        <time>2022-04-21T12:12:55Z</time>
      </trkpt>
      <trkpt lat="50.09723" lon="5.04793">
        <ele>208.8</ele>
        <time>2022-04-21T12:12:56Z</time>
      </trkpt>
      <trkpt lat="50.09723" lon="5.04796">
        <ele>208.6</ele>
        <time>2022-04-21T12:12:57Z</time>
      </trkpt>
      <trkpt lat="50.09724" lon="5.04797">
        <ele>208.5</ele>
        <time>2022-04-21T12:12:58Z</time>
      </trkpt>
      <trkpt lat="50.09724" lon="5.04798">
        <ele>208.4</ele>
        <time>2022-04-21T12:12:59Z</time>
      </trkpt>
      <trkpt lat="50.09725" lon="5.04801">
        <ele>208.2</ele>
        <time>2022-04-21T12:13:00Z</time>
      </trkpt>
      <trkpt lat="50.09725" lon="5.04803">
        <ele>208</ele>
        <time>2022-04-21T12:13:01Z</time>
      </trkpt>
      <trkpt lat="50.09725" lon="5.04805">
        <ele>207.8</ele>
        <time>2022-04-21T12:13:02Z</time>
      </trkpt>
      <trkpt lat="50.09725" lon="5.04808">
        <ele>207.7</ele>
        <time>2022-04-21T12:13:03Z</time>
      </trkpt>
      <trkpt lat="50.09725" lon="5.04811">
        <ele>207.5</ele>
        <time>2022-04-21T12:13:04Z</time>
      </trkpt>
      <trkpt lat="50.09725" lon="5.04812">
        <ele>207.4</ele>
        <time>2022-04-21T12:13:05Z</time>
      </trkpt>
      <trkpt lat="50.09725" lon="5.04814">
        <ele>207.3</ele>
        <time>2022-04-21T12:13:06Z</time>
      </trkpt>
      <trkpt lat="50.09724" lon="5.04816">
        <ele>207.1</ele>
        <time>2022-04-21T12:13:07Z</time>
      </trkpt>
      <trkpt lat="50.09724" lon="5.04818">
        <ele>207</ele>
        <time>2022-04-21T12:13:08Z</time>
      </trkpt>
      <trkpt lat="50.09724" lon="5.0482">
        <ele>206.9</ele>
        <time>2022-04-21T12:13:09Z</time>
      </trkpt>
      <trkpt lat="50.09724" lon="5.04822">
        <ele>206.8</ele>
        <time>2022-04-21T12:13:10Z</time>
      </trkpt>
      <trkpt lat="50.09725" lon="5.04823">
        <ele>206.7</ele>
        <time>2022-04-21T12:13:11Z</time>
      </trkpt>
      <trkpt lat="50.09725" lon="5.04823">
        <ele>206.7</ele>
        <time>2022-04-21T12:13:12Z</time>
      </trkpt>
      <trkpt lat="50.09724" lon="5.04825">
        <ele>205.9</ele>
        <time>2022-04-21T12:13:13Z</time>
      </trkpt>
      <trkpt lat="50.09723" lon="5.04825">
        <ele>205.9</ele>
        <time>2022-04-21T12:13:14Z</time>
      </trkpt>
      <trkpt lat="50.09722" lon="5.04824">
        <ele>205.9</ele>
        <time>2022-04-21T12:13:16Z</time>
      </trkpt>
      <trkpt lat="50.09723" lon="5.04824">
        <ele>205.9</ele>
        <time>2022-04-21T12:13:17Z</time>
      </trkpt>
      <trkpt lat="50.09723" lon="5.04824">
        <ele>205.9</ele>
        <time>2022-04-21T12:13:18Z</time>
      </trkpt>
      <trkpt lat="50.09723" lon="5.04824">
        <ele>205.9</ele>
        <time>2022-04-21T12:13:19Z</time>
      </trkpt>
      <trkpt lat="50.09722" lon="5.04824">
        <ele>205.9</ele>
        <time>2022-04-21T12:13:20Z</time>
      </trkpt>
      <trkpt lat="50.09722" lon="5.04823">
        <ele>205.8</ele>
        <time>2022-04-21T12:13:21Z</time>
      </trkpt>
      <trkpt lat="50.09722" lon="5.04823">
        <ele>205.8</ele>
        <time>2022-04-21T12:13:22Z</time>
      </trkpt>
      <trkpt lat="50.09721" lon="5.04824">
        <ele>205.8</ele>
        <time>2022-04-21T12:13:23Z</time>
      </trkpt>
      <trkpt lat="50.09721" lon="5.04824">
        <ele>205.8</ele>
        <time>2022-04-21T12:13:24Z</time>
      </trkpt>
      <trkpt lat="50.09721" lon="5.04824">
        <ele>205.8</ele>
        <time>2022-04-21T12:13:25Z</time>
      </trkpt>
      <trkpt lat="50.09721" lon="5.04824">
        <ele>205.8</ele>
        <time>2022-04-21T12:13:26Z</time>
      </trkpt>
      <trkpt lat="50.09721" lon="5.04824">
        <ele>205.8</ele>
        <time>2022-04-21T12:13:27Z</time>
      </trkpt>
      <trkpt lat="50.09721" lon="5.04824">
        <ele>205.8</ele>
        <time>2022-04-21T12:13:28Z</time>
      </trkpt>
      <trkpt lat="50.09721" lon="5.04824">
        <ele>205.8</ele>
        <time>2022-04-21T12:13:29Z</time>
      </trkpt>
      <trkpt lat="50.09721" lon="5.04824">
        <ele>205.8</ele>
        <time>2022-04-21T12:13:30Z</time>
      </trkpt>
      <trkpt lat="50.09721" lon="5.04824">
        <ele>205.8</ele>
        <time>2022-04-21T12:13:31Z</time>
      </trkpt>
      <trkpt lat="50.09721" lon="5.04824">
        <ele>205.8</ele>
        <time>2022-04-21T12:13:32Z</time>
      </trkpt>
      <trkpt lat="50.09721" lon="5.04824">
        <ele>205.8</ele>
        <time>2022-04-21T12:13:33Z</time>
      </trkpt>
      <trkpt lat="50.09721" lon="5.04824">
        <ele>205.8</ele>
        <time>2022-04-21T12:13:34Z</time>
      </trkpt>
      <trkpt lat="50.09721" lon="5.04824">
        <ele>205.8</ele>
        <time>2022-04-21T12:13:35Z</time>
      </trkpt>
      <trkpt lat="50.09721" lon="5.04824">
        <ele>205.8</ele>
        <time>2022-04-21T12:13:36Z</time>
      </trkpt>
      <trkpt lat="50.0972" lon="5.04824">
        <ele>205.8</ele>
        <time>2022-04-21T12:13:37Z</time>
      </trkpt>
      <trkpt lat="50.0972" lon="5.04825">
        <ele>205.8</ele>
        <time>2022-04-21T12:13:38Z</time>
      </trkpt>
      <trkpt lat="50.09721" lon="5.04826">
        <ele>205.8</ele>
        <time>2022-04-21T12:13:39Z</time>
      </trkpt>
      <trkpt lat="50.09721" lon="5.04826">
        <ele>205.8</ele>
        <time>2022-04-21T12:13:40Z</time>
      </trkpt>
      <trkpt lat="50.09721" lon="5.04826">
        <ele>205.8</ele>
        <time>2022-04-21T12:13:41Z</time>
      </trkpt>
      <trkpt lat="50.09721" lon="5.04826">
        <ele>205.8</ele>
        <time>2022-04-21T12:13:42Z</time>
      </trkpt>
      <trkpt lat="50.09721" lon="5.04825">
        <ele>205.8</ele>
        <time>2022-04-21T12:13:43Z</time>
      </trkpt>
      <trkpt lat="50.0972" lon="5.04826">
        <ele>205.8</ele>
        <time>2022-04-21T12:13:44Z</time>
      </trkpt>
      <trkpt lat="50.09719" lon="5.04826">
        <ele>205.8</ele>
        <time>2022-04-21T12:13:45Z</time>
      </trkpt>
      <trkpt lat="50.09717" lon="5.04826">
        <ele>205.7</ele>
        <time>2022-04-21T12:13:46Z</time>
      </trkpt>
      <trkpt lat="50.09716" lon="5.04826">
        <ele>205.7</ele>
        <time>2022-04-21T12:13:47Z</time>
      </trkpt>
      <trkpt lat="50.09715" lon="5.04826">
        <ele>205.7</ele>
        <time>2022-04-21T12:13:48Z</time>
      </trkpt>
      <trkpt lat="50.09713" lon="5.04825">
        <ele>205.7</ele>
        <time>2022-04-21T12:13:49Z</time>
      </trkpt>
      <trkpt lat="50.09711" lon="5.04825">
        <ele>205.6</ele>
        <time>2022-04-21T12:13:50Z</time>
      </trkpt>
      <trkpt lat="50.0971" lon="5.04824">
        <ele>205.6</ele>
        <time>2022-04-21T12:13:51Z</time>
      </trkpt>
      <trkpt lat="50.09708" lon="5.04823">
        <ele>205.6</ele>
        <time>2022-04-21T12:13:53Z</time>
      </trkpt>
      <trkpt lat="50.09707" lon="5.04823">
        <ele>205.6</ele>
        <time>2022-04-21T12:13:54Z</time>
      </trkpt>
      <trkpt lat="50.09706" lon="5.04823">
        <ele>205.6</ele>
        <time>2022-04-21T12:13:55Z</time>
      </trkpt>
      <trkpt lat="50.09705" lon="5.04823">
        <ele>205.5</ele>
        <time>2022-04-21T12:13:56Z</time>
      </trkpt>
      <trkpt lat="50.09704" lon="5.04822">
        <ele>205.5</ele>
        <time>2022-04-21T12:13:57Z</time>
      </trkpt>
      <trkpt lat="50.09703" lon="5.04822">
        <ele>205.5</ele>
        <time>2022-04-21T12:13:58Z</time>
      </trkpt>
      <trkpt lat="50.09702" lon="5.04821">
        <ele>205.5</ele>
        <time>2022-04-21T12:13:59Z</time>
      </trkpt>
      <trkpt lat="50.09701" lon="5.0482">
        <ele>205.5</ele>
        <time>2022-04-21T12:14:00Z</time>
      </trkpt>
      <trkpt lat="50.097" lon="5.04819">
        <ele>205.5</ele>
        <time>2022-04-21T12:14:01Z</time>
      </trkpt>
      <trkpt lat="50.09699" lon="5.04819">
        <ele>205.5</ele>
        <time>2022-04-21T12:14:02Z</time>
      </trkpt>
      <trkpt lat="50.09698" lon="5.04818">
        <ele>205.4</ele>
        <time>2022-04-21T12:14:03Z</time>
      </trkpt>
      <trkpt lat="50.09695" lon="5.04817">
        <ele>205.4</ele>
        <time>2022-04-21T12:14:04Z</time>
      </trkpt>
      <trkpt lat="50.09693" lon="5.04817">
        <ele>205.4</ele>
        <time>2022-04-21T12:14:05Z</time>
      </trkpt>
      <trkpt lat="50.09692" lon="5.04817">
        <ele>205.3</ele>
        <time>2022-04-21T12:14:06Z</time>
      </trkpt>
      <trkpt lat="50.09691" lon="5.04816">
        <ele>205.3</ele>
        <time>2022-04-21T12:14:07Z</time>
      </trkpt>
      <trkpt lat="50.0969" lon="5.04816">
        <ele>205.3</ele>
        <time>2022-04-21T12:14:08Z</time>
      </trkpt>
      <trkpt lat="50.09689" lon="5.04815">
        <ele>205.3</ele>
        <time>2022-04-21T12:14:09Z</time>
      </trkpt>
      <trkpt lat="50.09687" lon="5.04815">
        <ele>205.3</ele>
        <time>2022-04-21T12:14:10Z</time>
      </trkpt>
      <trkpt lat="50.09685" lon="5.04814">
        <ele>205.3</ele>
        <time>2022-04-21T12:14:12Z</time>
      </trkpt>
      <trkpt lat="50.09682" lon="5.04814">
        <ele>205.2</ele>
        <time>2022-04-21T12:14:13Z</time>
      </trkpt>
      <trkpt lat="50.09681" lon="5.04814">
        <ele>205.2</ele>
        <time>2022-04-21T12:14:14Z</time>
      </trkpt>
      <trkpt lat="50.0968" lon="5.04814">
        <ele>205.2</ele>
        <time>2022-04-21T12:14:15Z</time>
      </trkpt>
      <trkpt lat="50.09678" lon="5.04815">
        <ele>205.2</ele>
        <time>2022-04-21T12:14:17Z</time>
      </trkpt>
      <trkpt lat="50.09677" lon="5.04816">
        <ele>205.2</ele>
        <time>2022-04-21T12:14:18Z</time>
      </trkpt>
      <trkpt lat="50.09676" lon="5.04815">
        <ele>205.2</ele>
        <time>2022-04-21T12:14:19Z</time>
      </trkpt>
      <trkpt lat="50.09675" lon="5.04814">
        <ele>205.1</ele>
        <time>2022-04-21T12:14:20Z</time>
      </trkpt>
      <trkpt lat="50.09673" lon="5.04813">
        <ele>205.1</ele>
        <time>2022-04-21T12:14:21Z</time>
      </trkpt>
      <trkpt lat="50.09672" lon="5.04813">
        <ele>205.1</ele>
        <time>2022-04-21T12:14:22Z</time>
      </trkpt>
      <trkpt lat="50.09671" lon="5.04813">
        <ele>205.1</ele>
        <time>2022-04-21T12:14:23Z</time>
      </trkpt>
      <trkpt lat="50.09669" lon="5.04812">
        <ele>205.1</ele>
        <time>2022-04-21T12:14:24Z</time>
      </trkpt>
      <trkpt lat="50.09667" lon="5.04811">
        <ele>205.1</ele>
        <time>2022-04-21T12:14:26Z</time>
      </trkpt>
      <trkpt lat="50.09665" lon="5.04811">
        <ele>205</ele>
        <time>2022-04-21T12:14:27Z</time>
      </trkpt>
      <trkpt lat="50.09664" lon="5.04811">
        <ele>205</ele>
        <time>2022-04-21T12:14:28Z</time>
      </trkpt>
      <trkpt lat="50.09663" lon="5.04811">
        <ele>205</ele>
        <time>2022-04-21T12:14:29Z</time>
      </trkpt>
      <trkpt lat="50.09662" lon="5.0481">
        <ele>205</ele>
        <time>2022-04-21T12:14:30Z</time>
      </trkpt>
      <trkpt lat="50.09661" lon="5.0481">
        <ele>205</ele>
        <time>2022-04-21T12:14:31Z</time>
      </trkpt>
      <trkpt lat="50.0966" lon="5.04809">
        <ele>205</ele>
        <time>2022-04-21T12:14:32Z</time>
      </trkpt>
      <trkpt lat="50.09659" lon="5.04808">
        <ele>205</ele>
        <time>2022-04-21T12:14:33Z</time>
      </trkpt>
      <trkpt lat="50.09659" lon="5.04807">
        <ele>205</ele>
        <time>2022-04-21T12:14:34Z</time>
      </trkpt>
      <trkpt lat="50.09658" lon="5.04807">
        <ele>205</ele>
        <time>2022-04-21T12:14:35Z</time>
      </trkpt>
      <trkpt lat="50.09656" lon="5.04805">
        <ele>204.9</ele>
        <time>2022-04-21T12:14:36Z</time>
      </trkpt>
      <trkpt lat="50.09655" lon="5.04804">
        <ele>204.9</ele>
        <time>2022-04-21T12:14:37Z</time>
      </trkpt>
      <trkpt lat="50.09654" lon="5.04803">
        <ele>204.9</ele>
        <time>2022-04-21T12:14:38Z</time>
      </trkpt>
      <trkpt lat="50.09653" lon="5.04802">
        <ele>204.9</ele>
        <time>2022-04-21T12:14:39Z</time>
      </trkpt>
      <trkpt lat="50.09652" lon="5.04802">
        <ele>204.9</ele>
        <time>2022-04-21T12:14:40Z</time>
      </trkpt>
      <trkpt lat="50.09651" lon="5.04801">
        <ele>204.9</ele>
        <time>2022-04-21T12:14:41Z</time>
      </trkpt>
      <trkpt lat="50.0965" lon="5.048">
        <ele>204.9</ele>
        <time>2022-04-21T12:14:42Z</time>
      </trkpt>
      <trkpt lat="50.09648" lon="5.04799">
        <ele>204.8</ele>
        <time>2022-04-21T12:14:43Z</time>
      </trkpt>
      <trkpt lat="50.09647" lon="5.04797">
        <ele>204.8</ele>
        <time>2022-04-21T12:14:44Z</time>
      </trkpt>
      <trkpt lat="50.09645" lon="5.04796">
        <ele>204.8</ele>
        <time>2022-04-21T12:14:45Z</time>
      </trkpt>
      <trkpt lat="50.09644" lon="5.04795">
        <ele>204.8</ele>
        <time>2022-04-21T12:14:46Z</time>
      </trkpt>
      <trkpt lat="50.09642" lon="5.04794">
        <ele>204.7</ele>
        <time>2022-04-21T12:14:47Z</time>
      </trkpt>
      <trkpt lat="50.09639" lon="5.04793">
        <ele>204.7</ele>
        <time>2022-04-21T12:14:49Z</time>
      </trkpt>
      <trkpt lat="50.09637" lon="5.04792">
        <ele>204.6</ele>
        <time>2022-04-21T12:14:50Z</time>
      </trkpt>
      <trkpt lat="50.09636" lon="5.04791">
        <ele>204.6</ele>
        <time>2022-04-21T12:14:51Z</time>
      </trkpt>
      <trkpt lat="50.09634" lon="5.0479">
        <ele>204.6</ele>
        <time>2022-04-21T12:14:52Z</time>
      </trkpt>
      <trkpt lat="50.09633" lon="5.04789">
        <ele>204.5</ele>
        <time>2022-04-21T12:14:53Z</time>
      </trkpt>
      <trkpt lat="50.09632" lon="5.04788">
        <ele>204.5</ele>
        <time>2022-04-21T12:14:54Z</time>
      </trkpt>
      <trkpt lat="50.0963" lon="5.04787">
        <ele>204.4</ele>
        <time>2022-04-21T12:14:55Z</time>
      </trkpt>
      <trkpt lat="50.09629" lon="5.04786">
        <ele>204.4</ele>
        <time>2022-04-21T12:14:56Z</time>
      </trkpt>
      <trkpt lat="50.09628" lon="5.04784">
        <ele>204.3</ele>
        <time>2022-04-21T12:14:57Z</time>
      </trkpt>
      <trkpt lat="50.09627" lon="5.04783">
        <ele>204.3</ele>
        <time>2022-04-21T12:14:58Z</time>
      </trkpt>
      <trkpt lat="50.09626" lon="5.04781">
        <ele>204.3</ele>
        <time>2022-04-21T12:14:59Z</time>
      </trkpt>
      <trkpt lat="50.09625" lon="5.04779">
        <ele>204.2</ele>
        <time>2022-04-21T12:15:01Z</time>
      </trkpt>
      <trkpt lat="50.09625" lon="5.04779">
        <ele>204.2</ele>
        <time>2022-04-21T12:15:02Z</time>
      </trkpt>
      <trkpt lat="50.09624" lon="5.04778">
        <ele>204.1</ele>
        <time>2022-04-21T12:15:03Z</time>
      </trkpt>
      <trkpt lat="50.09623" lon="5.04776">
        <ele>204.1</ele>
        <time>2022-04-21T12:15:04Z</time>
      </trkpt>
      <trkpt lat="50.09622" lon="5.04775">
        <ele>204</ele>
        <time>2022-04-21T12:15:05Z</time>
      </trkpt>
      <trkpt lat="50.0962" lon="5.04774">
        <ele>203.9</ele>
        <time>2022-04-21T12:15:06Z</time>
      </trkpt>
      <trkpt lat="50.09619" lon="5.04773">
        <ele>203.9</ele>
        <time>2022-04-21T12:15:07Z</time>
      </trkpt>
      <trkpt lat="50.09617" lon="5.04772">
        <ele>203.8</ele>
        <time>2022-04-21T12:15:08Z</time>
      </trkpt>
      <trkpt lat="50.09614" lon="5.0477">
        <ele>203.7</ele>
        <time>2022-04-21T12:15:10Z</time>
      </trkpt>
      <trkpt lat="50.09614" lon="5.04769">
        <ele>203.6</ele>
        <time>2022-04-21T12:15:11Z</time>
      </trkpt>
      <trkpt lat="50.09612" lon="5.04768">
        <ele>203.5</ele>
        <time>2022-04-21T12:15:12Z</time>
      </trkpt>
      <trkpt lat="50.09611" lon="5.04767">
        <ele>203.5</ele>
        <time>2022-04-21T12:15:13Z</time>
      </trkpt>
      <trkpt lat="50.0961" lon="5.04767">
        <ele>203.4</ele>
        <time>2022-04-21T12:15:14Z</time>
      </trkpt>
      <trkpt lat="50.09608" lon="5.04766">
        <ele>203.3</ele>
        <time>2022-04-21T12:15:15Z</time>
      </trkpt>
      <trkpt lat="50.09607" lon="5.04766">
        <ele>203.3</ele>
        <time>2022-04-21T12:15:16Z</time>
      </trkpt>
      <trkpt lat="50.09607" lon="5.04765">
        <ele>203.3</ele>
        <time>2022-04-21T12:15:17Z</time>
      </trkpt>
      <trkpt lat="50.09605" lon="5.04766">
        <ele>203.2</ele>
        <time>2022-04-21T12:15:18Z</time>
      </trkpt>
      <trkpt lat="50.09605" lon="5.04766">
        <ele>203.1</ele>
        <time>2022-04-21T12:15:19Z</time>
      </trkpt>
      <trkpt lat="50.09604" lon="5.04766">
        <ele>203.1</ele>
        <time>2022-04-21T12:15:20Z</time>
      </trkpt>
      <trkpt lat="50.09603" lon="5.04765">
        <ele>203</ele>
        <time>2022-04-21T12:15:21Z</time>
      </trkpt>
      <trkpt lat="50.09602" lon="5.04764">
        <ele>203</ele>
        <time>2022-04-21T12:15:22Z</time>
      </trkpt>
      <trkpt lat="50.096" lon="5.04763">
        <ele>202.9</ele>
        <time>2022-04-21T12:15:24Z</time>
      </trkpt>
      <trkpt lat="50.09599" lon="5.04762">
        <ele>202.8</ele>
        <time>2022-04-21T12:15:25Z</time>
      </trkpt>
      <trkpt lat="50.09598" lon="5.04762">
        <ele>202.7</ele>
        <time>2022-04-21T12:15:26Z</time>
      </trkpt>
      <trkpt lat="50.09597" lon="5.04761">
        <ele>202.7</ele>
        <time>2022-04-21T12:15:27Z</time>
      </trkpt>
      <trkpt lat="50.09596" lon="5.04761">
        <ele>202.6</ele>
        <time>2022-04-21T12:15:28Z</time>
      </trkpt>
      <trkpt lat="50.09595" lon="5.04761">
        <ele>202.6</ele>
        <time>2022-04-21T12:15:29Z</time>
      </trkpt>
      <trkpt lat="50.09594" lon="5.04761">
        <ele>202.5</ele>
        <time>2022-04-21T12:15:30Z</time>
      </trkpt>
      <trkpt lat="50.09593" lon="5.0476">
        <ele>202.5</ele>
        <time>2022-04-21T12:15:31Z</time>
      </trkpt>
      <trkpt lat="50.09592" lon="5.04759">
        <ele>202.4</ele>
        <time>2022-04-21T12:15:32Z</time>
      </trkpt>
      <trkpt lat="50.09592" lon="5.04758">
        <ele>202.4</ele>
        <time>2022-04-21T12:15:33Z</time>
      </trkpt>
      <trkpt lat="50.09591" lon="5.04757">
        <ele>202.3</ele>
        <time>2022-04-21T12:15:34Z</time>
      </trkpt>
      <trkpt lat="50.0959" lon="5.04756">
        <ele>202.2</ele>
        <time>2022-04-21T12:15:35Z</time>
      </trkpt>
      <trkpt lat="50.09589" lon="5.04756">
        <ele>202.2</ele>
        <time>2022-04-21T12:15:36Z</time>
      </trkpt>
      <trkpt lat="50.09588" lon="5.04754">
        <ele>202.1</ele>
        <time>2022-04-21T12:15:37Z</time>
      </trkpt>
      <trkpt lat="50.09587" lon="5.04753">
        <ele>202</ele>
        <time>2022-04-21T12:15:38Z</time>
      </trkpt>
      <trkpt lat="50.09587" lon="5.04751">
        <ele>202</ele>
        <time>2022-04-21T12:15:39Z</time>
      </trkpt>
      <trkpt lat="50.09585" lon="5.04749">
        <ele>201.9</ele>
        <time>2022-04-21T12:15:40Z</time>
      </trkpt>
      <trkpt lat="50.09584" lon="5.04748">
        <ele>201.8</ele>
        <time>2022-04-21T12:15:41Z</time>
      </trkpt>
      <trkpt lat="50.09584" lon="5.04747">
        <ele>201.7</ele>
        <time>2022-04-21T12:15:42Z</time>
      </trkpt>
      <trkpt lat="50.09582" lon="5.04745">
        <ele>201.6</ele>
        <time>2022-04-21T12:15:43Z</time>
      </trkpt>
      <trkpt lat="50.09581" lon="5.04743">
        <ele>201.6</ele>
        <time>2022-04-21T12:15:44Z</time>
      </trkpt>
      <trkpt lat="50.09578" lon="5.04739">
        <ele>201.5</ele>
        <time>2022-04-21T12:15:46Z</time>
      </trkpt>
      <trkpt lat="50.09577" lon="5.04737">
        <ele>201.5</ele>
        <time>2022-04-21T12:15:47Z</time>
      </trkpt>
      <trkpt lat="50.09575" lon="5.04734">
        <ele>201.4</ele>
        <time>2022-04-21T12:15:49Z</time>
      </trkpt>
      <trkpt lat="50.09573" lon="5.04729">
        <ele>201.4</ele>
        <time>2022-04-21T12:15:50Z</time>
      </trkpt>
      <trkpt lat="50.09573" lon="5.04728">
        <ele>201.4</ele>
        <time>2022-04-21T12:15:51Z</time>
      </trkpt>
      <trkpt lat="50.09571" lon="5.04723">
        <ele>201.2</ele>
        <time>2022-04-21T12:15:52Z</time>
      </trkpt>
      <trkpt lat="50.0957" lon="5.04722">
        <ele>201.2</ele>
        <time>2022-04-21T12:15:53Z</time>
      </trkpt>
      <trkpt lat="50.09568" lon="5.04719">
        <ele>201</ele>
        <time>2022-04-21T12:15:54Z</time>
      </trkpt>
      <trkpt lat="50.09567" lon="5.04718">
        <ele>201</ele>
        <time>2022-04-21T12:15:55Z</time>
      </trkpt>
      <trkpt lat="50.09565" lon="5.04715">
        <ele>200.9</ele>
        <time>2022-04-21T12:15:56Z</time>
      </trkpt>
      <trkpt lat="50.09564" lon="5.04714">
        <ele>200.8</ele>
        <time>2022-04-21T12:15:57Z</time>
      </trkpt>
      <trkpt lat="50.09562" lon="5.04711">
        <ele>200.7</ele>
        <time>2022-04-21T12:15:58Z</time>
      </trkpt>
      <trkpt lat="50.09561" lon="5.04711">
        <ele>200.7</ele>
        <time>2022-04-21T12:15:59Z</time>
      </trkpt>
      <trkpt lat="50.09559" lon="5.04708">
        <ele>200.5</ele>
        <time>2022-04-21T12:16:00Z</time>
      </trkpt>
      <trkpt lat="50.09558" lon="5.04707">
        <ele>200.5</ele>
        <time>2022-04-21T12:16:01Z</time>
      </trkpt>
      <trkpt lat="50.09558" lon="5.04704">
        <ele>200.4</ele>
        <time>2022-04-21T12:16:02Z</time>
      </trkpt>
      <trkpt lat="50.09558" lon="5.04701">
        <ele>200.3</ele>
        <time>2022-04-21T12:16:03Z</time>
      </trkpt>
      <trkpt lat="50.09558" lon="5.04699">
        <ele>200.2</ele>
        <time>2022-04-21T12:16:04Z</time>
      </trkpt>
      <trkpt lat="50.09556" lon="5.04697">
        <ele>200.1</ele>
        <time>2022-04-21T12:16:05Z</time>
      </trkpt>
      <trkpt lat="50.09556" lon="5.04695">
        <ele>200.1</ele>
        <time>2022-04-21T12:16:06Z</time>
      </trkpt>
      <trkpt lat="50.09555" lon="5.04693">
        <ele>200</ele>
        <time>2022-04-21T12:16:07Z</time>
      </trkpt>
      <trkpt lat="50.09553" lon="5.04692">
        <ele>199.9</ele>
        <time>2022-04-21T12:16:09Z</time>
      </trkpt>
      <trkpt lat="50.09552" lon="5.04691">
        <ele>199.9</ele>
        <time>2022-04-21T12:16:10Z</time>
      </trkpt>
      <trkpt lat="50.09551" lon="5.04689">
        <ele>199.8</ele>
        <time>2022-04-21T12:16:11Z</time>
      </trkpt>
      <trkpt lat="50.0955" lon="5.04688">
        <ele>199.7</ele>
        <time>2022-04-21T12:16:12Z</time>
      </trkpt>
      <trkpt lat="50.09549" lon="5.04688">
        <ele>199.7</ele>
        <time>2022-04-21T12:16:13Z</time>
      </trkpt>
      <trkpt lat="50.09548" lon="5.04687">
        <ele>199.6</ele>
        <time>2022-04-21T12:16:14Z</time>
      </trkpt>
      <trkpt lat="50.09547" lon="5.04686">
        <ele>199.6</ele>
        <time>2022-04-21T12:16:15Z</time>
      </trkpt>
      <trkpt lat="50.09546" lon="5.04686">
        <ele>199.5</ele>
        <time>2022-04-21T12:16:16Z</time>
      </trkpt>
      <trkpt lat="50.09544" lon="5.04684">
        <ele>199.4</ele>
        <time>2022-04-21T12:16:18Z</time>
      </trkpt>
      <trkpt lat="50.09543" lon="5.04682">
        <ele>199.3</ele>
        <time>2022-04-21T12:16:19Z</time>
      </trkpt>
      <trkpt lat="50.09542" lon="5.04679">
        <ele>199.2</ele>
        <time>2022-04-21T12:16:20Z</time>
      </trkpt>
      <trkpt lat="50.0954" lon="5.04675">
        <ele>199</ele>
        <time>2022-04-21T12:16:22Z</time>
      </trkpt>
      <trkpt lat="50.09539" lon="5.04673">
        <ele>199</ele>
        <time>2022-04-21T12:16:23Z</time>
      </trkpt>
      <trkpt lat="50.09539" lon="5.04672">
        <ele>198.9</ele>
        <time>2022-04-21T12:16:24Z</time>
      </trkpt>
      <trkpt lat="50.09538" lon="5.04671">
        <ele>198.9</ele>
        <time>2022-04-21T12:16:25Z</time>
      </trkpt>
      <trkpt lat="50.09537" lon="5.04669">
        <ele>198.8</ele>
        <time>2022-04-21T12:16:26Z</time>
      </trkpt>
      <trkpt lat="50.09538" lon="5.04669">
        <ele>198.8</ele>
        <time>2022-04-21T12:16:27Z</time>
      </trkpt>
      <trkpt lat="50.09538" lon="5.04669">
        <ele>198.8</ele>
        <time>2022-04-21T12:16:28Z</time>
      </trkpt>
      <trkpt lat="50.09538" lon="5.04669">
        <ele>198.8</ele>
        <time>2022-04-21T12:16:29Z</time>
      </trkpt>
      <trkpt lat="50.09538" lon="5.0467">
        <ele>198.7</ele>
        <time>2022-04-21T12:16:30Z</time>
      </trkpt>
      <trkpt lat="50.09536" lon="5.04669">
        <ele>198.7</ele>
        <time>2022-04-21T12:16:32Z</time>
      </trkpt>
      <trkpt lat="50.09535" lon="5.0467">
        <ele>198.6</ele>
        <time>2022-04-21T12:16:33Z</time>
      </trkpt>
      <trkpt lat="50.09532" lon="5.04672">
        <ele>198.5</ele>
        <time>2022-04-21T12:16:35Z</time>
      </trkpt>
      <trkpt lat="50.09532" lon="5.04673">
        <ele>198.4</ele>
        <time>2022-04-21T12:16:36Z</time>
      </trkpt>
      <trkpt lat="50.0953" lon="5.04675">
        <ele>198.3</ele>
        <time>2022-04-21T12:16:37Z</time>
      </trkpt>
      <trkpt lat="50.0953" lon="5.04676">
        <ele>198.3</ele>
        <time>2022-04-21T12:16:39Z</time>
      </trkpt>
      <trkpt lat="50.09529" lon="5.04677">
        <ele>198.2</ele>
        <time>2022-04-21T12:16:40Z</time>
      </trkpt>
      <trkpt lat="50.09528" lon="5.04677">
        <ele>198.2</ele>
        <time>2022-04-21T12:16:41Z</time>
      </trkpt>
      <trkpt lat="50.09526" lon="5.04677">
        <ele>198.1</ele>
        <time>2022-04-21T12:16:42Z</time>
      </trkpt>
      <trkpt lat="50.09525" lon="5.04677">
        <ele>198.1</ele>
        <time>2022-04-21T12:16:43Z</time>
      </trkpt>
      <trkpt lat="50.09524" lon="5.04674">
        <ele>198</ele>
        <time>2022-04-21T12:16:44Z</time>
      </trkpt>
      <trkpt lat="50.09523" lon="5.04673">
        <ele>197.9</ele>
        <time>2022-04-21T12:16:45Z</time>
      </trkpt>
      <trkpt lat="50.09521" lon="5.04669">
        <ele>197.8</ele>
        <time>2022-04-21T12:16:46Z</time>
      </trkpt>
      <trkpt lat="50.09521" lon="5.04668">
        <ele>197.8</ele>
        <time>2022-04-21T12:16:47Z</time>
      </trkpt>
      <trkpt lat="50.09518" lon="5.04665">
        <ele>197.7</ele>
        <time>2022-04-21T12:16:48Z</time>
      </trkpt>
      <trkpt lat="50.09517" lon="5.04664">
        <ele>197.6</ele>
        <time>2022-04-21T12:16:49Z</time>
      </trkpt>
      <trkpt lat="50.09514" lon="5.04661">
        <ele>197.5</ele>
        <time>2022-04-21T12:16:50Z</time>
      </trkpt>
      <trkpt lat="50.09513" lon="5.04661">
        <ele>197.4</ele>
        <time>2022-04-21T12:16:51Z</time>
      </trkpt>
      <trkpt lat="50.0951" lon="5.0466">
        <ele>197.3</ele>
        <time>2022-04-21T12:16:52Z</time>
      </trkpt>
      <trkpt lat="50.09509" lon="5.0466">
        <ele>197.3</ele>
        <time>2022-04-21T12:16:53Z</time>
      </trkpt>
      <trkpt lat="50.09507" lon="5.04661">
        <ele>197.3</ele>
        <time>2022-04-21T12:16:54Z</time>
      </trkpt>
      <trkpt lat="50.09506" lon="5.0466">
        <ele>197.2</ele>
        <time>2022-04-21T12:16:55Z</time>
      </trkpt>
      <trkpt lat="50.09505" lon="5.04659">
        <ele>197.2</ele>
        <time>2022-04-21T12:16:56Z</time>
      </trkpt>
      <trkpt lat="50.09503" lon="5.04658">
        <ele>197.1</ele>
        <time>2022-04-21T12:16:58Z</time>
      </trkpt>
      <trkpt lat="50.09502" lon="5.04657">
        <ele>197.1</ele>
        <time>2022-04-21T12:16:59Z</time>
      </trkpt>
      <trkpt lat="50.09502" lon="5.04656">
        <ele>197.1</ele>
        <time>2022-04-21T12:17:00Z</time>
      </trkpt>
      <trkpt lat="50.09501" lon="5.04654">
        <ele>197</ele>
        <time>2022-04-21T12:17:01Z</time>
      </trkpt>
      <trkpt lat="50.09501" lon="5.04653">
        <ele>197</ele>
        <time>2022-04-21T12:17:02Z</time>
      </trkpt>
      <trkpt lat="50.09501" lon="5.04652">
        <ele>197</ele>
        <time>2022-04-21T12:17:03Z</time>
      </trkpt>
      <trkpt lat="50.09501" lon="5.04652">
        <ele>197</ele>
        <time>2022-04-21T12:17:04Z</time>
      </trkpt>
      <trkpt lat="50.095" lon="5.04651">
        <ele>197</ele>
        <time>2022-04-21T12:17:05Z</time>
      </trkpt>
      <trkpt lat="50.095" lon="5.04651">
        <ele>197</ele>
        <time>2022-04-21T12:17:06Z</time>
      </trkpt>
      <trkpt lat="50.095" lon="5.04652">
        <ele>197</ele>
        <time>2022-04-21T12:17:07Z</time>
      </trkpt>
      <trkpt lat="50.09499" lon="5.04652">
        <ele>196.9</ele>
        <time>2022-04-21T12:17:08Z</time>
      </trkpt>
      <trkpt lat="50.09497" lon="5.04651">
        <ele>196.9</ele>
        <time>2022-04-21T12:17:09Z</time>
      </trkpt>
      <trkpt lat="50.09497" lon="5.0465">
        <ele>196.9</ele>
        <time>2022-04-21T12:17:10Z</time>
      </trkpt>
      <trkpt lat="50.09496" lon="5.0465">
        <ele>196.9</ele>
        <time>2022-04-21T12:17:11Z</time>
      </trkpt>
      <trkpt lat="50.09495" lon="5.04649">
        <ele>196.8</ele>
        <time>2022-04-21T12:17:12Z</time>
      </trkpt>
      <trkpt lat="50.09492" lon="5.04649">
        <ele>196.8</ele>
        <time>2022-04-21T12:17:13Z</time>
      </trkpt>
      <trkpt lat="50.09488" lon="5.04648">
        <ele>196.7</ele>
        <time>2022-04-21T12:17:14Z</time>
      </trkpt>
      <trkpt lat="50.09487" lon="5.04648">
        <ele>196.7</ele>
        <time>2022-04-21T12:17:15Z</time>
      </trkpt>
      <trkpt lat="50.09484" lon="5.04645">
        <ele>196.6</ele>
        <time>2022-04-21T12:17:16Z</time>
      </trkpt>
      <trkpt lat="50.09483" lon="5.04644">
        <ele>196.6</ele>
        <time>2022-04-21T12:17:17Z</time>
      </trkpt>
      <trkpt lat="50.09481" lon="5.04642">
        <ele>196.5</ele>
        <time>2022-04-21T12:17:18Z</time>
      </trkpt>
      <trkpt lat="50.0948" lon="5.04642">
        <ele>196.5</ele>
        <time>2022-04-21T12:17:19Z</time>
      </trkpt>
      <trkpt lat="50.09479" lon="5.04642">
        <ele>196.5</ele>
        <time>2022-04-21T12:17:20Z</time>
      </trkpt>
      <trkpt lat="50.09477" lon="5.04642">
        <ele>196.4</ele>
        <time>2022-04-21T12:17:21Z</time>
      </trkpt>
      <trkpt lat="50.09476" lon="5.04642">
        <ele>196.4</ele>
        <time>2022-04-21T12:17:22Z</time>
      </trkpt>
      <trkpt lat="50.09475" lon="5.04643">
        <ele>196.4</ele>
        <time>2022-04-21T12:17:23Z</time>
      </trkpt>
      <trkpt lat="50.09474" lon="5.04642">
        <ele>196.4</ele>
        <time>2022-04-21T12:17:24Z</time>
      </trkpt>
      <trkpt lat="50.09473" lon="5.04642">
        <ele>196.4</ele>
        <time>2022-04-21T12:17:25Z</time>
      </trkpt>
      <trkpt lat="50.09471" lon="5.04642">
        <ele>196.3</ele>
        <time>2022-04-21T12:17:26Z</time>
      </trkpt>
      <trkpt lat="50.09469" lon="5.04641">
        <ele>196.3</ele>
        <time>2022-04-21T12:17:27Z</time>
      </trkpt>
      <trkpt lat="50.09468" lon="5.0464">
        <ele>196.3</ele>
        <time>2022-04-21T12:17:28Z</time>
      </trkpt>
      <trkpt lat="50.09465" lon="5.04638">
        <ele>196.2</ele>
        <time>2022-04-21T12:17:30Z</time>
      </trkpt>
      <trkpt lat="50.09464" lon="5.04635">
        <ele>196.2</ele>
        <time>2022-04-21T12:17:31Z</time>
      </trkpt>
      <trkpt lat="50.09463" lon="5.04634">
        <ele>196.2</ele>
        <time>2022-04-21T12:17:32Z</time>
      </trkpt>
      <trkpt lat="50.0946" lon="5.04632">
        <ele>196.2</ele>
        <time>2022-04-21T12:17:33Z</time>
      </trkpt>
      <trkpt lat="50.09459" lon="5.04632">
        <ele>196.2</ele>
        <time>2022-04-21T12:17:34Z</time>
      </trkpt>
      <trkpt lat="50.09458" lon="5.04633">
        <ele>196.1</ele>
        <time>2022-04-21T12:17:35Z</time>
      </trkpt>
      <trkpt lat="50.09457" lon="5.04633">
        <ele>196.1</ele>
        <time>2022-04-21T12:17:36Z</time>
      </trkpt>
      <trkpt lat="50.09457" lon="5.04631">
        <ele>196.1</ele>
        <time>2022-04-21T12:17:37Z</time>
      </trkpt>
      <trkpt lat="50.09456" lon="5.0463">
        <ele>196.1</ele>
        <time>2022-04-21T12:17:38Z</time>
      </trkpt>
      <trkpt lat="50.09455" lon="5.04629">
        <ele>196.1</ele>
        <time>2022-04-21T12:17:39Z</time>
      </trkpt>
      <trkpt lat="50.09454" lon="5.04629">
        <ele>196.1</ele>
        <time>2022-04-21T12:17:40Z</time>
      </trkpt>
      <trkpt lat="50.09452" lon="5.04628">
        <ele>196.1</ele>
        <time>2022-04-21T12:17:41Z</time>
      </trkpt>
      <trkpt lat="50.09451" lon="5.04628">
        <ele>196.1</ele>
        <time>2022-04-21T12:17:42Z</time>
      </trkpt>
      <trkpt lat="50.09448" lon="5.04628">
        <ele>196.1</ele>
        <time>2022-04-21T12:17:43Z</time>
      </trkpt>
      <trkpt lat="50.09447" lon="5.04627">
        <ele>196.1</ele>
        <time>2022-04-21T12:17:44Z</time>
      </trkpt>
      <trkpt lat="50.09446" lon="5.04627">
        <ele>196.1</ele>
        <time>2022-04-21T12:17:45Z</time>
      </trkpt>
      <trkpt lat="50.09445" lon="5.04627">
        <ele>196.1</ele>
        <time>2022-04-21T12:17:46Z</time>
      </trkpt>
      <trkpt lat="50.09443" lon="5.04626">
        <ele>196.1</ele>
        <time>2022-04-21T12:17:47Z</time>
      </trkpt>
      <trkpt lat="50.09442" lon="5.04625">
        <ele>196.1</ele>
        <time>2022-04-21T12:17:48Z</time>
      </trkpt>
      <trkpt lat="50.09439" lon="5.04622">
        <ele>196.1</ele>
        <time>2022-04-21T12:17:50Z</time>
      </trkpt>
      <trkpt lat="50.09438" lon="5.04621">
        <ele>196.1</ele>
        <time>2022-04-21T12:17:51Z</time>
      </trkpt>
      <trkpt lat="50.09437" lon="5.04619">
        <ele>196.1</ele>
        <time>2022-04-21T12:17:52Z</time>
      </trkpt>
      <trkpt lat="50.09434" lon="5.04619">
        <ele>196.1</ele>
        <time>2022-04-21T12:17:53Z</time>
      </trkpt>
      <trkpt lat="50.09433" lon="5.04619">
        <ele>196.1</ele>
        <time>2022-04-21T12:17:54Z</time>
      </trkpt>
      <trkpt lat="50.09431" lon="5.04619">
        <ele>196.1</ele>
        <time>2022-04-21T12:17:55Z</time>
      </trkpt>
      <trkpt lat="50.0943" lon="5.0462">
        <ele>196.1</ele>
        <time>2022-04-21T12:17:56Z</time>
      </trkpt>
      <trkpt lat="50.09429" lon="5.0462">
        <ele>196.1</ele>
        <time>2022-04-21T12:17:57Z</time>
      </trkpt>
      <trkpt lat="50.09428" lon="5.04616">
        <ele>196.1</ele>
        <time>2022-04-21T12:17:59Z</time>
      </trkpt>
      <trkpt lat="50.09428" lon="5.04615">
        <ele>196.1</ele>
        <time>2022-04-21T12:18:00Z</time>
      </trkpt>
      <trkpt lat="50.09427" lon="5.04612">
        <ele>196.1</ele>
        <time>2022-04-21T12:18:01Z</time>
      </trkpt>
      <trkpt lat="50.09427" lon="5.0461">
        <ele>196.1</ele>
        <time>2022-04-21T12:18:02Z</time>
      </trkpt>
      <trkpt lat="50.09427" lon="5.04607">
        <ele>196.1</ele>
        <time>2022-04-21T12:18:03Z</time>
      </trkpt>
      <trkpt lat="50.09427" lon="5.04605">
        <ele>196.1</ele>
        <time>2022-04-21T12:18:04Z</time>
      </trkpt>
      <trkpt lat="50.09425" lon="5.04603">
        <ele>196.1</ele>
        <time>2022-04-21T12:18:05Z</time>
      </trkpt>
      <trkpt lat="50.09424" lon="5.04603">
        <ele>196.1</ele>
        <time>2022-04-21T12:18:06Z</time>
      </trkpt>
      <trkpt lat="50.09424" lon="5.04602">
        <ele>196.1</ele>
        <time>2022-04-21T12:18:07Z</time>
      </trkpt>
      <trkpt lat="50.09422" lon="5.04601">
        <ele>196.1</ele>
        <time>2022-04-21T12:18:08Z</time>
      </trkpt>
      <trkpt lat="50.09421" lon="5.04599">
        <ele>196.2</ele>
        <time>2022-04-21T12:18:09Z</time>
      </trkpt>
      <trkpt lat="50.09419" lon="5.04598">
        <ele>196.2</ele>
        <time>2022-04-21T12:18:10Z</time>
      </trkpt>
      <trkpt lat="50.09418" lon="5.04596">
        <ele>196.2</ele>
        <time>2022-04-21T12:18:11Z</time>
      </trkpt>
      <trkpt lat="50.09417" lon="5.04594">
        <ele>196.2</ele>
        <time>2022-04-21T12:18:12Z</time>
      </trkpt>
      <trkpt lat="50.09416" lon="5.04593">
        <ele>196.2</ele>
        <time>2022-04-21T12:18:13Z</time>
      </trkpt>
      <trkpt lat="50.09415" lon="5.04592">
        <ele>196.2</ele>
        <time>2022-04-21T12:18:14Z</time>
      </trkpt>
      <trkpt lat="50.09414" lon="5.0459">
        <ele>196.2</ele>
        <time>2022-04-21T12:18:16Z</time>
      </trkpt>
      <trkpt lat="50.09413" lon="5.04588">
        <ele>196.2</ele>
        <time>2022-04-21T12:18:17Z</time>
      </trkpt>
      <trkpt lat="50.09412" lon="5.04586">
        <ele>196.2</ele>
        <time>2022-04-21T12:18:18Z</time>
      </trkpt>
      <trkpt lat="50.0941" lon="5.04585">
        <ele>196.2</ele>
        <time>2022-04-21T12:18:19Z</time>
      </trkpt>
      <trkpt lat="50.09409" lon="5.04585">
        <ele>196.2</ele>
        <time>2022-04-21T12:18:20Z</time>
      </trkpt>
      <trkpt lat="50.09407" lon="5.04583">
        <ele>196.3</ele>
        <time>2022-04-21T12:18:21Z</time>
      </trkpt>
      <trkpt lat="50.09406" lon="5.04583">
        <ele>196.3</ele>
        <time>2022-04-21T12:18:22Z</time>
      </trkpt>
      <trkpt lat="50.09406" lon="5.04582">
        <ele>196.3</ele>
        <time>2022-04-21T12:18:23Z</time>
      </trkpt>
      <trkpt lat="50.09404" lon="5.04581">
        <ele>196.3</ele>
        <time>2022-04-21T12:18:24Z</time>
      </trkpt>
      <trkpt lat="50.09403" lon="5.04579">
        <ele>196.4</ele>
        <time>2022-04-21T12:18:25Z</time>
      </trkpt>
      <trkpt lat="50.09401" lon="5.04578">
        <ele>196.4</ele>
        <time>2022-04-21T12:18:26Z</time>
      </trkpt>
      <trkpt lat="50.094" lon="5.04578">
        <ele>196.4</ele>
        <time>2022-04-21T12:18:27Z</time>
      </trkpt>
      <trkpt lat="50.09398" lon="5.04577">
        <ele>196.4</ele>
        <time>2022-04-21T12:18:28Z</time>
      </trkpt>
      <trkpt lat="50.09397" lon="5.04577">
        <ele>196.5</ele>
        <time>2022-04-21T12:18:29Z</time>
      </trkpt>
      <trkpt lat="50.09395" lon="5.04577">
        <ele>196.5</ele>
        <time>2022-04-21T12:18:30Z</time>
      </trkpt>
      <trkpt lat="50.09394" lon="5.04577">
        <ele>196.5</ele>
        <time>2022-04-21T12:18:32Z</time>
      </trkpt>
      <trkpt lat="50.09393" lon="5.04576">
        <ele>196.5</ele>
        <time>2022-04-21T12:18:33Z</time>
      </trkpt>
      <trkpt lat="50.09392" lon="5.04576">
        <ele>196.5</ele>
        <time>2022-04-21T12:18:34Z</time>
      </trkpt>
      <trkpt lat="50.09391" lon="5.04577">
        <ele>196.6</ele>
        <time>2022-04-21T12:18:35Z</time>
      </trkpt>
      <trkpt lat="50.0939" lon="5.04578">
        <ele>196.6</ele>
        <time>2022-04-21T12:18:36Z</time>
      </trkpt>
      <trkpt lat="50.09389" lon="5.04579">
        <ele>196.6</ele>
        <time>2022-04-21T12:18:38Z</time>
      </trkpt>
      <trkpt lat="50.09388" lon="5.04578">
        <ele>196.6</ele>
        <time>2022-04-21T12:18:39Z</time>
      </trkpt>
      <trkpt lat="50.09387" lon="5.04578">
        <ele>196.6</ele>
        <time>2022-04-21T12:18:40Z</time>
      </trkpt>
      <trkpt lat="50.09387" lon="5.04578">
        <ele>196.6</ele>
        <time>2022-04-21T12:18:41Z</time>
      </trkpt>
      <trkpt lat="50.09387" lon="5.04578">
        <ele>196.6</ele>
        <time>2022-04-21T12:18:42Z</time>
      </trkpt>
      <trkpt lat="50.09387" lon="5.04578">
        <ele>196.6</ele>
        <time>2022-04-21T12:18:43Z</time>
      </trkpt>
      <trkpt lat="50.09387" lon="5.04578">
        <ele>196.6</ele>
        <time>2022-04-21T12:18:44Z</time>
      </trkpt>
      <trkpt lat="50.09388" lon="5.04578">
        <ele>196.6</ele>
        <time>2022-04-21T12:18:45Z</time>
      </trkpt>
      <trkpt lat="50.09388" lon="5.04578">
        <ele>196.6</ele>
        <time>2022-04-21T12:18:46Z</time>
      </trkpt>
      <trkpt lat="50.09389" lon="5.04578">
        <ele>196.6</ele>
        <time>2022-04-21T12:18:47Z</time>
      </trkpt>
      <trkpt lat="50.09389" lon="5.04578">
        <ele>196.6</ele>
        <time>2022-04-21T12:18:48Z</time>
      </trkpt>
      <trkpt lat="50.09389" lon="5.04577">
        <ele>196.6</ele>
        <time>2022-04-21T12:18:49Z</time>
      </trkpt>
      <trkpt lat="50.09391" lon="5.04575">
        <ele>196.6</ele>
        <time>2022-04-21T12:18:51Z</time>
      </trkpt>
      <trkpt lat="50.09392" lon="5.04574">
        <ele>196.6</ele>
        <time>2022-04-21T12:18:52Z</time>
      </trkpt>
      <trkpt lat="50.09393" lon="5.04574">
        <ele>196.6</ele>
        <time>2022-04-21T12:18:53Z</time>
      </trkpt>
      <trkpt lat="50.09394" lon="5.04574">
        <ele>196.6</ele>
        <time>2022-04-21T12:18:54Z</time>
      </trkpt>
      <trkpt lat="50.09395" lon="5.04579">
        <ele>196.7</ele>
        <time>2022-04-21T12:18:55Z</time>
      </trkpt>
      <trkpt lat="50.09397" lon="5.04586">
        <ele>196.7</ele>
        <time>2022-04-21T12:18:56Z</time>
      </trkpt>
      <trkpt lat="50.09397" lon="5.04589">
        <ele>196.7</ele>
        <time>2022-04-21T12:18:57Z</time>
      </trkpt>
      <trkpt lat="50.09396" lon="5.0459">
        <ele>196.7</ele>
        <time>2022-04-21T12:18:58Z</time>
      </trkpt>
      <trkpt lat="50.09392" lon="5.04592">
        <ele>196.7</ele>
        <time>2022-04-21T12:18:59Z</time>
      </trkpt>
      <trkpt lat="50.09391" lon="5.04592">
        <ele>196.7</ele>
        <time>2022-04-21T12:19:00Z</time>
      </trkpt>
      <trkpt lat="50.09389" lon="5.04593">
        <ele>196.8</ele>
        <time>2022-04-21T12:19:01Z</time>
      </trkpt>
      <trkpt lat="50.09386" lon="5.04593">
        <ele>196.8</ele>
        <time>2022-04-21T12:19:02Z</time>
      </trkpt>
      <trkpt lat="50.09385" lon="5.04593">
        <ele>196.8</ele>
        <time>2022-04-21T12:19:03Z</time>
      </trkpt>
      <trkpt lat="50.09383" lon="5.04592">
        <ele>196.8</ele>
        <time>2022-04-21T12:19:04Z</time>
      </trkpt>
      <trkpt lat="50.0938" lon="5.04589">
        <ele>196.8</ele>
        <time>2022-04-21T12:19:06Z</time>
      </trkpt>
      <trkpt lat="50.09378" lon="5.04583">
        <ele>196.8</ele>
        <time>2022-04-21T12:19:08Z</time>
      </trkpt>
      <trkpt lat="50.09377" lon="5.04582">
        <ele>196.8</ele>
        <time>2022-04-21T12:19:09Z</time>
      </trkpt>
      <trkpt lat="50.09376" lon="5.0458">
        <ele>196.8</ele>
        <time>2022-04-21T12:19:10Z</time>
      </trkpt>
      <trkpt lat="50.09375" lon="5.04578">
        <ele>196.8</ele>
        <time>2022-04-21T12:19:11Z</time>
      </trkpt>
      <trkpt lat="50.09374" lon="5.04577">
        <ele>196.8</ele>
        <time>2022-04-21T12:19:12Z</time>
      </trkpt>
      <trkpt lat="50.09374" lon="5.04577">
        <ele>196.8</ele>
        <time>2022-04-21T12:19:13Z</time>
      </trkpt>
      <trkpt lat="50.09374" lon="5.04578">
        <ele>196.8</ele>
        <time>2022-04-21T12:19:14Z</time>
      </trkpt>
      <trkpt lat="50.09374" lon="5.0458">
        <ele>196.8</ele>
        <time>2022-04-21T12:19:15Z</time>
      </trkpt>
      <trkpt lat="50.09374" lon="5.04581">
        <ele>196.8</ele>
        <time>2022-04-21T12:19:16Z</time>
      </trkpt>
      <trkpt lat="50.09374" lon="5.04582">
        <ele>196.8</ele>
        <time>2022-04-21T12:19:17Z</time>
      </trkpt>
      <trkpt lat="50.09374" lon="5.04582">
        <ele>196.8</ele>
        <time>2022-04-21T12:19:18Z</time>
      </trkpt>
      <trkpt lat="50.09374" lon="5.04583">
        <ele>196.8</ele>
        <time>2022-04-21T12:19:20Z</time>
      </trkpt>
      <trkpt lat="50.09374" lon="5.04583">
        <ele>196.8</ele>
        <time>2022-04-21T12:19:21Z</time>
      </trkpt>
      <trkpt lat="50.09374" lon="5.04583">
        <ele>196.8</ele>
        <time>2022-04-21T12:19:22Z</time>
      </trkpt>
      <trkpt lat="50.09374" lon="5.04583">
        <ele>196.8</ele>
        <time>2022-04-21T12:19:24Z</time>
      </trkpt>
      <trkpt lat="50.09374" lon="5.04583">
        <ele>196.8</ele>
        <time>2022-04-21T12:19:25Z</time>
      </trkpt>
      <trkpt lat="50.09374" lon="5.04583">
        <ele>196.8</ele>
        <time>2022-04-21T12:19:26Z</time>
      </trkpt>
      <trkpt lat="50.09374" lon="5.04583">
        <ele>196.8</ele>
        <time>2022-04-21T12:19:27Z</time>
      </trkpt>
      <trkpt lat="50.09374" lon="5.04583">
        <ele>196.8</ele>
        <time>2022-04-21T12:19:28Z</time>
      </trkpt>
      <trkpt lat="50.09374" lon="5.04582">
        <ele>196.8</ele>
        <time>2022-04-21T12:19:29Z</time>
      </trkpt>
      <trkpt lat="50.09375" lon="5.04582">
        <ele>196.8</ele>
        <time>2022-04-21T12:19:30Z</time>
      </trkpt>
      <trkpt lat="50.09376" lon="5.04582">
        <ele>196.8</ele>
        <time>2022-04-21T12:19:31Z</time>
      </trkpt>
      <trkpt lat="50.09377" lon="5.04581">
        <ele>196.7</ele>
        <time>2022-04-21T12:19:32Z</time>
      </trkpt>
      <trkpt lat="50.09378" lon="5.04581">
        <ele>196.7</ele>
        <time>2022-04-21T12:19:33Z</time>
      </trkpt>
      <trkpt lat="50.0938" lon="5.04581">
        <ele>196.7</ele>
        <time>2022-04-21T12:19:34Z</time>
      </trkpt>
      <trkpt lat="50.09381" lon="5.04581">
        <ele>196.7</ele>
        <time>2022-04-21T12:19:35Z</time>
      </trkpt>
      <trkpt lat="50.09383" lon="5.04581">
        <ele>196.7</ele>
        <time>2022-04-21T12:19:36Z</time>
      </trkpt>
      <trkpt lat="50.09384" lon="5.0458">
        <ele>196.7</ele>
        <time>2022-04-21T12:19:37Z</time>
      </trkpt>
      <trkpt lat="50.09386" lon="5.0458">
        <ele>196.7</ele>
        <time>2022-04-21T12:19:38Z</time>
      </trkpt>
      <trkpt lat="50.09388" lon="5.04579">
        <ele>196.5</ele>
        <time>2022-04-21T12:19:39Z</time>
      </trkpt>
      <trkpt lat="50.09389" lon="5.04579">
        <ele>196.5</ele>
        <time>2022-04-21T12:19:40Z</time>
      </trkpt>
      <trkpt lat="50.0939" lon="5.04579">
        <ele>196.5</ele>
        <time>2022-04-21T12:19:41Z</time>
      </trkpt>
      <trkpt lat="50.09391" lon="5.0458">
        <ele>196.5</ele>
        <time>2022-04-21T12:19:42Z</time>
      </trkpt>
      <trkpt lat="50.09392" lon="5.0458">
        <ele>196.5</ele>
        <time>2022-04-21T12:19:43Z</time>
      </trkpt>
      <trkpt lat="50.09393" lon="5.04579">
        <ele>196.5</ele>
        <time>2022-04-21T12:19:44Z</time>
      </trkpt>
      <trkpt lat="50.09394" lon="5.04577">
        <ele>196.5</ele>
        <time>2022-04-21T12:19:46Z</time>
      </trkpt>
      <trkpt lat="50.09395" lon="5.04576">
        <ele>196.5</ele>
        <time>2022-04-21T12:19:47Z</time>
      </trkpt>
      <trkpt lat="50.09395" lon="5.04574">
        <ele>196.5</ele>
        <time>2022-04-21T12:19:48Z</time>
      </trkpt>
      <trkpt lat="50.09396" lon="5.04572">
        <ele>196.2</ele>
        <time>2022-04-21T12:19:49Z</time>
      </trkpt>
      <trkpt lat="50.09396" lon="5.04569">
        <ele>196.2</ele>
        <time>2022-04-21T12:19:50Z</time>
      </trkpt>
      <trkpt lat="50.09396" lon="5.04568">
        <ele>196.2</ele>
        <time>2022-04-21T12:19:51Z</time>
      </trkpt>
      <trkpt lat="50.09397" lon="5.04566">
        <ele>196.2</ele>
        <time>2022-04-21T12:19:52Z</time>
      </trkpt>
      <trkpt lat="50.09397" lon="5.04565">
        <ele>196.2</ele>
        <time>2022-04-21T12:19:53Z</time>
      </trkpt>
      <trkpt lat="50.09397" lon="5.04563">
        <ele>196.2</ele>
        <time>2022-04-21T12:19:54Z</time>
      </trkpt>
      <trkpt lat="50.09397" lon="5.04561">
        <ele>196.2</ele>
        <time>2022-04-21T12:19:55Z</time>
      </trkpt>
      <trkpt lat="50.09398" lon="5.04559">
        <ele>196.2</ele>
        <time>2022-04-21T12:19:56Z</time>
      </trkpt>
      <trkpt lat="50.09398" lon="5.04557">
        <ele>196.2</ele>
        <time>2022-04-21T12:19:57Z</time>
      </trkpt>
      <trkpt lat="50.09398" lon="5.04555">
        <ele>196.2</ele>
        <time>2022-04-21T12:19:58Z</time>
      </trkpt>
      <trkpt lat="50.09399" lon="5.04553">
        <ele>196.2</ele>
        <time>2022-04-21T12:19:59Z</time>
      </trkpt>
      <trkpt lat="50.09399" lon="5.04552">
        <ele>196.2</ele>
        <time>2022-04-21T12:20:00Z</time>
      </trkpt>
      <trkpt lat="50.09399" lon="5.0455">
        <ele>196.2</ele>
        <time>2022-04-21T12:20:01Z</time>
      </trkpt>
      <trkpt lat="50.09399" lon="5.04547">
        <ele>196.2</ele>
        <time>2022-04-21T12:20:03Z</time>
      </trkpt>
      <trkpt lat="50.09398" lon="5.04545">
        <ele>196.2</ele>
        <time>2022-04-21T12:20:04Z</time>
      </trkpt>
      <trkpt lat="50.09398" lon="5.04543">
        <ele>196.2</ele>
        <time>2022-04-21T12:20:05Z</time>
      </trkpt>
      <trkpt lat="50.09398" lon="5.04542">
        <ele>196.2</ele>
        <time>2022-04-21T12:20:06Z</time>
      </trkpt>
      <trkpt lat="50.09397" lon="5.04539">
        <ele>196.2</ele>
        <time>2022-04-21T12:20:07Z</time>
      </trkpt>
      <trkpt lat="50.09397" lon="5.04537">
        <ele>196.2</ele>
        <time>2022-04-21T12:20:08Z</time>
      </trkpt>
      <trkpt lat="50.09396" lon="5.04535">
        <ele>196.2</ele>
        <time>2022-04-21T12:20:09Z</time>
      </trkpt>
      <trkpt lat="50.09394" lon="5.04532">
        <ele>196.2</ele>
        <time>2022-04-21T12:20:11Z</time>
      </trkpt>
      <trkpt lat="50.09394" lon="5.04531">
        <ele>196.2</ele>
        <time>2022-04-21T12:20:12Z</time>
      </trkpt>
      <trkpt lat="50.09394" lon="5.04529">
        <ele>196.3</ele>
        <time>2022-04-21T12:20:13Z</time>
      </trkpt>
      <trkpt lat="50.09393" lon="5.04527">
        <ele>196.3</ele>
        <time>2022-04-21T12:20:14Z</time>
      </trkpt>
      <trkpt lat="50.09393" lon="5.04526">
        <ele>196.3</ele>
        <time>2022-04-21T12:20:15Z</time>
      </trkpt>
      <trkpt lat="50.09392" lon="5.04524">
        <ele>196.3</ele>
        <time>2022-04-21T12:20:17Z</time>
      </trkpt>
      <trkpt lat="50.09392" lon="5.04523">
        <ele>196.3</ele>
        <time>2022-04-21T12:20:18Z</time>
      </trkpt>
      <trkpt lat="50.09392" lon="5.0452">
        <ele>196.3</ele>
        <time>2022-04-21T12:20:19Z</time>
      </trkpt>
      <trkpt lat="50.09391" lon="5.04518">
        <ele>196.3</ele>
        <time>2022-04-21T12:20:20Z</time>
      </trkpt>
      <trkpt lat="50.09391" lon="5.04517">
        <ele>196.3</ele>
        <time>2022-04-21T12:20:21Z</time>
      </trkpt>
      <trkpt lat="50.09392" lon="5.04514">
        <ele>196.3</ele>
        <time>2022-04-21T12:20:22Z</time>
      </trkpt>
      <trkpt lat="50.09393" lon="5.04513">
        <ele>196.3</ele>
        <time>2022-04-21T12:20:23Z</time>
      </trkpt>
      <trkpt lat="50.09393" lon="5.04512">
        <ele>196.3</ele>
        <time>2022-04-21T12:20:24Z</time>
      </trkpt>
      <trkpt lat="50.09393" lon="5.04509">
        <ele>196.3</ele>
        <time>2022-04-21T12:20:25Z</time>
      </trkpt>
      <trkpt lat="50.09393" lon="5.04507">
        <ele>196.3</ele>
        <time>2022-04-21T12:20:26Z</time>
      </trkpt>
      <trkpt lat="50.09393" lon="5.04506">
        <ele>196.3</ele>
        <time>2022-04-21T12:20:27Z</time>
      </trkpt>
      <trkpt lat="50.09393" lon="5.04503">
        <ele>196.3</ele>
        <time>2022-04-21T12:20:28Z</time>
      </trkpt>
      <trkpt lat="50.09394" lon="5.04501">
        <ele>196.4</ele>
        <time>2022-04-21T12:20:29Z</time>
      </trkpt>
      <trkpt lat="50.09394" lon="5.04498">
        <ele>196.4</ele>
        <time>2022-04-21T12:20:30Z</time>
      </trkpt>
      <trkpt lat="50.09395" lon="5.04496">
        <ele>196.4</ele>
        <time>2022-04-21T12:20:31Z</time>
      </trkpt>
      <trkpt lat="50.09397" lon="5.04495">
        <ele>196.4</ele>
        <time>2022-04-21T12:20:32Z</time>
      </trkpt>
      <trkpt lat="50.09398" lon="5.04493">
        <ele>196.4</ele>
        <time>2022-04-21T12:20:33Z</time>
      </trkpt>
      <trkpt lat="50.09399" lon="5.04491">
        <ele>196.4</ele>
        <time>2022-04-21T12:20:35Z</time>
      </trkpt>
      <trkpt lat="50.094" lon="5.04489">
        <ele>196.4</ele>
        <time>2022-04-21T12:20:36Z</time>
      </trkpt>
      <trkpt lat="50.094" lon="5.04487">
        <ele>196.4</ele>
        <time>2022-04-21T12:20:37Z</time>
      </trkpt>
      <trkpt lat="50.094" lon="5.04486">
        <ele>197.4</ele>
        <time>2022-04-21T12:20:38Z</time>
      </trkpt>
      <trkpt lat="50.094" lon="5.04485">
        <ele>197.6</ele>
        <time>2022-04-21T12:20:39Z</time>
      </trkpt>
      <trkpt lat="50.09401" lon="5.04485">
        <ele>197.8</ele>
        <time>2022-04-21T12:20:40Z</time>
      </trkpt>
      <trkpt lat="50.09403" lon="5.04485">
        <ele>198.2</ele>
        <time>2022-04-21T12:20:41Z</time>
      </trkpt>
      <trkpt lat="50.09404" lon="5.04486">
        <ele>198.5</ele>
        <time>2022-04-21T12:20:43Z</time>
      </trkpt>
      <trkpt lat="50.09405" lon="5.04488">
        <ele>198.9</ele>
        <time>2022-04-21T12:20:44Z</time>
      </trkpt>
      <trkpt lat="50.09406" lon="5.0449">
        <ele>199.3</ele>
        <time>2022-04-21T12:20:45Z</time>
      </trkpt>
      <trkpt lat="50.09407" lon="5.04491">
        <ele>199.6</ele>
        <time>2022-04-21T12:20:46Z</time>
      </trkpt>
      <trkpt lat="50.09408" lon="5.04492">
        <ele>199.8</ele>
        <time>2022-04-21T12:20:47Z</time>
      </trkpt>
      <trkpt lat="50.09408" lon="5.04493">
        <ele>200</ele>
        <time>2022-04-21T12:20:48Z</time>
      </trkpt>
      <trkpt lat="50.09409" lon="5.04493">
        <ele>200.1</ele>
        <time>2022-04-21T12:20:49Z</time>
      </trkpt>
      <trkpt lat="50.09409" lon="5.04494">
        <ele>200.3</ele>
        <time>2022-04-21T12:20:50Z</time>
      </trkpt>
      <trkpt lat="50.0941" lon="5.04495">
        <ele>200.4</ele>
        <time>2022-04-21T12:20:51Z</time>
      </trkpt>
      <trkpt lat="50.0941" lon="5.04495">
        <ele>200.6</ele>
        <time>2022-04-21T12:20:52Z</time>
      </trkpt>
      <trkpt lat="50.09411" lon="5.04496">
        <ele>200.7</ele>
        <time>2022-04-21T12:20:53Z</time>
      </trkpt>
      <trkpt lat="50.09411" lon="5.04497">
        <ele>200.9</ele>
        <time>2022-04-21T12:20:54Z</time>
      </trkpt>
      <trkpt lat="50.09412" lon="5.04498">
        <ele>201.2</ele>
        <time>2022-04-21T12:20:55Z</time>
      </trkpt>
      <trkpt lat="50.09413" lon="5.04499">
        <ele>201.5</ele>
        <time>2022-04-21T12:20:57Z</time>
      </trkpt>
      <trkpt lat="50.09414" lon="5.045">
        <ele>201.7</ele>
        <time>2022-04-21T12:20:58Z</time>
      </trkpt>
      <trkpt lat="50.09415" lon="5.04501">
        <ele>201.9</ele>
        <time>2022-04-21T12:20:59Z</time>
      </trkpt>
      <trkpt lat="50.09417" lon="5.04502">
        <ele>202.4</ele>
        <time>2022-04-21T12:21:01Z</time>
      </trkpt>
      <trkpt lat="50.09418" lon="5.04502">
        <ele>202.9</ele>
        <time>2022-04-21T12:21:02Z</time>
      </trkpt>
      <trkpt lat="50.0942" lon="5.04502">
        <ele>203.2</ele>
        <time>2022-04-21T12:21:03Z</time>
      </trkpt>
      <trkpt lat="50.09421" lon="5.04502">
        <ele>203.6</ele>
        <time>2022-04-21T12:21:04Z</time>
      </trkpt>
      <trkpt lat="50.09423" lon="5.04502">
        <ele>203.9</ele>
        <time>2022-04-21T12:21:05Z</time>
      </trkpt>
      <trkpt lat="50.09425" lon="5.04502">
        <ele>204.5</ele>
        <time>2022-04-21T12:21:06Z</time>
      </trkpt>
      <trkpt lat="50.09426" lon="5.04501">
        <ele>204.8</ele>
        <time>2022-04-21T12:21:08Z</time>
      </trkpt>
      <trkpt lat="50.09428" lon="5.04501">
        <ele>205</ele>
        <time>2022-04-21T12:21:09Z</time>
      </trkpt>
      <trkpt lat="50.09429" lon="5.04501">
        <ele>205.3</ele>
        <time>2022-04-21T12:21:10Z</time>
      </trkpt>
      <trkpt lat="50.0943" lon="5.045">
        <ele>205.6</ele>
        <time>2022-04-21T12:21:11Z</time>
      </trkpt>
      <trkpt lat="50.09431" lon="5.045">
        <ele>206</ele>
        <time>2022-04-21T12:21:13Z</time>
      </trkpt>
      <trkpt lat="50.09433" lon="5.045">
        <ele>206.3</ele>
        <time>2022-04-21T12:21:14Z</time>
      </trkpt>
      <trkpt lat="50.09434" lon="5.045">
        <ele>206.5</ele>
        <time>2022-04-21T12:21:16Z</time>
      </trkpt>
      <trkpt lat="50.09435" lon="5.045">
        <ele>206.7</ele>
        <time>2022-04-21T12:21:17Z</time>
      </trkpt>
      <trkpt lat="50.09435" lon="5.045">
        <ele>206.9</ele>
        <time>2022-04-21T12:21:18Z</time>
      </trkpt>
      <trkpt lat="50.09436" lon="5.04501">
        <ele>207</ele>
        <time>2022-04-21T12:21:19Z</time>
      </trkpt>
      <trkpt lat="50.09436" lon="5.04502">
        <ele>207.2</ele>
        <time>2022-04-21T12:21:20Z</time>
      </trkpt>
      <trkpt lat="50.09437" lon="5.04503">
        <ele>207.4</ele>
        <time>2022-04-21T12:21:21Z</time>
      </trkpt>
      <trkpt lat="50.09437" lon="5.04504">
        <ele>207.5</ele>
        <time>2022-04-21T12:21:22Z</time>
      </trkpt>
      <trkpt lat="50.09438" lon="5.04505">
        <ele>207.8</ele>
        <time>2022-04-21T12:21:23Z</time>
      </trkpt>
      <trkpt lat="50.09438" lon="5.04506">
        <ele>208</ele>
        <time>2022-04-21T12:21:25Z</time>
      </trkpt>
      <trkpt lat="50.09438" lon="5.04508">
        <ele>208.3</ele>
        <time>2022-04-21T12:21:26Z</time>
      </trkpt>
      <trkpt lat="50.09438" lon="5.0451">
        <ele>208.6</ele>
        <time>2022-04-21T12:21:27Z</time>
      </trkpt>
      <trkpt lat="50.09439" lon="5.04512">
        <ele>208.9</ele>
        <time>2022-04-21T12:21:28Z</time>
      </trkpt>
      <trkpt lat="50.09439" lon="5.04514">
        <ele>209.2</ele>
        <time>2022-04-21T12:21:29Z</time>
      </trkpt>
      <trkpt lat="50.09439" lon="5.04515">
        <ele>209.4</ele>
        <time>2022-04-21T12:21:30Z</time>
      </trkpt>
      <trkpt lat="50.09439" lon="5.04516">
        <ele>209.6</ele>
        <time>2022-04-21T12:21:31Z</time>
      </trkpt>
      <trkpt lat="50.09439" lon="5.04517">
        <ele>209.8</ele>
        <time>2022-04-21T12:21:32Z</time>
      </trkpt>
      <trkpt lat="50.0944" lon="5.04519">
        <ele>210</ele>
        <time>2022-04-21T12:21:33Z</time>
      </trkpt>
      <trkpt lat="50.0944" lon="5.0452">
        <ele>210.2</ele>
        <time>2022-04-21T12:21:34Z</time>
      </trkpt>
      <trkpt lat="50.0944" lon="5.04521">
        <ele>210.3</ele>
        <time>2022-04-21T12:21:35Z</time>
      </trkpt>
      <trkpt lat="50.0944" lon="5.04522">
        <ele>210.5</ele>
        <time>2022-04-21T12:21:36Z</time>
      </trkpt>
      <trkpt lat="50.0944" lon="5.04523">
        <ele>210.6</ele>
        <time>2022-04-21T12:21:37Z</time>
      </trkpt>
      <trkpt lat="50.0944" lon="5.04524">
        <ele>210.8</ele>
        <time>2022-04-21T12:21:39Z</time>
      </trkpt>
      <trkpt lat="50.0944" lon="5.04525">
        <ele>210.9</ele>
        <time>2022-04-21T12:21:40Z</time>
      </trkpt>
      <trkpt lat="50.0944" lon="5.04525">
        <ele>211</ele>
        <time>2022-04-21T12:21:41Z</time>
      </trkpt>
      <trkpt lat="50.09439" lon="5.04526">
        <ele>211.1</ele>
        <time>2022-04-21T12:21:42Z</time>
      </trkpt>
      <trkpt lat="50.09439" lon="5.04526">
        <ele>211.3</ele>
        <time>2022-04-21T12:21:43Z</time>
      </trkpt>
      <trkpt lat="50.09438" lon="5.04526">
        <ele>211.4</ele>
        <time>2022-04-21T12:21:44Z</time>
      </trkpt>
      <trkpt lat="50.09438" lon="5.04526">
        <ele>211.6</ele>
        <time>2022-04-21T12:21:45Z</time>
      </trkpt>
      <trkpt lat="50.09437" lon="5.04526">
        <ele>211.6</ele>
        <time>2022-04-21T12:21:46Z</time>
      </trkpt>
      <trkpt lat="50.09437" lon="5.04526">
        <ele>211.7</ele>
        <time>2022-04-21T12:21:47Z</time>
      </trkpt>
      <trkpt lat="50.09437" lon="5.04526">
        <ele>211.7</ele>
        <time>2022-04-21T12:21:48Z</time>
      </trkpt>
      <trkpt lat="50.09437" lon="5.04525">
        <ele>211.8</ele>
        <time>2022-04-21T12:21:49Z</time>
      </trkpt>
      <trkpt lat="50.09437" lon="5.04525">
        <ele>211.8</ele>
        <time>2022-04-21T12:21:50Z</time>
      </trkpt>
      <trkpt lat="50.09437" lon="5.04525">
        <ele>211.8</ele>
        <time>2022-04-21T12:21:51Z</time>
      </trkpt>
      <trkpt lat="50.09437" lon="5.04525">
        <ele>211.8</ele>
        <time>2022-04-21T12:21:52Z</time>
      </trkpt>
      <trkpt lat="50.09438" lon="5.04526">
        <ele>211.8</ele>
        <time>2022-04-21T12:21:54Z</time>
      </trkpt>
      <trkpt lat="50.09438" lon="5.04526">
        <ele>211.9</ele>
        <time>2022-04-21T12:21:55Z</time>
      </trkpt>
      <trkpt lat="50.09438" lon="5.04527">
        <ele>212</ele>
        <time>2022-04-21T12:21:56Z</time>
      </trkpt>
      <trkpt lat="50.09439" lon="5.04527">
        <ele>212.2</ele>
        <time>2022-04-21T12:21:57Z</time>
      </trkpt>
      <trkpt lat="50.09439" lon="5.04527">
        <ele>212.4</ele>
        <time>2022-04-21T12:21:58Z</time>
      </trkpt>
      <trkpt lat="50.0944" lon="5.04528">
        <ele>213.3</ele>
        <time>2022-04-21T12:22:00Z</time>
      </trkpt>
      <trkpt lat="50.0944" lon="5.04528">
        <ele>213.3</ele>
        <time>2022-04-21T12:22:01Z</time>
      </trkpt>
      <trkpt lat="50.09441" lon="5.04528">
        <ele>213.3</ele>
        <time>2022-04-21T12:22:02Z</time>
      </trkpt>
      <trkpt lat="50.09441" lon="5.04528">
        <ele>213.3</ele>
        <time>2022-04-21T12:22:03Z</time>
      </trkpt>
      <trkpt lat="50.09442" lon="5.04527">
        <ele>213.3</ele>
        <time>2022-04-21T12:22:04Z</time>
      </trkpt>
      <trkpt lat="50.09442" lon="5.04526">
        <ele>213.3</ele>
        <time>2022-04-21T12:22:05Z</time>
      </trkpt>
      <trkpt lat="50.09443" lon="5.04525">
        <ele>213.3</ele>
        <time>2022-04-21T12:22:06Z</time>
      </trkpt>
      <trkpt lat="50.09444" lon="5.04524">
        <ele>213.3</ele>
        <time>2022-04-21T12:22:07Z</time>
      </trkpt>
      <trkpt lat="50.09445" lon="5.04523">
        <ele>213.3</ele>
        <time>2022-04-21T12:22:09Z</time>
      </trkpt>
      <trkpt lat="50.09445" lon="5.04522">
        <ele>213.3</ele>
        <time>2022-04-21T12:22:10Z</time>
      </trkpt>
      <trkpt lat="50.09446" lon="5.04521">
        <ele>213.3</ele>
        <time>2022-04-21T12:22:11Z</time>
      </trkpt>
      <trkpt lat="50.09447" lon="5.04519">
        <ele>213.3</ele>
        <time>2022-04-21T12:22:13Z</time>
      </trkpt>
      <trkpt lat="50.09447" lon="5.04518">
        <ele>213.3</ele>
        <time>2022-04-21T12:22:14Z</time>
      </trkpt>
      <trkpt lat="50.09447" lon="5.04517">
        <ele>213.3</ele>
        <time>2022-04-21T12:22:15Z</time>
      </trkpt>
      <trkpt lat="50.09447" lon="5.04517">
        <ele>213.3</ele>
        <time>2022-04-21T12:22:16Z</time>
      </trkpt>
      <trkpt lat="50.09447" lon="5.04517">
        <ele>213.3</ele>
        <time>2022-04-21T12:22:17Z</time>
      </trkpt>
      <trkpt lat="50.09447" lon="5.04517">
        <ele>213.3</ele>
        <time>2022-04-21T12:22:18Z</time>
      </trkpt>
      <trkpt lat="50.09447" lon="5.04516">
        <ele>213.3</ele>
        <time>2022-04-21T12:22:19Z</time>
      </trkpt>
      <trkpt lat="50.09447" lon="5.04516">
        <ele>213.3</ele>
        <time>2022-04-21T12:22:20Z</time>
      </trkpt>
      <trkpt lat="50.09447" lon="5.04516">
        <ele>213.3</ele>
        <time>2022-04-21T12:22:22Z</time>
      </trkpt>
      <trkpt lat="50.09447" lon="5.04515">
        <ele>213.3</ele>
        <time>2022-04-21T12:22:23Z</time>
      </trkpt>
      <trkpt lat="50.09447" lon="5.04515">
        <ele>213.3</ele>
        <time>2022-04-21T12:22:24Z</time>
      </trkpt>
      <trkpt lat="50.09447" lon="5.04515">
        <ele>213.3</ele>
        <time>2022-04-21T12:22:25Z</time>
      </trkpt>
      <trkpt lat="50.09447" lon="5.04515">
        <ele>213.3</ele>
        <time>2022-04-21T12:22:26Z</time>
      </trkpt>
      <trkpt lat="50.09447" lon="5.04515">
        <ele>213.3</ele>
        <time>2022-04-21T12:22:27Z</time>
      </trkpt>
      <trkpt lat="50.09447" lon="5.04515">
        <ele>213.3</ele>
        <time>2022-04-21T12:22:28Z</time>
      </trkpt>
      <trkpt lat="50.09447" lon="5.04515">
        <ele>213.3</ele>
        <time>2022-04-21T12:22:29Z</time>
      </trkpt>
      <trkpt lat="50.09447" lon="5.04515">
        <ele>213.3</ele>
        <time>2022-04-21T12:22:30Z</time>
      </trkpt>
      <trkpt lat="50.09447" lon="5.04515">
        <ele>213.3</ele>
        <time>2022-04-21T12:22:31Z</time>
      </trkpt>
      <trkpt lat="50.09447" lon="5.04515">
        <ele>213.3</ele>
        <time>2022-04-21T12:22:32Z</time>
      </trkpt>
      <trkpt lat="50.09447" lon="5.04515">
        <ele>213.3</ele>
        <time>2022-04-21T12:22:33Z</time>
      </trkpt>
      <trkpt lat="50.09447" lon="5.04515">
        <ele>213.3</ele>
        <time>2022-04-21T12:22:34Z</time>
      </trkpt>
      <trkpt lat="50.09447" lon="5.04516">
        <ele>213.3</ele>
        <time>2022-04-21T12:22:35Z</time>
      </trkpt>
      <trkpt lat="50.09447" lon="5.04516">
        <ele>213.3</ele>
        <time>2022-04-21T12:22:37Z</time>
      </trkpt>
      <trkpt lat="50.09447" lon="5.04517">
        <ele>213.3</ele>
        <time>2022-04-21T12:22:38Z</time>
      </trkpt>
      <trkpt lat="50.09447" lon="5.04518">
        <ele>213.3</ele>
        <time>2022-04-21T12:22:39Z</time>
      </trkpt>
      <trkpt lat="50.09447" lon="5.0452">
        <ele>213.3</ele>
        <time>2022-04-21T12:22:40Z</time>
      </trkpt>
      <trkpt lat="50.09447" lon="5.04521">
        <ele>213.3</ele>
        <time>2022-04-21T12:22:42Z</time>
      </trkpt>
      <trkpt lat="50.09447" lon="5.04522">
        <ele>213.3</ele>
        <time>2022-04-21T12:22:43Z</time>
      </trkpt>
      <trkpt lat="50.09447" lon="5.04522">
        <ele>213.3</ele>
        <time>2022-04-21T12:22:44Z</time>
      </trkpt>
      <trkpt lat="50.09447" lon="5.04523">
        <ele>213.3</ele>
        <time>2022-04-21T12:22:45Z</time>
      </trkpt>
      <trkpt lat="50.09447" lon="5.04524">
        <ele>213.3</ele>
        <time>2022-04-21T12:22:46Z</time>
      </trkpt>
      <trkpt lat="50.09446" lon="5.04524">
        <ele>213.3</ele>
        <time>2022-04-21T12:22:47Z</time>
      </trkpt>
      <trkpt lat="50.09446" lon="5.04525">
        <ele>213.3</ele>
        <time>2022-04-21T12:22:48Z</time>
      </trkpt>
      <trkpt lat="50.09446" lon="5.04526">
        <ele>213.3</ele>
        <time>2022-04-21T12:22:49Z</time>
      </trkpt>
      <trkpt lat="50.09446" lon="5.04526">
        <ele>213.3</ele>
        <time>2022-04-21T12:22:50Z</time>
      </trkpt>
      <trkpt lat="50.09446" lon="5.04527">
        <ele>213.3</ele>
        <time>2022-04-21T12:22:51Z</time>
      </trkpt>
      <trkpt lat="50.09446" lon="5.04527">
        <ele>213.3</ele>
        <time>2022-04-21T12:22:52Z</time>
      </trkpt>
      <trkpt lat="50.09446" lon="5.04527">
        <ele>213.3</ele>
        <time>2022-04-21T12:22:53Z</time>
      </trkpt>
      <trkpt lat="50.09446" lon="5.04528">
        <ele>213.3</ele>
        <time>2022-04-21T12:22:54Z</time>
      </trkpt>
      <trkpt lat="50.09447" lon="5.04528">
        <ele>213.3</ele>
        <time>2022-04-21T12:22:55Z</time>
      </trkpt>
      <trkpt lat="50.09447" lon="5.04528">
        <ele>213.3</ele>
        <time>2022-04-21T12:22:56Z</time>
      </trkpt>
      <trkpt lat="50.09447" lon="5.04528">
        <ele>213.3</ele>
        <time>2022-04-21T12:22:57Z</time>
      </trkpt>
      <trkpt lat="50.09447" lon="5.04528">
        <ele>213.3</ele>
        <time>2022-04-21T12:22:58Z</time>
      </trkpt>
      <trkpt lat="50.09447" lon="5.04528">
        <ele>213.3</ele>
        <time>2022-04-21T12:22:59Z</time>
      </trkpt>
      <trkpt lat="50.09447" lon="5.04528">
        <ele>213.3</ele>
        <time>2022-04-21T12:23:00Z</time>
      </trkpt>
      <trkpt lat="50.09447" lon="5.04528">
        <ele>213.3</ele>
        <time>2022-04-21T12:23:01Z</time>
      </trkpt>
      <trkpt lat="50.09446" lon="5.04528">
        <ele>213.3</ele>
        <time>2022-04-21T12:23:02Z</time>
      </trkpt>
      <trkpt lat="50.09446" lon="5.04528">
        <ele>213.3</ele>
        <time>2022-04-21T12:23:03Z</time>
      </trkpt>
      <trkpt lat="50.09445" lon="5.04528">
        <ele>213.3</ele>
        <time>2022-04-21T12:23:04Z</time>
      </trkpt>
      <trkpt lat="50.09445" lon="5.04528">
        <ele>213.3</ele>
        <time>2022-04-21T12:23:05Z</time>
      </trkpt>
      <trkpt lat="50.09445" lon="5.04527">
        <ele>213.3</ele>
        <time>2022-04-21T12:23:06Z</time>
      </trkpt>
      <trkpt lat="50.09444" lon="5.04527">
        <ele>213.3</ele>
        <time>2022-04-21T12:23:07Z</time>
      </trkpt>
      <trkpt lat="50.09444" lon="5.04527">
        <ele>213.3</ele>
        <time>2022-04-21T12:23:08Z</time>
      </trkpt>
      <trkpt lat="50.09443" lon="5.04527">
        <ele>213.3</ele>
        <time>2022-04-21T12:23:09Z</time>
      </trkpt>
      <trkpt lat="50.09443" lon="5.04527">
        <ele>213.2</ele>
        <time>2022-04-21T12:23:10Z</time>
      </trkpt>
      <trkpt lat="50.09443" lon="5.04527">
        <ele>213.2</ele>
        <time>2022-04-21T12:23:11Z</time>
      </trkpt>
      <trkpt lat="50.09443" lon="5.04527">
        <ele>213.2</ele>
        <time>2022-04-21T12:23:12Z</time>
      </trkpt>
      <trkpt lat="50.09443" lon="5.04528">
        <ele>213.2</ele>
        <time>2022-04-21T12:23:13Z</time>
      </trkpt>
      <trkpt lat="50.09442" lon="5.04528">
        <ele>213.2</ele>
        <time>2022-04-21T12:23:14Z</time>
      </trkpt>
      <trkpt lat="50.09442" lon="5.04529">
        <ele>213.2</ele>
        <time>2022-04-21T12:23:15Z</time>
      </trkpt>
      <trkpt lat="50.09442" lon="5.0453">
        <ele>213</ele>
        <time>2022-04-21T12:23:16Z</time>
      </trkpt>
      <trkpt lat="50.09441" lon="5.04531">
        <ele>212.8</ele>
        <time>2022-04-21T12:23:17Z</time>
      </trkpt>
      <trkpt lat="50.0944" lon="5.04531">
        <ele>212.6</ele>
        <time>2022-04-21T12:23:19Z</time>
      </trkpt>
      <trkpt lat="50.09439" lon="5.04531">
        <ele>212.4</ele>
        <time>2022-04-21T12:23:20Z</time>
      </trkpt>
      <trkpt lat="50.09438" lon="5.04531">
        <ele>212.2</ele>
        <time>2022-04-21T12:23:21Z</time>
      </trkpt>
      <trkpt lat="50.09438" lon="5.0453">
        <ele>212</ele>
        <time>2022-04-21T12:23:22Z</time>
      </trkpt>
      <trkpt lat="50.09436" lon="5.04529">
        <ele>211.7</ele>
        <time>2022-04-21T12:23:23Z</time>
      </trkpt>
      <trkpt lat="50.09436" lon="5.04528">
        <ele>211.4</ele>
        <time>2022-04-21T12:23:24Z</time>
      </trkpt>
      <trkpt lat="50.09435" lon="5.04527">
        <ele>211.1</ele>
        <time>2022-04-21T12:23:25Z</time>
      </trkpt>
      <trkpt lat="50.09434" lon="5.04525">
        <ele>210.8</ele>
        <time>2022-04-21T12:23:27Z</time>
      </trkpt>
      <trkpt lat="50.09434" lon="5.04524">
        <ele>210.6</ele>
        <time>2022-04-21T12:23:28Z</time>
      </trkpt>
      <trkpt lat="50.09433" lon="5.04523">
        <ele>210.4</ele>
        <time>2022-04-21T12:23:29Z</time>
      </trkpt>
      <trkpt lat="50.09432" lon="5.04523">
        <ele>210.2</ele>
        <time>2022-04-21T12:23:31Z</time>
      </trkpt>
      <trkpt lat="50.09432" lon="5.04522">
        <ele>210.1</ele>
        <time>2022-04-21T12:23:32Z</time>
      </trkpt>
      <trkpt lat="50.09431" lon="5.04521">
        <ele>209.9</ele>
        <time>2022-04-21T12:23:33Z</time>
      </trkpt>
      <trkpt lat="50.09431" lon="5.04521">
        <ele>209.8</ele>
        <time>2022-04-21T12:23:34Z</time>
      </trkpt>
      <trkpt lat="50.09431" lon="5.0452">
        <ele>209.6</ele>
        <time>2022-04-21T12:23:35Z</time>
      </trkpt>
      <trkpt lat="50.0943" lon="5.04519">
        <ele>209.4</ele>
        <time>2022-04-21T12:23:36Z</time>
      </trkpt>
      <trkpt lat="50.0943" lon="5.04518">
        <ele>209.2</ele>
        <time>2022-04-21T12:23:38Z</time>
      </trkpt>
      <trkpt lat="50.09429" lon="5.04517">
        <ele>209</ele>
        <time>2022-04-21T12:23:39Z</time>
      </trkpt>
      <trkpt lat="50.09428" lon="5.04516">
        <ele>208.7</ele>
        <time>2022-04-21T12:23:40Z</time>
      </trkpt>
      <trkpt lat="50.09427" lon="5.04516">
        <ele>208.5</ele>
        <time>2022-04-21T12:23:41Z</time>
      </trkpt>
      <trkpt lat="50.09427" lon="5.04515">
        <ele>208.4</ele>
        <time>2022-04-21T12:23:42Z</time>
      </trkpt>
      <trkpt lat="50.09426" lon="5.04514">
        <ele>208.2</ele>
        <time>2022-04-21T12:23:43Z</time>
      </trkpt>
      <trkpt lat="50.09426" lon="5.04514">
        <ele>208</ele>
        <time>2022-04-21T12:23:44Z</time>
      </trkpt>
      <trkpt lat="50.09425" lon="5.04513">
        <ele>207.9</ele>
        <time>2022-04-21T12:23:45Z</time>
      </trkpt>
      <trkpt lat="50.09425" lon="5.04512">
        <ele>207.7</ele>
        <time>2022-04-21T12:23:46Z</time>
      </trkpt>
      <trkpt lat="50.09425" lon="5.04511">
        <ele>207.5</ele>
        <time>2022-04-21T12:23:47Z</time>
      </trkpt>
      <trkpt lat="50.09425" lon="5.0451">
        <ele>207.3</ele>
        <time>2022-04-21T12:23:48Z</time>
      </trkpt>
      <trkpt lat="50.09425" lon="5.04509">
        <ele>207.2</ele>
        <time>2022-04-21T12:23:49Z</time>
      </trkpt>
      <trkpt lat="50.09424" lon="5.04508">
        <ele>207.1</ele>
        <time>2022-04-21T12:23:50Z</time>
      </trkpt>
      <trkpt lat="50.09424" lon="5.04507">
        <ele>206.9</ele>
        <time>2022-04-21T12:23:52Z</time>
      </trkpt>
      <trkpt lat="50.09423" lon="5.04506">
        <ele>206.7</ele>
        <time>2022-04-21T12:23:53Z</time>
      </trkpt>
      <trkpt lat="50.09423" lon="5.04506">
        <ele>206.6</ele>
        <time>2022-04-21T12:23:54Z</time>
      </trkpt>
      <trkpt lat="50.09423" lon="5.04506">
        <ele>206.5</ele>
        <time>2022-04-21T12:23:55Z</time>
      </trkpt>
      <trkpt lat="50.09422" lon="5.04506">
        <ele>206.4</ele>
        <time>2022-04-21T12:23:56Z</time>
      </trkpt>
      <trkpt lat="50.09421" lon="5.04506">
        <ele>206.2</ele>
        <time>2022-04-21T12:23:57Z</time>
      </trkpt>
      <trkpt lat="50.09421" lon="5.04506">
        <ele>206.1</ele>
        <time>2022-04-21T12:23:58Z</time>
      </trkpt>
      <trkpt lat="50.0942" lon="5.04506">
        <ele>206</ele>
        <time>2022-04-21T12:23:59Z</time>
      </trkpt>
      <trkpt lat="50.0942" lon="5.04507">
        <ele>205.9</ele>
        <time>2022-04-21T12:24:00Z</time>
      </trkpt>
      <trkpt lat="50.0942" lon="5.04506">
        <ele>205.8</ele>
        <time>2022-04-21T12:24:01Z</time>
      </trkpt>
      <trkpt lat="50.0942" lon="5.04507">
        <ele>205.7</ele>
        <time>2022-04-21T12:24:02Z</time>
      </trkpt>
      <trkpt lat="50.0942" lon="5.04507">
        <ele>205.7</ele>
        <time>2022-04-21T12:24:04Z</time>
      </trkpt>
      <trkpt lat="50.0942" lon="5.04507">
        <ele>205.7</ele>
        <time>2022-04-21T12:24:05Z</time>
      </trkpt>
      <trkpt lat="50.09419" lon="5.04507">
        <ele>205.6</ele>
        <time>2022-04-21T12:24:06Z</time>
      </trkpt>
      <trkpt lat="50.09419" lon="5.04507">
        <ele>205.5</ele>
        <time>2022-04-21T12:24:07Z</time>
      </trkpt>
      <trkpt lat="50.09419" lon="5.04507">
        <ele>205.3</ele>
        <time>2022-04-21T12:24:08Z</time>
      </trkpt>
      <trkpt lat="50.09418" lon="5.04507">
        <ele>205.3</ele>
        <time>2022-04-21T12:24:09Z</time>
      </trkpt>
      <trkpt lat="50.09418" lon="5.04507">
        <ele>205.2</ele>
        <time>2022-04-21T12:24:10Z</time>
      </trkpt>
      <trkpt lat="50.09417" lon="5.04507">
        <ele>205.1</ele>
        <time>2022-04-21T12:24:11Z</time>
      </trkpt>
      <trkpt lat="50.09417" lon="5.04507">
        <ele>205</ele>
        <time>2022-04-21T12:24:12Z</time>
      </trkpt>
      <trkpt lat="50.09417" lon="5.04507">
        <ele>205</ele>
        <time>2022-04-21T12:24:13Z</time>
      </trkpt>
      <trkpt lat="50.09416" lon="5.04507">
        <ele>204.9</ele>
        <time>2022-04-21T12:24:14Z</time>
      </trkpt>
      <trkpt lat="50.09416" lon="5.04506">
        <ele>204.7</ele>
        <time>2022-04-21T12:24:15Z</time>
      </trkpt>
      <trkpt lat="50.09415" lon="5.04506">
        <ele>204.5</ele>
        <time>2022-04-21T12:24:16Z</time>
      </trkpt>
      <trkpt lat="50.09414" lon="5.04506">
        <ele>204.3</ele>
        <time>2022-04-21T12:24:17Z</time>
      </trkpt>
      <trkpt lat="50.09414" lon="5.04507">
        <ele>204.2</ele>
        <time>2022-04-21T12:24:18Z</time>
      </trkpt>
      <trkpt lat="50.09413" lon="5.04507">
        <ele>204</ele>
        <time>2022-04-21T12:24:20Z</time>
      </trkpt>
      <trkpt lat="50.09412" lon="5.04507">
        <ele>203.8</ele>
        <time>2022-04-21T12:24:21Z</time>
      </trkpt>
      <trkpt lat="50.09411" lon="5.04507">
        <ele>203.7</ele>
        <time>2022-04-21T12:24:22Z</time>
      </trkpt>
      <trkpt lat="50.09411" lon="5.04507">
        <ele>203.5</ele>
        <time>2022-04-21T12:24:23Z</time>
      </trkpt>
      <trkpt lat="50.0941" lon="5.04508">
        <ele>203.4</ele>
        <time>2022-04-21T12:24:24Z</time>
      </trkpt>
      <trkpt lat="50.0941" lon="5.04508">
        <ele>203.3</ele>
        <time>2022-04-21T12:24:25Z</time>
      </trkpt>
      <trkpt lat="50.09409" lon="5.04508">
        <ele>203.1</ele>
        <time>2022-04-21T12:24:26Z</time>
      </trkpt>
      <trkpt lat="50.09408" lon="5.04509">
        <ele>202.9</ele>
        <time>2022-04-21T12:24:27Z</time>
      </trkpt>
      <trkpt lat="50.09408" lon="5.04509">
        <ele>202.8</ele>
        <time>2022-04-21T12:24:28Z</time>
      </trkpt>
      <trkpt lat="50.09407" lon="5.04509">
        <ele>202.6</ele>
        <time>2022-04-21T12:24:29Z</time>
      </trkpt>
      <trkpt lat="50.09406" lon="5.04509">
        <ele>202.4</ele>
        <time>2022-04-21T12:24:30Z</time>
      </trkpt>
      <trkpt lat="50.09405" lon="5.04509">
        <ele>202.2</ele>
        <time>2022-04-21T12:24:31Z</time>
      </trkpt>
      <trkpt lat="50.09404" lon="5.04508">
        <ele>201.9</ele>
        <time>2022-04-21T12:24:32Z</time>
      </trkpt>
      <trkpt lat="50.09402" lon="5.04507">
        <ele>201.5</ele>
        <time>2022-04-21T12:24:34Z</time>
      </trkpt>
      <trkpt lat="50.09401" lon="5.04505">
        <ele>201.1</ele>
        <time>2022-04-21T12:24:35Z</time>
      </trkpt>
      <trkpt lat="50.09399" lon="5.04504">
        <ele>200.8</ele>
        <time>2022-04-21T12:24:36Z</time>
      </trkpt>
      <trkpt lat="50.09398" lon="5.04504">
        <ele>200.5</ele>
        <time>2022-04-21T12:24:37Z</time>
      </trkpt>
      <trkpt lat="50.09397" lon="5.04505">
        <ele>200.3</ele>
        <time>2022-04-21T12:24:38Z</time>
      </trkpt>
      <trkpt lat="50.09397" lon="5.04505">
        <ele>200.1</ele>
        <time>2022-04-21T12:24:39Z</time>
      </trkpt>
      <trkpt lat="50.09395" lon="5.04504">
        <ele>199.6</ele>
        <time>2022-04-21T12:24:40Z</time>
      </trkpt>
      <trkpt lat="50.09394" lon="5.04502">
        <ele>199.4</ele>
        <time>2022-04-21T12:24:41Z</time>
      </trkpt>
      <trkpt lat="50.09393" lon="5.045">
        <ele>199.1</ele>
        <time>2022-04-21T12:24:42Z</time>
      </trkpt>
      <trkpt lat="50.09393" lon="5.04495">
        <ele>198.4</ele>
        <time>2022-04-21T12:24:43Z</time>
      </trkpt>
      <trkpt lat="50.09393" lon="5.04493">
        <ele>198</ele>
        <time>2022-04-21T12:24:44Z</time>
      </trkpt>
      <trkpt lat="50.09394" lon="5.04488">
        <ele>197.2</ele>
        <time>2022-04-21T12:24:45Z</time>
      </trkpt>
      <trkpt lat="50.09395" lon="5.04483">
        <ele>196.6</ele>
        <time>2022-04-21T12:24:46Z</time>
      </trkpt>
      <trkpt lat="50.09396" lon="5.04478">
        <ele>196.5</ele>
        <time>2022-04-21T12:24:47Z</time>
      </trkpt>
      <trkpt lat="50.09396" lon="5.04476">
        <ele>196.5</ele>
        <time>2022-04-21T12:24:48Z</time>
      </trkpt>
      <trkpt lat="50.09396" lon="5.04475">
        <ele>196.5</ele>
        <time>2022-04-21T12:24:49Z</time>
      </trkpt>
      <trkpt lat="50.09395" lon="5.04474">
        <ele>196.5</ele>
        <time>2022-04-21T12:24:50Z</time>
      </trkpt>
      <trkpt lat="50.09396" lon="5.04472">
        <ele>196.6</ele>
        <time>2022-04-21T12:24:51Z</time>
      </trkpt>
      <trkpt lat="50.09397" lon="5.04471">
        <ele>196.6</ele>
        <time>2022-04-21T12:24:52Z</time>
      </trkpt>
      <trkpt lat="50.09397" lon="5.04468">
        <ele>196.6</ele>
        <time>2022-04-21T12:24:53Z</time>
      </trkpt>
      <trkpt lat="50.09397" lon="5.04467">
        <ele>196.6</ele>
        <time>2022-04-21T12:24:54Z</time>
      </trkpt>
      <trkpt lat="50.09398" lon="5.04466">
        <ele>196.6</ele>
        <time>2022-04-21T12:24:55Z</time>
      </trkpt>
      <trkpt lat="50.09398" lon="5.04464">
        <ele>196.6</ele>
        <time>2022-04-21T12:24:56Z</time>
      </trkpt>
      <trkpt lat="50.09398" lon="5.04462">
        <ele>196.6</ele>
        <time>2022-04-21T12:24:57Z</time>
      </trkpt>
      <trkpt lat="50.09398" lon="5.0446">
        <ele>196.6</ele>
        <time>2022-04-21T12:24:58Z</time>
      </trkpt>
      <trkpt lat="50.09397" lon="5.04459">
        <ele>196.6</ele>
        <time>2022-04-21T12:24:59Z</time>
      </trkpt>
      <trkpt lat="50.09397" lon="5.04457">
        <ele>196.7</ele>
        <time>2022-04-21T12:25:00Z</time>
      </trkpt>
      <trkpt lat="50.09397" lon="5.04455">
        <ele>196.7</ele>
        <time>2022-04-21T12:25:01Z</time>
      </trkpt>
      <trkpt lat="50.09397" lon="5.04452">
        <ele>196.7</ele>
        <time>2022-04-21T12:25:02Z</time>
      </trkpt>
      <trkpt lat="50.09397" lon="5.0445">
        <ele>196.7</ele>
        <time>2022-04-21T12:25:03Z</time>
      </trkpt>
      <trkpt lat="50.09397" lon="5.04447">
        <ele>196.7</ele>
        <time>2022-04-21T12:25:04Z</time>
      </trkpt>
      <trkpt lat="50.09397" lon="5.04445">
        <ele>196.7</ele>
        <time>2022-04-21T12:25:05Z</time>
      </trkpt>
      <trkpt lat="50.09397" lon="5.04444">
        <ele>196.7</ele>
        <time>2022-04-21T12:25:06Z</time>
      </trkpt>
      <trkpt lat="50.09396" lon="5.04442">
        <ele>196.7</ele>
        <time>2022-04-21T12:25:07Z</time>
      </trkpt>
      <trkpt lat="50.09396" lon="5.04439">
        <ele>196.7</ele>
        <time>2022-04-21T12:25:08Z</time>
      </trkpt>
      <trkpt lat="50.09396" lon="5.04438">
        <ele>196.7</ele>
        <time>2022-04-21T12:25:09Z</time>
      </trkpt>
      <trkpt lat="50.09396" lon="5.04436">
        <ele>196.8</ele>
        <time>2022-04-21T12:25:10Z</time>
      </trkpt>
      <trkpt lat="50.09396" lon="5.04432">
        <ele>196.8</ele>
        <time>2022-04-21T12:25:12Z</time>
      </trkpt>
      <trkpt lat="50.09395" lon="5.04428">
        <ele>196.8</ele>
        <time>2022-04-21T12:25:13Z</time>
      </trkpt>
      <trkpt lat="50.09395" lon="5.04426">
        <ele>196.8</ele>
        <time>2022-04-21T12:25:14Z</time>
      </trkpt>
      <trkpt lat="50.09394" lon="5.04422">
        <ele>196.8</ele>
        <time>2022-04-21T12:25:15Z</time>
      </trkpt>
      <trkpt lat="50.09393" lon="5.04419">
        <ele>196.8</ele>
        <time>2022-04-21T12:25:16Z</time>
      </trkpt>
      <trkpt lat="50.09392" lon="5.04417">
        <ele>196.8</ele>
        <time>2022-04-21T12:25:18Z</time>
      </trkpt>
      <trkpt lat="50.09392" lon="5.04415">
        <ele>196.8</ele>
        <time>2022-04-21T12:25:19Z</time>
      </trkpt>
      <trkpt lat="50.09391" lon="5.04411">
        <ele>196.8</ele>
        <time>2022-04-21T12:25:20Z</time>
      </trkpt>
      <trkpt lat="50.09391" lon="5.04409">
        <ele>196.8</ele>
        <time>2022-04-21T12:25:21Z</time>
      </trkpt>
      <trkpt lat="50.09392" lon="5.04405">
        <ele>196.8</ele>
        <time>2022-04-21T12:25:22Z</time>
      </trkpt>
      <trkpt lat="50.09392" lon="5.04403">
        <ele>196.8</ele>
        <time>2022-04-21T12:25:23Z</time>
      </trkpt>
      <trkpt lat="50.09393" lon="5.04398">
        <ele>196.8</ele>
        <time>2022-04-21T12:25:25Z</time>
      </trkpt>
      <trkpt lat="50.09393" lon="5.04397">
        <ele>196.8</ele>
        <time>2022-04-21T12:25:26Z</time>
      </trkpt>
      <trkpt lat="50.09392" lon="5.04394">
        <ele>196.8</ele>
        <time>2022-04-21T12:25:27Z</time>
      </trkpt>
      <trkpt lat="50.09392" lon="5.04392">
        <ele>196.8</ele>
        <time>2022-04-21T12:25:28Z</time>
      </trkpt>
      <trkpt lat="50.09392" lon="5.0439">
        <ele>196.8</ele>
        <time>2022-04-21T12:25:29Z</time>
      </trkpt>
      <trkpt lat="50.09392" lon="5.04387">
        <ele>196.7</ele>
        <time>2022-04-21T12:25:30Z</time>
      </trkpt>
      <trkpt lat="50.09392" lon="5.04383">
        <ele>196.7</ele>
        <time>2022-04-21T12:25:32Z</time>
      </trkpt>
      <trkpt lat="50.09392" lon="5.0438">
        <ele>196.7</ele>
        <time>2022-04-21T12:25:34Z</time>
      </trkpt>
      <trkpt lat="50.09392" lon="5.04381">
        <ele>196.7</ele>
        <time>2022-04-21T12:25:35Z</time>
      </trkpt>
      <trkpt lat="50.09392" lon="5.04381">
        <ele>196.7</ele>
        <time>2022-04-21T12:25:36Z</time>
      </trkpt>
      <trkpt lat="50.09394" lon="5.04381">
        <ele>196.7</ele>
        <time>2022-04-21T12:25:38Z</time>
      </trkpt>
      <trkpt lat="50.09394" lon="5.04379">
        <ele>196.7</ele>
        <time>2022-04-21T12:25:40Z</time>
      </trkpt>
      <trkpt lat="50.09394" lon="5.04369">
        <ele>196.7</ele>
        <time>2022-04-21T12:25:42Z</time>
      </trkpt>
      <trkpt lat="50.09396" lon="5.04367">
        <ele>196.7</ele>
        <time>2022-04-21T12:25:43Z</time>
      </trkpt>
      <trkpt lat="50.09397" lon="5.04367">
        <ele>196.7</ele>
        <time>2022-04-21T12:25:44Z</time>
      </trkpt>
      <trkpt lat="50.09398" lon="5.04367">
        <ele>196.7</ele>
        <time>2022-04-21T12:25:45Z</time>
      </trkpt>
      <trkpt lat="50.09401" lon="5.04366">
        <ele>196.7</ele>
        <time>2022-04-21T12:25:46Z</time>
      </trkpt>
      <trkpt lat="50.09402" lon="5.04366">
        <ele>196.7</ele>
        <time>2022-04-21T12:25:47Z</time>
      </trkpt>
      <trkpt lat="50.09403" lon="5.04362">
        <ele>196.7</ele>
        <time>2022-04-21T12:25:48Z</time>
      </trkpt>
      <trkpt lat="50.09404" lon="5.0436">
        <ele>196.7</ele>
        <time>2022-04-21T12:25:49Z</time>
      </trkpt>
      <trkpt lat="50.09404" lon="5.04356">
        <ele>196.7</ele>
        <time>2022-04-21T12:25:50Z</time>
      </trkpt>
      <trkpt lat="50.09403" lon="5.04351">
        <ele>196.7</ele>
        <time>2022-04-21T12:25:51Z</time>
      </trkpt>
      <trkpt lat="50.09401" lon="5.04345">
        <ele>196.7</ele>
        <time>2022-04-21T12:25:52Z</time>
      </trkpt>
      <trkpt lat="50.094" lon="5.0434">
        <ele>196.6</ele>
        <time>2022-04-21T12:25:53Z</time>
      </trkpt>
      <trkpt lat="50.094" lon="5.04338">
        <ele>196.6</ele>
        <time>2022-04-21T12:25:54Z</time>
      </trkpt>
      <trkpt lat="50.09399" lon="5.04333">
        <ele>196.6</ele>
        <time>2022-04-21T12:25:56Z</time>
      </trkpt>
      <trkpt lat="50.094" lon="5.0433">
        <ele>196.6</ele>
        <time>2022-04-21T12:25:57Z</time>
      </trkpt>
      <trkpt lat="50.094" lon="5.04327">
        <ele>196.6</ele>
        <time>2022-04-21T12:25:58Z</time>
      </trkpt>
      <trkpt lat="50.094" lon="5.04323">
        <ele>196.6</ele>
        <time>2022-04-21T12:25:59Z</time>
      </trkpt>
      <trkpt lat="50.094" lon="5.04322">
        <ele>196.6</ele>
        <time>2022-04-21T12:26:00Z</time>
      </trkpt>
      <trkpt lat="50.09401" lon="5.04319">
        <ele>196.6</ele>
        <time>2022-04-21T12:26:01Z</time>
      </trkpt>
      <trkpt lat="50.09401" lon="5.04317">
        <ele>196.7</ele>
        <time>2022-04-21T12:26:02Z</time>
      </trkpt>
      <trkpt lat="50.09401" lon="5.04314">
        <ele>196.7</ele>
        <time>2022-04-21T12:26:03Z</time>
      </trkpt>
      <trkpt lat="50.09401" lon="5.04313">
        <ele>196.7</ele>
        <time>2022-04-21T12:26:04Z</time>
      </trkpt>
      <trkpt lat="50.09401" lon="5.04312">
        <ele>196.7</ele>
        <time>2022-04-21T12:26:05Z</time>
      </trkpt>
      <trkpt lat="50.09401" lon="5.04311">
        <ele>196.7</ele>
        <time>2022-04-21T12:26:06Z</time>
      </trkpt>
      <trkpt lat="50.09401" lon="5.04309">
        <ele>196.7</ele>
        <time>2022-04-21T12:26:08Z</time>
      </trkpt>
      <trkpt lat="50.09402" lon="5.04307">
        <ele>196.7</ele>
        <time>2022-04-21T12:26:09Z</time>
      </trkpt>
      <trkpt lat="50.09402" lon="5.04303">
        <ele>196.7</ele>
        <time>2022-04-21T12:26:10Z</time>
      </trkpt>
      <trkpt lat="50.09403" lon="5.04302">
        <ele>196.7</ele>
        <time>2022-04-21T12:26:11Z</time>
      </trkpt>
      <trkpt lat="50.09403" lon="5.043">
        <ele>196.7</ele>
        <time>2022-04-21T12:26:12Z</time>
      </trkpt>
      <trkpt lat="50.09403" lon="5.04299">
        <ele>196.7</ele>
        <time>2022-04-21T12:26:13Z</time>
      </trkpt>
      <trkpt lat="50.09404" lon="5.04297">
        <ele>196.7</ele>
        <time>2022-04-21T12:26:14Z</time>
      </trkpt>
      <trkpt lat="50.09404" lon="5.04295">
        <ele>196.7</ele>
        <time>2022-04-21T12:26:15Z</time>
      </trkpt>
      <trkpt lat="50.09404" lon="5.04294">
        <ele>196.7</ele>
        <time>2022-04-21T12:26:16Z</time>
      </trkpt>
      <trkpt lat="50.09404" lon="5.04292">
        <ele>196.7</ele>
        <time>2022-04-21T12:26:17Z</time>
      </trkpt>
      <trkpt lat="50.09405" lon="5.0429">
        <ele>196.7</ele>
        <time>2022-04-21T12:26:18Z</time>
      </trkpt>
      <trkpt lat="50.09405" lon="5.04288">
        <ele>196.8</ele>
        <time>2022-04-21T12:26:20Z</time>
      </trkpt>
      <trkpt lat="50.09404" lon="5.04284">
        <ele>196.8</ele>
        <time>2022-04-21T12:26:22Z</time>
      </trkpt>
      <trkpt lat="50.09405" lon="5.0428">
        <ele>196.8</ele>
        <time>2022-04-21T12:26:24Z</time>
      </trkpt>
      <trkpt lat="50.09406" lon="5.04278">
        <ele>196.9</ele>
        <time>2022-04-21T12:26:25Z</time>
      </trkpt>
      <trkpt lat="50.09407" lon="5.04276">
        <ele>196.9</ele>
        <time>2022-04-21T12:26:26Z</time>
      </trkpt>
      <trkpt lat="50.09407" lon="5.04272">
        <ele>197</ele>
        <time>2022-04-21T12:26:27Z</time>
      </trkpt>
      <trkpt lat="50.09407" lon="5.0427">
        <ele>197</ele>
        <time>2022-04-21T12:26:28Z</time>
      </trkpt>
      <trkpt lat="50.09407" lon="5.04266">
        <ele>197</ele>
        <time>2022-04-21T12:26:29Z</time>
      </trkpt>
      <trkpt lat="50.09407" lon="5.04264">
        <ele>197.1</ele>
        <time>2022-04-21T12:26:31Z</time>
      </trkpt>
      <trkpt lat="50.09407" lon="5.04262">
        <ele>197.1</ele>
        <time>2022-04-21T12:26:32Z</time>
      </trkpt>
      <trkpt lat="50.09406" lon="5.04261">
        <ele>197.1</ele>
        <time>2022-04-21T12:26:33Z</time>
      </trkpt>
      <trkpt lat="50.09406" lon="5.04259">
        <ele>197.2</ele>
        <time>2022-04-21T12:26:34Z</time>
      </trkpt>
      <trkpt lat="50.09405" lon="5.04258">
        <ele>197.2</ele>
        <time>2022-04-21T12:26:35Z</time>
      </trkpt>
      <trkpt lat="50.09404" lon="5.04256">
        <ele>197.2</ele>
        <time>2022-04-21T12:26:36Z</time>
      </trkpt>
      <trkpt lat="50.09404" lon="5.04255">
        <ele>197.3</ele>
        <time>2022-04-21T12:26:37Z</time>
      </trkpt>
      <trkpt lat="50.09405" lon="5.04253">
        <ele>197.3</ele>
        <time>2022-04-21T12:26:38Z</time>
      </trkpt>
      <trkpt lat="50.09406" lon="5.04252">
        <ele>197.3</ele>
        <time>2022-04-21T12:26:39Z</time>
      </trkpt>
      <trkpt lat="50.09407" lon="5.04251">
        <ele>197.4</ele>
        <time>2022-04-21T12:26:40Z</time>
      </trkpt>
      <trkpt lat="50.0941" lon="5.04248">
        <ele>197.5</ele>
        <time>2022-04-21T12:26:41Z</time>
      </trkpt>
      <trkpt lat="50.09411" lon="5.04247">
        <ele>197.5</ele>
        <time>2022-04-21T12:26:42Z</time>
      </trkpt>
      <trkpt lat="50.09414" lon="5.04245">
        <ele>197.6</ele>
        <time>2022-04-21T12:26:43Z</time>
      </trkpt>
      <trkpt lat="50.09414" lon="5.04244">
        <ele>197.7</ele>
        <time>2022-04-21T12:26:44Z</time>
      </trkpt>
      <trkpt lat="50.09417" lon="5.0424">
        <ele>197.8</ele>
        <time>2022-04-21T12:26:46Z</time>
      </trkpt>
      <trkpt lat="50.09417" lon="5.04238">
        <ele>197.8</ele>
        <time>2022-04-21T12:26:47Z</time>
      </trkpt>
      <trkpt lat="50.09418" lon="5.04234">
        <ele>197.9</ele>
        <time>2022-04-21T12:26:48Z</time>
      </trkpt>
      <trkpt lat="50.09419" lon="5.04231">
        <ele>198</ele>
        <time>2022-04-21T12:26:49Z</time>
      </trkpt>
      <trkpt lat="50.09421" lon="5.04227">
        <ele>198.1</ele>
        <time>2022-04-21T12:26:51Z</time>
      </trkpt>
      <trkpt lat="50.09422" lon="5.04225">
        <ele>198.2</ele>
        <time>2022-04-21T12:26:52Z</time>
      </trkpt>
      <trkpt lat="50.09423" lon="5.04223">
        <ele>198.3</ele>
        <time>2022-04-21T12:26:53Z</time>
      </trkpt>
      <trkpt lat="50.09425" lon="5.04222">
        <ele>198.4</ele>
        <time>2022-04-21T12:26:54Z</time>
      </trkpt>
      <trkpt lat="50.09426" lon="5.04221">
        <ele>198.5</ele>
        <time>2022-04-21T12:26:55Z</time>
      </trkpt>
      <trkpt lat="50.09427" lon="5.04219">
        <ele>198.5</ele>
        <time>2022-04-21T12:26:56Z</time>
      </trkpt>
      <trkpt lat="50.09429" lon="5.04218">
        <ele>198.6</ele>
        <time>2022-04-21T12:26:57Z</time>
      </trkpt>
      <trkpt lat="50.0943" lon="5.04217">
        <ele>198.7</ele>
        <time>2022-04-21T12:26:58Z</time>
      </trkpt>
      <trkpt lat="50.09431" lon="5.04216">
        <ele>198.8</ele>
        <time>2022-04-21T12:26:59Z</time>
      </trkpt>
      <trkpt lat="50.09433" lon="5.04215">
        <ele>198.9</ele>
        <time>2022-04-21T12:27:00Z</time>
      </trkpt>
      <trkpt lat="50.09434" lon="5.04215">
        <ele>198.9</ele>
        <time>2022-04-21T12:27:01Z</time>
      </trkpt>
      <trkpt lat="50.09435" lon="5.04214">
        <ele>199</ele>
        <time>2022-04-21T12:27:02Z</time>
      </trkpt>
      <trkpt lat="50.09436" lon="5.04213">
        <ele>199.1</ele>
        <time>2022-04-21T12:27:03Z</time>
      </trkpt>
      <trkpt lat="50.09437" lon="5.04212">
        <ele>199.1</ele>
        <time>2022-04-21T12:27:04Z</time>
      </trkpt>
      <trkpt lat="50.09437" lon="5.0421">
        <ele>199.2</ele>
        <time>2022-04-21T12:27:05Z</time>
      </trkpt>
      <trkpt lat="50.09439" lon="5.04208">
        <ele>199.3</ele>
        <time>2022-04-21T12:27:06Z</time>
      </trkpt>
      <trkpt lat="50.09439" lon="5.04207">
        <ele>199.4</ele>
        <time>2022-04-21T12:27:07Z</time>
      </trkpt>
      <trkpt lat="50.0944" lon="5.04207">
        <ele>199.4</ele>
        <time>2022-04-21T12:27:08Z</time>
      </trkpt>
      <trkpt lat="50.09442" lon="5.04206">
        <ele>199.5</ele>
        <time>2022-04-21T12:27:09Z</time>
      </trkpt>
      <trkpt lat="50.09443" lon="5.04206">
        <ele>199.6</ele>
        <time>2022-04-21T12:27:10Z</time>
      </trkpt>
      <trkpt lat="50.09444" lon="5.04206">
        <ele>199.7</ele>
        <time>2022-04-21T12:27:11Z</time>
      </trkpt>
      <trkpt lat="50.09445" lon="5.04205">
        <ele>199.7</ele>
        <time>2022-04-21T12:27:12Z</time>
      </trkpt>
      <trkpt lat="50.09447" lon="5.04205">
        <ele>199.8</ele>
        <time>2022-04-21T12:27:13Z</time>
      </trkpt>
      <trkpt lat="50.09448" lon="5.04203">
        <ele>199.9</ele>
        <time>2022-04-21T12:27:14Z</time>
      </trkpt>
      <trkpt lat="50.09449" lon="5.04201">
        <ele>200</ele>
        <time>2022-04-21T12:27:15Z</time>
      </trkpt>
      <trkpt lat="50.0945" lon="5.04199">
        <ele>200.1</ele>
        <time>2022-04-21T12:27:16Z</time>
      </trkpt>
      <trkpt lat="50.0945" lon="5.04198">
        <ele>200.2</ele>
        <time>2022-04-21T12:27:17Z</time>
      </trkpt>
      <trkpt lat="50.09451" lon="5.04196">
        <ele>200.4</ele>
        <time>2022-04-21T12:27:18Z</time>
      </trkpt>
      <trkpt lat="50.09452" lon="5.04194">
        <ele>200.5</ele>
        <time>2022-04-21T12:27:19Z</time>
      </trkpt>
      <trkpt lat="50.09453" lon="5.04192">
        <ele>200.7</ele>
        <time>2022-04-21T12:27:21Z</time>
      </trkpt>
      <trkpt lat="50.09455" lon="5.04191">
        <ele>200.8</ele>
        <time>2022-04-21T12:27:22Z</time>
      </trkpt>
      <trkpt lat="50.09456" lon="5.04191">
        <ele>200.9</ele>
        <time>2022-04-21T12:27:23Z</time>
      </trkpt>
      <trkpt lat="50.09457" lon="5.04191">
        <ele>201</ele>
        <time>2022-04-21T12:27:24Z</time>
      </trkpt>
      <trkpt lat="50.09459" lon="5.0419">
        <ele>201.1</ele>
        <time>2022-04-21T12:27:25Z</time>
      </trkpt>
      <trkpt lat="50.09459" lon="5.04189">
        <ele>201.2</ele>
        <time>2022-04-21T12:27:26Z</time>
      </trkpt>
      <trkpt lat="50.09461" lon="5.04189">
        <ele>201.4</ele>
        <time>2022-04-21T12:27:27Z</time>
      </trkpt>
      <trkpt lat="50.09462" lon="5.04188">
        <ele>201.5</ele>
        <time>2022-04-21T12:27:28Z</time>
      </trkpt>
      <trkpt lat="50.09465" lon="5.04187">
        <ele>201.7</ele>
        <time>2022-04-21T12:27:30Z</time>
      </trkpt>
      <trkpt lat="50.09466" lon="5.04187">
        <ele>201.8</ele>
        <time>2022-04-21T12:27:31Z</time>
      </trkpt>
      <trkpt lat="50.09467" lon="5.04186">
        <ele>201.9</ele>
        <time>2022-04-21T12:27:32Z</time>
      </trkpt>
      <trkpt lat="50.09468" lon="5.04184">
        <ele>202.1</ele>
        <time>2022-04-21T12:27:33Z</time>
      </trkpt>
      <trkpt lat="50.09469" lon="5.04182">
        <ele>202.2</ele>
        <time>2022-04-21T12:27:34Z</time>
      </trkpt>
      <trkpt lat="50.0947" lon="5.0418">
        <ele>202.4</ele>
        <time>2022-04-21T12:27:35Z</time>
      </trkpt>
      <trkpt lat="50.09471" lon="5.04179">
        <ele>202.5</ele>
        <time>2022-04-21T12:27:36Z</time>
      </trkpt>
      <trkpt lat="50.09472" lon="5.04178">
        <ele>202.7</ele>
        <time>2022-04-21T12:27:37Z</time>
      </trkpt>
      <trkpt lat="50.09474" lon="5.04176">
        <ele>202.8</ele>
        <time>2022-04-21T12:27:38Z</time>
      </trkpt>
      <trkpt lat="50.09475" lon="5.04175">
        <ele>203</ele>
        <time>2022-04-21T12:27:39Z</time>
      </trkpt>
      <trkpt lat="50.09475" lon="5.04174">
        <ele>203</ele>
        <time>2022-04-21T12:27:40Z</time>
      </trkpt>
      <trkpt lat="50.09477" lon="5.04171">
        <ele>203.3</ele>
        <time>2022-04-21T12:27:42Z</time>
      </trkpt>
      <trkpt lat="50.09477" lon="5.0417">
        <ele>203.4</ele>
        <time>2022-04-21T12:27:43Z</time>
      </trkpt>
      <trkpt lat="50.09479" lon="5.04169">
        <ele>203.5</ele>
        <time>2022-04-21T12:27:44Z</time>
      </trkpt>
      <trkpt lat="50.09481" lon="5.04169">
        <ele>203.8</ele>
        <time>2022-04-21T12:27:46Z</time>
      </trkpt>
      <trkpt lat="50.09482" lon="5.04169">
        <ele>203.9</ele>
        <time>2022-04-21T12:27:47Z</time>
      </trkpt>
      <trkpt lat="50.09483" lon="5.04169">
        <ele>203.9</ele>
        <time>2022-04-21T12:27:48Z</time>
      </trkpt>
      <trkpt lat="50.09485" lon="5.04168">
        <ele>204.2</ele>
        <time>2022-04-21T12:27:49Z</time>
      </trkpt>
      <trkpt lat="50.09485" lon="5.04167">
        <ele>204.3</ele>
        <time>2022-04-21T12:27:50Z</time>
      </trkpt>
      <trkpt lat="50.09486" lon="5.04167">
        <ele>204.3</ele>
        <time>2022-04-21T12:27:51Z</time>
      </trkpt>
      <trkpt lat="50.09487" lon="5.04165">
        <ele>204.5</ele>
        <time>2022-04-21T12:27:52Z</time>
      </trkpt>
      <trkpt lat="50.09488" lon="5.04163">
        <ele>204.7</ele>
        <time>2022-04-21T12:27:53Z</time>
      </trkpt>
      <trkpt lat="50.09489" lon="5.0416">
        <ele>204.9</ele>
        <time>2022-04-21T12:27:55Z</time>
      </trkpt>
      <trkpt lat="50.09489" lon="5.04158">
        <ele>205.1</ele>
        <time>2022-04-21T12:27:56Z</time>
      </trkpt>
      <trkpt lat="50.09489" lon="5.04157">
        <ele>205.2</ele>
        <time>2022-04-21T12:27:57Z</time>
      </trkpt>
      <trkpt lat="50.0949" lon="5.04155">
        <ele>205.3</ele>
        <time>2022-04-21T12:27:58Z</time>
      </trkpt>
      <trkpt lat="50.0949" lon="5.04154">
        <ele>205.4</ele>
        <time>2022-04-21T12:27:59Z</time>
      </trkpt>
      <trkpt lat="50.09491" lon="5.04153">
        <ele>205.5</ele>
        <time>2022-04-21T12:28:00Z</time>
      </trkpt>
      <trkpt lat="50.09491" lon="5.04151">
        <ele>205.7</ele>
        <time>2022-04-21T12:28:01Z</time>
      </trkpt>
      <trkpt lat="50.09492" lon="5.0415">
        <ele>205.8</ele>
        <time>2022-04-21T12:28:02Z</time>
      </trkpt>
      <trkpt lat="50.09493" lon="5.04148">
        <ele>206</ele>
        <time>2022-04-21T12:28:03Z</time>
      </trkpt>
      <trkpt lat="50.09495" lon="5.04147">
        <ele>206.2</ele>
        <time>2022-04-21T12:28:04Z</time>
      </trkpt>
      <trkpt lat="50.09497" lon="5.04146">
        <ele>206.4</ele>
        <time>2022-04-21T12:28:05Z</time>
      </trkpt>
      <trkpt lat="50.09498" lon="5.04145">
        <ele>206.6</ele>
        <time>2022-04-21T12:28:07Z</time>
      </trkpt>
      <trkpt lat="50.095" lon="5.04144">
        <ele>206.8</ele>
        <time>2022-04-21T12:28:08Z</time>
      </trkpt>
      <trkpt lat="50.09501" lon="5.04142">
        <ele>207</ele>
        <time>2022-04-21T12:28:09Z</time>
      </trkpt>
      <trkpt lat="50.09503" lon="5.04141">
        <ele>207.2</ele>
        <time>2022-04-21T12:28:11Z</time>
      </trkpt>
      <trkpt lat="50.09503" lon="5.04139">
        <ele>207.3</ele>
        <time>2022-04-21T12:28:12Z</time>
      </trkpt>
      <trkpt lat="50.09504" lon="5.04137">
        <ele>207.5</ele>
        <time>2022-04-21T12:28:13Z</time>
      </trkpt>
      <trkpt lat="50.09505" lon="5.04136">
        <ele>207.7</ele>
        <time>2022-04-21T12:28:14Z</time>
      </trkpt>
      <trkpt lat="50.09507" lon="5.04134">
        <ele>207.9</ele>
        <time>2022-04-21T12:28:15Z</time>
      </trkpt>
      <trkpt lat="50.09508" lon="5.04134">
        <ele>208</ele>
        <time>2022-04-21T12:28:16Z</time>
      </trkpt>
      <trkpt lat="50.09509" lon="5.04133">
        <ele>208.1</ele>
        <time>2022-04-21T12:28:17Z</time>
      </trkpt>
      <trkpt lat="50.0951" lon="5.04132">
        <ele>208.2</ele>
        <time>2022-04-21T12:28:18Z</time>
      </trkpt>
      <trkpt lat="50.09512" lon="5.04132">
        <ele>208.4</ele>
        <time>2022-04-21T12:28:19Z</time>
      </trkpt>
      <trkpt lat="50.09513" lon="5.04132">
        <ele>208.5</ele>
        <time>2022-04-21T12:28:20Z</time>
      </trkpt>
      <trkpt lat="50.09514" lon="5.04132">
        <ele>208.6</ele>
        <time>2022-04-21T12:28:22Z</time>
      </trkpt>
      <trkpt lat="50.09515" lon="5.04131">
        <ele>208.7</ele>
        <time>2022-04-21T12:28:23Z</time>
      </trkpt>
      <trkpt lat="50.09515" lon="5.04131">
        <ele>208.8</ele>
        <time>2022-04-21T12:28:24Z</time>
      </trkpt>
      <trkpt lat="50.09516" lon="5.04129">
        <ele>208.9</ele>
        <time>2022-04-21T12:28:25Z</time>
      </trkpt>
      <trkpt lat="50.09517" lon="5.04128">
        <ele>209</ele>
        <time>2022-04-21T12:28:26Z</time>
      </trkpt>
      <trkpt lat="50.09518" lon="5.04127">
        <ele>209.1</ele>
        <time>2022-04-21T12:28:27Z</time>
      </trkpt>
      <trkpt lat="50.09518" lon="5.04126">
        <ele>209.2</ele>
        <time>2022-04-21T12:28:28Z</time>
      </trkpt>
      <trkpt lat="50.09519" lon="5.04125">
        <ele>209.3</ele>
        <time>2022-04-21T12:28:29Z</time>
      </trkpt>
      <trkpt lat="50.09521" lon="5.04124">
        <ele>209.5</ele>
        <time>2022-04-21T12:28:30Z</time>
      </trkpt>
      <trkpt lat="50.09522" lon="5.04124">
        <ele>209.6</ele>
        <time>2022-04-21T12:28:31Z</time>
      </trkpt>
      <trkpt lat="50.09522" lon="5.04123">
        <ele>209.7</ele>
        <time>2022-04-21T12:28:32Z</time>
      </trkpt>
      <trkpt lat="50.09524" lon="5.04123">
        <ele>209.9</ele>
        <time>2022-04-21T12:28:33Z</time>
      </trkpt>
      <trkpt lat="50.09525" lon="5.04122">
        <ele>210</ele>
        <time>2022-04-21T12:28:34Z</time>
      </trkpt>
      <trkpt lat="50.09526" lon="5.04122">
        <ele>210.1</ele>
        <time>2022-04-21T12:28:35Z</time>
      </trkpt>
      <trkpt lat="50.09527" lon="5.04121">
        <ele>210.2</ele>
        <time>2022-04-21T12:28:37Z</time>
      </trkpt>
      <trkpt lat="50.09529" lon="5.0412">
        <ele>210.4</ele>
        <time>2022-04-21T12:28:38Z</time>
      </trkpt>
      <trkpt lat="50.09531" lon="5.04117">
        <ele>210.7</ele>
        <time>2022-04-21T12:28:39Z</time>
      </trkpt>
      <trkpt lat="50.09532" lon="5.04116">
        <ele>210.8</ele>
        <time>2022-04-21T12:28:40Z</time>
      </trkpt>
      <trkpt lat="50.09534" lon="5.04115">
        <ele>210.9</ele>
        <time>2022-04-21T12:28:41Z</time>
      </trkpt>
      <trkpt lat="50.09535" lon="5.04114">
        <ele>211.1</ele>
        <time>2022-04-21T12:28:42Z</time>
      </trkpt>
      <trkpt lat="50.09536" lon="5.04113">
        <ele>211.2</ele>
        <time>2022-04-21T12:28:43Z</time>
      </trkpt>
      <trkpt lat="50.09538" lon="5.04111">
        <ele>211.4</ele>
        <time>2022-04-21T12:28:45Z</time>
      </trkpt>
      <trkpt lat="50.09539" lon="5.0411">
        <ele>211.6</ele>
        <time>2022-04-21T12:28:46Z</time>
      </trkpt>
      <trkpt lat="50.0954" lon="5.04108">
        <ele>211.7</ele>
        <time>2022-04-21T12:28:47Z</time>
      </trkpt>
      <trkpt lat="50.09541" lon="5.04107">
        <ele>211.9</ele>
        <time>2022-04-21T12:28:48Z</time>
      </trkpt>
      <trkpt lat="50.09542" lon="5.04106">
        <ele>212</ele>
        <time>2022-04-21T12:28:49Z</time>
      </trkpt>
      <trkpt lat="50.09543" lon="5.04105">
        <ele>212.1</ele>
        <time>2022-04-21T12:28:50Z</time>
      </trkpt>
      <trkpt lat="50.09544" lon="5.04104">
        <ele>212.3</ele>
        <time>2022-04-21T12:28:51Z</time>
      </trkpt>
      <trkpt lat="50.09545" lon="5.04103">
        <ele>212.4</ele>
        <time>2022-04-21T12:28:52Z</time>
      </trkpt>
      <trkpt lat="50.09546" lon="5.04102">
        <ele>212.5</ele>
        <time>2022-04-21T12:28:53Z</time>
      </trkpt>
      <trkpt lat="50.09547" lon="5.04101">
        <ele>212.6</ele>
        <time>2022-04-21T12:28:54Z</time>
      </trkpt>
      <trkpt lat="50.09548" lon="5.041">
        <ele>212.7</ele>
        <time>2022-04-21T12:28:55Z</time>
      </trkpt>
      <trkpt lat="50.09549" lon="5.04097">
        <ele>212.9</ele>
        <time>2022-04-21T12:28:56Z</time>
      </trkpt>
      <trkpt lat="50.09549" lon="5.04096">
        <ele>213</ele>
        <time>2022-04-21T12:28:57Z</time>
      </trkpt>
      <trkpt lat="50.0955" lon="5.04095">
        <ele>213.1</ele>
        <time>2022-04-21T12:28:58Z</time>
      </trkpt>
      <trkpt lat="50.0955" lon="5.04092">
        <ele>213.3</ele>
        <time>2022-04-21T12:28:59Z</time>
      </trkpt>
      <trkpt lat="50.09551" lon="5.04091">
        <ele>213.4</ele>
        <time>2022-04-21T12:29:01Z</time>
      </trkpt>
      <trkpt lat="50.09551" lon="5.0409">
        <ele>213.5</ele>
        <time>2022-04-21T12:29:02Z</time>
      </trkpt>
      <trkpt lat="50.09552" lon="5.04088">
        <ele>213.6</ele>
        <time>2022-04-21T12:29:03Z</time>
      </trkpt>
      <trkpt lat="50.09553" lon="5.04086">
        <ele>213.9</ele>
        <time>2022-04-21T12:29:04Z</time>
      </trkpt>
      <trkpt lat="50.09554" lon="5.04084">
        <ele>214.1</ele>
        <time>2022-04-21T12:29:05Z</time>
      </trkpt>
      <trkpt lat="50.09555" lon="5.04082">
        <ele>214.2</ele>
        <time>2022-04-21T12:29:06Z</time>
      </trkpt>
      <trkpt lat="50.09557" lon="5.04081">
        <ele>214.4</ele>
        <time>2022-04-21T12:29:07Z</time>
      </trkpt>
      <trkpt lat="50.09558" lon="5.04079">
        <ele>214.6</ele>
        <time>2022-04-21T12:29:09Z</time>
      </trkpt>
      <trkpt lat="50.09559" lon="5.04079">
        <ele>214.7</ele>
        <time>2022-04-21T12:29:10Z</time>
      </trkpt>
      <trkpt lat="50.09561" lon="5.04077">
        <ele>214.9</ele>
        <time>2022-04-21T12:29:11Z</time>
      </trkpt>
      <trkpt lat="50.09563" lon="5.04076">
        <ele>215.1</ele>
        <time>2022-04-21T12:29:12Z</time>
      </trkpt>
      <trkpt lat="50.09564" lon="5.04075">
        <ele>215.2</ele>
        <time>2022-04-21T12:29:13Z</time>
      </trkpt>
      <trkpt lat="50.09564" lon="5.04074">
        <ele>215.3</ele>
        <time>2022-04-21T12:29:14Z</time>
      </trkpt>
      <trkpt lat="50.09566" lon="5.04071">
        <ele>215.5</ele>
        <time>2022-04-21T12:29:15Z</time>
      </trkpt>
      <trkpt lat="50.09566" lon="5.0407">
        <ele>215.6</ele>
        <time>2022-04-21T12:29:17Z</time>
      </trkpt>
      <trkpt lat="50.09567" lon="5.04069">
        <ele>215.7</ele>
        <time>2022-04-21T12:29:18Z</time>
      </trkpt>
      <trkpt lat="50.09568" lon="5.04066">
        <ele>216</ele>
        <time>2022-04-21T12:29:19Z</time>
      </trkpt>
      <trkpt lat="50.09569" lon="5.04064">
        <ele>216.1</ele>
        <time>2022-04-21T12:29:20Z</time>
      </trkpt>
      <trkpt lat="50.0957" lon="5.04062">
        <ele>216.2</ele>
        <time>2022-04-21T12:29:21Z</time>
      </trkpt>
      <trkpt lat="50.09571" lon="5.04061">
        <ele>216.3</ele>
        <time>2022-04-21T12:29:23Z</time>
      </trkpt>
      <trkpt lat="50.09571" lon="5.0406">
        <ele>216.4</ele>
        <time>2022-04-21T12:29:24Z</time>
      </trkpt>
      <trkpt lat="50.09572" lon="5.04059">
        <ele>216.5</ele>
        <time>2022-04-21T12:29:25Z</time>
      </trkpt>
      <trkpt lat="50.09573" lon="5.04058">
        <ele>216.6</ele>
        <time>2022-04-21T12:29:26Z</time>
      </trkpt>
      <trkpt lat="50.09575" lon="5.04056">
        <ele>216.8</ele>
        <time>2022-04-21T12:29:27Z</time>
      </trkpt>
      <trkpt lat="50.09575" lon="5.04055">
        <ele>216.9</ele>
        <time>2022-04-21T12:29:28Z</time>
      </trkpt>
      <trkpt lat="50.09576" lon="5.04054">
        <ele>217</ele>
        <time>2022-04-21T12:29:29Z</time>
      </trkpt>
      <trkpt lat="50.09577" lon="5.04052">
        <ele>217.2</ele>
        <time>2022-04-21T12:29:30Z</time>
      </trkpt>
      <trkpt lat="50.09578" lon="5.04051">
        <ele>217.3</ele>
        <time>2022-04-21T12:29:31Z</time>
      </trkpt>
      <trkpt lat="50.09579" lon="5.0405">
        <ele>217.3</ele>
        <time>2022-04-21T12:29:32Z</time>
      </trkpt>
      <trkpt lat="50.0958" lon="5.04048">
        <ele>217.5</ele>
        <time>2022-04-21T12:29:33Z</time>
      </trkpt>
      <trkpt lat="50.09581" lon="5.04048">
        <ele>217.6</ele>
        <time>2022-04-21T12:29:34Z</time>
      </trkpt>
      <trkpt lat="50.09582" lon="5.04047">
        <ele>217.7</ele>
        <time>2022-04-21T12:29:35Z</time>
      </trkpt>
      <trkpt lat="50.09583" lon="5.04044">
        <ele>217.9</ele>
        <time>2022-04-21T12:29:36Z</time>
      </trkpt>
      <trkpt lat="50.09584" lon="5.04043">
        <ele>218</ele>
        <time>2022-04-21T12:29:38Z</time>
      </trkpt>
      <trkpt lat="50.09584" lon="5.04042">
        <ele>218</ele>
        <time>2022-04-21T12:29:39Z</time>
      </trkpt>
      <trkpt lat="50.09585" lon="5.04041">
        <ele>218.2</ele>
        <time>2022-04-21T12:29:40Z</time>
      </trkpt>
      <trkpt lat="50.09585" lon="5.04038">
        <ele>218.3</ele>
        <time>2022-04-21T12:29:41Z</time>
      </trkpt>
      <trkpt lat="50.09586" lon="5.04037">
        <ele>218.4</ele>
        <time>2022-04-21T12:29:42Z</time>
      </trkpt>
      <trkpt lat="50.09586" lon="5.04035">
        <ele>218.5</ele>
        <time>2022-04-21T12:29:43Z</time>
      </trkpt>
      <trkpt lat="50.09587" lon="5.04034">
        <ele>218.6</ele>
        <time>2022-04-21T12:29:44Z</time>
      </trkpt>
      <trkpt lat="50.09588" lon="5.04031">
        <ele>218.8</ele>
        <time>2022-04-21T12:29:45Z</time>
      </trkpt>
      <trkpt lat="50.09589" lon="5.04031">
        <ele>218.9</ele>
        <time>2022-04-21T12:29:46Z</time>
      </trkpt>
      <trkpt lat="50.09589" lon="5.0403">
        <ele>219</ele>
        <time>2022-04-21T12:29:47Z</time>
      </trkpt>
      <trkpt lat="50.0959" lon="5.04029">
        <ele>219</ele>
        <time>2022-04-21T12:29:48Z</time>
      </trkpt>
      <trkpt lat="50.09591" lon="5.04028">
        <ele>219.1</ele>
        <time>2022-04-21T12:29:49Z</time>
      </trkpt>
      <trkpt lat="50.09592" lon="5.04027">
        <ele>219.2</ele>
        <time>2022-04-21T12:29:51Z</time>
      </trkpt>
      <trkpt lat="50.09593" lon="5.04026">
        <ele>219.3</ele>
        <time>2022-04-21T12:29:52Z</time>
      </trkpt>
      <trkpt lat="50.09594" lon="5.04025">
        <ele>219.5</ele>
        <time>2022-04-21T12:29:53Z</time>
      </trkpt>
      <trkpt lat="50.09596" lon="5.04024">
        <ele>219.6</ele>
        <time>2022-04-21T12:29:54Z</time>
      </trkpt>
      <trkpt lat="50.09597" lon="5.04024">
        <ele>219.7</ele>
        <time>2022-04-21T12:29:55Z</time>
      </trkpt>
      <trkpt lat="50.09599" lon="5.04022">
        <ele>219.9</ele>
        <time>2022-04-21T12:29:56Z</time>
      </trkpt>
      <trkpt lat="50.096" lon="5.04022">
        <ele>219.9</ele>
        <time>2022-04-21T12:29:57Z</time>
      </trkpt>
      <trkpt lat="50.09601" lon="5.04021">
        <ele>220</ele>
        <time>2022-04-21T12:29:58Z</time>
      </trkpt>
      <trkpt lat="50.09602" lon="5.0402">
        <ele>220.1</ele>
        <time>2022-04-21T12:29:59Z</time>
      </trkpt>
      <trkpt lat="50.09603" lon="5.04019">
        <ele>220.2</ele>
        <time>2022-04-21T12:30:00Z</time>
      </trkpt>
      <trkpt lat="50.09605" lon="5.04018">
        <ele>220.4</ele>
        <time>2022-04-21T12:30:01Z</time>
      </trkpt>
      <trkpt lat="50.09606" lon="5.04017">
        <ele>220.5</ele>
        <time>2022-04-21T12:30:02Z</time>
      </trkpt>
      <trkpt lat="50.09608" lon="5.04016">
        <ele>220.6</ele>
        <time>2022-04-21T12:30:03Z</time>
      </trkpt>
      <trkpt lat="50.09609" lon="5.04015">
        <ele>220.7</ele>
        <time>2022-04-21T12:30:04Z</time>
      </trkpt>
      <trkpt lat="50.0961" lon="5.04015">
        <ele>220.8</ele>
        <time>2022-04-21T12:30:05Z</time>
      </trkpt>
      <trkpt lat="50.09611" lon="5.04014">
        <ele>220.8</ele>
        <time>2022-04-21T12:30:07Z</time>
      </trkpt>
      <trkpt lat="50.09612" lon="5.04014">
        <ele>220.9</ele>
        <time>2022-04-21T12:30:08Z</time>
      </trkpt>
      <trkpt lat="50.09614" lon="5.04013">
        <ele>221</ele>
        <time>2022-04-21T12:30:09Z</time>
      </trkpt>
      <trkpt lat="50.09615" lon="5.04012">
        <ele>221.1</ele>
        <time>2022-04-21T12:30:10Z</time>
      </trkpt>
      <trkpt lat="50.09616" lon="5.04012">
        <ele>221.1</ele>
        <time>2022-04-21T12:30:11Z</time>
      </trkpt>
      <trkpt lat="50.09617" lon="5.0401">
        <ele>221.2</ele>
        <time>2022-04-21T12:30:12Z</time>
      </trkpt>
      <trkpt lat="50.09618" lon="5.04009">
        <ele>221.3</ele>
        <time>2022-04-21T12:30:13Z</time>
      </trkpt>
      <trkpt lat="50.09619" lon="5.04008">
        <ele>221.3</ele>
        <time>2022-04-21T12:30:14Z</time>
      </trkpt>
      <trkpt lat="50.0962" lon="5.04007">
        <ele>221.4</ele>
        <time>2022-04-21T12:30:15Z</time>
      </trkpt>
      <trkpt lat="50.09622" lon="5.04006">
        <ele>221.5</ele>
        <time>2022-04-21T12:30:17Z</time>
      </trkpt>
      <trkpt lat="50.09624" lon="5.04005">
        <ele>221.6</ele>
        <time>2022-04-21T12:30:18Z</time>
      </trkpt>
      <trkpt lat="50.09625" lon="5.04005">
        <ele>221.6</ele>
        <time>2022-04-21T12:30:19Z</time>
      </trkpt>
      <trkpt lat="50.09627" lon="5.04004">
        <ele>221.7</ele>
        <time>2022-04-21T12:30:20Z</time>
      </trkpt>
      <trkpt lat="50.09628" lon="5.04003">
        <ele>221.7</ele>
        <time>2022-04-21T12:30:21Z</time>
      </trkpt>
      <trkpt lat="50.0963" lon="5.04">
        <ele>221.8</ele>
        <time>2022-04-21T12:30:23Z</time>
      </trkpt>
      <trkpt lat="50.09631" lon="5.03998">
        <ele>221.8</ele>
        <time>2022-04-21T12:30:24Z</time>
      </trkpt>
      <trkpt lat="50.09632" lon="5.03997">
        <ele>221.9</ele>
        <time>2022-04-21T12:30:25Z</time>
      </trkpt>
      <trkpt lat="50.09633" lon="5.03995">
        <ele>221.9</ele>
        <time>2022-04-21T12:30:26Z</time>
      </trkpt>
      <trkpt lat="50.09634" lon="5.03993">
        <ele>221.9</ele>
        <time>2022-04-21T12:30:27Z</time>
      </trkpt>
      <trkpt lat="50.09635" lon="5.03991">
        <ele>222</ele>
        <time>2022-04-21T12:30:28Z</time>
      </trkpt>
      <trkpt lat="50.09637" lon="5.03989">
        <ele>222</ele>
        <time>2022-04-21T12:30:30Z</time>
      </trkpt>
      <trkpt lat="50.09637" lon="5.03988">
        <ele>222</ele>
        <time>2022-04-21T12:30:31Z</time>
      </trkpt>
      <trkpt lat="50.09638" lon="5.03986">
        <ele>222</ele>
        <time>2022-04-21T12:30:32Z</time>
      </trkpt>
      <trkpt lat="50.09639" lon="5.03986">
        <ele>222.1</ele>
        <time>2022-04-21T12:30:33Z</time>
      </trkpt>
      <trkpt lat="50.0964" lon="5.03986">
        <ele>222.1</ele>
        <time>2022-04-21T12:30:34Z</time>
      </trkpt>
      <trkpt lat="50.09641" lon="5.03985">
        <ele>222.1</ele>
        <time>2022-04-21T12:30:35Z</time>
      </trkpt>
      <trkpt lat="50.09642" lon="5.03985">
        <ele>222.1</ele>
        <time>2022-04-21T12:30:36Z</time>
      </trkpt>
      <trkpt lat="50.09643" lon="5.03987">
        <ele>222.4</ele>
        <time>2022-04-21T12:30:37Z</time>
      </trkpt>
      <trkpt lat="50.09643" lon="5.03989">
        <ele>222.5</ele>
        <time>2022-04-21T12:30:39Z</time>
      </trkpt>
      <trkpt lat="50.09644" lon="5.03991">
        <ele>222.5</ele>
        <time>2022-04-21T12:30:40Z</time>
      </trkpt>
      <trkpt lat="50.09644" lon="5.03991">
        <ele>222.6</ele>
        <time>2022-04-21T12:30:41Z</time>
      </trkpt>
      <trkpt lat="50.09644" lon="5.03992">
        <ele>222.6</ele>
        <time>2022-04-21T12:30:42Z</time>
      </trkpt>
      <trkpt lat="50.09644" lon="5.03992">
        <ele>222.6</ele>
        <time>2022-04-21T12:30:44Z</time>
      </trkpt>
      <trkpt lat="50.09645" lon="5.03992">
        <ele>222.7</ele>
        <time>2022-04-21T12:30:45Z</time>
      </trkpt>
      <trkpt lat="50.09646" lon="5.03992">
        <ele>222.7</ele>
        <time>2022-04-21T12:30:46Z</time>
      </trkpt>
      <trkpt lat="50.09646" lon="5.03993">
        <ele>222.8</ele>
        <time>2022-04-21T12:30:47Z</time>
      </trkpt>
      <trkpt lat="50.09647" lon="5.03995">
        <ele>222.9</ele>
        <time>2022-04-21T12:30:48Z</time>
      </trkpt>
      <trkpt lat="50.09648" lon="5.03997">
        <ele>222.9</ele>
        <time>2022-04-21T12:30:49Z</time>
      </trkpt>
      <trkpt lat="50.09648" lon="5.03999">
        <ele>223</ele>
        <time>2022-04-21T12:30:50Z</time>
      </trkpt>
      <trkpt lat="50.09648" lon="5.04001">
        <ele>223.1</ele>
        <time>2022-04-21T12:30:51Z</time>
      </trkpt>
      <trkpt lat="50.09649" lon="5.04003">
        <ele>223.2</ele>
        <time>2022-04-21T12:30:52Z</time>
      </trkpt>
      <trkpt lat="50.09649" lon="5.04005">
        <ele>223.3</ele>
        <time>2022-04-21T12:30:53Z</time>
      </trkpt>
      <trkpt lat="50.09649" lon="5.04006">
        <ele>223.4</ele>
        <time>2022-04-21T12:30:54Z</time>
      </trkpt>
      <trkpt lat="50.0965" lon="5.04008">
        <ele>223.5</ele>
        <time>2022-04-21T12:30:55Z</time>
      </trkpt>
      <trkpt lat="50.09651" lon="5.04009">
        <ele>223.6</ele>
        <time>2022-04-21T12:30:56Z</time>
      </trkpt>
      <trkpt lat="50.09651" lon="5.0401">
        <ele>223.7</ele>
        <time>2022-04-21T12:30:57Z</time>
      </trkpt>
      <trkpt lat="50.09652" lon="5.04012">
        <ele>223.7</ele>
        <time>2022-04-21T12:30:58Z</time>
      </trkpt>
      <trkpt lat="50.09652" lon="5.04012">
        <ele>223.8</ele>
        <time>2022-04-21T12:30:59Z</time>
      </trkpt>
      <trkpt lat="50.09652" lon="5.04014">
        <ele>223.9</ele>
        <time>2022-04-21T12:31:00Z</time>
      </trkpt>
      <trkpt lat="50.09652" lon="5.04015">
        <ele>223.9</ele>
        <time>2022-04-21T12:31:01Z</time>
      </trkpt>
      <trkpt lat="50.09652" lon="5.04016">
        <ele>224</ele>
        <time>2022-04-21T12:31:02Z</time>
      </trkpt>
      <trkpt lat="50.09652" lon="5.04018">
        <ele>224.1</ele>
        <time>2022-04-21T12:31:03Z</time>
      </trkpt>
      <trkpt lat="50.09651" lon="5.04021">
        <ele>224.2</ele>
        <time>2022-04-21T12:31:05Z</time>
      </trkpt>
      <trkpt lat="50.09651" lon="5.04024">
        <ele>224.4</ele>
        <time>2022-04-21T12:31:07Z</time>
      </trkpt>
      <trkpt lat="50.09651" lon="5.04027">
        <ele>224.5</ele>
        <time>2022-04-21T12:31:08Z</time>
      </trkpt>
      <trkpt lat="50.09651" lon="5.04029">
        <ele>224.6</ele>
        <time>2022-04-21T12:31:09Z</time>
      </trkpt>
      <trkpt lat="50.09651" lon="5.04032">
        <ele>224.8</ele>
        <time>2022-04-21T12:31:10Z</time>
      </trkpt>
      <trkpt lat="50.09652" lon="5.04033">
        <ele>224.9</ele>
        <time>2022-04-21T12:31:11Z</time>
      </trkpt>
      <trkpt lat="50.09652" lon="5.04035">
        <ele>224.9</ele>
        <time>2022-04-21T12:31:12Z</time>
      </trkpt>
      <trkpt lat="50.09653" lon="5.04037">
        <ele>225.1</ele>
        <time>2022-04-21T12:31:13Z</time>
      </trkpt>
      <trkpt lat="50.09654" lon="5.04038">
        <ele>225.2</ele>
        <time>2022-04-21T12:31:14Z</time>
      </trkpt>
      <trkpt lat="50.09656" lon="5.0404">
        <ele>225.3</ele>
        <time>2022-04-21T12:31:16Z</time>
      </trkpt>
      <trkpt lat="50.09658" lon="5.04042">
        <ele>225.5</ele>
        <time>2022-04-21T12:31:18Z</time>
      </trkpt>
      <trkpt lat="50.09661" lon="5.04045">
        <ele>225.7</ele>
        <time>2022-04-21T12:31:19Z</time>
      </trkpt>
      <trkpt lat="50.09662" lon="5.04045">
        <ele>225.8</ele>
        <time>2022-04-21T12:31:20Z</time>
      </trkpt>
      <trkpt lat="50.09664" lon="5.04048">
        <ele>225.9</ele>
        <time>2022-04-21T12:31:21Z</time>
      </trkpt>
      <trkpt lat="50.09664" lon="5.04049">
        <ele>226</ele>
        <time>2022-04-21T12:31:22Z</time>
      </trkpt>
      <trkpt lat="50.09665" lon="5.04055">
        <ele>226.2</ele>
        <time>2022-04-21T12:31:24Z</time>
      </trkpt>
      <trkpt lat="50.09665" lon="5.04056">
        <ele>226.3</ele>
        <time>2022-04-21T12:31:25Z</time>
      </trkpt>
      <trkpt lat="50.09665" lon="5.04059">
        <ele>226.4</ele>
        <time>2022-04-21T12:31:26Z</time>
      </trkpt>
      <trkpt lat="50.09666" lon="5.04061">
        <ele>226.5</ele>
        <time>2022-04-21T12:31:27Z</time>
      </trkpt>
      <trkpt lat="50.09668" lon="5.04066">
        <ele>226.6</ele>
        <time>2022-04-21T12:31:29Z</time>
      </trkpt>
      <trkpt lat="50.09668" lon="5.04068">
        <ele>226.7</ele>
        <time>2022-04-21T12:31:30Z</time>
      </trkpt>
      <trkpt lat="50.09669" lon="5.0407">
        <ele>226.8</ele>
        <time>2022-04-21T12:31:31Z</time>
      </trkpt>
      <trkpt lat="50.09672" lon="5.04076">
        <ele>227</ele>
        <time>2022-04-21T12:31:33Z</time>
      </trkpt>
      <trkpt lat="50.09673" lon="5.04077">
        <ele>227.1</ele>
        <time>2022-04-21T12:31:34Z</time>
      </trkpt>
      <trkpt lat="50.09673" lon="5.04079">
        <ele>227.1</ele>
        <time>2022-04-21T12:31:35Z</time>
      </trkpt>
      <trkpt lat="50.09675" lon="5.04081">
        <ele>227.2</ele>
        <time>2022-04-21T12:31:36Z</time>
      </trkpt>
      <trkpt lat="50.09676" lon="5.04083">
        <ele>227.3</ele>
        <time>2022-04-21T12:31:37Z</time>
      </trkpt>
      <trkpt lat="50.09677" lon="5.04087">
        <ele>227.4</ele>
        <time>2022-04-21T12:31:38Z</time>
      </trkpt>
      <trkpt lat="50.09678" lon="5.04088">
        <ele>227.5</ele>
        <time>2022-04-21T12:31:39Z</time>
      </trkpt>
      <trkpt lat="50.09679" lon="5.04091">
        <ele>227.6</ele>
        <time>2022-04-21T12:31:40Z</time>
      </trkpt>
      <trkpt lat="50.09679" lon="5.04093">
        <ele>227.6</ele>
        <time>2022-04-21T12:31:41Z</time>
      </trkpt>
      <trkpt lat="50.0968" lon="5.04094">
        <ele>227.7</ele>
        <time>2022-04-21T12:31:42Z</time>
      </trkpt>
      <trkpt lat="50.0968" lon="5.04096">
        <ele>227.7</ele>
        <time>2022-04-21T12:31:43Z</time>
      </trkpt>
      <trkpt lat="50.0968" lon="5.04099">
        <ele>227.8</ele>
        <time>2022-04-21T12:31:44Z</time>
      </trkpt>
      <trkpt lat="50.09681" lon="5.04101">
        <ele>227.9</ele>
        <time>2022-04-21T12:31:45Z</time>
      </trkpt>
      <trkpt lat="50.09681" lon="5.04103">
        <ele>228</ele>
        <time>2022-04-21T12:31:46Z</time>
      </trkpt>
      <trkpt lat="50.09682" lon="5.04106">
        <ele>228.1</ele>
        <time>2022-04-21T12:31:47Z</time>
      </trkpt>
      <trkpt lat="50.09683" lon="5.04107">
        <ele>228.1</ele>
        <time>2022-04-21T12:31:48Z</time>
      </trkpt>
      <trkpt lat="50.09683" lon="5.04109">
        <ele>228.2</ele>
        <time>2022-04-21T12:31:49Z</time>
      </trkpt>
      <trkpt lat="50.09684" lon="5.04111">
        <ele>228.3</ele>
        <time>2022-04-21T12:31:50Z</time>
      </trkpt>
      <trkpt lat="50.09685" lon="5.04112">
        <ele>228.3</ele>
        <time>2022-04-21T12:31:51Z</time>
      </trkpt>
      <trkpt lat="50.09685" lon="5.04114">
        <ele>228.3</ele>
        <time>2022-04-21T12:31:52Z</time>
      </trkpt>
      <trkpt lat="50.09687" lon="5.04116">
        <ele>228.5</ele>
        <time>2022-04-21T12:31:53Z</time>
      </trkpt>
      <trkpt lat="50.09687" lon="5.04117">
        <ele>228.5</ele>
        <time>2022-04-21T12:31:54Z</time>
      </trkpt>
      <trkpt lat="50.09688" lon="5.04117">
        <ele>228.5</ele>
        <time>2022-04-21T12:31:55Z</time>
      </trkpt>
      <trkpt lat="50.09688" lon="5.04119">
        <ele>228.6</ele>
        <time>2022-04-21T12:31:56Z</time>
      </trkpt>
      <trkpt lat="50.09689" lon="5.0412">
        <ele>228.6</ele>
        <time>2022-04-21T12:31:57Z</time>
      </trkpt>
      <trkpt lat="50.09689" lon="5.04122">
        <ele>228.7</ele>
        <time>2022-04-21T12:31:58Z</time>
      </trkpt>
      <trkpt lat="50.0969" lon="5.04124">
        <ele>228.8</ele>
        <time>2022-04-21T12:31:59Z</time>
      </trkpt>
      <trkpt lat="50.09691" lon="5.04125">
        <ele>228.8</ele>
        <time>2022-04-21T12:32:00Z</time>
      </trkpt>
      <trkpt lat="50.09691" lon="5.04126">
        <ele>228.9</ele>
        <time>2022-04-21T12:32:01Z</time>
      </trkpt>
      <trkpt lat="50.09694" lon="5.04129">
        <ele>229</ele>
        <time>2022-04-21T12:32:02Z</time>
      </trkpt>
      <trkpt lat="50.09695" lon="5.0413">
        <ele>229.1</ele>
        <time>2022-04-21T12:32:04Z</time>
      </trkpt>
      <trkpt lat="50.09695" lon="5.04131">
        <ele>229.1</ele>
        <time>2022-04-21T12:32:05Z</time>
      </trkpt>
      <trkpt lat="50.09696" lon="5.04133">
        <ele>229.2</ele>
        <time>2022-04-21T12:32:06Z</time>
      </trkpt>
      <trkpt lat="50.09697" lon="5.04134">
        <ele>229.2</ele>
        <time>2022-04-21T12:32:07Z</time>
      </trkpt>
      <trkpt lat="50.09699" lon="5.04134">
        <ele>229.3</ele>
        <time>2022-04-21T12:32:08Z</time>
      </trkpt>
      <trkpt lat="50.097" lon="5.04135">
        <ele>229.4</ele>
        <time>2022-04-21T12:32:09Z</time>
      </trkpt>
      <trkpt lat="50.09701" lon="5.04138">
        <ele>229.5</ele>
        <time>2022-04-21T12:32:10Z</time>
      </trkpt>
      <trkpt lat="50.09701" lon="5.04139">
        <ele>229.5</ele>
        <time>2022-04-21T12:32:11Z</time>
      </trkpt>
      <trkpt lat="50.09701" lon="5.04141">
        <ele>229.6</ele>
        <time>2022-04-21T12:32:12Z</time>
      </trkpt>
      <trkpt lat="50.09702" lon="5.04143">
        <ele>229.7</ele>
        <time>2022-04-21T12:32:13Z</time>
      </trkpt>
      <trkpt lat="50.09702" lon="5.04145">
        <ele>229.7</ele>
        <time>2022-04-21T12:32:14Z</time>
      </trkpt>
      <trkpt lat="50.09703" lon="5.04146">
        <ele>229.8</ele>
        <time>2022-04-21T12:32:16Z</time>
      </trkpt>
      <trkpt lat="50.09704" lon="5.04149">
        <ele>229.9</ele>
        <time>2022-04-21T12:32:17Z</time>
      </trkpt>
      <trkpt lat="50.09704" lon="5.0415">
        <ele>229.9</ele>
        <time>2022-04-21T12:32:18Z</time>
      </trkpt>
      <trkpt lat="50.09705" lon="5.04151">
        <ele>229.9</ele>
        <time>2022-04-21T12:32:19Z</time>
      </trkpt>
      <trkpt lat="50.09705" lon="5.04152">
        <ele>230</ele>
        <time>2022-04-21T12:32:20Z</time>
      </trkpt>
      <trkpt lat="50.09706" lon="5.04153">
        <ele>230</ele>
        <time>2022-04-21T12:32:21Z</time>
      </trkpt>
      <trkpt lat="50.09706" lon="5.04154">
        <ele>230.1</ele>
        <time>2022-04-21T12:32:22Z</time>
      </trkpt>
      <trkpt lat="50.09707" lon="5.04155">
        <ele>230.1</ele>
        <time>2022-04-21T12:32:23Z</time>
      </trkpt>
      <trkpt lat="50.09707" lon="5.04157">
        <ele>230.1</ele>
        <time>2022-04-21T12:32:24Z</time>
      </trkpt>
      <trkpt lat="50.09708" lon="5.04158">
        <ele>230.2</ele>
        <time>2022-04-21T12:32:25Z</time>
      </trkpt>
      <trkpt lat="50.09708" lon="5.0416">
        <ele>230.2</ele>
        <time>2022-04-21T12:32:26Z</time>
      </trkpt>
      <trkpt lat="50.09708" lon="5.04162">
        <ele>230.3</ele>
        <time>2022-04-21T12:32:27Z</time>
      </trkpt>
      <trkpt lat="50.09709" lon="5.04165">
        <ele>230.3</ele>
        <time>2022-04-21T12:32:28Z</time>
      </trkpt>
      <trkpt lat="50.0971" lon="5.04167">
        <ele>230.4</ele>
        <time>2022-04-21T12:32:29Z</time>
      </trkpt>
      <trkpt lat="50.0971" lon="5.0417">
        <ele>230.4</ele>
        <time>2022-04-21T12:32:30Z</time>
      </trkpt>
      <trkpt lat="50.09711" lon="5.04173">
        <ele>230.5</ele>
        <time>2022-04-21T12:32:31Z</time>
      </trkpt>
      <trkpt lat="50.09711" lon="5.04175">
        <ele>230.6</ele>
        <time>2022-04-21T12:32:32Z</time>
      </trkpt>
      <trkpt lat="50.09712" lon="5.04178">
        <ele>230.6</ele>
        <time>2022-04-21T12:32:34Z</time>
      </trkpt>
      <trkpt lat="50.09712" lon="5.04179">
        <ele>230.6</ele>
        <time>2022-04-21T12:32:35Z</time>
      </trkpt>
      <trkpt lat="50.09714" lon="5.04182">
        <ele>230.7</ele>
        <time>2022-04-21T12:32:36Z</time>
      </trkpt>
      <trkpt lat="50.09714" lon="5.04183">
        <ele>230.7</ele>
        <time>2022-04-21T12:32:37Z</time>
      </trkpt>
      <trkpt lat="50.09715" lon="5.04184">
        <ele>230.7</ele>
        <time>2022-04-21T12:32:38Z</time>
      </trkpt>
      <trkpt lat="50.09716" lon="5.04185">
        <ele>230.8</ele>
        <time>2022-04-21T12:32:39Z</time>
      </trkpt>
      <trkpt lat="50.09717" lon="5.04186">
        <ele>230.8</ele>
        <time>2022-04-21T12:32:40Z</time>
      </trkpt>
      <trkpt lat="50.09717" lon="5.04186">
        <ele>230.8</ele>
        <time>2022-04-21T12:32:41Z</time>
      </trkpt>
      <trkpt lat="50.09718" lon="5.04187">
        <ele>230.8</ele>
        <time>2022-04-21T12:32:42Z</time>
      </trkpt>
      <trkpt lat="50.0972" lon="5.04189">
        <ele>230.9</ele>
        <time>2022-04-21T12:32:43Z</time>
      </trkpt>
      <trkpt lat="50.0972" lon="5.04191">
        <ele>230.9</ele>
        <time>2022-04-21T12:32:44Z</time>
      </trkpt>
      <trkpt lat="50.09721" lon="5.04192">
        <ele>231</ele>
        <time>2022-04-21T12:32:45Z</time>
      </trkpt>
      <trkpt lat="50.09721" lon="5.04195">
        <ele>231</ele>
        <time>2022-04-21T12:32:47Z</time>
      </trkpt>
      <trkpt lat="50.09722" lon="5.04199">
        <ele>231.1</ele>
        <time>2022-04-21T12:32:49Z</time>
      </trkpt>
      <trkpt lat="50.09722" lon="5.04201">
        <ele>231.1</ele>
        <time>2022-04-21T12:32:50Z</time>
      </trkpt>
      <trkpt lat="50.09722" lon="5.04203">
        <ele>231.1</ele>
        <time>2022-04-21T12:32:51Z</time>
      </trkpt>
      <trkpt lat="50.09723" lon="5.04206">
        <ele>231.2</ele>
        <time>2022-04-21T12:32:52Z</time>
      </trkpt>
      <trkpt lat="50.09723" lon="5.04208">
        <ele>231.2</ele>
        <time>2022-04-21T12:32:53Z</time>
      </trkpt>
      <trkpt lat="50.09723" lon="5.04211">
        <ele>231.3</ele>
        <time>2022-04-21T12:32:54Z</time>
      </trkpt>
      <trkpt lat="50.09724" lon="5.04212">
        <ele>231.3</ele>
        <time>2022-04-21T12:32:55Z</time>
      </trkpt>
      <trkpt lat="50.09724" lon="5.04213">
        <ele>231.3</ele>
        <time>2022-04-21T12:32:56Z</time>
      </trkpt>
      <trkpt lat="50.09724" lon="5.04215">
        <ele>231.3</ele>
        <time>2022-04-21T12:32:57Z</time>
      </trkpt>
      <trkpt lat="50.09725" lon="5.04216">
        <ele>231.3</ele>
        <time>2022-04-21T12:32:58Z</time>
      </trkpt>
      <trkpt lat="50.09725" lon="5.04218">
        <ele>231.4</ele>
        <time>2022-04-21T12:32:59Z</time>
      </trkpt>
      <trkpt lat="50.09726" lon="5.0422">
        <ele>231.4</ele>
        <time>2022-04-21T12:33:00Z</time>
      </trkpt>
      <trkpt lat="50.09727" lon="5.04222">
        <ele>231.4</ele>
        <time>2022-04-21T12:33:02Z</time>
      </trkpt>
      <trkpt lat="50.09728" lon="5.04224">
        <ele>231.5</ele>
        <time>2022-04-21T12:33:03Z</time>
      </trkpt>
      <trkpt lat="50.09729" lon="5.04227">
        <ele>231.5</ele>
        <time>2022-04-21T12:33:04Z</time>
      </trkpt>
      <trkpt lat="50.09729" lon="5.04229">
        <ele>231.5</ele>
        <time>2022-04-21T12:33:05Z</time>
      </trkpt>
      <trkpt lat="50.09729" lon="5.04231">
        <ele>231.6</ele>
        <time>2022-04-21T12:33:06Z</time>
      </trkpt>
      <trkpt lat="50.0973" lon="5.04235">
        <ele>231.6</ele>
        <time>2022-04-21T12:33:07Z</time>
      </trkpt>
      <trkpt lat="50.0973" lon="5.04236">
        <ele>231.6</ele>
        <time>2022-04-21T12:33:08Z</time>
      </trkpt>
      <trkpt lat="50.0973" lon="5.04238">
        <ele>231.7</ele>
        <time>2022-04-21T12:33:09Z</time>
      </trkpt>
      <trkpt lat="50.0973" lon="5.0424">
        <ele>231.7</ele>
        <time>2022-04-21T12:33:10Z</time>
      </trkpt>
      <trkpt lat="50.09731" lon="5.04242">
        <ele>231.7</ele>
        <time>2022-04-21T12:33:11Z</time>
      </trkpt>
      <trkpt lat="50.09732" lon="5.04248">
        <ele>231.8</ele>
        <time>2022-04-21T12:33:12Z</time>
      </trkpt>
      <trkpt lat="50.09732" lon="5.04249">
        <ele>231.8</ele>
        <time>2022-04-21T12:33:13Z</time>
      </trkpt>
      <trkpt lat="50.09734" lon="5.04252">
        <ele>231.9</ele>
        <time>2022-04-21T12:33:14Z</time>
      </trkpt>
      <trkpt lat="50.09734" lon="5.04253">
        <ele>231.9</ele>
        <time>2022-04-21T12:33:16Z</time>
      </trkpt>
      <trkpt lat="50.09735" lon="5.04254">
        <ele>231.9</ele>
        <time>2022-04-21T12:33:17Z</time>
      </trkpt>
      <trkpt lat="50.09735" lon="5.04256">
        <ele>231.9</ele>
        <time>2022-04-21T12:33:18Z</time>
      </trkpt>
      <trkpt lat="50.09736" lon="5.04257">
        <ele>231.9</ele>
        <time>2022-04-21T12:33:19Z</time>
      </trkpt>
      <trkpt lat="50.09736" lon="5.04258">
        <ele>232</ele>
        <time>2022-04-21T12:33:21Z</time>
      </trkpt>
      <trkpt lat="50.09737" lon="5.04259">
        <ele>232</ele>
        <time>2022-04-21T12:33:22Z</time>
      </trkpt>
      <trkpt lat="50.09737" lon="5.0426">
        <ele>232</ele>
        <time>2022-04-21T12:33:23Z</time>
      </trkpt>
      <trkpt lat="50.09738" lon="5.04261">
        <ele>232</ele>
        <time>2022-04-21T12:33:24Z</time>
      </trkpt>
      <trkpt lat="50.09738" lon="5.04262">
        <ele>232</ele>
        <time>2022-04-21T12:33:25Z</time>
      </trkpt>
      <trkpt lat="50.09739" lon="5.04264">
        <ele>232.1</ele>
        <time>2022-04-21T12:33:26Z</time>
      </trkpt>
      <trkpt lat="50.09739" lon="5.04265">
        <ele>232.1</ele>
        <time>2022-04-21T12:33:27Z</time>
      </trkpt>
      <trkpt lat="50.09739" lon="5.04266">
        <ele>232.1</ele>
        <time>2022-04-21T12:33:28Z</time>
      </trkpt>
      <trkpt lat="50.0974" lon="5.04271">
        <ele>232.1</ele>
        <time>2022-04-21T12:33:30Z</time>
      </trkpt>
      <trkpt lat="50.0974" lon="5.04272">
        <ele>232.1</ele>
        <time>2022-04-21T12:33:31Z</time>
      </trkpt>
      <trkpt lat="50.09741" lon="5.04275">
        <ele>232.1</ele>
        <time>2022-04-21T12:33:32Z</time>
      </trkpt>
      <trkpt lat="50.09742" lon="5.04277">
        <ele>232.2</ele>
        <time>2022-04-21T12:33:33Z</time>
      </trkpt>
      <trkpt lat="50.09743" lon="5.04281">
        <ele>232.2</ele>
        <time>2022-04-21T12:33:34Z</time>
      </trkpt>
      <trkpt lat="50.09744" lon="5.04283">
        <ele>232.2</ele>
        <time>2022-04-21T12:33:35Z</time>
      </trkpt>
      <trkpt lat="50.09745" lon="5.04285">
        <ele>232.2</ele>
        <time>2022-04-21T12:33:36Z</time>
      </trkpt>
      <trkpt lat="50.09745" lon="5.04286">
        <ele>232.1</ele>
        <time>2022-04-21T12:33:37Z</time>
      </trkpt>
      <trkpt lat="50.09746" lon="5.04288">
        <ele>232</ele>
        <time>2022-04-21T12:33:39Z</time>
      </trkpt>
      <trkpt lat="50.09747" lon="5.04289">
        <ele>232</ele>
        <time>2022-04-21T12:33:40Z</time>
      </trkpt>
      <trkpt lat="50.09747" lon="5.04291">
        <ele>232</ele>
        <time>2022-04-21T12:33:41Z</time>
      </trkpt>
      <trkpt lat="50.09747" lon="5.04292">
        <ele>231.9</ele>
        <time>2022-04-21T12:33:42Z</time>
      </trkpt>
      <trkpt lat="50.09747" lon="5.04293">
        <ele>231.9</ele>
        <time>2022-04-21T12:33:43Z</time>
      </trkpt>
      <trkpt lat="50.09747" lon="5.04295">
        <ele>231.8</ele>
        <time>2022-04-21T12:33:44Z</time>
      </trkpt>
      <trkpt lat="50.09747" lon="5.04296">
        <ele>231.8</ele>
        <time>2022-04-21T12:33:45Z</time>
      </trkpt>
      <trkpt lat="50.09747" lon="5.04299">
        <ele>231.7</ele>
        <time>2022-04-21T12:33:46Z</time>
      </trkpt>
      <trkpt lat="50.09747" lon="5.043">
        <ele>231.6</ele>
        <time>2022-04-21T12:33:47Z</time>
      </trkpt>
      <trkpt lat="50.09746" lon="5.04302">
        <ele>231.5</ele>
        <time>2022-04-21T12:33:48Z</time>
      </trkpt>
      <trkpt lat="50.09746" lon="5.04305">
        <ele>231.4</ele>
        <time>2022-04-21T12:33:49Z</time>
      </trkpt>
      <trkpt lat="50.09746" lon="5.04307">
        <ele>231.3</ele>
        <time>2022-04-21T12:33:50Z</time>
      </trkpt>
      <trkpt lat="50.09746" lon="5.0431">
        <ele>231.2</ele>
        <time>2022-04-21T12:33:51Z</time>
      </trkpt>
      <trkpt lat="50.09746" lon="5.04315">
        <ele>231</ele>
        <time>2022-04-21T12:33:53Z</time>
      </trkpt>
      <trkpt lat="50.09746" lon="5.04316">
        <ele>230.9</ele>
        <time>2022-04-21T12:33:54Z</time>
      </trkpt>
      <trkpt lat="50.09747" lon="5.0432">
        <ele>230.7</ele>
        <time>2022-04-21T12:33:55Z</time>
      </trkpt>
      <trkpt lat="50.09747" lon="5.04322">
        <ele>230.6</ele>
        <time>2022-04-21T12:33:56Z</time>
      </trkpt>
      <trkpt lat="50.09746" lon="5.04326">
        <ele>230.5</ele>
        <time>2022-04-21T12:33:58Z</time>
      </trkpt>
      <trkpt lat="50.09745" lon="5.04327">
        <ele>230.4</ele>
        <time>2022-04-21T12:33:59Z</time>
      </trkpt>
      <trkpt lat="50.09743" lon="5.0433">
        <ele>230.2</ele>
        <time>2022-04-21T12:34:00Z</time>
      </trkpt>
      <trkpt lat="50.09742" lon="5.04332">
        <ele>230.2</ele>
        <time>2022-04-21T12:34:01Z</time>
      </trkpt>
      <trkpt lat="50.09741" lon="5.04334">
        <ele>230.1</ele>
        <time>2022-04-21T12:34:02Z</time>
      </trkpt>
      <trkpt lat="50.0974" lon="5.04335">
        <ele>230</ele>
        <time>2022-04-21T12:34:03Z</time>
      </trkpt>
      <trkpt lat="50.09739" lon="5.04336">
        <ele>230</ele>
        <time>2022-04-21T12:34:04Z</time>
      </trkpt>
      <trkpt lat="50.09737" lon="5.04337">
        <ele>229.9</ele>
        <time>2022-04-21T12:34:05Z</time>
      </trkpt>
      <trkpt lat="50.09736" lon="5.04339">
        <ele>229.9</ele>
        <time>2022-04-21T12:34:06Z</time>
      </trkpt>
      <trkpt lat="50.09736" lon="5.04341">
        <ele>229.8</ele>
        <time>2022-04-21T12:34:07Z</time>
      </trkpt>
      <trkpt lat="50.09735" lon="5.04345">
        <ele>229.8</ele>
        <time>2022-04-21T12:34:08Z</time>
      </trkpt>
      <trkpt lat="50.09734" lon="5.04347">
        <ele>229.7</ele>
        <time>2022-04-21T12:34:10Z</time>
      </trkpt>
      <trkpt lat="50.09734" lon="5.04349">
        <ele>229.7</ele>
        <time>2022-04-21T12:34:11Z</time>
      </trkpt>
      <trkpt lat="50.09734" lon="5.04351">
        <ele>229.7</ele>
        <time>2022-04-21T12:34:12Z</time>
      </trkpt>
      <trkpt lat="50.09733" lon="5.04355">
        <ele>229.6</ele>
        <time>2022-04-21T12:34:13Z</time>
      </trkpt>
      <trkpt lat="50.09733" lon="5.04356">
        <ele>229.6</ele>
        <time>2022-04-21T12:34:14Z</time>
      </trkpt>
      <trkpt lat="50.09733" lon="5.04358">
        <ele>229.6</ele>
        <time>2022-04-21T12:34:15Z</time>
      </trkpt>
      <trkpt lat="50.09732" lon="5.04362">
        <ele>229.6</ele>
        <time>2022-04-21T12:34:17Z</time>
      </trkpt>
      <trkpt lat="50.09732" lon="5.04363">
        <ele>229.6</ele>
        <time>2022-04-21T12:34:18Z</time>
      </trkpt>
      <trkpt lat="50.09732" lon="5.04365">
        <ele>229.5</ele>
        <time>2022-04-21T12:34:19Z</time>
      </trkpt>
      <trkpt lat="50.09731" lon="5.04367">
        <ele>229.5</ele>
        <time>2022-04-21T12:34:20Z</time>
      </trkpt>
      <trkpt lat="50.0973" lon="5.0437">
        <ele>229.5</ele>
        <time>2022-04-21T12:34:21Z</time>
      </trkpt>
      <trkpt lat="50.09729" lon="5.04371">
        <ele>229.5</ele>
        <time>2022-04-21T12:34:22Z</time>
      </trkpt>
      <trkpt lat="50.09728" lon="5.04372">
        <ele>229.5</ele>
        <time>2022-04-21T12:34:23Z</time>
      </trkpt>
      <trkpt lat="50.09727" lon="5.04374">
        <ele>229.5</ele>
        <time>2022-04-21T12:34:24Z</time>
      </trkpt>
      <trkpt lat="50.09726" lon="5.04377">
        <ele>229.5</ele>
        <time>2022-04-21T12:34:25Z</time>
      </trkpt>
      <trkpt lat="50.09725" lon="5.04379">
        <ele>229.5</ele>
        <time>2022-04-21T12:34:26Z</time>
      </trkpt>
      <trkpt lat="50.09725" lon="5.04381">
        <ele>229.5</ele>
        <time>2022-04-21T12:34:27Z</time>
      </trkpt>
      <trkpt lat="50.09724" lon="5.04383">
        <ele>229.5</ele>
        <time>2022-04-21T12:34:28Z</time>
      </trkpt>
      <trkpt lat="50.09724" lon="5.04386">
        <ele>229.5</ele>
        <time>2022-04-21T12:34:29Z</time>
      </trkpt>
      <trkpt lat="50.09722" lon="5.04391">
        <ele>229.5</ele>
        <time>2022-04-21T12:34:31Z</time>
      </trkpt>
      <trkpt lat="50.09721" lon="5.04392">
        <ele>229.5</ele>
        <time>2022-04-21T12:34:32Z</time>
      </trkpt>
      <trkpt lat="50.0972" lon="5.04393">
        <ele>229.5</ele>
        <time>2022-04-21T12:34:33Z</time>
      </trkpt>
      <trkpt lat="50.09719" lon="5.04395">
        <ele>229.5</ele>
        <time>2022-04-21T12:34:34Z</time>
      </trkpt>
      <trkpt lat="50.09719" lon="5.04397">
        <ele>229.5</ele>
        <time>2022-04-21T12:34:35Z</time>
      </trkpt>
      <trkpt lat="50.09719" lon="5.04398">
        <ele>229.5</ele>
        <time>2022-04-21T12:34:36Z</time>
      </trkpt>
      <trkpt lat="50.09718" lon="5.04398">
        <ele>229.5</ele>
        <time>2022-04-21T12:34:37Z</time>
      </trkpt>
      <trkpt lat="50.09718" lon="5.04399">
        <ele>229.5</ele>
        <time>2022-04-21T12:34:38Z</time>
      </trkpt>
      <trkpt lat="50.09716" lon="5.04401">
        <ele>229.5</ele>
        <time>2022-04-21T12:34:39Z</time>
      </trkpt>
      <trkpt lat="50.09715" lon="5.04402">
        <ele>229.5</ele>
        <time>2022-04-21T12:34:40Z</time>
      </trkpt>
      <trkpt lat="50.09714" lon="5.04403">
        <ele>229.5</ele>
        <time>2022-04-21T12:34:41Z</time>
      </trkpt>
      <trkpt lat="50.09713" lon="5.04407">
        <ele>229.5</ele>
        <time>2022-04-21T12:34:43Z</time>
      </trkpt>
      <trkpt lat="50.09712" lon="5.04408">
        <ele>229.5</ele>
        <time>2022-04-21T12:34:44Z</time>
      </trkpt>
      <trkpt lat="50.09711" lon="5.04411">
        <ele>229.5</ele>
        <time>2022-04-21T12:34:45Z</time>
      </trkpt>
      <trkpt lat="50.0971" lon="5.04413">
        <ele>229.6</ele>
        <time>2022-04-21T12:34:46Z</time>
      </trkpt>
      <trkpt lat="50.0971" lon="5.04415">
        <ele>229.8</ele>
        <time>2022-04-21T12:34:47Z</time>
      </trkpt>
      <trkpt lat="50.0971" lon="5.04416">
        <ele>229.8</ele>
        <time>2022-04-21T12:34:48Z</time>
      </trkpt>
      <trkpt lat="50.09709" lon="5.04418">
        <ele>229.8</ele>
        <time>2022-04-21T12:34:49Z</time>
      </trkpt>
      <trkpt lat="50.09709" lon="5.0442">
        <ele>229.9</ele>
        <time>2022-04-21T12:34:50Z</time>
      </trkpt>
      <trkpt lat="50.09709" lon="5.04421">
        <ele>229.9</ele>
        <time>2022-04-21T12:34:51Z</time>
      </trkpt>
      <trkpt lat="50.09709" lon="5.04423">
        <ele>229.9</ele>
        <time>2022-04-21T12:34:52Z</time>
      </trkpt>
      <trkpt lat="50.0971" lon="5.04424">
        <ele>229.9</ele>
        <time>2022-04-21T12:34:53Z</time>
      </trkpt>
      <trkpt lat="50.09711" lon="5.04423">
        <ele>229.9</ele>
        <time>2022-04-21T12:34:54Z</time>
      </trkpt>
      <trkpt lat="50.09712" lon="5.04422">
        <ele>230</ele>
        <time>2022-04-21T12:34:55Z</time>
      </trkpt>
      <trkpt lat="50.09713" lon="5.04421">
        <ele>230</ele>
        <time>2022-04-21T12:34:56Z</time>
      </trkpt>
      <trkpt lat="50.09714" lon="5.04419">
        <ele>230</ele>
        <time>2022-04-21T12:34:57Z</time>
      </trkpt>
      <trkpt lat="50.09716" lon="5.04418">
        <ele>230</ele>
        <time>2022-04-21T12:34:58Z</time>
      </trkpt>
      <trkpt lat="50.09717" lon="5.04416">
        <ele>230.1</ele>
        <time>2022-04-21T12:34:59Z</time>
      </trkpt>
      <trkpt lat="50.09719" lon="5.04415">
        <ele>230.1</ele>
        <time>2022-04-21T12:35:01Z</time>
      </trkpt>
      <trkpt lat="50.09721" lon="5.04415">
        <ele>230.1</ele>
        <time>2022-04-21T12:35:02Z</time>
      </trkpt>
      <trkpt lat="50.09723" lon="5.04415">
        <ele>230.2</ele>
        <time>2022-04-21T12:35:03Z</time>
      </trkpt>
      <trkpt lat="50.09726" lon="5.04416">
        <ele>230.2</ele>
        <time>2022-04-21T12:35:04Z</time>
      </trkpt>
      <trkpt lat="50.09727" lon="5.04416">
        <ele>230.3</ele>
        <time>2022-04-21T12:35:05Z</time>
      </trkpt>
      <trkpt lat="50.09729" lon="5.04415">
        <ele>230.3</ele>
        <time>2022-04-21T12:35:06Z</time>
      </trkpt>
      <trkpt lat="50.0973" lon="5.04414">
        <ele>230.3</ele>
        <time>2022-04-21T12:35:07Z</time>
      </trkpt>
      <trkpt lat="50.09732" lon="5.04414">
        <ele>230.3</ele>
        <time>2022-04-21T12:35:08Z</time>
      </trkpt>
      <trkpt lat="50.09733" lon="5.04413">
        <ele>230.4</ele>
        <time>2022-04-21T12:35:09Z</time>
      </trkpt>
      <trkpt lat="50.09735" lon="5.04413">
        <ele>230.4</ele>
        <time>2022-04-21T12:35:10Z</time>
      </trkpt>
      <trkpt lat="50.09736" lon="5.04414">
        <ele>230.4</ele>
        <time>2022-04-21T12:35:11Z</time>
      </trkpt>
      <trkpt lat="50.09739" lon="5.04413">
        <ele>230.5</ele>
        <time>2022-04-21T12:35:13Z</time>
      </trkpt>
      <trkpt lat="50.0974" lon="5.04413">
        <ele>230.5</ele>
        <time>2022-04-21T12:35:14Z</time>
      </trkpt>
      <trkpt lat="50.09741" lon="5.04413">
        <ele>230.5</ele>
        <time>2022-04-21T12:35:15Z</time>
      </trkpt>
      <trkpt lat="50.09742" lon="5.04413">
        <ele>230.6</ele>
        <time>2022-04-21T12:35:16Z</time>
      </trkpt>
      <trkpt lat="50.09743" lon="5.04413">
        <ele>230.6</ele>
        <time>2022-04-21T12:35:17Z</time>
      </trkpt>
      <trkpt lat="50.09745" lon="5.04414">
        <ele>230.6</ele>
        <time>2022-04-21T12:35:18Z</time>
      </trkpt>
      <trkpt lat="50.09746" lon="5.04414">
        <ele>230.6</ele>
        <time>2022-04-21T12:35:19Z</time>
      </trkpt>
      <trkpt lat="50.09747" lon="5.04414">
        <ele>230.7</ele>
        <time>2022-04-21T12:35:20Z</time>
      </trkpt>
      <trkpt lat="50.09749" lon="5.04414">
        <ele>230.7</ele>
        <time>2022-04-21T12:35:21Z</time>
      </trkpt>
      <trkpt lat="50.0975" lon="5.04414">
        <ele>230.7</ele>
        <time>2022-04-21T12:35:22Z</time>
      </trkpt>
      <trkpt lat="50.09751" lon="5.04415">
        <ele>230.7</ele>
        <time>2022-04-21T12:35:23Z</time>
      </trkpt>
      <trkpt lat="50.09752" lon="5.04415">
        <ele>230.8</ele>
        <time>2022-04-21T12:35:24Z</time>
      </trkpt>
      <trkpt lat="50.09753" lon="5.04414">
        <ele>230.8</ele>
        <time>2022-04-21T12:35:25Z</time>
      </trkpt>
      <trkpt lat="50.09754" lon="5.04414">
        <ele>230.8</ele>
        <time>2022-04-21T12:35:26Z</time>
      </trkpt>
      <trkpt lat="50.09756" lon="5.04414">
        <ele>230.9</ele>
        <time>2022-04-21T12:35:27Z</time>
      </trkpt>
      <trkpt lat="50.09757" lon="5.04414">
        <ele>230.9</ele>
        <time>2022-04-21T12:35:28Z</time>
      </trkpt>
      <trkpt lat="50.09758" lon="5.04414">
        <ele>230.9</ele>
        <time>2022-04-21T12:35:29Z</time>
      </trkpt>
      <trkpt lat="50.09759" lon="5.04413">
        <ele>230.9</ele>
        <time>2022-04-21T12:35:30Z</time>
      </trkpt>
      <trkpt lat="50.0976" lon="5.04413">
        <ele>231</ele>
        <time>2022-04-21T12:35:31Z</time>
      </trkpt>
      <trkpt lat="50.09761" lon="5.04412">
        <ele>231</ele>
        <time>2022-04-21T12:35:32Z</time>
      </trkpt>
      <trkpt lat="50.09762" lon="5.04412">
        <ele>231</ele>
        <time>2022-04-21T12:35:33Z</time>
      </trkpt>
      <trkpt lat="50.09763" lon="5.04412">
        <ele>231</ele>
        <time>2022-04-21T12:35:34Z</time>
      </trkpt>
      <trkpt lat="50.09764" lon="5.04412">
        <ele>231.1</ele>
        <time>2022-04-21T12:35:35Z</time>
      </trkpt>
      <trkpt lat="50.09766" lon="5.04411">
        <ele>231.1</ele>
        <time>2022-04-21T12:35:36Z</time>
      </trkpt>
      <trkpt lat="50.09767" lon="5.04411">
        <ele>231.1</ele>
        <time>2022-04-21T12:35:37Z</time>
      </trkpt>
      <trkpt lat="50.09769" lon="5.04411">
        <ele>231.1</ele>
        <time>2022-04-21T12:35:38Z</time>
      </trkpt>
      <trkpt lat="50.0977" lon="5.0441">
        <ele>231.2</ele>
        <time>2022-04-21T12:35:39Z</time>
      </trkpt>
      <trkpt lat="50.09771" lon="5.0441">
        <ele>231.2</ele>
        <time>2022-04-21T12:35:40Z</time>
      </trkpt>
      <trkpt lat="50.09773" lon="5.0441">
        <ele>231.2</ele>
        <time>2022-04-21T12:35:41Z</time>
      </trkpt>
      <trkpt lat="50.09774" lon="5.04409">
        <ele>231.3</ele>
        <time>2022-04-21T12:35:42Z</time>
      </trkpt>
      <trkpt lat="50.09776" lon="5.04409">
        <ele>231.3</ele>
        <time>2022-04-21T12:35:43Z</time>
      </trkpt>
      <trkpt lat="50.09777" lon="5.04409">
        <ele>231.3</ele>
        <time>2022-04-21T12:35:44Z</time>
      </trkpt>
      <trkpt lat="50.09778" lon="5.04409">
        <ele>231.4</ele>
        <time>2022-04-21T12:35:45Z</time>
      </trkpt>
      <trkpt lat="50.09779" lon="5.04409">
        <ele>231.4</ele>
        <time>2022-04-21T12:35:46Z</time>
      </trkpt>
      <trkpt lat="50.09781" lon="5.04409">
        <ele>231.4</ele>
        <time>2022-04-21T12:35:47Z</time>
      </trkpt>
      <trkpt lat="50.09782" lon="5.04409">
        <ele>231.4</ele>
        <time>2022-04-21T12:35:48Z</time>
      </trkpt>
      <trkpt lat="50.09783" lon="5.04409">
        <ele>231.5</ele>
        <time>2022-04-21T12:35:49Z</time>
      </trkpt>
      <trkpt lat="50.09784" lon="5.04409">
        <ele>231.5</ele>
        <time>2022-04-21T12:35:50Z</time>
      </trkpt>
      <trkpt lat="50.09786" lon="5.04408">
        <ele>231.5</ele>
        <time>2022-04-21T12:35:51Z</time>
      </trkpt>
      <trkpt lat="50.09787" lon="5.04408">
        <ele>231.6</ele>
        <time>2022-04-21T12:35:52Z</time>
      </trkpt>
      <trkpt lat="50.09788" lon="5.04408">
        <ele>231.6</ele>
        <time>2022-04-21T12:35:53Z</time>
      </trkpt>
      <trkpt lat="50.0979" lon="5.04407">
        <ele>231.6</ele>
        <time>2022-04-21T12:35:54Z</time>
      </trkpt>
      <trkpt lat="50.09791" lon="5.04407">
        <ele>231.7</ele>
        <time>2022-04-21T12:35:55Z</time>
      </trkpt>
      <trkpt lat="50.09793" lon="5.04406">
        <ele>231.7</ele>
        <time>2022-04-21T12:35:56Z</time>
      </trkpt>
      <trkpt lat="50.09794" lon="5.04405">
        <ele>231.7</ele>
        <time>2022-04-21T12:35:57Z</time>
      </trkpt>
      <trkpt lat="50.09796" lon="5.04404">
        <ele>231.8</ele>
        <time>2022-04-21T12:35:58Z</time>
      </trkpt>
      <trkpt lat="50.09797" lon="5.04404">
        <ele>231.8</ele>
        <time>2022-04-21T12:35:59Z</time>
      </trkpt>
      <trkpt lat="50.098" lon="5.04404">
        <ele>231.9</ele>
        <time>2022-04-21T12:36:00Z</time>
      </trkpt>
      <trkpt lat="50.098" lon="5.04403">
        <ele>231.9</ele>
        <time>2022-04-21T12:36:01Z</time>
      </trkpt>
      <trkpt lat="50.09801" lon="5.04403">
        <ele>231.9</ele>
        <time>2022-04-21T12:36:02Z</time>
      </trkpt>
      <trkpt lat="50.09802" lon="5.04403">
        <ele>231.9</ele>
        <time>2022-04-21T12:36:03Z</time>
      </trkpt>
      <trkpt lat="50.09804" lon="5.04403">
        <ele>232</ele>
        <time>2022-04-21T12:36:04Z</time>
      </trkpt>
      <trkpt lat="50.09805" lon="5.04403">
        <ele>232</ele>
        <time>2022-04-21T12:36:05Z</time>
      </trkpt>
      <trkpt lat="50.09807" lon="5.04403">
        <ele>232</ele>
        <time>2022-04-21T12:36:06Z</time>
      </trkpt>
      <trkpt lat="50.09808" lon="5.04403">
        <ele>232</ele>
        <time>2022-04-21T12:36:07Z</time>
      </trkpt>
      <trkpt lat="50.09809" lon="5.04403">
        <ele>232.1</ele>
        <time>2022-04-21T12:36:08Z</time>
      </trkpt>
      <trkpt lat="50.09811" lon="5.04403">
        <ele>232.1</ele>
        <time>2022-04-21T12:36:09Z</time>
      </trkpt>
      <trkpt lat="50.09813" lon="5.04403">
        <ele>232.2</ele>
        <time>2022-04-21T12:36:11Z</time>
      </trkpt>
      <trkpt lat="50.09815" lon="5.04403">
        <ele>232.2</ele>
        <time>2022-04-21T12:36:12Z</time>
      </trkpt>
      <trkpt lat="50.09816" lon="5.04403">
        <ele>232.2</ele>
        <time>2022-04-21T12:36:13Z</time>
      </trkpt>
      <trkpt lat="50.09818" lon="5.04404">
        <ele>232.3</ele>
        <time>2022-04-21T12:36:14Z</time>
      </trkpt>
      <trkpt lat="50.09819" lon="5.04404">
        <ele>232.3</ele>
        <time>2022-04-21T12:36:15Z</time>
      </trkpt>
      <trkpt lat="50.0982" lon="5.04405">
        <ele>232.3</ele>
        <time>2022-04-21T12:36:16Z</time>
      </trkpt>
      <trkpt lat="50.09822" lon="5.04405">
        <ele>232.4</ele>
        <time>2022-04-21T12:36:18Z</time>
      </trkpt>
      <trkpt lat="50.09823" lon="5.04405">
        <ele>232.4</ele>
        <time>2022-04-21T12:36:19Z</time>
      </trkpt>
      <trkpt lat="50.09823" lon="5.04408">
        <ele>232.4</ele>
        <time>2022-04-21T12:36:20Z</time>
      </trkpt>
      <trkpt lat="50.09826" lon="5.04402">
        <ele>232.6</ele>
        <time>2022-04-21T12:36:21Z</time>
      </trkpt>
      <trkpt lat="50.09829" lon="5.04399">
        <ele>232.7</ele>
        <time>2022-04-21T12:36:22Z</time>
      </trkpt>
      <trkpt lat="50.09832" lon="5.04399">
        <ele>232.7</ele>
        <time>2022-04-21T12:36:23Z</time>
      </trkpt>
      <trkpt lat="50.09833" lon="5.044">
        <ele>232.8</ele>
        <time>2022-04-21T12:36:24Z</time>
      </trkpt>
      <trkpt lat="50.09835" lon="5.04402">
        <ele>232.8</ele>
        <time>2022-04-21T12:36:25Z</time>
      </trkpt>
      <trkpt lat="50.09836" lon="5.04403">
        <ele>232.8</ele>
        <time>2022-04-21T12:36:26Z</time>
      </trkpt>
      <trkpt lat="50.09837" lon="5.04404">
        <ele>232.9</ele>
        <time>2022-04-21T12:36:27Z</time>
      </trkpt>
      <trkpt lat="50.09839" lon="5.04405">
        <ele>232.9</ele>
        <time>2022-04-21T12:36:28Z</time>
      </trkpt>
      <trkpt lat="50.0984" lon="5.04405">
        <ele>233</ele>
        <time>2022-04-21T12:36:29Z</time>
      </trkpt>
      <trkpt lat="50.09842" lon="5.04405">
        <ele>233</ele>
        <time>2022-04-21T12:36:30Z</time>
      </trkpt>
      <trkpt lat="50.09843" lon="5.04405">
        <ele>233</ele>
        <time>2022-04-21T12:36:31Z</time>
      </trkpt>
      <trkpt lat="50.09844" lon="5.04406">
        <ele>233</ele>
        <time>2022-04-21T12:36:32Z</time>
      </trkpt>
      <trkpt lat="50.09845" lon="5.04406">
        <ele>233.1</ele>
        <time>2022-04-21T12:36:33Z</time>
      </trkpt>
      <trkpt lat="50.09846" lon="5.04406">
        <ele>233.1</ele>
        <time>2022-04-21T12:36:34Z</time>
      </trkpt>
      <trkpt lat="50.09847" lon="5.04406">
        <ele>233.1</ele>
        <time>2022-04-21T12:36:35Z</time>
      </trkpt>
      <trkpt lat="50.09848" lon="5.04406">
        <ele>233.2</ele>
        <time>2022-04-21T12:36:36Z</time>
      </trkpt>
      <trkpt lat="50.09849" lon="5.04406">
        <ele>233.2</ele>
        <time>2022-04-21T12:36:37Z</time>
      </trkpt>
      <trkpt lat="50.0985" lon="5.04405">
        <ele>233.2</ele>
        <time>2022-04-21T12:36:38Z</time>
      </trkpt>
      <trkpt lat="50.09851" lon="5.04406">
        <ele>233.2</ele>
        <time>2022-04-21T12:36:39Z</time>
      </trkpt>
      <trkpt lat="50.09852" lon="5.04406">
        <ele>233.2</ele>
        <time>2022-04-21T12:36:40Z</time>
      </trkpt>
      <trkpt lat="50.09853" lon="5.04406">
        <ele>233.2</ele>
        <time>2022-04-21T12:36:41Z</time>
      </trkpt>
      <trkpt lat="50.09854" lon="5.04405">
        <ele>233.3</ele>
        <time>2022-04-21T12:36:42Z</time>
      </trkpt>
      <trkpt lat="50.09855" lon="5.04405">
        <ele>233.3</ele>
        <time>2022-04-21T12:36:43Z</time>
      </trkpt>
      <trkpt lat="50.09857" lon="5.04405">
        <ele>233.3</ele>
        <time>2022-04-21T12:36:45Z</time>
      </trkpt>
      <trkpt lat="50.09858" lon="5.04404">
        <ele>233.4</ele>
        <time>2022-04-21T12:36:47Z</time>
      </trkpt>
      <trkpt lat="50.09859" lon="5.04404">
        <ele>233.4</ele>
        <time>2022-04-21T12:36:48Z</time>
      </trkpt>
      <trkpt lat="50.0986" lon="5.04404">
        <ele>233.4</ele>
        <time>2022-04-21T12:36:49Z</time>
      </trkpt>
      <trkpt lat="50.09861" lon="5.04403">
        <ele>233.4</ele>
        <time>2022-04-21T12:36:50Z</time>
      </trkpt>
      <trkpt lat="50.09862" lon="5.04403">
        <ele>233.5</ele>
        <time>2022-04-21T12:36:51Z</time>
      </trkpt>
      <trkpt lat="50.09863" lon="5.04403">
        <ele>233.5</ele>
        <time>2022-04-21T12:36:52Z</time>
      </trkpt>
      <trkpt lat="50.09865" lon="5.04404">
        <ele>233.5</ele>
        <time>2022-04-21T12:36:53Z</time>
      </trkpt>
      <trkpt lat="50.09866" lon="5.04404">
        <ele>233.5</ele>
        <time>2022-04-21T12:36:54Z</time>
      </trkpt>
      <trkpt lat="50.09868" lon="5.04404">
        <ele>233.6</ele>
        <time>2022-04-21T12:36:55Z</time>
      </trkpt>
      <trkpt lat="50.09869" lon="5.04403">
        <ele>233.6</ele>
        <time>2022-04-21T12:36:57Z</time>
      </trkpt>
      <trkpt lat="50.0987" lon="5.04403">
        <ele>233.6</ele>
        <time>2022-04-21T12:36:58Z</time>
      </trkpt>
      <trkpt lat="50.09871" lon="5.04402">
        <ele>233.6</ele>
        <time>2022-04-21T12:36:59Z</time>
      </trkpt>
      <trkpt lat="50.09872" lon="5.04401">
        <ele>233.7</ele>
        <time>2022-04-21T12:37:00Z</time>
      </trkpt>
      <trkpt lat="50.09874" lon="5.04401">
        <ele>233.7</ele>
        <time>2022-04-21T12:37:01Z</time>
      </trkpt>
      <trkpt lat="50.09875" lon="5.04401">
        <ele>233.7</ele>
        <time>2022-04-21T12:37:02Z</time>
      </trkpt>
      <trkpt lat="50.09877" lon="5.04402">
        <ele>233.8</ele>
        <time>2022-04-21T12:37:03Z</time>
      </trkpt>
      <trkpt lat="50.09878" lon="5.04402">
        <ele>233.8</ele>
        <time>2022-04-21T12:37:04Z</time>
      </trkpt>
      <trkpt lat="50.09879" lon="5.04402">
        <ele>233.8</ele>
        <time>2022-04-21T12:37:05Z</time>
      </trkpt>
      <trkpt lat="50.09881" lon="5.04403">
        <ele>233.8</ele>
        <time>2022-04-21T12:37:06Z</time>
      </trkpt>
      <trkpt lat="50.09882" lon="5.04403">
        <ele>233.9</ele>
        <time>2022-04-21T12:37:07Z</time>
      </trkpt>
      <trkpt lat="50.09883" lon="5.04403">
        <ele>233.9</ele>
        <time>2022-04-21T12:37:08Z</time>
      </trkpt>
      <trkpt lat="50.09886" lon="5.04403">
        <ele>233.9</ele>
        <time>2022-04-21T12:37:09Z</time>
      </trkpt>
      <trkpt lat="50.09888" lon="5.04403">
        <ele>233.9</ele>
        <time>2022-04-21T12:37:11Z</time>
      </trkpt>
      <trkpt lat="50.09889" lon="5.04403">
        <ele>234</ele>
        <time>2022-04-21T12:37:12Z</time>
      </trkpt>
      <trkpt lat="50.09891" lon="5.04404">
        <ele>234</ele>
        <time>2022-04-21T12:37:13Z</time>
      </trkpt>
      <trkpt lat="50.09893" lon="5.04406">
        <ele>234</ele>
        <time>2022-04-21T12:37:16Z</time>
      </trkpt>
      <trkpt lat="50.09894" lon="5.04407">
        <ele>234.1</ele>
        <time>2022-04-21T12:37:17Z</time>
      </trkpt>
      <trkpt lat="50.09895" lon="5.04409">
        <ele>234.1</ele>
        <time>2022-04-21T12:37:18Z</time>
      </trkpt>
      <trkpt lat="50.09902" lon="5.04407">
        <ele>234.2</ele>
        <time>2022-04-21T12:37:20Z</time>
      </trkpt>
      <trkpt lat="50.09907" lon="5.04406">
        <ele>234.2</ele>
        <time>2022-04-21T12:37:21Z</time>
      </trkpt>
      <trkpt lat="50.0991" lon="5.04406">
        <ele>234.3</ele>
        <time>2022-04-21T12:37:22Z</time>
      </trkpt>
      <trkpt lat="50.09911" lon="5.04406">
        <ele>234.3</ele>
        <time>2022-04-21T12:37:23Z</time>
      </trkpt>
      <trkpt lat="50.09913" lon="5.04406">
        <ele>234.3</ele>
        <time>2022-04-21T12:37:24Z</time>
      </trkpt>
      <trkpt lat="50.09916" lon="5.04408">
        <ele>234.4</ele>
        <time>2022-04-21T12:37:26Z</time>
      </trkpt>
      <trkpt lat="50.09917" lon="5.04408">
        <ele>234.4</ele>
        <time>2022-04-21T12:37:27Z</time>
      </trkpt>
      <trkpt lat="50.09918" lon="5.04407">
        <ele>234.4</ele>
        <time>2022-04-21T12:37:28Z</time>
      </trkpt>
      <trkpt lat="50.09918" lon="5.04407">
        <ele>234.4</ele>
        <time>2022-04-21T12:37:29Z</time>
      </trkpt>
      <trkpt lat="50.09917" lon="5.04407">
        <ele>234.4</ele>
        <time>2022-04-21T12:37:30Z</time>
      </trkpt>
      <trkpt lat="50.09917" lon="5.04407">
        <ele>234.4</ele>
        <time>2022-04-21T12:37:31Z</time>
      </trkpt>
      <trkpt lat="50.09917" lon="5.04407">
        <ele>234.4</ele>
        <time>2022-04-21T12:37:32Z</time>
      </trkpt>
      <trkpt lat="50.09918" lon="5.04407">
        <ele>234.4</ele>
        <time>2022-04-21T12:37:33Z</time>
      </trkpt>
      <trkpt lat="50.09918" lon="5.04407">
        <ele>234.4</ele>
        <time>2022-04-21T12:37:34Z</time>
      </trkpt>
      <trkpt lat="50.09919" lon="5.04407">
        <ele>234.5</ele>
        <time>2022-04-21T12:37:36Z</time>
      </trkpt>
      <trkpt lat="50.0992" lon="5.04408">
        <ele>234.5</ele>
        <time>2022-04-21T12:37:37Z</time>
      </trkpt>
      <trkpt lat="50.0992" lon="5.0441">
        <ele>234.5</ele>
        <time>2022-04-21T12:37:38Z</time>
      </trkpt>
      <trkpt lat="50.09921" lon="5.04411">
        <ele>234.5</ele>
        <time>2022-04-21T12:37:39Z</time>
      </trkpt>
      <trkpt lat="50.09922" lon="5.04412">
        <ele>234.5</ele>
        <time>2022-04-21T12:37:40Z</time>
      </trkpt>
      <trkpt lat="50.09923" lon="5.04412">
        <ele>234.5</ele>
        <time>2022-04-21T12:37:41Z</time>
      </trkpt>
      <trkpt lat="50.09926" lon="5.04414">
        <ele>234.6</ele>
        <time>2022-04-21T12:37:43Z</time>
      </trkpt>
      <trkpt lat="50.09927" lon="5.04414">
        <ele>234.6</ele>
        <time>2022-04-21T12:37:44Z</time>
      </trkpt>
      <trkpt lat="50.09929" lon="5.04414">
        <ele>234.6</ele>
        <time>2022-04-21T12:37:45Z</time>
      </trkpt>
      <trkpt lat="50.0993" lon="5.04414">
        <ele>234.7</ele>
        <time>2022-04-21T12:37:46Z</time>
      </trkpt>
      <trkpt lat="50.09932" lon="5.04414">
        <ele>234.7</ele>
        <time>2022-04-21T12:37:47Z</time>
      </trkpt>
      <trkpt lat="50.09935" lon="5.04413">
        <ele>234.7</ele>
        <time>2022-04-21T12:37:49Z</time>
      </trkpt>
      <trkpt lat="50.09935" lon="5.04412">
        <ele>234.7</ele>
        <time>2022-04-21T12:37:50Z</time>
      </trkpt>
      <trkpt lat="50.09937" lon="5.04412">
        <ele>234.8</ele>
        <time>2022-04-21T12:37:51Z</time>
      </trkpt>
      <trkpt lat="50.09939" lon="5.04411">
        <ele>234.8</ele>
        <time>2022-04-21T12:37:52Z</time>
      </trkpt>
      <trkpt lat="50.0994" lon="5.04411">
        <ele>234.8</ele>
        <time>2022-04-21T12:37:53Z</time>
      </trkpt>
      <trkpt lat="50.09942" lon="5.04411">
        <ele>234.8</ele>
        <time>2022-04-21T12:37:54Z</time>
      </trkpt>
      <trkpt lat="50.09943" lon="5.04411">
        <ele>234.9</ele>
        <time>2022-04-21T12:37:55Z</time>
      </trkpt>
      <trkpt lat="50.09945" lon="5.04411">
        <ele>234.9</ele>
        <time>2022-04-21T12:37:56Z</time>
      </trkpt>
      <trkpt lat="50.09947" lon="5.04413">
        <ele>234.9</ele>
        <time>2022-04-21T12:37:57Z</time>
      </trkpt>
      <trkpt lat="50.09947" lon="5.04414">
        <ele>234.9</ele>
        <time>2022-04-21T12:37:58Z</time>
      </trkpt>
      <trkpt lat="50.09948" lon="5.04414">
        <ele>235</ele>
        <time>2022-04-21T12:37:59Z</time>
      </trkpt>
      <trkpt lat="50.09949" lon="5.04414">
        <ele>235</ele>
        <time>2022-04-21T12:38:00Z</time>
      </trkpt>
      <trkpt lat="50.0995" lon="5.04414">
        <ele>235</ele>
        <time>2022-04-21T12:38:01Z</time>
      </trkpt>
      <trkpt lat="50.09951" lon="5.04414">
        <ele>235</ele>
        <time>2022-04-21T12:38:02Z</time>
      </trkpt>
      <trkpt lat="50.09952" lon="5.04414">
        <ele>235</ele>
        <time>2022-04-21T12:38:03Z</time>
      </trkpt>
      <trkpt lat="50.09954" lon="5.04413">
        <ele>235.1</ele>
        <time>2022-04-21T12:38:04Z</time>
      </trkpt>
      <trkpt lat="50.09957" lon="5.04412">
        <ele>235.1</ele>
        <time>2022-04-21T12:38:05Z</time>
      </trkpt>
      <trkpt lat="50.09958" lon="5.04412">
        <ele>235.2</ele>
        <time>2022-04-21T12:38:06Z</time>
      </trkpt>
      <trkpt lat="50.09961" lon="5.04412">
        <ele>235.2</ele>
        <time>2022-04-21T12:38:08Z</time>
      </trkpt>
      <trkpt lat="50.09961" lon="5.04412">
        <ele>235.2</ele>
        <time>2022-04-21T12:38:09Z</time>
      </trkpt>
      <trkpt lat="50.09963" lon="5.04412">
        <ele>235.3</ele>
        <time>2022-04-21T12:38:10Z</time>
      </trkpt>
      <trkpt lat="50.09964" lon="5.04411">
        <ele>235.3</ele>
        <time>2022-04-21T12:38:11Z</time>
      </trkpt>
      <trkpt lat="50.09966" lon="5.04411">
        <ele>235.3</ele>
        <time>2022-04-21T12:38:12Z</time>
      </trkpt>
      <trkpt lat="50.09967" lon="5.0441">
        <ele>235.4</ele>
        <time>2022-04-21T12:38:13Z</time>
      </trkpt>
      <trkpt lat="50.09968" lon="5.04409">
        <ele>235.4</ele>
        <time>2022-04-21T12:38:14Z</time>
      </trkpt>
      <trkpt lat="50.09969" lon="5.04409">
        <ele>235.4</ele>
        <time>2022-04-21T12:38:15Z</time>
      </trkpt>
      <trkpt lat="50.0997" lon="5.04408">
        <ele>235.4</ele>
        <time>2022-04-21T12:38:16Z</time>
      </trkpt>
      <trkpt lat="50.09971" lon="5.04408">
        <ele>235.5</ele>
        <time>2022-04-21T12:38:17Z</time>
      </trkpt>
      <trkpt lat="50.09972" lon="5.04408">
        <ele>235.5</ele>
        <time>2022-04-21T12:38:18Z</time>
      </trkpt>
      <trkpt lat="50.09973" lon="5.04408">
        <ele>235.5</ele>
        <time>2022-04-21T12:38:19Z</time>
      </trkpt>
      <trkpt lat="50.09974" lon="5.04407">
        <ele>235.6</ele>
        <time>2022-04-21T12:38:20Z</time>
      </trkpt>
      <trkpt lat="50.09975" lon="5.04407">
        <ele>235.6</ele>
        <time>2022-04-21T12:38:21Z</time>
      </trkpt>
      <trkpt lat="50.09976" lon="5.04406">
        <ele>235.6</ele>
        <time>2022-04-21T12:38:22Z</time>
      </trkpt>
      <trkpt lat="50.09976" lon="5.04407">
        <ele>235.7</ele>
        <time>2022-04-21T12:38:23Z</time>
      </trkpt>
      <trkpt lat="50.09979" lon="5.04408">
        <ele>235.7</ele>
        <time>2022-04-21T12:38:24Z</time>
      </trkpt>
      <trkpt lat="50.09979" lon="5.04408">
        <ele>235.8</ele>
        <time>2022-04-21T12:38:25Z</time>
      </trkpt>
      <trkpt lat="50.0998" lon="5.04408">
        <ele>235.8</ele>
        <time>2022-04-21T12:38:26Z</time>
      </trkpt>
      <trkpt lat="50.09982" lon="5.04409">
        <ele>235.9</ele>
        <time>2022-04-21T12:38:28Z</time>
      </trkpt>
      <trkpt lat="50.09984" lon="5.04408">
        <ele>235.9</ele>
        <time>2022-04-21T12:38:29Z</time>
      </trkpt>
      <trkpt lat="50.09986" lon="5.04408">
        <ele>236</ele>
        <time>2022-04-21T12:38:30Z</time>
      </trkpt>
      <trkpt lat="50.09987" lon="5.04409">
        <ele>236</ele>
        <time>2022-04-21T12:38:31Z</time>
      </trkpt>
      <trkpt lat="50.09987" lon="5.04409">
        <ele>236</ele>
        <time>2022-04-21T12:38:32Z</time>
      </trkpt>
      <trkpt lat="50.09989" lon="5.04408">
        <ele>236.1</ele>
        <time>2022-04-21T12:38:33Z</time>
      </trkpt>
      <trkpt lat="50.0999" lon="5.04408">
        <ele>236.1</ele>
        <time>2022-04-21T12:38:34Z</time>
      </trkpt>
      <trkpt lat="50.09991" lon="5.04407">
        <ele>236.1</ele>
        <time>2022-04-21T12:38:35Z</time>
      </trkpt>
      <trkpt lat="50.09992" lon="5.04407">
        <ele>236.2</ele>
        <time>2022-04-21T12:38:36Z</time>
      </trkpt>
      <trkpt lat="50.09993" lon="5.04407">
        <ele>236.2</ele>
        <time>2022-04-21T12:38:37Z</time>
      </trkpt>
      <trkpt lat="50.09994" lon="5.04408">
        <ele>236.3</ele>
        <time>2022-04-21T12:38:38Z</time>
      </trkpt>
      <trkpt lat="50.09995" lon="5.04408">
        <ele>236.3</ele>
        <time>2022-04-21T12:38:39Z</time>
      </trkpt>
      <trkpt lat="50.09997" lon="5.0441">
        <ele>236.4</ele>
        <time>2022-04-21T12:38:40Z</time>
      </trkpt>
      <trkpt lat="50.09998" lon="5.04411">
        <ele>236.4</ele>
        <time>2022-04-21T12:38:41Z</time>
      </trkpt>
      <trkpt lat="50.09999" lon="5.04412">
        <ele>236.5</ele>
        <time>2022-04-21T12:38:42Z</time>
      </trkpt>
      <trkpt lat="50.1" lon="5.04413">
        <ele>236.5</ele>
        <time>2022-04-21T12:38:43Z</time>
      </trkpt>
      <trkpt lat="50.10001" lon="5.04413">
        <ele>236.6</ele>
        <time>2022-04-21T12:38:44Z</time>
      </trkpt>
      <trkpt lat="50.10002" lon="5.04413">
        <ele>236.6</ele>
        <time>2022-04-21T12:38:45Z</time>
      </trkpt>
      <trkpt lat="50.10003" lon="5.04413">
        <ele>236.6</ele>
        <time>2022-04-21T12:38:46Z</time>
      </trkpt>
      <trkpt lat="50.10004" lon="5.04413">
        <ele>236.7</ele>
        <time>2022-04-21T12:38:47Z</time>
      </trkpt>
      <trkpt lat="50.10005" lon="5.04413">
        <ele>236.7</ele>
        <time>2022-04-21T12:38:48Z</time>
      </trkpt>
      <trkpt lat="50.10006" lon="5.04414">
        <ele>236.8</ele>
        <time>2022-04-21T12:38:49Z</time>
      </trkpt>
      <trkpt lat="50.10007" lon="5.04414">
        <ele>236.8</ele>
        <time>2022-04-21T12:38:50Z</time>
      </trkpt>
      <trkpt lat="50.10008" lon="5.04414">
        <ele>236.8</ele>
        <time>2022-04-21T12:38:51Z</time>
      </trkpt>
      <trkpt lat="50.10009" lon="5.04413">
        <ele>236.9</ele>
        <time>2022-04-21T12:38:52Z</time>
      </trkpt>
      <trkpt lat="50.10011" lon="5.04412">
        <ele>236.9</ele>
        <time>2022-04-21T12:38:53Z</time>
      </trkpt>
      <trkpt lat="50.10011" lon="5.04412">
        <ele>237</ele>
        <time>2022-04-21T12:38:54Z</time>
      </trkpt>
      <trkpt lat="50.10012" lon="5.04411">
        <ele>237</ele>
        <time>2022-04-21T12:38:55Z</time>
      </trkpt>
      <trkpt lat="50.10013" lon="5.0441">
        <ele>237</ele>
        <time>2022-04-21T12:38:56Z</time>
      </trkpt>
      <trkpt lat="50.10014" lon="5.0441">
        <ele>237.1</ele>
        <time>2022-04-21T12:38:58Z</time>
      </trkpt>
      <trkpt lat="50.10015" lon="5.04409">
        <ele>237.1</ele>
        <time>2022-04-21T12:38:59Z</time>
      </trkpt>
      <trkpt lat="50.10016" lon="5.04408">
        <ele>237.2</ele>
        <time>2022-04-21T12:39:00Z</time>
      </trkpt>
      <trkpt lat="50.10018" lon="5.04407">
        <ele>237.3</ele>
        <time>2022-04-21T12:39:01Z</time>
      </trkpt>
      <trkpt lat="50.10019" lon="5.04407">
        <ele>237.3</ele>
        <time>2022-04-21T12:39:02Z</time>
      </trkpt>
      <trkpt lat="50.1002" lon="5.04406">
        <ele>237.3</ele>
        <time>2022-04-21T12:39:03Z</time>
      </trkpt>
      <trkpt lat="50.10021" lon="5.04406">
        <ele>237.4</ele>
        <time>2022-04-21T12:39:04Z</time>
      </trkpt>
      <trkpt lat="50.10022" lon="5.04405">
        <ele>237.4</ele>
        <time>2022-04-21T12:39:05Z</time>
      </trkpt>
      <trkpt lat="50.10024" lon="5.04405">
        <ele>237.5</ele>
        <time>2022-04-21T12:39:06Z</time>
      </trkpt>
      <trkpt lat="50.10025" lon="5.04405">
        <ele>237.5</ele>
        <time>2022-04-21T12:39:07Z</time>
      </trkpt>
      <trkpt lat="50.10027" lon="5.04404">
        <ele>237.6</ele>
        <time>2022-04-21T12:39:08Z</time>
      </trkpt>
      <trkpt lat="50.10028" lon="5.04404">
        <ele>237.6</ele>
        <time>2022-04-21T12:39:09Z</time>
      </trkpt>
      <trkpt lat="50.10029" lon="5.04404">
        <ele>237.7</ele>
        <time>2022-04-21T12:39:10Z</time>
      </trkpt>
      <trkpt lat="50.1003" lon="5.04404">
        <ele>237.7</ele>
        <time>2022-04-21T12:39:11Z</time>
      </trkpt>
      <trkpt lat="50.10031" lon="5.04404">
        <ele>237.8</ele>
        <time>2022-04-21T12:39:12Z</time>
      </trkpt>
      <trkpt lat="50.10032" lon="5.04405">
        <ele>237.8</ele>
        <time>2022-04-21T12:39:13Z</time>
      </trkpt>
      <trkpt lat="50.10034" lon="5.04405">
        <ele>237.9</ele>
        <time>2022-04-21T12:39:14Z</time>
      </trkpt>
      <trkpt lat="50.10035" lon="5.04405">
        <ele>237.9</ele>
        <time>2022-04-21T12:39:15Z</time>
      </trkpt>
      <trkpt lat="50.10037" lon="5.04404">
        <ele>238</ele>
        <time>2022-04-21T12:39:16Z</time>
      </trkpt>
      <trkpt lat="50.10038" lon="5.04404">
        <ele>238</ele>
        <time>2022-04-21T12:39:17Z</time>
      </trkpt>
      <trkpt lat="50.1004" lon="5.04402">
        <ele>238.1</ele>
        <time>2022-04-21T12:39:18Z</time>
      </trkpt>
      <trkpt lat="50.10041" lon="5.04402">
        <ele>238.1</ele>
        <time>2022-04-21T12:39:20Z</time>
      </trkpt>
      <trkpt lat="50.10042" lon="5.04401">
        <ele>238.2</ele>
        <time>2022-04-21T12:39:21Z</time>
      </trkpt>
      <trkpt lat="50.10043" lon="5.04401">
        <ele>238.2</ele>
        <time>2022-04-21T12:39:22Z</time>
      </trkpt>
      <trkpt lat="50.10044" lon="5.044">
        <ele>238.3</ele>
        <time>2022-04-21T12:39:23Z</time>
      </trkpt>
      <trkpt lat="50.10046" lon="5.044">
        <ele>238.3</ele>
        <time>2022-04-21T12:39:25Z</time>
      </trkpt>
      <trkpt lat="50.10048" lon="5.04399">
        <ele>238.4</ele>
        <time>2022-04-21T12:39:26Z</time>
      </trkpt>
      <trkpt lat="50.1005" lon="5.04398">
        <ele>238.4</ele>
        <time>2022-04-21T12:39:28Z</time>
      </trkpt>
      <trkpt lat="50.10052" lon="5.04398">
        <ele>238.5</ele>
        <time>2022-04-21T12:39:29Z</time>
      </trkpt>
      <trkpt lat="50.10053" lon="5.04397">
        <ele>238.5</ele>
        <time>2022-04-21T12:39:30Z</time>
      </trkpt>
      <trkpt lat="50.10056" lon="5.04395">
        <ele>238.6</ele>
        <time>2022-04-21T12:39:31Z</time>
      </trkpt>
      <trkpt lat="50.10058" lon="5.04393">
        <ele>238.7</ele>
        <time>2022-04-21T12:39:32Z</time>
      </trkpt>
      <trkpt lat="50.10059" lon="5.04392">
        <ele>238.7</ele>
        <time>2022-04-21T12:39:33Z</time>
      </trkpt>
      <trkpt lat="50.10061" lon="5.0439">
        <ele>238.8</ele>
        <time>2022-04-21T12:39:34Z</time>
      </trkpt>
      <trkpt lat="50.10062" lon="5.04388">
        <ele>238.8</ele>
        <time>2022-04-21T12:39:35Z</time>
      </trkpt>
      <trkpt lat="50.10064" lon="5.04384">
        <ele>238.9</ele>
        <time>2022-04-21T12:39:36Z</time>
      </trkpt>
      <trkpt lat="50.10064" lon="5.04383">
        <ele>238.9</ele>
        <time>2022-04-21T12:39:37Z</time>
      </trkpt>
      <trkpt lat="50.10065" lon="5.04381">
        <ele>239</ele>
        <time>2022-04-21T12:39:38Z</time>
      </trkpt>
      <trkpt lat="50.10066" lon="5.04379">
        <ele>239</ele>
        <time>2022-04-21T12:39:39Z</time>
      </trkpt>
      <trkpt lat="50.10067" lon="5.04377">
        <ele>239.1</ele>
        <time>2022-04-21T12:39:40Z</time>
      </trkpt>
      <trkpt lat="50.10068" lon="5.04375">
        <ele>239.1</ele>
        <time>2022-04-21T12:39:41Z</time>
      </trkpt>
      <trkpt lat="50.10068" lon="5.04374">
        <ele>239.1</ele>
        <time>2022-04-21T12:39:42Z</time>
      </trkpt>
      <trkpt lat="50.10069" lon="5.04372">
        <ele>239.2</ele>
        <time>2022-04-21T12:39:43Z</time>
      </trkpt>
      <trkpt lat="50.10071" lon="5.0437">
        <ele>239.2</ele>
        <time>2022-04-21T12:39:45Z</time>
      </trkpt>
      <trkpt lat="50.10072" lon="5.04368">
        <ele>239.3</ele>
        <time>2022-04-21T12:39:46Z</time>
      </trkpt>
      <trkpt lat="50.10072" lon="5.04367">
        <ele>239.3</ele>
        <time>2022-04-21T12:39:47Z</time>
      </trkpt>
      <trkpt lat="50.10073" lon="5.04366">
        <ele>239.3</ele>
        <time>2022-04-21T12:39:48Z</time>
      </trkpt>
      <trkpt lat="50.10074" lon="5.04365">
        <ele>239.4</ele>
        <time>2022-04-21T12:39:49Z</time>
      </trkpt>
      <trkpt lat="50.10075" lon="5.04365">
        <ele>239.4</ele>
        <time>2022-04-21T12:39:50Z</time>
      </trkpt>
      <trkpt lat="50.10076" lon="5.04365">
        <ele>239.4</ele>
        <time>2022-04-21T12:39:51Z</time>
      </trkpt>
      <trkpt lat="50.10079" lon="5.04365">
        <ele>239.5</ele>
        <time>2022-04-21T12:39:53Z</time>
      </trkpt>
      <trkpt lat="50.1008" lon="5.04365">
        <ele>239.5</ele>
        <time>2022-04-21T12:39:54Z</time>
      </trkpt>
      <trkpt lat="50.10083" lon="5.04364">
        <ele>239.6</ele>
        <time>2022-04-21T12:39:55Z</time>
      </trkpt>
      <trkpt lat="50.10084" lon="5.04364">
        <ele>239.6</ele>
        <time>2022-04-21T12:39:56Z</time>
      </trkpt>
      <trkpt lat="50.10087" lon="5.04364">
        <ele>239.7</ele>
        <time>2022-04-21T12:39:57Z</time>
      </trkpt>
      <trkpt lat="50.10088" lon="5.04365">
        <ele>239.7</ele>
        <time>2022-04-21T12:39:58Z</time>
      </trkpt>
      <trkpt lat="50.10091" lon="5.04366">
        <ele>239.8</ele>
        <time>2022-04-21T12:39:59Z</time>
      </trkpt>
      <trkpt lat="50.10092" lon="5.04366">
        <ele>239.8</ele>
        <time>2022-04-21T12:40:00Z</time>
      </trkpt>
      <trkpt lat="50.10095" lon="5.04362">
        <ele>239.9</ele>
        <time>2022-04-21T12:40:02Z</time>
      </trkpt>
      <trkpt lat="50.10095" lon="5.0436">
        <ele>240</ele>
        <time>2022-04-21T12:40:03Z</time>
      </trkpt>
      <trkpt lat="50.10096" lon="5.04357">
        <ele>240</ele>
        <time>2022-04-21T12:40:04Z</time>
      </trkpt>
      <trkpt lat="50.10096" lon="5.04355">
        <ele>240</ele>
        <time>2022-04-21T12:40:05Z</time>
      </trkpt>
      <trkpt lat="50.10096" lon="5.04352">
        <ele>240.1</ele>
        <time>2022-04-21T12:40:06Z</time>
      </trkpt>
      <trkpt lat="50.10095" lon="5.0435">
        <ele>240.1</ele>
        <time>2022-04-21T12:40:07Z</time>
      </trkpt>
      <trkpt lat="50.10096" lon="5.04345">
        <ele>240.2</ele>
        <time>2022-04-21T12:40:08Z</time>
      </trkpt>
      <trkpt lat="50.10096" lon="5.04343">
        <ele>240.2</ele>
        <time>2022-04-21T12:40:09Z</time>
      </trkpt>
      <trkpt lat="50.10096" lon="5.04341">
        <ele>240.2</ele>
        <time>2022-04-21T12:40:11Z</time>
      </trkpt>
      <trkpt lat="50.10097" lon="5.04339">
        <ele>240.3</ele>
        <time>2022-04-21T12:40:12Z</time>
      </trkpt>
      <trkpt lat="50.10097" lon="5.04337">
        <ele>240.3</ele>
        <time>2022-04-21T12:40:13Z</time>
      </trkpt>
      <trkpt lat="50.10097" lon="5.04335">
        <ele>240.3</ele>
        <time>2022-04-21T12:40:14Z</time>
      </trkpt>
      <trkpt lat="50.10097" lon="5.04334">
        <ele>240.3</ele>
        <time>2022-04-21T12:40:16Z</time>
      </trkpt>
      <trkpt lat="50.10098" lon="5.04333">
        <ele>240.3</ele>
        <time>2022-04-21T12:40:17Z</time>
      </trkpt>
      <trkpt lat="50.10098" lon="5.04332">
        <ele>240.3</ele>
        <time>2022-04-21T12:40:18Z</time>
      </trkpt>
      <trkpt lat="50.10099" lon="5.04332">
        <ele>240.3</ele>
        <time>2022-04-21T12:40:19Z</time>
      </trkpt>
      <trkpt lat="50.101" lon="5.04332">
        <ele>240.3</ele>
        <time>2022-04-21T12:40:20Z</time>
      </trkpt>
      <trkpt lat="50.101" lon="5.04332">
        <ele>240.4</ele>
        <time>2022-04-21T12:40:21Z</time>
      </trkpt>
      <trkpt lat="50.10101" lon="5.04332">
        <ele>240.4</ele>
        <time>2022-04-21T12:40:22Z</time>
      </trkpt>
      <trkpt lat="50.10102" lon="5.04333">
        <ele>240.4</ele>
        <time>2022-04-21T12:40:23Z</time>
      </trkpt>
      <trkpt lat="50.10103" lon="5.04332">
        <ele>240.4</ele>
        <time>2022-04-21T12:40:24Z</time>
      </trkpt>
      <trkpt lat="50.10104" lon="5.04331">
        <ele>240.4</ele>
        <time>2022-04-21T12:40:25Z</time>
      </trkpt>
      <trkpt lat="50.10105" lon="5.04329">
        <ele>240.4</ele>
        <time>2022-04-21T12:40:26Z</time>
      </trkpt>
      <trkpt lat="50.10106" lon="5.04327">
        <ele>240.5</ele>
        <time>2022-04-21T12:40:27Z</time>
      </trkpt>
      <trkpt lat="50.10107" lon="5.04325">
        <ele>240.5</ele>
        <time>2022-04-21T12:40:28Z</time>
      </trkpt>
      <trkpt lat="50.10109" lon="5.04323">
        <ele>240.5</ele>
        <time>2022-04-21T12:40:30Z</time>
      </trkpt>
      <trkpt lat="50.1011" lon="5.04321">
        <ele>240.5</ele>
        <time>2022-04-21T12:40:31Z</time>
      </trkpt>
      <trkpt lat="50.1011" lon="5.04318">
        <ele>240.6</ele>
        <time>2022-04-21T12:40:32Z</time>
      </trkpt>
      <trkpt lat="50.10111" lon="5.04316">
        <ele>240.6</ele>
        <time>2022-04-21T12:40:33Z</time>
      </trkpt>
      <trkpt lat="50.10112" lon="5.04314">
        <ele>240.6</ele>
        <time>2022-04-21T12:40:34Z</time>
      </trkpt>
      <trkpt lat="50.10113" lon="5.04312">
        <ele>240.6</ele>
        <time>2022-04-21T12:40:35Z</time>
      </trkpt>
      <trkpt lat="50.10114" lon="5.0431">
        <ele>240.7</ele>
        <time>2022-04-21T12:40:36Z</time>
      </trkpt>
      <trkpt lat="50.10115" lon="5.04309">
        <ele>240.7</ele>
        <time>2022-04-21T12:40:37Z</time>
      </trkpt>
      <trkpt lat="50.10117" lon="5.04306">
        <ele>240.7</ele>
        <time>2022-04-21T12:40:38Z</time>
      </trkpt>
      <trkpt lat="50.10117" lon="5.04305">
        <ele>240.7</ele>
        <time>2022-04-21T12:40:39Z</time>
      </trkpt>
      <trkpt lat="50.10118" lon="5.04303">
        <ele>240.8</ele>
        <time>2022-04-21T12:40:40Z</time>
      </trkpt>
      <trkpt lat="50.10119" lon="5.04302">
        <ele>240.8</ele>
        <time>2022-04-21T12:40:41Z</time>
      </trkpt>
      <trkpt lat="50.1012" lon="5.043">
        <ele>240.8</ele>
        <time>2022-04-21T12:40:42Z</time>
      </trkpt>
      <trkpt lat="50.10121" lon="5.04299">
        <ele>240.8</ele>
        <time>2022-04-21T12:40:43Z</time>
      </trkpt>
      <trkpt lat="50.10122" lon="5.04297">
        <ele>240.9</ele>
        <time>2022-04-21T12:40:45Z</time>
      </trkpt>
      <trkpt lat="50.10123" lon="5.04296">
        <ele>240.9</ele>
        <time>2022-04-21T12:40:46Z</time>
      </trkpt>
      <trkpt lat="50.10124" lon="5.04294">
        <ele>240.9</ele>
        <time>2022-04-21T12:40:47Z</time>
      </trkpt>
      <trkpt lat="50.10125" lon="5.04294">
        <ele>240.9</ele>
        <time>2022-04-21T12:40:48Z</time>
      </trkpt>
      <trkpt lat="50.10127" lon="5.04292">
        <ele>241</ele>
        <time>2022-04-21T12:40:49Z</time>
      </trkpt>
      <trkpt lat="50.10128" lon="5.04291">
        <ele>241</ele>
        <time>2022-04-21T12:40:50Z</time>
      </trkpt>
      <trkpt lat="50.10128" lon="5.04291">
        <ele>241</ele>
        <time>2022-04-21T12:40:51Z</time>
      </trkpt>
      <trkpt lat="50.10131" lon="5.04289">
        <ele>241</ele>
        <time>2022-04-21T12:40:53Z</time>
      </trkpt>
      <trkpt lat="50.10132" lon="5.04289">
        <ele>241.1</ele>
        <time>2022-04-21T12:40:54Z</time>
      </trkpt>
      <trkpt lat="50.10133" lon="5.04289">
        <ele>241.1</ele>
        <time>2022-04-21T12:40:55Z</time>
      </trkpt>
      <trkpt lat="50.10134" lon="5.04289">
        <ele>241.1</ele>
        <time>2022-04-21T12:40:56Z</time>
      </trkpt>
      <trkpt lat="50.10135" lon="5.04289">
        <ele>241.1</ele>
        <time>2022-04-21T12:40:57Z</time>
      </trkpt>
      <trkpt lat="50.10135" lon="5.04288">
        <ele>241.1</ele>
        <time>2022-04-21T12:40:58Z</time>
      </trkpt>
      <trkpt lat="50.10136" lon="5.04287">
        <ele>241.1</ele>
        <time>2022-04-21T12:40:59Z</time>
      </trkpt>
      <trkpt lat="50.10136" lon="5.04285">
        <ele>241.2</ele>
        <time>2022-04-21T12:41:00Z</time>
      </trkpt>
      <trkpt lat="50.10137" lon="5.04282">
        <ele>241.2</ele>
        <time>2022-04-21T12:41:02Z</time>
      </trkpt>
      <trkpt lat="50.10137" lon="5.0428">
        <ele>241.2</ele>
        <time>2022-04-21T12:41:03Z</time>
      </trkpt>
      <trkpt lat="50.10138" lon="5.04278">
        <ele>241.3</ele>
        <time>2022-04-21T12:41:05Z</time>
      </trkpt>
      <trkpt lat="50.10138" lon="5.04276">
        <ele>241.3</ele>
        <time>2022-04-21T12:41:06Z</time>
      </trkpt>
      <trkpt lat="50.10139" lon="5.04275">
        <ele>241.3</ele>
        <time>2022-04-21T12:41:07Z</time>
      </trkpt>
      <trkpt lat="50.10139" lon="5.04273">
        <ele>241.3</ele>
        <time>2022-04-21T12:41:08Z</time>
      </trkpt>
      <trkpt lat="50.10141" lon="5.04272">
        <ele>241.3</ele>
        <time>2022-04-21T12:41:10Z</time>
      </trkpt>
      <trkpt lat="50.10142" lon="5.04271">
        <ele>241.4</ele>
        <time>2022-04-21T12:41:11Z</time>
      </trkpt>
      <trkpt lat="50.10143" lon="5.04271">
        <ele>241.4</ele>
        <time>2022-04-21T12:41:12Z</time>
      </trkpt>
      <trkpt lat="50.10145" lon="5.0427">
        <ele>241.4</ele>
        <time>2022-04-21T12:41:13Z</time>
      </trkpt>
      <trkpt lat="50.10147" lon="5.0427">
        <ele>241.4</ele>
        <time>2022-04-21T12:41:14Z</time>
      </trkpt>
      <trkpt lat="50.10148" lon="5.04269">
        <ele>241.5</ele>
        <time>2022-04-21T12:41:15Z</time>
      </trkpt>
      <trkpt lat="50.10151" lon="5.04268">
        <ele>241.5</ele>
        <time>2022-04-21T12:41:16Z</time>
      </trkpt>
      <trkpt lat="50.10152" lon="5.04268">
        <ele>241.5</ele>
        <time>2022-04-21T12:41:17Z</time>
      </trkpt>
      <trkpt lat="50.10154" lon="5.04268">
        <ele>241.6</ele>
        <time>2022-04-21T12:41:18Z</time>
      </trkpt>
      <trkpt lat="50.10156" lon="5.04267">
        <ele>241.6</ele>
        <time>2022-04-21T12:41:20Z</time>
      </trkpt>
      <trkpt lat="50.1016" lon="5.04266">
        <ele>241.7</ele>
        <time>2022-04-21T12:41:21Z</time>
      </trkpt>
      <trkpt lat="50.10161" lon="5.04265">
        <ele>241.7</ele>
        <time>2022-04-21T12:41:22Z</time>
      </trkpt>
      <trkpt lat="50.10164" lon="5.04263">
        <ele>241.8</ele>
        <time>2022-04-21T12:41:23Z</time>
      </trkpt>
      <trkpt lat="50.10164" lon="5.04263">
        <ele>241.8</ele>
        <time>2022-04-21T12:41:24Z</time>
      </trkpt>
      <trkpt lat="50.10168" lon="5.0426">
        <ele>241.9</ele>
        <time>2022-04-21T12:41:26Z</time>
      </trkpt>
      <trkpt lat="50.1017" lon="5.04259">
        <ele>241.9</ele>
        <time>2022-04-21T12:41:27Z</time>
      </trkpt>
      <trkpt lat="50.10172" lon="5.04258">
        <ele>242</ele>
        <time>2022-04-21T12:41:29Z</time>
      </trkpt>
      <trkpt lat="50.10175" lon="5.04256">
        <ele>242</ele>
        <time>2022-04-21T12:41:30Z</time>
      </trkpt>
      <trkpt lat="50.10176" lon="5.04256">
        <ele>242.1</ele>
        <time>2022-04-21T12:41:31Z</time>
      </trkpt>
      <trkpt lat="50.10179" lon="5.04254">
        <ele>242.1</ele>
        <time>2022-04-21T12:41:33Z</time>
      </trkpt>
      <trkpt lat="50.1018" lon="5.04254">
        <ele>242.1</ele>
        <time>2022-04-21T12:41:34Z</time>
      </trkpt>
      <trkpt lat="50.10181" lon="5.04253">
        <ele>242.2</ele>
        <time>2022-04-21T12:41:35Z</time>
      </trkpt>
      <trkpt lat="50.10183" lon="5.04252">
        <ele>242.2</ele>
        <time>2022-04-21T12:41:36Z</time>
      </trkpt>
      <trkpt lat="50.10185" lon="5.0425">
        <ele>242.2</ele>
        <time>2022-04-21T12:41:37Z</time>
      </trkpt>
      <trkpt lat="50.10186" lon="5.0425">
        <ele>242.3</ele>
        <time>2022-04-21T12:41:38Z</time>
      </trkpt>
      <trkpt lat="50.10186" lon="5.04249">
        <ele>242.3</ele>
        <time>2022-04-21T12:41:39Z</time>
      </trkpt>
      <trkpt lat="50.10188" lon="5.04249">
        <ele>242.3</ele>
        <time>2022-04-21T12:41:40Z</time>
      </trkpt>
      <trkpt lat="50.1019" lon="5.04247">
        <ele>242.4</ele>
        <time>2022-04-21T12:41:42Z</time>
      </trkpt>
      <trkpt lat="50.10192" lon="5.04246">
        <ele>242.4</ele>
        <time>2022-04-21T12:41:43Z</time>
      </trkpt>
      <trkpt lat="50.10193" lon="5.04245">
        <ele>242.4</ele>
        <time>2022-04-21T12:41:44Z</time>
      </trkpt>
      <trkpt lat="50.10195" lon="5.04245">
        <ele>242.5</ele>
        <time>2022-04-21T12:41:45Z</time>
      </trkpt>
      <trkpt lat="50.10197" lon="5.04244">
        <ele>242.5</ele>
        <time>2022-04-21T12:41:46Z</time>
      </trkpt>
      <trkpt lat="50.10198" lon="5.04243">
        <ele>242.5</ele>
        <time>2022-04-21T12:41:47Z</time>
      </trkpt>
      <trkpt lat="50.10199" lon="5.04242">
        <ele>242.6</ele>
        <time>2022-04-21T12:41:48Z</time>
      </trkpt>
      <trkpt lat="50.10201" lon="5.0424">
        <ele>242.6</ele>
        <time>2022-04-21T12:41:49Z</time>
      </trkpt>
      <trkpt lat="50.10202" lon="5.04238">
        <ele>242.6</ele>
        <time>2022-04-21T12:41:50Z</time>
      </trkpt>
      <trkpt lat="50.10202" lon="5.04236">
        <ele>242.5</ele>
        <time>2022-04-21T12:41:51Z</time>
      </trkpt>
      <trkpt lat="50.10202" lon="5.04234">
        <ele>242.5</ele>
        <time>2022-04-21T12:41:52Z</time>
      </trkpt>
      <trkpt lat="50.10202" lon="5.04232">
        <ele>242.5</ele>
        <time>2022-04-21T12:41:53Z</time>
      </trkpt>
      <trkpt lat="50.10202" lon="5.04229">
        <ele>242.4</ele>
        <time>2022-04-21T12:41:54Z</time>
      </trkpt>
      <trkpt lat="50.10201" lon="5.04226">
        <ele>242.4</ele>
        <time>2022-04-21T12:41:55Z</time>
      </trkpt>
      <trkpt lat="50.102" lon="5.04225">
        <ele>242.4</ele>
        <time>2022-04-21T12:41:56Z</time>
      </trkpt>
      <trkpt lat="50.102" lon="5.04224">
        <ele>242.4</ele>
        <time>2022-04-21T12:41:57Z</time>
      </trkpt>
      <trkpt lat="50.102" lon="5.04222">
        <ele>242.3</ele>
        <time>2022-04-21T12:41:58Z</time>
      </trkpt>
      <trkpt lat="50.10199" lon="5.0422">
        <ele>242.3</ele>
        <time>2022-04-21T12:41:59Z</time>
      </trkpt>
      <trkpt lat="50.10199" lon="5.04218">
        <ele>242.3</ele>
        <time>2022-04-21T12:42:00Z</time>
      </trkpt>
      <trkpt lat="50.10198" lon="5.04215">
        <ele>242.2</ele>
        <time>2022-04-21T12:42:01Z</time>
      </trkpt>
      <trkpt lat="50.10197" lon="5.04212">
        <ele>242.2</ele>
        <time>2022-04-21T12:42:02Z</time>
      </trkpt>
      <trkpt lat="50.10197" lon="5.04211">
        <ele>242.2</ele>
        <time>2022-04-21T12:42:03Z</time>
      </trkpt>
      <trkpt lat="50.10197" lon="5.04209">
        <ele>242.2</ele>
        <time>2022-04-21T12:42:04Z</time>
      </trkpt>
      <trkpt lat="50.10195" lon="5.04207">
        <ele>242.1</ele>
        <time>2022-04-21T12:42:05Z</time>
      </trkpt>
      <trkpt lat="50.10195" lon="5.04205">
        <ele>242.1</ele>
        <time>2022-04-21T12:42:06Z</time>
      </trkpt>
      <trkpt lat="50.10195" lon="5.04202">
        <ele>242.1</ele>
        <time>2022-04-21T12:42:07Z</time>
      </trkpt>
      <trkpt lat="50.10195" lon="5.04201">
        <ele>242</ele>
        <time>2022-04-21T12:42:08Z</time>
      </trkpt>
      <trkpt lat="50.10195" lon="5.042">
        <ele>242</ele>
        <time>2022-04-21T12:42:09Z</time>
      </trkpt>
      <trkpt lat="50.10195" lon="5.042">
        <ele>242</ele>
        <time>2022-04-21T12:42:10Z</time>
      </trkpt>
      <trkpt lat="50.10194" lon="5.04202">
        <ele>242</ele>
        <time>2022-04-21T12:42:11Z</time>
      </trkpt>
      <trkpt lat="50.10195" lon="5.042">
        <ele>242</ele>
        <time>2022-04-21T12:42:12Z</time>
      </trkpt>
      <trkpt lat="50.10196" lon="5.04197">
        <ele>242</ele>
        <time>2022-04-21T12:42:13Z</time>
      </trkpt>
      <trkpt lat="50.10197" lon="5.04194">
        <ele>242</ele>
        <time>2022-04-21T12:42:15Z</time>
      </trkpt>
      <trkpt lat="50.10197" lon="5.04189">
        <ele>241.9</ele>
        <time>2022-04-21T12:42:16Z</time>
      </trkpt>
      <trkpt lat="50.10197" lon="5.04188">
        <ele>241.9</ele>
        <time>2022-04-21T12:42:17Z</time>
      </trkpt>
      <trkpt lat="50.10195" lon="5.04184">
        <ele>241.9</ele>
        <time>2022-04-21T12:42:20Z</time>
      </trkpt>
      <trkpt lat="50.10194" lon="5.04182">
        <ele>241.9</ele>
        <time>2022-04-21T12:42:21Z</time>
      </trkpt>
      <trkpt lat="50.10194" lon="5.04181">
        <ele>241.9</ele>
        <time>2022-04-21T12:42:22Z</time>
      </trkpt>
      <trkpt lat="50.10193" lon="5.0418">
        <ele>241.9</ele>
        <time>2022-04-21T12:42:23Z</time>
      </trkpt>
      <trkpt lat="50.10192" lon="5.04176">
        <ele>241.9</ele>
        <time>2022-04-21T12:42:25Z</time>
      </trkpt>
      <trkpt lat="50.1019" lon="5.04175">
        <ele>241.9</ele>
        <time>2022-04-21T12:42:26Z</time>
      </trkpt>
      <trkpt lat="50.10189" lon="5.04173">
        <ele>241.9</ele>
        <time>2022-04-21T12:42:27Z</time>
      </trkpt>
      <trkpt lat="50.10189" lon="5.04171">
        <ele>241.9</ele>
        <time>2022-04-21T12:42:28Z</time>
      </trkpt>
      <trkpt lat="50.10187" lon="5.04169">
        <ele>241.9</ele>
        <time>2022-04-21T12:42:29Z</time>
      </trkpt>
      <trkpt lat="50.10187" lon="5.04167">
        <ele>241.9</ele>
        <time>2022-04-21T12:42:30Z</time>
      </trkpt>
      <trkpt lat="50.10186" lon="5.04164">
        <ele>241.9</ele>
        <time>2022-04-21T12:42:32Z</time>
      </trkpt>
      <trkpt lat="50.10185" lon="5.04162">
        <ele>242</ele>
        <time>2022-04-21T12:42:33Z</time>
      </trkpt>
      <trkpt lat="50.10184" lon="5.0416">
        <ele>242</ele>
        <time>2022-04-21T12:42:34Z</time>
      </trkpt>
      <trkpt lat="50.10184" lon="5.04158">
        <ele>242</ele>
        <time>2022-04-21T12:42:35Z</time>
      </trkpt>
      <trkpt lat="50.10183" lon="5.04156">
        <ele>242</ele>
        <time>2022-04-21T12:42:36Z</time>
      </trkpt>
      <trkpt lat="50.10183" lon="5.04154">
        <ele>242</ele>
        <time>2022-04-21T12:42:37Z</time>
      </trkpt>
      <trkpt lat="50.10183" lon="5.04152">
        <ele>242</ele>
        <time>2022-04-21T12:42:38Z</time>
      </trkpt>
      <trkpt lat="50.10183" lon="5.0415">
        <ele>242</ele>
        <time>2022-04-21T12:42:39Z</time>
      </trkpt>
      <trkpt lat="50.10182" lon="5.04148">
        <ele>242</ele>
        <time>2022-04-21T12:42:40Z</time>
      </trkpt>
      <trkpt lat="50.10182" lon="5.04146">
        <ele>242</ele>
        <time>2022-04-21T12:42:41Z</time>
      </trkpt>
      <trkpt lat="50.10182" lon="5.04141">
        <ele>242</ele>
        <time>2022-04-21T12:42:43Z</time>
      </trkpt>
      <trkpt lat="50.10181" lon="5.04139">
        <ele>242</ele>
        <time>2022-04-21T12:42:44Z</time>
      </trkpt>
      <trkpt lat="50.1018" lon="5.04137">
        <ele>242</ele>
        <time>2022-04-21T12:42:45Z</time>
      </trkpt>
      <trkpt lat="50.1018" lon="5.04135">
        <ele>242</ele>
        <time>2022-04-21T12:42:46Z</time>
      </trkpt>
      <trkpt lat="50.10179" lon="5.04133">
        <ele>242.1</ele>
        <time>2022-04-21T12:42:47Z</time>
      </trkpt>
      <trkpt lat="50.1018" lon="5.04131">
        <ele>242.1</ele>
        <time>2022-04-21T12:42:48Z</time>
      </trkpt>
      <trkpt lat="50.10179" lon="5.04129">
        <ele>242.1</ele>
        <time>2022-04-21T12:42:49Z</time>
      </trkpt>
      <trkpt lat="50.10179" lon="5.04128">
        <ele>242.1</ele>
        <time>2022-04-21T12:42:50Z</time>
      </trkpt>
      <trkpt lat="50.10178" lon="5.04126">
        <ele>242.1</ele>
        <time>2022-04-21T12:42:51Z</time>
      </trkpt>
      <trkpt lat="50.10178" lon="5.04125">
        <ele>242.1</ele>
        <time>2022-04-21T12:42:52Z</time>
      </trkpt>
      <trkpt lat="50.10177" lon="5.04123">
        <ele>242.1</ele>
        <time>2022-04-21T12:42:53Z</time>
      </trkpt>
      <trkpt lat="50.10177" lon="5.0412">
        <ele>242.2</ele>
        <time>2022-04-21T12:42:54Z</time>
      </trkpt>
      <trkpt lat="50.10177" lon="5.04119">
        <ele>242.2</ele>
        <time>2022-04-21T12:42:55Z</time>
      </trkpt>
      <trkpt lat="50.10177" lon="5.04117">
        <ele>242.2</ele>
        <time>2022-04-21T12:42:56Z</time>
      </trkpt>
      <trkpt lat="50.10177" lon="5.04114">
        <ele>242.2</ele>
        <time>2022-04-21T12:42:57Z</time>
      </trkpt>
      <trkpt lat="50.10177" lon="5.04111">
        <ele>242.2</ele>
        <time>2022-04-21T12:42:59Z</time>
      </trkpt>
      <trkpt lat="50.10177" lon="5.04109">
        <ele>242.2</ele>
        <time>2022-04-21T12:43:00Z</time>
      </trkpt>
      <trkpt lat="50.10177" lon="5.04107">
        <ele>242.2</ele>
        <time>2022-04-21T12:43:01Z</time>
      </trkpt>
      <trkpt lat="50.10177" lon="5.04104">
        <ele>242.3</ele>
        <time>2022-04-21T12:43:02Z</time>
      </trkpt>
      <trkpt lat="50.10177" lon="5.04102">
        <ele>242.3</ele>
        <time>2022-04-21T12:43:03Z</time>
      </trkpt>
      <trkpt lat="50.10177" lon="5.04099">
        <ele>242.3</ele>
        <time>2022-04-21T12:43:04Z</time>
      </trkpt>
      <trkpt lat="50.10177" lon="5.04098">
        <ele>242.3</ele>
        <time>2022-04-21T12:43:05Z</time>
      </trkpt>
      <trkpt lat="50.10176" lon="5.04096">
        <ele>242.3</ele>
        <time>2022-04-21T12:43:06Z</time>
      </trkpt>
      <trkpt lat="50.10176" lon="5.04092">
        <ele>242.3</ele>
        <time>2022-04-21T12:43:08Z</time>
      </trkpt>
      <trkpt lat="50.10176" lon="5.0409">
        <ele>242.3</ele>
        <time>2022-04-21T12:43:09Z</time>
      </trkpt>
      <trkpt lat="50.10176" lon="5.04088">
        <ele>242.3</ele>
        <time>2022-04-21T12:43:10Z</time>
      </trkpt>
      <trkpt lat="50.10176" lon="5.04085">
        <ele>242.3</ele>
        <time>2022-04-21T12:43:11Z</time>
      </trkpt>
      <trkpt lat="50.10177" lon="5.0408">
        <ele>242.3</ele>
        <time>2022-04-21T12:43:13Z</time>
      </trkpt>
      <trkpt lat="50.10177" lon="5.04077">
        <ele>242.3</ele>
        <time>2022-04-21T12:43:14Z</time>
      </trkpt>
      <trkpt lat="50.10178" lon="5.04075">
        <ele>242.3</ele>
        <time>2022-04-21T12:43:15Z</time>
      </trkpt>
      <trkpt lat="50.10178" lon="5.0407">
        <ele>242.3</ele>
        <time>2022-04-21T12:43:16Z</time>
      </trkpt>
      <trkpt lat="50.10178" lon="5.04069">
        <ele>242.3</ele>
        <time>2022-04-21T12:43:17Z</time>
      </trkpt>
      <trkpt lat="50.10179" lon="5.04066">
        <ele>242.3</ele>
        <time>2022-04-21T12:43:18Z</time>
      </trkpt>
      <trkpt lat="50.10179" lon="5.04064">
        <ele>242.3</ele>
        <time>2022-04-21T12:43:19Z</time>
      </trkpt>
      <trkpt lat="50.10179" lon="5.04061">
        <ele>242.3</ele>
        <time>2022-04-21T12:43:20Z</time>
      </trkpt>
      <trkpt lat="50.10179" lon="5.04058">
        <ele>242.4</ele>
        <time>2022-04-21T12:43:21Z</time>
      </trkpt>
      <trkpt lat="50.10179" lon="5.04056">
        <ele>242.4</ele>
        <time>2022-04-21T12:43:22Z</time>
      </trkpt>
      <trkpt lat="50.10179" lon="5.04054">
        <ele>242.4</ele>
        <time>2022-04-21T12:43:23Z</time>
      </trkpt>
      <trkpt lat="50.10179" lon="5.04052">
        <ele>242.4</ele>
        <time>2022-04-21T12:43:24Z</time>
      </trkpt>
      <trkpt lat="50.10179" lon="5.04049">
        <ele>242.4</ele>
        <time>2022-04-21T12:43:25Z</time>
      </trkpt>
      <trkpt lat="50.10179" lon="5.04047">
        <ele>242.4</ele>
        <time>2022-04-21T12:43:26Z</time>
      </trkpt>
      <trkpt lat="50.10179" lon="5.04045">
        <ele>242.4</ele>
        <time>2022-04-21T12:43:27Z</time>
      </trkpt>
      <trkpt lat="50.10179" lon="5.04043">
        <ele>242.4</ele>
        <time>2022-04-21T12:43:28Z</time>
      </trkpt>
      <trkpt lat="50.10179" lon="5.04041">
        <ele>242.4</ele>
        <time>2022-04-21T12:43:29Z</time>
      </trkpt>
      <trkpt lat="50.10179" lon="5.04039">
        <ele>242.4</ele>
        <time>2022-04-21T12:43:30Z</time>
      </trkpt>
      <trkpt lat="50.10179" lon="5.04037">
        <ele>242.4</ele>
        <time>2022-04-21T12:43:31Z</time>
      </trkpt>
      <trkpt lat="50.10179" lon="5.04035">
        <ele>242.4</ele>
        <time>2022-04-21T12:43:32Z</time>
      </trkpt>
      <trkpt lat="50.10179" lon="5.04034">
        <ele>242.4</ele>
        <time>2022-04-21T12:43:33Z</time>
      </trkpt>
      <trkpt lat="50.10179" lon="5.04032">
        <ele>242.4</ele>
        <time>2022-04-21T12:43:34Z</time>
      </trkpt>
      <trkpt lat="50.10179" lon="5.0403">
        <ele>242.4</ele>
        <time>2022-04-21T12:43:35Z</time>
      </trkpt>
      <trkpt lat="50.10178" lon="5.04027">
        <ele>242.4</ele>
        <time>2022-04-21T12:43:36Z</time>
      </trkpt>
      <trkpt lat="50.10178" lon="5.04024">
        <ele>242.4</ele>
        <time>2022-04-21T12:43:38Z</time>
      </trkpt>
      <trkpt lat="50.10177" lon="5.0402">
        <ele>242.4</ele>
        <time>2022-04-21T12:43:39Z</time>
      </trkpt>
      <trkpt lat="50.10177" lon="5.04019">
        <ele>242.4</ele>
        <time>2022-04-21T12:43:40Z</time>
      </trkpt>
      <trkpt lat="50.10177" lon="5.04018">
        <ele>242.4</ele>
        <time>2022-04-21T12:43:41Z</time>
      </trkpt>
      <trkpt lat="50.10176" lon="5.04015">
        <ele>242.3</ele>
        <time>2022-04-21T12:43:43Z</time>
      </trkpt>
      <trkpt lat="50.10176" lon="5.04014">
        <ele>242.3</ele>
        <time>2022-04-21T12:43:44Z</time>
      </trkpt>
      <trkpt lat="50.10176" lon="5.04014">
        <ele>242.3</ele>
        <time>2022-04-21T12:43:45Z</time>
      </trkpt>
      <trkpt lat="50.10175" lon="5.04016">
        <ele>242.3</ele>
        <time>2022-04-21T12:43:46Z</time>
      </trkpt>
      <trkpt lat="50.10175" lon="5.04016">
        <ele>242.3</ele>
        <time>2022-04-21T12:43:47Z</time>
      </trkpt>
      <trkpt lat="50.10175" lon="5.04016">
        <ele>242.3</ele>
        <time>2022-04-21T12:43:48Z</time>
      </trkpt>
      <trkpt lat="50.10176" lon="5.04015">
        <ele>242.3</ele>
        <time>2022-04-21T12:43:49Z</time>
      </trkpt>
      <trkpt lat="50.10177" lon="5.04013">
        <ele>242.3</ele>
        <time>2022-04-21T12:43:50Z</time>
      </trkpt>
      <trkpt lat="50.10177" lon="5.04012">
        <ele>242.3</ele>
        <time>2022-04-21T12:43:51Z</time>
      </trkpt>
      <trkpt lat="50.10178" lon="5.0401">
        <ele>242.3</ele>
        <time>2022-04-21T12:43:52Z</time>
      </trkpt>
      <trkpt lat="50.1018" lon="5.04006">
        <ele>242.3</ele>
        <time>2022-04-21T12:43:53Z</time>
      </trkpt>
      <trkpt lat="50.1018" lon="5.04005">
        <ele>242.2</ele>
        <time>2022-04-21T12:43:54Z</time>
      </trkpt>
      <trkpt lat="50.10181" lon="5.04003">
        <ele>242.2</ele>
        <time>2022-04-21T12:43:55Z</time>
      </trkpt>
      <trkpt lat="50.1018" lon="5.03999">
        <ele>242.2</ele>
        <time>2022-04-21T12:43:57Z</time>
      </trkpt>
      <trkpt lat="50.1018" lon="5.03995">
        <ele>242.2</ele>
        <time>2022-04-21T12:43:58Z</time>
      </trkpt>
      <trkpt lat="50.1018" lon="5.03993">
        <ele>242.2</ele>
        <time>2022-04-21T12:43:59Z</time>
      </trkpt>
      <trkpt lat="50.10179" lon="5.03991">
        <ele>242.2</ele>
        <time>2022-04-21T12:44:00Z</time>
      </trkpt>
      <trkpt lat="50.10179" lon="5.03989">
        <ele>242.1</ele>
        <time>2022-04-21T12:44:01Z</time>
      </trkpt>
      <trkpt lat="50.10178" lon="5.03986">
        <ele>242.1</ele>
        <time>2022-04-21T12:44:02Z</time>
      </trkpt>
      <trkpt lat="50.10178" lon="5.03984">
        <ele>242.1</ele>
        <time>2022-04-21T12:44:03Z</time>
      </trkpt>
      <trkpt lat="50.10178" lon="5.03983">
        <ele>242.1</ele>
        <time>2022-04-21T12:44:04Z</time>
      </trkpt>
      <trkpt lat="50.10177" lon="5.0398">
        <ele>242.1</ele>
        <time>2022-04-21T12:44:05Z</time>
      </trkpt>
      <trkpt lat="50.10177" lon="5.03979">
        <ele>242</ele>
        <time>2022-04-21T12:44:06Z</time>
      </trkpt>
      <trkpt lat="50.10177" lon="5.03977">
        <ele>242</ele>
        <time>2022-04-21T12:44:07Z</time>
      </trkpt>
      <trkpt lat="50.10177" lon="5.03976">
        <ele>242</ele>
        <time>2022-04-21T12:44:08Z</time>
      </trkpt>
      <trkpt lat="50.10176" lon="5.03975">
        <ele>242</ele>
        <time>2022-04-21T12:44:09Z</time>
      </trkpt>
      <trkpt lat="50.10175" lon="5.03973">
        <ele>242</ele>
        <time>2022-04-21T12:44:10Z</time>
      </trkpt>
      <trkpt lat="50.10175" lon="5.0397">
        <ele>241.9</ele>
        <time>2022-04-21T12:44:11Z</time>
      </trkpt>
      <trkpt lat="50.10175" lon="5.03968">
        <ele>241.9</ele>
        <time>2022-04-21T12:44:12Z</time>
      </trkpt>
      <trkpt lat="50.10175" lon="5.03966">
        <ele>241.9</ele>
        <time>2022-04-21T12:44:13Z</time>
      </trkpt>
      <trkpt lat="50.10175" lon="5.03964">
        <ele>241.9</ele>
        <time>2022-04-21T12:44:14Z</time>
      </trkpt>
      <trkpt lat="50.10175" lon="5.03961">
        <ele>241.8</ele>
        <time>2022-04-21T12:44:16Z</time>
      </trkpt>
      <trkpt lat="50.10176" lon="5.03958">
        <ele>241.8</ele>
        <time>2022-04-21T12:44:17Z</time>
      </trkpt>
      <trkpt lat="50.10176" lon="5.03957">
        <ele>241.7</ele>
        <time>2022-04-21T12:44:18Z</time>
      </trkpt>
      <trkpt lat="50.10175" lon="5.03955">
        <ele>241.7</ele>
        <time>2022-04-21T12:44:19Z</time>
      </trkpt>
      <trkpt lat="50.10174" lon="5.03953">
        <ele>241.7</ele>
        <time>2022-04-21T12:44:20Z</time>
      </trkpt>
      <trkpt lat="50.10174" lon="5.03952">
        <ele>241.6</ele>
        <time>2022-04-21T12:44:21Z</time>
      </trkpt>
      <trkpt lat="50.10173" lon="5.03951">
        <ele>241.6</ele>
        <time>2022-04-21T12:44:22Z</time>
      </trkpt>
      <trkpt lat="50.10172" lon="5.03948">
        <ele>241.3</ele>
        <time>2022-04-21T12:44:23Z</time>
      </trkpt>
      <trkpt lat="50.10172" lon="5.03947">
        <ele>241.2</ele>
        <time>2022-04-21T12:44:24Z</time>
      </trkpt>
      <trkpt lat="50.10171" lon="5.03946">
        <ele>241.2</ele>
        <time>2022-04-21T12:44:25Z</time>
      </trkpt>
      <trkpt lat="50.1017" lon="5.03944">
        <ele>241.1</ele>
        <time>2022-04-21T12:44:26Z</time>
      </trkpt>
      <trkpt lat="50.10169" lon="5.03943">
        <ele>241.1</ele>
        <time>2022-04-21T12:44:27Z</time>
      </trkpt>
      <trkpt lat="50.10167" lon="5.03942">
        <ele>241</ele>
        <time>2022-04-21T12:44:28Z</time>
      </trkpt>
      <trkpt lat="50.10166" lon="5.03942">
        <ele>241</ele>
        <time>2022-04-21T12:44:29Z</time>
      </trkpt>
      <trkpt lat="50.10164" lon="5.03942">
        <ele>240.9</ele>
        <time>2022-04-21T12:44:30Z</time>
      </trkpt>
      <trkpt lat="50.10162" lon="5.03942">
        <ele>240.8</ele>
        <time>2022-04-21T12:44:31Z</time>
      </trkpt>
      <trkpt lat="50.10161" lon="5.03943">
        <ele>240.8</ele>
        <time>2022-04-21T12:44:32Z</time>
      </trkpt>
      <trkpt lat="50.10158" lon="5.03944">
        <ele>240.7</ele>
        <time>2022-04-21T12:44:34Z</time>
      </trkpt>
      <trkpt lat="50.10157" lon="5.03946">
        <ele>240.7</ele>
        <time>2022-04-21T12:44:35Z</time>
      </trkpt>
      <trkpt lat="50.10156" lon="5.03947">
        <ele>240.6</ele>
        <time>2022-04-21T12:44:36Z</time>
      </trkpt>
      <trkpt lat="50.10155" lon="5.03948">
        <ele>240.6</ele>
        <time>2022-04-21T12:44:37Z</time>
      </trkpt>
      <trkpt lat="50.10155" lon="5.03948">
        <ele>240.6</ele>
        <time>2022-04-21T12:44:38Z</time>
      </trkpt>
      <trkpt lat="50.10154" lon="5.03949">
        <ele>240.6</ele>
        <time>2022-04-21T12:44:39Z</time>
      </trkpt>
      <trkpt lat="50.10154" lon="5.03949">
        <ele>240.6</ele>
        <time>2022-04-21T12:44:40Z</time>
      </trkpt>
      <trkpt lat="50.10154" lon="5.03949">
        <ele>240.6</ele>
        <time>2022-04-21T12:44:41Z</time>
      </trkpt>
      <trkpt lat="50.10154" lon="5.03949">
        <ele>240.6</ele>
        <time>2022-04-21T12:44:42Z</time>
      </trkpt>
      <trkpt lat="50.10154" lon="5.0395">
        <ele>240.5</ele>
        <time>2022-04-21T12:44:43Z</time>
      </trkpt>
      <trkpt lat="50.10154" lon="5.03951">
        <ele>240.5</ele>
        <time>2022-04-21T12:44:44Z</time>
      </trkpt>
      <trkpt lat="50.10154" lon="5.03953">
        <ele>240.5</ele>
        <time>2022-04-21T12:44:45Z</time>
      </trkpt>
      <trkpt lat="50.10153" lon="5.03953">
        <ele>240.5</ele>
        <time>2022-04-21T12:44:46Z</time>
      </trkpt>
      <trkpt lat="50.10152" lon="5.03951">
        <ele>240.5</ele>
        <time>2022-04-21T12:44:47Z</time>
      </trkpt>
      <trkpt lat="50.10151" lon="5.03948">
        <ele>240.4</ele>
        <time>2022-04-21T12:44:49Z</time>
      </trkpt>
      <trkpt lat="50.10149" lon="5.03945">
        <ele>240.3</ele>
        <time>2022-04-21T12:44:50Z</time>
      </trkpt>
      <trkpt lat="50.10147" lon="5.03944">
        <ele>240.3</ele>
        <time>2022-04-21T12:44:51Z</time>
      </trkpt>
      <trkpt lat="50.10146" lon="5.03943">
        <ele>240.3</ele>
        <time>2022-04-21T12:44:52Z</time>
      </trkpt>
      <trkpt lat="50.10144" lon="5.03943">
        <ele>240.3</ele>
        <time>2022-04-21T12:44:53Z</time>
      </trkpt>
      <trkpt lat="50.10143" lon="5.03944">
        <ele>240.2</ele>
        <time>2022-04-21T12:44:54Z</time>
      </trkpt>
      <trkpt lat="50.10142" lon="5.03943">
        <ele>240.2</ele>
        <time>2022-04-21T12:44:56Z</time>
      </trkpt>
      <trkpt lat="50.10143" lon="5.03943">
        <ele>240.2</ele>
        <time>2022-04-21T12:44:57Z</time>
      </trkpt>
      <trkpt lat="50.10143" lon="5.03943">
        <ele>240.2</ele>
        <time>2022-04-21T12:44:58Z</time>
      </trkpt>
      <trkpt lat="50.10143" lon="5.03944">
        <ele>240.2</ele>
        <time>2022-04-21T12:44:59Z</time>
      </trkpt>
      <trkpt lat="50.10142" lon="5.03944">
        <ele>240.2</ele>
        <time>2022-04-21T12:45:00Z</time>
      </trkpt>
      <trkpt lat="50.10142" lon="5.03944">
        <ele>240.2</ele>
        <time>2022-04-21T12:45:01Z</time>
      </trkpt>
      <trkpt lat="50.10142" lon="5.03944">
        <ele>240.2</ele>
        <time>2022-04-21T12:45:02Z</time>
      </trkpt>
      <trkpt lat="50.10141" lon="5.03945">
        <ele>240.2</ele>
        <time>2022-04-21T12:45:03Z</time>
      </trkpt>
      <trkpt lat="50.10141" lon="5.03946">
        <ele>240.2</ele>
        <time>2022-04-21T12:45:05Z</time>
      </trkpt>
      <trkpt lat="50.1014" lon="5.03946">
        <ele>240.2</ele>
        <time>2022-04-21T12:45:06Z</time>
      </trkpt>
      <trkpt lat="50.1014" lon="5.03946">
        <ele>240.1</ele>
        <time>2022-04-21T12:45:07Z</time>
      </trkpt>
      <trkpt lat="50.10138" lon="5.03946">
        <ele>240.1</ele>
        <time>2022-04-21T12:45:08Z</time>
      </trkpt>
      <trkpt lat="50.10138" lon="5.03946">
        <ele>240.1</ele>
        <time>2022-04-21T12:45:09Z</time>
      </trkpt>
      <trkpt lat="50.10137" lon="5.03947">
        <ele>240.1</ele>
        <time>2022-04-21T12:45:10Z</time>
      </trkpt>
      <trkpt lat="50.10136" lon="5.03947">
        <ele>240.1</ele>
        <time>2022-04-21T12:45:11Z</time>
      </trkpt>
      <trkpt lat="50.10134" lon="5.03947">
        <ele>240</ele>
        <time>2022-04-21T12:45:12Z</time>
      </trkpt>
      <trkpt lat="50.10132" lon="5.03948">
        <ele>240</ele>
        <time>2022-04-21T12:45:13Z</time>
      </trkpt>
      <trkpt lat="50.10131" lon="5.03948">
        <ele>240</ele>
        <time>2022-04-21T12:45:14Z</time>
      </trkpt>
      <trkpt lat="50.10129" lon="5.03949">
        <ele>239.9</ele>
        <time>2022-04-21T12:45:15Z</time>
      </trkpt>
      <trkpt lat="50.10128" lon="5.03949">
        <ele>239.9</ele>
        <time>2022-04-21T12:45:16Z</time>
      </trkpt>
      <trkpt lat="50.10127" lon="5.03949">
        <ele>239.9</ele>
        <time>2022-04-21T12:45:17Z</time>
      </trkpt>
      <trkpt lat="50.10126" lon="5.03949">
        <ele>239.9</ele>
        <time>2022-04-21T12:45:18Z</time>
      </trkpt>
      <trkpt lat="50.10123" lon="5.03949">
        <ele>239.8</ele>
        <time>2022-04-21T12:45:20Z</time>
      </trkpt>
      <trkpt lat="50.10121" lon="5.03949">
        <ele>239.8</ele>
        <time>2022-04-21T12:45:21Z</time>
      </trkpt>
      <trkpt lat="50.10121" lon="5.0395">
        <ele>239.7</ele>
        <time>2022-04-21T12:45:22Z</time>
      </trkpt>
      <trkpt lat="50.1012" lon="5.0395">
        <ele>239.7</ele>
        <time>2022-04-21T12:45:23Z</time>
      </trkpt>
      <trkpt lat="50.10118" lon="5.0395">
        <ele>239.7</ele>
        <time>2022-04-21T12:45:24Z</time>
      </trkpt>
      <trkpt lat="50.10117" lon="5.0395">
        <ele>239.7</ele>
        <time>2022-04-21T12:45:25Z</time>
      </trkpt>
      <trkpt lat="50.10116" lon="5.0395">
        <ele>239.6</ele>
        <time>2022-04-21T12:45:26Z</time>
      </trkpt>
      <trkpt lat="50.10115" lon="5.0395">
        <ele>239.6</ele>
        <time>2022-04-21T12:45:27Z</time>
      </trkpt>
      <trkpt lat="50.10114" lon="5.0395">
        <ele>239.6</ele>
        <time>2022-04-21T12:45:28Z</time>
      </trkpt>
      <trkpt lat="50.10111" lon="5.03951">
        <ele>239.5</ele>
        <time>2022-04-21T12:45:30Z</time>
      </trkpt>
      <trkpt lat="50.10109" lon="5.03951">
        <ele>239.5</ele>
        <time>2022-04-21T12:45:31Z</time>
      </trkpt>
      <trkpt lat="50.10108" lon="5.03951">
        <ele>239.4</ele>
        <time>2022-04-21T12:45:32Z</time>
      </trkpt>
      <trkpt lat="50.10107" lon="5.03951">
        <ele>239.4</ele>
        <time>2022-04-21T12:45:33Z</time>
      </trkpt>
      <trkpt lat="50.10106" lon="5.03951">
        <ele>239.4</ele>
        <time>2022-04-21T12:45:34Z</time>
      </trkpt>
      <trkpt lat="50.10104" lon="5.03952">
        <ele>239.3</ele>
        <time>2022-04-21T12:45:35Z</time>
      </trkpt>
      <trkpt lat="50.10103" lon="5.03952">
        <ele>239.3</ele>
        <time>2022-04-21T12:45:36Z</time>
      </trkpt>
      <trkpt lat="50.10102" lon="5.03952">
        <ele>239.3</ele>
        <time>2022-04-21T12:45:37Z</time>
      </trkpt>
      <trkpt lat="50.10101" lon="5.03952">
        <ele>239.2</ele>
        <time>2022-04-21T12:45:38Z</time>
      </trkpt>
      <trkpt lat="50.10099" lon="5.03952">
        <ele>239.2</ele>
        <time>2022-04-21T12:45:39Z</time>
      </trkpt>
      <trkpt lat="50.10098" lon="5.03953">
        <ele>239.1</ele>
        <time>2022-04-21T12:45:40Z</time>
      </trkpt>
      <trkpt lat="50.10096" lon="5.03953">
        <ele>239.1</ele>
        <time>2022-04-21T12:45:41Z</time>
      </trkpt>
      <trkpt lat="50.10095" lon="5.03953">
        <ele>239.1</ele>
        <time>2022-04-21T12:45:42Z</time>
      </trkpt>
      <trkpt lat="50.10094" lon="5.03954">
        <ele>239</ele>
        <time>2022-04-21T12:45:43Z</time>
      </trkpt>
      <trkpt lat="50.10092" lon="5.03954">
        <ele>239</ele>
        <time>2022-04-21T12:45:44Z</time>
      </trkpt>
      <trkpt lat="50.10091" lon="5.03954">
        <ele>238.9</ele>
        <time>2022-04-21T12:45:45Z</time>
      </trkpt>
      <trkpt lat="50.1009" lon="5.03954">
        <ele>238.9</ele>
        <time>2022-04-21T12:45:46Z</time>
      </trkpt>
      <trkpt lat="50.10089" lon="5.03954">
        <ele>238.9</ele>
        <time>2022-04-21T12:45:47Z</time>
      </trkpt>
      <trkpt lat="50.10086" lon="5.03955">
        <ele>238.8</ele>
        <time>2022-04-21T12:45:49Z</time>
      </trkpt>
      <trkpt lat="50.10084" lon="5.03955">
        <ele>238.7</ele>
        <time>2022-04-21T12:45:50Z</time>
      </trkpt>
      <trkpt lat="50.10083" lon="5.03956">
        <ele>238.7</ele>
        <time>2022-04-21T12:45:51Z</time>
      </trkpt>
      <trkpt lat="50.10081" lon="5.03956">
        <ele>238.7</ele>
        <time>2022-04-21T12:45:52Z</time>
      </trkpt>
      <trkpt lat="50.10079" lon="5.03956">
        <ele>238.6</ele>
        <time>2022-04-21T12:45:53Z</time>
      </trkpt>
      <trkpt lat="50.10077" lon="5.03956">
        <ele>238.5</ele>
        <time>2022-04-21T12:45:54Z</time>
      </trkpt>
      <trkpt lat="50.10076" lon="5.03956">
        <ele>238.5</ele>
        <time>2022-04-21T12:45:55Z</time>
      </trkpt>
      <trkpt lat="50.10074" lon="5.03955">
        <ele>238.4</ele>
        <time>2022-04-21T12:45:56Z</time>
      </trkpt>
      <trkpt lat="50.10073" lon="5.03955">
        <ele>238.4</ele>
        <time>2022-04-21T12:45:57Z</time>
      </trkpt>
      <trkpt lat="50.10072" lon="5.03955">
        <ele>238.4</ele>
        <time>2022-04-21T12:45:58Z</time>
      </trkpt>
      <trkpt lat="50.10069" lon="5.03955">
        <ele>238.3</ele>
        <time>2022-04-21T12:46:00Z</time>
      </trkpt>
      <trkpt lat="50.10069" lon="5.03955">
        <ele>238.2</ele>
        <time>2022-04-21T12:46:01Z</time>
      </trkpt>
      <trkpt lat="50.10067" lon="5.03954">
        <ele>238.2</ele>
        <time>2022-04-21T12:46:02Z</time>
      </trkpt>
      <trkpt lat="50.10066" lon="5.03953">
        <ele>238.1</ele>
        <time>2022-04-21T12:46:03Z</time>
      </trkpt>
      <trkpt lat="50.10065" lon="5.03953">
        <ele>238.1</ele>
        <time>2022-04-21T12:46:04Z</time>
      </trkpt>
      <trkpt lat="50.10063" lon="5.03953">
        <ele>238</ele>
        <time>2022-04-21T12:46:05Z</time>
      </trkpt>
      <trkpt lat="50.10062" lon="5.03952">
        <ele>238</ele>
        <time>2022-04-21T12:46:06Z</time>
      </trkpt>
      <trkpt lat="50.10062" lon="5.03952">
        <ele>238</ele>
        <time>2022-04-21T12:46:07Z</time>
      </trkpt>
      <trkpt lat="50.10061" lon="5.03952">
        <ele>237.9</ele>
        <time>2022-04-21T12:46:08Z</time>
      </trkpt>
      <trkpt lat="50.1006" lon="5.03952">
        <ele>237.9</ele>
        <time>2022-04-21T12:46:09Z</time>
      </trkpt>
      <trkpt lat="50.10058" lon="5.03951">
        <ele>237.8</ele>
        <time>2022-04-21T12:46:10Z</time>
      </trkpt>
      <trkpt lat="50.10057" lon="5.0395">
        <ele>237.8</ele>
        <time>2022-04-21T12:46:11Z</time>
      </trkpt>
      <trkpt lat="50.10056" lon="5.03948">
        <ele>237.8</ele>
        <time>2022-04-21T12:46:13Z</time>
      </trkpt>
      <trkpt lat="50.10054" lon="5.03946">
        <ele>237.7</ele>
        <time>2022-04-21T12:46:15Z</time>
      </trkpt>
      <trkpt lat="50.10052" lon="5.03946">
        <ele>237.6</ele>
        <time>2022-04-21T12:46:16Z</time>
      </trkpt>
      <trkpt lat="50.10051" lon="5.03945">
        <ele>237.5</ele>
        <time>2022-04-21T12:46:17Z</time>
      </trkpt>
      <trkpt lat="50.10049" lon="5.03944">
        <ele>237.5</ele>
        <time>2022-04-21T12:46:18Z</time>
      </trkpt>
      <trkpt lat="50.10049" lon="5.03943">
        <ele>237.4</ele>
        <time>2022-04-21T12:46:19Z</time>
      </trkpt>
      <trkpt lat="50.10048" lon="5.03941">
        <ele>237.4</ele>
        <time>2022-04-21T12:46:20Z</time>
      </trkpt>
      <trkpt lat="50.10048" lon="5.03941">
        <ele>237.4</ele>
        <time>2022-04-21T12:46:21Z</time>
      </trkpt>
      <trkpt lat="50.10047" lon="5.03941">
        <ele>237.4</ele>
        <time>2022-04-21T12:46:22Z</time>
      </trkpt>
      <trkpt lat="50.10047" lon="5.03942">
        <ele>237.3</ele>
        <time>2022-04-21T12:46:23Z</time>
      </trkpt>
      <trkpt lat="50.10047" lon="5.03943">
        <ele>237.3</ele>
        <time>2022-04-21T12:46:25Z</time>
      </trkpt>
      <trkpt lat="50.10046" lon="5.03943">
        <ele>237.3</ele>
        <time>2022-04-21T12:46:26Z</time>
      </trkpt>
      <trkpt lat="50.10046" lon="5.03944">
        <ele>237.3</ele>
        <time>2022-04-21T12:46:27Z</time>
      </trkpt>
      <trkpt lat="50.10046" lon="5.03944">
        <ele>237.3</ele>
        <time>2022-04-21T12:46:28Z</time>
      </trkpt>
      <trkpt lat="50.10045" lon="5.03945">
        <ele>237.3</ele>
        <time>2022-04-21T12:46:29Z</time>
      </trkpt>
      <trkpt lat="50.10044" lon="5.03945">
        <ele>237.2</ele>
        <time>2022-04-21T12:46:30Z</time>
      </trkpt>
      <trkpt lat="50.10042" lon="5.03944">
        <ele>237.1</ele>
        <time>2022-04-21T12:46:31Z</time>
      </trkpt>
      <trkpt lat="50.10039" lon="5.03943">
        <ele>237</ele>
        <time>2022-04-21T12:46:32Z</time>
      </trkpt>
      <trkpt lat="50.10037" lon="5.03942">
        <ele>237</ele>
        <time>2022-04-21T12:46:33Z</time>
      </trkpt>
      <trkpt lat="50.10033" lon="5.03941">
        <ele>236.9</ele>
        <time>2022-04-21T12:46:35Z</time>
      </trkpt>
      <trkpt lat="50.1003" lon="5.03941">
        <ele>236.8</ele>
        <time>2022-04-21T12:46:36Z</time>
      </trkpt>
      <trkpt lat="50.10026" lon="5.03941">
        <ele>236.7</ele>
        <time>2022-04-21T12:46:37Z</time>
      </trkpt>
      <trkpt lat="50.10025" lon="5.03941">
        <ele>236.7</ele>
        <time>2022-04-21T12:46:38Z</time>
      </trkpt>
      <trkpt lat="50.10022" lon="5.0394">
        <ele>236.6</ele>
        <time>2022-04-21T12:46:39Z</time>
      </trkpt>
      <trkpt lat="50.10022" lon="5.0394">
        <ele>236.6</ele>
        <time>2022-04-21T12:46:40Z</time>
      </trkpt>
      <trkpt lat="50.1002" lon="5.0394">
        <ele>236.5</ele>
        <time>2022-04-21T12:46:41Z</time>
      </trkpt>
      <trkpt lat="50.1002" lon="5.03939">
        <ele>236.5</ele>
        <time>2022-04-21T12:46:42Z</time>
      </trkpt>
      <trkpt lat="50.10019" lon="5.03939">
        <ele>236.5</ele>
        <time>2022-04-21T12:46:43Z</time>
      </trkpt>
      <trkpt lat="50.10018" lon="5.03937">
        <ele>236.5</ele>
        <time>2022-04-21T12:46:44Z</time>
      </trkpt>
      <trkpt lat="50.10018" lon="5.03936">
        <ele>236.4</ele>
        <time>2022-04-21T12:46:45Z</time>
      </trkpt>
      <trkpt lat="50.10018" lon="5.03935">
        <ele>236.4</ele>
        <time>2022-04-21T12:46:46Z</time>
      </trkpt>
      <trkpt lat="50.10016" lon="5.03937">
        <ele>236.4</ele>
        <time>2022-04-21T12:46:48Z</time>
      </trkpt>
      <trkpt lat="50.10015" lon="5.03937">
        <ele>236.4</ele>
        <time>2022-04-21T12:46:49Z</time>
      </trkpt>
      <trkpt lat="50.10014" lon="5.03937">
        <ele>236.3</ele>
        <time>2022-04-21T12:46:50Z</time>
      </trkpt>
      <trkpt lat="50.10012" lon="5.03937">
        <ele>236.3</ele>
        <time>2022-04-21T12:46:51Z</time>
      </trkpt>
      <trkpt lat="50.1001" lon="5.03937">
        <ele>236.2</ele>
        <time>2022-04-21T12:46:53Z</time>
      </trkpt>
      <trkpt lat="50.10009" lon="5.03937">
        <ele>236.2</ele>
        <time>2022-04-21T12:46:54Z</time>
      </trkpt>
      <trkpt lat="50.10005" lon="5.03937">
        <ele>236.1</ele>
        <time>2022-04-21T12:46:55Z</time>
      </trkpt>
      <trkpt lat="50.10004" lon="5.03937">
        <ele>236.1</ele>
        <time>2022-04-21T12:46:56Z</time>
      </trkpt>
      <trkpt lat="50.10001" lon="5.03938">
        <ele>236</ele>
        <time>2022-04-21T12:46:57Z</time>
      </trkpt>
      <trkpt lat="50.1" lon="5.03938">
        <ele>236</ele>
        <time>2022-04-21T12:46:58Z</time>
      </trkpt>
      <trkpt lat="50.09998" lon="5.03937">
        <ele>235.9</ele>
        <time>2022-04-21T12:46:59Z</time>
      </trkpt>
      <trkpt lat="50.09996" lon="5.03937">
        <ele>235.9</ele>
        <time>2022-04-21T12:47:00Z</time>
      </trkpt>
      <trkpt lat="50.09994" lon="5.03936">
        <ele>235.8</ele>
        <time>2022-04-21T12:47:01Z</time>
      </trkpt>
      <trkpt lat="50.09992" lon="5.03935">
        <ele>235.8</ele>
        <time>2022-04-21T12:47:03Z</time>
      </trkpt>
      <trkpt lat="50.09989" lon="5.03935">
        <ele>235.7</ele>
        <time>2022-04-21T12:47:04Z</time>
      </trkpt>
      <trkpt lat="50.09988" lon="5.03934">
        <ele>235.6</ele>
        <time>2022-04-21T12:47:05Z</time>
      </trkpt>
      <trkpt lat="50.09986" lon="5.03934">
        <ele>235.6</ele>
        <time>2022-04-21T12:47:06Z</time>
      </trkpt>
      <trkpt lat="50.09985" lon="5.03934">
        <ele>235.6</ele>
        <time>2022-04-21T12:47:07Z</time>
      </trkpt>
      <trkpt lat="50.09984" lon="5.03934">
        <ele>235.5</ele>
        <time>2022-04-21T12:47:08Z</time>
      </trkpt>
      <trkpt lat="50.09982" lon="5.03934">
        <ele>235.5</ele>
        <time>2022-04-21T12:47:09Z</time>
      </trkpt>
      <trkpt lat="50.0998" lon="5.03933">
        <ele>235.4</ele>
        <time>2022-04-21T12:47:10Z</time>
      </trkpt>
      <trkpt lat="50.09979" lon="5.03933">
        <ele>235.4</ele>
        <time>2022-04-21T12:47:11Z</time>
      </trkpt>
      <trkpt lat="50.09978" lon="5.03933">
        <ele>235.3</ele>
        <time>2022-04-21T12:47:12Z</time>
      </trkpt>
      <trkpt lat="50.09976" lon="5.03932">
        <ele>235.3</ele>
        <time>2022-04-21T12:47:14Z</time>
      </trkpt>
      <trkpt lat="50.09974" lon="5.03931">
        <ele>235.3</ele>
        <time>2022-04-21T12:47:15Z</time>
      </trkpt>
      <trkpt lat="50.09973" lon="5.0393">
        <ele>235.2</ele>
        <time>2022-04-21T12:47:16Z</time>
      </trkpt>
      <trkpt lat="50.09973" lon="5.0393">
        <ele>235.2</ele>
        <time>2022-04-21T12:47:17Z</time>
      </trkpt>
      <trkpt lat="50.09971" lon="5.0393">
        <ele>235.2</ele>
        <time>2022-04-21T12:47:18Z</time>
      </trkpt>
      <trkpt lat="50.09971" lon="5.0393">
        <ele>235.1</ele>
        <time>2022-04-21T12:47:19Z</time>
      </trkpt>
      <trkpt lat="50.09971" lon="5.03929">
        <ele>235.1</ele>
        <time>2022-04-21T12:47:20Z</time>
      </trkpt>
      <trkpt lat="50.09969" lon="5.03927">
        <ele>235.1</ele>
        <time>2022-04-21T12:47:21Z</time>
      </trkpt>
      <trkpt lat="50.09969" lon="5.03927">
        <ele>235.1</ele>
        <time>2022-04-21T12:47:22Z</time>
      </trkpt>
      <trkpt lat="50.09968" lon="5.03926">
        <ele>235.1</ele>
        <time>2022-04-21T12:47:23Z</time>
      </trkpt>
      <trkpt lat="50.09968" lon="5.03925">
        <ele>235</ele>
        <time>2022-04-21T12:47:24Z</time>
      </trkpt>
      <trkpt lat="50.09967" lon="5.03925">
        <ele>235</ele>
        <time>2022-04-21T12:47:25Z</time>
      </trkpt>
      <trkpt lat="50.09966" lon="5.03924">
        <ele>235</ele>
        <time>2022-04-21T12:47:26Z</time>
      </trkpt>
      <trkpt lat="50.09965" lon="5.03923">
        <ele>235</ele>
        <time>2022-04-21T12:47:27Z</time>
      </trkpt>
      <trkpt lat="50.09964" lon="5.03923">
        <ele>234.9</ele>
        <time>2022-04-21T12:47:28Z</time>
      </trkpt>
      <trkpt lat="50.09963" lon="5.03923">
        <ele>234.9</ele>
        <time>2022-04-21T12:47:30Z</time>
      </trkpt>
      <trkpt lat="50.09961" lon="5.03923">
        <ele>234.8</ele>
        <time>2022-04-21T12:47:31Z</time>
      </trkpt>
      <trkpt lat="50.0996" lon="5.03922">
        <ele>234.8</ele>
        <time>2022-04-21T12:47:32Z</time>
      </trkpt>
      <trkpt lat="50.09959" lon="5.03922">
        <ele>234.8</ele>
        <time>2022-04-21T12:47:33Z</time>
      </trkpt>
      <trkpt lat="50.09958" lon="5.03921">
        <ele>234.8</ele>
        <time>2022-04-21T12:47:34Z</time>
      </trkpt>
      <trkpt lat="50.09958" lon="5.03921">
        <ele>234.8</ele>
        <time>2022-04-21T12:47:35Z</time>
      </trkpt>
      <trkpt lat="50.09957" lon="5.0392">
        <ele>234.7</ele>
        <time>2022-04-21T12:47:36Z</time>
      </trkpt>
      <trkpt lat="50.09956" lon="5.03919">
        <ele>234.7</ele>
        <time>2022-04-21T12:47:37Z</time>
      </trkpt>
      <trkpt lat="50.09954" lon="5.03919">
        <ele>234.7</ele>
        <time>2022-04-21T12:47:38Z</time>
      </trkpt>
      <trkpt lat="50.09953" lon="5.03918">
        <ele>234.6</ele>
        <time>2022-04-21T12:47:39Z</time>
      </trkpt>
      <trkpt lat="50.0995" lon="5.03918">
        <ele>234.5</ele>
        <time>2022-04-21T12:47:40Z</time>
      </trkpt>
      <trkpt lat="50.09949" lon="5.03917">
        <ele>234.5</ele>
        <time>2022-04-21T12:47:41Z</time>
      </trkpt>
      <trkpt lat="50.09946" lon="5.03917">
        <ele>234.4</ele>
        <time>2022-04-21T12:47:43Z</time>
      </trkpt>
      <trkpt lat="50.09943" lon="5.03916">
        <ele>234.4</ele>
        <time>2022-04-21T12:47:44Z</time>
      </trkpt>
      <trkpt lat="50.0994" lon="5.03915">
        <ele>234.3</ele>
        <time>2022-04-21T12:47:45Z</time>
      </trkpt>
      <trkpt lat="50.09937" lon="5.03915">
        <ele>234.2</ele>
        <time>2022-04-21T12:47:46Z</time>
      </trkpt>
      <trkpt lat="50.09936" lon="5.03915">
        <ele>234.2</ele>
        <time>2022-04-21T12:47:47Z</time>
      </trkpt>
      <trkpt lat="50.09935" lon="5.03915">
        <ele>234.1</ele>
        <time>2022-04-21T12:47:48Z</time>
      </trkpt>
      <trkpt lat="50.09933" lon="5.03915">
        <ele>234.1</ele>
        <time>2022-04-21T12:47:49Z</time>
      </trkpt>
      <trkpt lat="50.09931" lon="5.03915">
        <ele>234</ele>
        <time>2022-04-21T12:47:50Z</time>
      </trkpt>
      <trkpt lat="50.09929" lon="5.03915">
        <ele>234</ele>
        <time>2022-04-21T12:47:52Z</time>
      </trkpt>
      <trkpt lat="50.09927" lon="5.03915">
        <ele>233.9</ele>
        <time>2022-04-21T12:47:53Z</time>
      </trkpt>
      <trkpt lat="50.09925" lon="5.03915">
        <ele>233.9</ele>
        <time>2022-04-21T12:47:54Z</time>
      </trkpt>
      <trkpt lat="50.09924" lon="5.03916">
        <ele>233.8</ele>
        <time>2022-04-21T12:47:55Z</time>
      </trkpt>
      <trkpt lat="50.09922" lon="5.03916">
        <ele>233.8</ele>
        <time>2022-04-21T12:47:56Z</time>
      </trkpt>
      <trkpt lat="50.09921" lon="5.03916">
        <ele>233.7</ele>
        <time>2022-04-21T12:47:57Z</time>
      </trkpt>
      <trkpt lat="50.09919" lon="5.03916">
        <ele>233.7</ele>
        <time>2022-04-21T12:47:58Z</time>
      </trkpt>
      <trkpt lat="50.09917" lon="5.03916">
        <ele>233.6</ele>
        <time>2022-04-21T12:47:59Z</time>
      </trkpt>
      <trkpt lat="50.09916" lon="5.03916">
        <ele>233.6</ele>
        <time>2022-04-21T12:48:00Z</time>
      </trkpt>
      <trkpt lat="50.09916" lon="5.03916">
        <ele>233.6</ele>
        <time>2022-04-21T12:48:01Z</time>
      </trkpt>
      <trkpt lat="50.09913" lon="5.03916">
        <ele>233.5</ele>
        <time>2022-04-21T12:48:02Z</time>
      </trkpt>
      <trkpt lat="50.09912" lon="5.03917">
        <ele>233.5</ele>
        <time>2022-04-21T12:48:03Z</time>
      </trkpt>
      <trkpt lat="50.09912" lon="5.03917">
        <ele>233.4</ele>
        <time>2022-04-21T12:48:04Z</time>
      </trkpt>
      <trkpt lat="50.0991" lon="5.03917">
        <ele>233.4</ele>
        <time>2022-04-21T12:48:05Z</time>
      </trkpt>
      <trkpt lat="50.09909" lon="5.03917">
        <ele>233.4</ele>
        <time>2022-04-21T12:48:06Z</time>
      </trkpt>
      <trkpt lat="50.09908" lon="5.03918">
        <ele>233.3</ele>
        <time>2022-04-21T12:48:07Z</time>
      </trkpt>
      <trkpt lat="50.09907" lon="5.03918">
        <ele>233.3</ele>
        <time>2022-04-21T12:48:08Z</time>
      </trkpt>
      <trkpt lat="50.09907" lon="5.03918">
        <ele>233.3</ele>
        <time>2022-04-21T12:48:09Z</time>
      </trkpt>
      <trkpt lat="50.09907" lon="5.03918">
        <ele>233.3</ele>
        <time>2022-04-21T12:48:10Z</time>
      </trkpt>
      <trkpt lat="50.09906" lon="5.03918">
        <ele>233.2</ele>
        <time>2022-04-21T12:48:11Z</time>
      </trkpt>
      <trkpt lat="50.09905" lon="5.03918">
        <ele>233.2</ele>
        <time>2022-04-21T12:48:12Z</time>
      </trkpt>
      <trkpt lat="50.09904" lon="5.03918">
        <ele>233.2</ele>
        <time>2022-04-21T12:48:13Z</time>
      </trkpt>
      <trkpt lat="50.09903" lon="5.03919">
        <ele>233.2</ele>
        <time>2022-04-21T12:48:14Z</time>
      </trkpt>
      <trkpt lat="50.09903" lon="5.03919">
        <ele>233.1</ele>
        <time>2022-04-21T12:48:15Z</time>
      </trkpt>
      <trkpt lat="50.09902" lon="5.03919">
        <ele>233.1</ele>
        <time>2022-04-21T12:48:16Z</time>
      </trkpt>
      <trkpt lat="50.09902" lon="5.03919">
        <ele>233.1</ele>
        <time>2022-04-21T12:48:17Z</time>
      </trkpt>
      <trkpt lat="50.09901" lon="5.03919">
        <ele>233.1</ele>
        <time>2022-04-21T12:48:18Z</time>
      </trkpt>
      <trkpt lat="50.099" lon="5.03919">
        <ele>233</ele>
        <time>2022-04-21T12:48:19Z</time>
      </trkpt>
      <trkpt lat="50.09899" lon="5.03919">
        <ele>233</ele>
        <time>2022-04-21T12:48:20Z</time>
      </trkpt>
      <trkpt lat="50.09897" lon="5.03919">
        <ele>233</ele>
        <time>2022-04-21T12:48:21Z</time>
      </trkpt>
      <trkpt lat="50.09896" lon="5.03919">
        <ele>232.9</ele>
        <time>2022-04-21T12:48:22Z</time>
      </trkpt>
      <trkpt lat="50.09894" lon="5.03919">
        <ele>232.8</ele>
        <time>2022-04-21T12:48:24Z</time>
      </trkpt>
      <trkpt lat="50.09892" lon="5.03919">
        <ele>232.8</ele>
        <time>2022-04-21T12:48:26Z</time>
      </trkpt>
      <trkpt lat="50.09891" lon="5.03919">
        <ele>232.7</ele>
        <time>2022-04-21T12:48:27Z</time>
      </trkpt>
      <trkpt lat="50.0989" lon="5.03919">
        <ele>232.7</ele>
        <time>2022-04-21T12:48:28Z</time>
      </trkpt>
      <trkpt lat="50.09889" lon="5.03919">
        <ele>232.7</ele>
        <time>2022-04-21T12:48:29Z</time>
      </trkpt>
      <trkpt lat="50.09889" lon="5.03919">
        <ele>232.6</ele>
        <time>2022-04-21T12:48:30Z</time>
      </trkpt>
      <trkpt lat="50.09889" lon="5.03919">
        <ele>232.6</ele>
        <time>2022-04-21T12:48:31Z</time>
      </trkpt>
      <trkpt lat="50.09888" lon="5.03919">
        <ele>232.6</ele>
        <time>2022-04-21T12:48:32Z</time>
      </trkpt>
      <trkpt lat="50.09888" lon="5.03919">
        <ele>232.6</ele>
        <time>2022-04-21T12:48:33Z</time>
      </trkpt>
      <trkpt lat="50.09887" lon="5.03919">
        <ele>232.6</ele>
        <time>2022-04-21T12:48:34Z</time>
      </trkpt>
      <trkpt lat="50.09885" lon="5.03919">
        <ele>232.5</ele>
        <time>2022-04-21T12:48:35Z</time>
      </trkpt>
      <trkpt lat="50.09883" lon="5.0392">
        <ele>232.4</ele>
        <time>2022-04-21T12:48:36Z</time>
      </trkpt>
      <trkpt lat="50.09882" lon="5.0392">
        <ele>232.4</ele>
        <time>2022-04-21T12:48:37Z</time>
      </trkpt>
      <trkpt lat="50.09881" lon="5.0392">
        <ele>232.3</ele>
        <time>2022-04-21T12:48:38Z</time>
      </trkpt>
      <trkpt lat="50.09879" lon="5.0392">
        <ele>232.2</ele>
        <time>2022-04-21T12:48:39Z</time>
      </trkpt>
      <trkpt lat="50.09875" lon="5.0392">
        <ele>232.1</ele>
        <time>2022-04-21T12:48:41Z</time>
      </trkpt>
      <trkpt lat="50.09872" lon="5.0392">
        <ele>231.9</ele>
        <time>2022-04-21T12:48:42Z</time>
      </trkpt>
      <trkpt lat="50.09871" lon="5.0392">
        <ele>231.9</ele>
        <time>2022-04-21T12:48:43Z</time>
      </trkpt>
      <trkpt lat="50.09868" lon="5.0392">
        <ele>231.7</ele>
        <time>2022-04-21T12:48:44Z</time>
      </trkpt>
      <trkpt lat="50.09866" lon="5.03919">
        <ele>231.7</ele>
        <time>2022-04-21T12:48:45Z</time>
      </trkpt>
      <trkpt lat="50.09863" lon="5.03919">
        <ele>231.5</ele>
        <time>2022-04-21T12:48:46Z</time>
      </trkpt>
      <trkpt lat="50.09862" lon="5.03919">
        <ele>231.5</ele>
        <time>2022-04-21T12:48:47Z</time>
      </trkpt>
      <trkpt lat="50.09859" lon="5.03919">
        <ele>231.4</ele>
        <time>2022-04-21T12:48:48Z</time>
      </trkpt>
      <trkpt lat="50.09858" lon="5.03919">
        <ele>231.3</ele>
        <time>2022-04-21T12:48:49Z</time>
      </trkpt>
      <trkpt lat="50.09856" lon="5.03918">
        <ele>231.2</ele>
        <time>2022-04-21T12:48:50Z</time>
      </trkpt>
      <trkpt lat="50.09855" lon="5.03917">
        <ele>231.1</ele>
        <time>2022-04-21T12:48:51Z</time>
      </trkpt>
      <trkpt lat="50.09853" lon="5.03916">
        <ele>231.1</ele>
        <time>2022-04-21T12:48:52Z</time>
      </trkpt>
      <trkpt lat="50.09852" lon="5.03916">
        <ele>231</ele>
        <time>2022-04-21T12:48:53Z</time>
      </trkpt>
      <trkpt lat="50.0985" lon="5.03915">
        <ele>230.9</ele>
        <time>2022-04-21T12:48:54Z</time>
      </trkpt>
      <trkpt lat="50.09848" lon="5.03914">
        <ele>230.8</ele>
        <time>2022-04-21T12:48:55Z</time>
      </trkpt>
      <trkpt lat="50.09847" lon="5.03913">
        <ele>230.7</ele>
        <time>2022-04-21T12:48:56Z</time>
      </trkpt>
      <trkpt lat="50.09845" lon="5.03912">
        <ele>230.6</ele>
        <time>2022-04-21T12:48:58Z</time>
      </trkpt>
      <trkpt lat="50.09844" lon="5.03911">
        <ele>230.6</ele>
        <time>2022-04-21T12:48:59Z</time>
      </trkpt>
      <trkpt lat="50.09843" lon="5.0391">
        <ele>230.5</ele>
        <time>2022-04-21T12:49:00Z</time>
      </trkpt>
      <trkpt lat="50.09842" lon="5.03909">
        <ele>230.5</ele>
        <time>2022-04-21T12:49:01Z</time>
      </trkpt>
      <trkpt lat="50.09841" lon="5.03908">
        <ele>230.5</ele>
        <time>2022-04-21T12:49:02Z</time>
      </trkpt>
      <trkpt lat="50.0984" lon="5.03907">
        <ele>230.4</ele>
        <time>2022-04-21T12:49:03Z</time>
      </trkpt>
      <trkpt lat="50.0984" lon="5.03906">
        <ele>230.4</ele>
        <time>2022-04-21T12:49:04Z</time>
      </trkpt>
      <trkpt lat="50.0984" lon="5.03905">
        <ele>230.3</ele>
        <time>2022-04-21T12:49:05Z</time>
      </trkpt>
      <trkpt lat="50.09839" lon="5.03903">
        <ele>230.3</ele>
        <time>2022-04-21T12:49:06Z</time>
      </trkpt>
      <trkpt lat="50.09839" lon="5.03903">
        <ele>230.3</ele>
        <time>2022-04-21T12:49:07Z</time>
      </trkpt>
      <trkpt lat="50.09839" lon="5.03902">
        <ele>230.3</ele>
        <time>2022-04-21T12:49:09Z</time>
      </trkpt>
      <trkpt lat="50.09838" lon="5.03901">
        <ele>230.2</ele>
        <time>2022-04-21T12:49:10Z</time>
      </trkpt>
      <trkpt lat="50.09837" lon="5.039">
        <ele>230.2</ele>
        <time>2022-04-21T12:49:11Z</time>
      </trkpt>
      <trkpt lat="50.09837" lon="5.039">
        <ele>230.2</ele>
        <time>2022-04-21T12:49:12Z</time>
      </trkpt>
      <trkpt lat="50.09837" lon="5.039">
        <ele>230.2</ele>
        <time>2022-04-21T12:49:13Z</time>
      </trkpt>
      <trkpt lat="50.09836" lon="5.039">
        <ele>230.1</ele>
        <time>2022-04-21T12:49:14Z</time>
      </trkpt>
      <trkpt lat="50.09836" lon="5.039">
        <ele>230.1</ele>
        <time>2022-04-21T12:49:15Z</time>
      </trkpt>
      <trkpt lat="50.09835" lon="5.039">
        <ele>230.1</ele>
        <time>2022-04-21T12:49:16Z</time>
      </trkpt>
      <trkpt lat="50.09835" lon="5.039">
        <ele>230.1</ele>
        <time>2022-04-21T12:49:17Z</time>
      </trkpt>
      <trkpt lat="50.09834" lon="5.039">
        <ele>230.1</ele>
        <time>2022-04-21T12:49:18Z</time>
      </trkpt>
      <trkpt lat="50.09833" lon="5.03899">
        <ele>230</ele>
        <time>2022-04-21T12:49:19Z</time>
      </trkpt>
      <trkpt lat="50.09832" lon="5.03898">
        <ele>230</ele>
        <time>2022-04-21T12:49:20Z</time>
      </trkpt>
      <trkpt lat="50.09831" lon="5.03897">
        <ele>229.9</ele>
        <time>2022-04-21T12:49:21Z</time>
      </trkpt>
      <trkpt lat="50.09829" lon="5.03896">
        <ele>229.9</ele>
        <time>2022-04-21T12:49:22Z</time>
      </trkpt>
      <trkpt lat="50.09826" lon="5.03894">
        <ele>229.7</ele>
        <time>2022-04-21T12:49:24Z</time>
      </trkpt>
      <trkpt lat="50.09823" lon="5.03891">
        <ele>229.6</ele>
        <time>2022-04-21T12:49:25Z</time>
      </trkpt>
      <trkpt lat="50.09822" lon="5.0389">
        <ele>229.6</ele>
        <time>2022-04-21T12:49:26Z</time>
      </trkpt>
      <trkpt lat="50.0982" lon="5.03888">
        <ele>229.4</ele>
        <time>2022-04-21T12:49:27Z</time>
      </trkpt>
      <trkpt lat="50.09819" lon="5.03887">
        <ele>229.4</ele>
        <time>2022-04-21T12:49:28Z</time>
      </trkpt>
      <trkpt lat="50.09816" lon="5.03885">
        <ele>229.3</ele>
        <time>2022-04-21T12:49:29Z</time>
      </trkpt>
      <trkpt lat="50.09815" lon="5.03884">
        <ele>229.3</ele>
        <time>2022-04-21T12:49:30Z</time>
      </trkpt>
      <trkpt lat="50.09813" lon="5.03883">
        <ele>229.2</ele>
        <time>2022-04-21T12:49:31Z</time>
      </trkpt>
      <trkpt lat="50.09812" lon="5.03883">
        <ele>229.1</ele>
        <time>2022-04-21T12:49:32Z</time>
      </trkpt>
      <trkpt lat="50.09809" lon="5.03882">
        <ele>229</ele>
        <time>2022-04-21T12:49:33Z</time>
      </trkpt>
      <trkpt lat="50.09808" lon="5.03882">
        <ele>229</ele>
        <time>2022-04-21T12:49:34Z</time>
      </trkpt>
      <trkpt lat="50.09807" lon="5.03881">
        <ele>228.9</ele>
        <time>2022-04-21T12:49:35Z</time>
      </trkpt>
      <trkpt lat="50.09806" lon="5.03879">
        <ele>228.9</ele>
        <time>2022-04-21T12:49:36Z</time>
      </trkpt>
      <trkpt lat="50.09805" lon="5.03878">
        <ele>228.8</ele>
        <time>2022-04-21T12:49:37Z</time>
      </trkpt>
      <trkpt lat="50.09804" lon="5.03877">
        <ele>228.8</ele>
        <time>2022-04-21T12:49:38Z</time>
      </trkpt>
      <trkpt lat="50.09803" lon="5.03877">
        <ele>228.8</ele>
        <time>2022-04-21T12:49:39Z</time>
      </trkpt>
      <trkpt lat="50.09801" lon="5.03876">
        <ele>228.7</ele>
        <time>2022-04-21T12:49:40Z</time>
      </trkpt>
      <trkpt lat="50.098" lon="5.03875">
        <ele>228.7</ele>
        <time>2022-04-21T12:49:41Z</time>
      </trkpt>
      <trkpt lat="50.09799" lon="5.03873">
        <ele>228.6</ele>
        <time>2022-04-21T12:49:42Z</time>
      </trkpt>
      <trkpt lat="50.09798" lon="5.03872">
        <ele>228.6</ele>
        <time>2022-04-21T12:49:43Z</time>
      </trkpt>
      <trkpt lat="50.09797" lon="5.03872">
        <ele>228.5</ele>
        <time>2022-04-21T12:49:44Z</time>
      </trkpt>
      <trkpt lat="50.09797" lon="5.03872">
        <ele>228.5</ele>
        <time>2022-04-21T12:49:45Z</time>
      </trkpt>
      <trkpt lat="50.09796" lon="5.03872">
        <ele>228.5</ele>
        <time>2022-04-21T12:49:46Z</time>
      </trkpt>
      <trkpt lat="50.09796" lon="5.03872">
        <ele>228.5</ele>
        <time>2022-04-21T12:49:47Z</time>
      </trkpt>
      <trkpt lat="50.09796" lon="5.03872">
        <ele>228.5</ele>
        <time>2022-04-21T12:49:48Z</time>
      </trkpt>
      <trkpt lat="50.09796" lon="5.03872">
        <ele>228.5</ele>
        <time>2022-04-21T12:49:49Z</time>
      </trkpt>
      <trkpt lat="50.09795" lon="5.03872">
        <ele>228.5</ele>
        <time>2022-04-21T12:49:50Z</time>
      </trkpt>
      <trkpt lat="50.09795" lon="5.03872">
        <ele>228.5</ele>
        <time>2022-04-21T12:49:51Z</time>
      </trkpt>
      <trkpt lat="50.09795" lon="5.03872">
        <ele>228.5</ele>
        <time>2022-04-21T12:49:52Z</time>
      </trkpt>
      <trkpt lat="50.09795" lon="5.03872">
        <ele>228.5</ele>
        <time>2022-04-21T12:49:54Z</time>
      </trkpt>
      <trkpt lat="50.09795" lon="5.03872">
        <ele>228.4</ele>
        <time>2022-04-21T12:49:55Z</time>
      </trkpt>
      <trkpt lat="50.09794" lon="5.03872">
        <ele>228.4</ele>
        <time>2022-04-21T12:49:56Z</time>
      </trkpt>
      <trkpt lat="50.09794" lon="5.03872">
        <ele>228.4</ele>
        <time>2022-04-21T12:49:57Z</time>
      </trkpt>
      <trkpt lat="50.09794" lon="5.03872">
        <ele>228.4</ele>
        <time>2022-04-21T12:49:58Z</time>
      </trkpt>
      <trkpt lat="50.09794" lon="5.03872">
        <ele>228.4</ele>
        <time>2022-04-21T12:49:59Z</time>
      </trkpt>
      <trkpt lat="50.09793" lon="5.03872">
        <ele>228.4</ele>
        <time>2022-04-21T12:50:00Z</time>
      </trkpt>
      <trkpt lat="50.09793" lon="5.03872">
        <ele>228.4</ele>
        <time>2022-04-21T12:50:01Z</time>
      </trkpt>
      <trkpt lat="50.0979" lon="5.03869">
        <ele>228.3</ele>
        <time>2022-04-21T12:50:02Z</time>
      </trkpt>
      <trkpt lat="50.09788" lon="5.03868">
        <ele>228.2</ele>
        <time>2022-04-21T12:50:03Z</time>
      </trkpt>
      <trkpt lat="50.09786" lon="5.03865">
        <ele>228.1</ele>
        <time>2022-04-21T12:50:04Z</time>
      </trkpt>
      <trkpt lat="50.09785" lon="5.03864">
        <ele>228</ele>
        <time>2022-04-21T12:50:05Z</time>
      </trkpt>
      <trkpt lat="50.09784" lon="5.03862">
        <ele>228</ele>
        <time>2022-04-21T12:50:06Z</time>
      </trkpt>
      <trkpt lat="50.09783" lon="5.03861">
        <ele>227.9</ele>
        <time>2022-04-21T12:50:07Z</time>
      </trkpt>
      <trkpt lat="50.09781" lon="5.03859">
        <ele>227.8</ele>
        <time>2022-04-21T12:50:08Z</time>
      </trkpt>
      <trkpt lat="50.0978" lon="5.03858">
        <ele>227.8</ele>
        <time>2022-04-21T12:50:09Z</time>
      </trkpt>
      <trkpt lat="50.09779" lon="5.03856">
        <ele>227.7</ele>
        <time>2022-04-21T12:50:10Z</time>
      </trkpt>
      <trkpt lat="50.09778" lon="5.03855">
        <ele>227.6</ele>
        <time>2022-04-21T12:50:11Z</time>
      </trkpt>
      <trkpt lat="50.09776" lon="5.03853">
        <ele>227.6</ele>
        <time>2022-04-21T12:50:12Z</time>
      </trkpt>
      <trkpt lat="50.09776" lon="5.03852">
        <ele>227.6</ele>
        <time>2022-04-21T12:50:13Z</time>
      </trkpt>
      <trkpt lat="50.09777" lon="5.03851">
        <ele>227.5</ele>
        <time>2022-04-21T12:50:14Z</time>
      </trkpt>
      <trkpt lat="50.09777" lon="5.0385">
        <ele>227.5</ele>
        <time>2022-04-21T12:50:15Z</time>
      </trkpt>
      <trkpt lat="50.09777" lon="5.03849">
        <ele>227.5</ele>
        <time>2022-04-21T12:50:16Z</time>
      </trkpt>
      <trkpt lat="50.09777" lon="5.03847">
        <ele>227.4</ele>
        <time>2022-04-21T12:50:17Z</time>
      </trkpt>
      <trkpt lat="50.09777" lon="5.03847">
        <ele>227.4</ele>
        <time>2022-04-21T12:50:18Z</time>
      </trkpt>
      <trkpt lat="50.09776" lon="5.03846">
        <ele>227.4</ele>
        <time>2022-04-21T12:50:20Z</time>
      </trkpt>
      <trkpt lat="50.09775" lon="5.03845">
        <ele>227.4</ele>
        <time>2022-04-21T12:50:21Z</time>
      </trkpt>
      <trkpt lat="50.09775" lon="5.03845">
        <ele>227.4</ele>
        <time>2022-04-21T12:50:22Z</time>
      </trkpt>
      <trkpt lat="50.09774" lon="5.03844">
        <ele>227.3</ele>
        <time>2022-04-21T12:50:23Z</time>
      </trkpt>
      <trkpt lat="50.09773" lon="5.03844">
        <ele>227.3</ele>
        <time>2022-04-21T12:50:24Z</time>
      </trkpt>
      <trkpt lat="50.09772" lon="5.03843">
        <ele>227.3</ele>
        <time>2022-04-21T12:50:25Z</time>
      </trkpt>
      <trkpt lat="50.09771" lon="5.03843">
        <ele>227.2</ele>
        <time>2022-04-21T12:50:26Z</time>
      </trkpt>
      <trkpt lat="50.09771" lon="5.03842">
        <ele>227.2</ele>
        <time>2022-04-21T12:50:27Z</time>
      </trkpt>
      <trkpt lat="50.09769" lon="5.03841">
        <ele>227.2</ele>
        <time>2022-04-21T12:50:28Z</time>
      </trkpt>
      <trkpt lat="50.09768" lon="5.03839">
        <ele>227.1</ele>
        <time>2022-04-21T12:50:29Z</time>
      </trkpt>
      <trkpt lat="50.09765" lon="5.03834">
        <ele>227</ele>
        <time>2022-04-21T12:50:31Z</time>
      </trkpt>
      <trkpt lat="50.09764" lon="5.03832">
        <ele>226.9</ele>
        <time>2022-04-21T12:50:32Z</time>
      </trkpt>
      <trkpt lat="50.09762" lon="5.0383">
        <ele>226.9</ele>
        <time>2022-04-21T12:50:33Z</time>
      </trkpt>
      <trkpt lat="50.0976" lon="5.03826">
        <ele>226.7</ele>
        <time>2022-04-21T12:50:35Z</time>
      </trkpt>
      <trkpt lat="50.09759" lon="5.03824">
        <ele>226.7</ele>
        <time>2022-04-21T12:50:36Z</time>
      </trkpt>
      <trkpt lat="50.09756" lon="5.03819">
        <ele>226.5</ele>
        <time>2022-04-21T12:50:38Z</time>
      </trkpt>
      <trkpt lat="50.09754" lon="5.03816">
        <ele>226.4</ele>
        <time>2022-04-21T12:50:39Z</time>
      </trkpt>
      <trkpt lat="50.09754" lon="5.03815">
        <ele>226.4</ele>
        <time>2022-04-21T12:50:40Z</time>
      </trkpt>
      <trkpt lat="50.09753" lon="5.03813">
        <ele>226.4</ele>
        <time>2022-04-21T12:50:41Z</time>
      </trkpt>
      <trkpt lat="50.09752" lon="5.03811">
        <ele>226.3</ele>
        <time>2022-04-21T12:50:42Z</time>
      </trkpt>
      <trkpt lat="50.09752" lon="5.03811">
        <ele>226.3</ele>
        <time>2022-04-21T12:50:44Z</time>
      </trkpt>
      <trkpt lat="50.09752" lon="5.03811">
        <ele>226.3</ele>
        <time>2022-04-21T12:50:45Z</time>
      </trkpt>
      <trkpt lat="50.09753" lon="5.0381">
        <ele>226.2</ele>
        <time>2022-04-21T12:50:46Z</time>
      </trkpt>
      <trkpt lat="50.09754" lon="5.0381">
        <ele>226.2</ele>
        <time>2022-04-21T12:50:47Z</time>
      </trkpt>
      <trkpt lat="50.09754" lon="5.0381">
        <ele>226.2</ele>
        <time>2022-04-21T12:50:48Z</time>
      </trkpt>
      <trkpt lat="50.09755" lon="5.0381">
        <ele>226.2</ele>
        <time>2022-04-21T12:50:49Z</time>
      </trkpt>
      <trkpt lat="50.09756" lon="5.0381">
        <ele>226.1</ele>
        <time>2022-04-21T12:50:50Z</time>
      </trkpt>
      <trkpt lat="50.09756" lon="5.0381">
        <ele>226.1</ele>
        <time>2022-04-21T12:50:51Z</time>
      </trkpt>
      <trkpt lat="50.09757" lon="5.0381">
        <ele>226.1</ele>
        <time>2022-04-21T12:50:52Z</time>
      </trkpt>
      <trkpt lat="50.09761" lon="5.03808">
        <ele>225.9</ele>
        <time>2022-04-21T12:50:53Z</time>
      </trkpt>
      <trkpt lat="50.09762" lon="5.03807">
        <ele>225.9</ele>
        <time>2022-04-21T12:50:54Z</time>
      </trkpt>
      <trkpt lat="50.09774" lon="5.03804">
        <ele>225.4</ele>
        <time>2022-04-21T12:50:55Z</time>
      </trkpt>
      <trkpt lat="50.09779" lon="5.03802">
        <ele>225.2</ele>
        <time>2022-04-21T12:50:56Z</time>
      </trkpt>
      <trkpt lat="50.0978" lon="5.03802">
        <ele>225.2</ele>
        <time>2022-04-21T12:50:57Z</time>
      </trkpt>
      <trkpt lat="50.09778" lon="5.03801">
        <ele>225.1</ele>
        <time>2022-04-21T12:50:58Z</time>
      </trkpt>
      <trkpt lat="50.09777" lon="5.038">
        <ele>225</ele>
        <time>2022-04-21T12:50:59Z</time>
      </trkpt>
      <trkpt lat="50.09774" lon="5.03799">
        <ele>224.9</ele>
        <time>2022-04-21T12:51:00Z</time>
      </trkpt>
      <trkpt lat="50.09768" lon="5.03796">
        <ele>224.7</ele>
        <time>2022-04-21T12:51:02Z</time>
      </trkpt>
      <trkpt lat="50.0976" lon="5.03794">
        <ele>224.3</ele>
        <time>2022-04-21T12:51:03Z</time>
      </trkpt>
      <trkpt lat="50.09753" lon="5.03793">
        <ele>224</ele>
        <time>2022-04-21T12:51:04Z</time>
      </trkpt>
      <trkpt lat="50.09748" lon="5.03792">
        <ele>223.8</ele>
        <time>2022-04-21T12:51:05Z</time>
      </trkpt>
      <trkpt lat="50.09745" lon="5.03791">
        <ele>223.7</ele>
        <time>2022-04-21T12:51:06Z</time>
      </trkpt>
      <trkpt lat="50.09744" lon="5.0379">
        <ele>223.7</ele>
        <time>2022-04-21T12:51:07Z</time>
      </trkpt>
      <trkpt lat="50.09743" lon="5.0379">
        <ele>223.6</ele>
        <time>2022-04-21T12:51:08Z</time>
      </trkpt>
      <trkpt lat="50.09741" lon="5.03789">
        <ele>223.5</ele>
        <time>2022-04-21T12:51:09Z</time>
      </trkpt>
      <trkpt lat="50.0974" lon="5.03789">
        <ele>223.5</ele>
        <time>2022-04-21T12:51:10Z</time>
      </trkpt>
      <trkpt lat="50.09739" lon="5.03789">
        <ele>223.5</ele>
        <time>2022-04-21T12:51:11Z</time>
      </trkpt>
      <trkpt lat="50.09739" lon="5.03789">
        <ele>223.4</ele>
        <time>2022-04-21T12:51:12Z</time>
      </trkpt>
      <trkpt lat="50.09738" lon="5.03789">
        <ele>223.4</ele>
        <time>2022-04-21T12:51:13Z</time>
      </trkpt>
      <trkpt lat="50.09737" lon="5.03789">
        <ele>223.4</ele>
        <time>2022-04-21T12:51:14Z</time>
      </trkpt>
      <trkpt lat="50.09737" lon="5.03789">
        <ele>223.4</ele>
        <time>2022-04-21T12:51:15Z</time>
      </trkpt>
      <trkpt lat="50.09736" lon="5.03788">
        <ele>223.4</ele>
        <time>2022-04-21T12:51:16Z</time>
      </trkpt>
      <trkpt lat="50.09736" lon="5.03788">
        <ele>223.3</ele>
        <time>2022-04-21T12:51:17Z</time>
      </trkpt>
      <trkpt lat="50.09735" lon="5.03788">
        <ele>223.3</ele>
        <time>2022-04-21T12:51:18Z</time>
      </trkpt>
      <trkpt lat="50.09735" lon="5.03788">
        <ele>223.3</ele>
        <time>2022-04-21T12:51:20Z</time>
      </trkpt>
      <trkpt lat="50.09735" lon="5.03788">
        <ele>223.3</ele>
        <time>2022-04-21T12:51:21Z</time>
      </trkpt>
      <trkpt lat="50.09735" lon="5.03787">
        <ele>223.3</ele>
        <time>2022-04-21T12:51:23Z</time>
      </trkpt>
      <trkpt lat="50.09735" lon="5.03787">
        <ele>223.3</ele>
        <time>2022-04-21T12:51:24Z</time>
      </trkpt>
      <trkpt lat="50.09735" lon="5.03787">
        <ele>223.3</ele>
        <time>2022-04-21T12:51:25Z</time>
      </trkpt>
      <trkpt lat="50.09735" lon="5.03787">
        <ele>223.3</ele>
        <time>2022-04-21T12:51:26Z</time>
      </trkpt>
      <trkpt lat="50.09736" lon="5.03787">
        <ele>223.3</ele>
        <time>2022-04-21T12:51:27Z</time>
      </trkpt>
      <trkpt lat="50.09736" lon="5.03787">
        <ele>223.2</ele>
        <time>2022-04-21T12:51:28Z</time>
      </trkpt>
      <trkpt lat="50.09736" lon="5.03786">
        <ele>223.2</ele>
        <time>2022-04-21T12:51:29Z</time>
      </trkpt>
      <trkpt lat="50.09736" lon="5.03786">
        <ele>223.2</ele>
        <time>2022-04-21T12:51:30Z</time>
      </trkpt>
      <trkpt lat="50.09736" lon="5.03786">
        <ele>223.2</ele>
        <time>2022-04-21T12:51:31Z</time>
      </trkpt>
      <trkpt lat="50.09736" lon="5.03786">
        <ele>223.2</ele>
        <time>2022-04-21T12:51:32Z</time>
      </trkpt>
      <trkpt lat="50.09737" lon="5.03786">
        <ele>223.2</ele>
        <time>2022-04-21T12:51:33Z</time>
      </trkpt>
      <trkpt lat="50.09737" lon="5.03785">
        <ele>223.2</ele>
        <time>2022-04-21T12:51:34Z</time>
      </trkpt>
      <trkpt lat="50.09737" lon="5.03785">
        <ele>223.2</ele>
        <time>2022-04-21T12:51:35Z</time>
      </trkpt>
      <trkpt lat="50.09737" lon="5.03785">
        <ele>223.2</ele>
        <time>2022-04-21T12:51:36Z</time>
      </trkpt>
      <trkpt lat="50.09737" lon="5.03785">
        <ele>223.2</ele>
        <time>2022-04-21T12:51:37Z</time>
      </trkpt>
      <trkpt lat="50.09737" lon="5.03785">
        <ele>223.2</ele>
        <time>2022-04-21T12:51:39Z</time>
      </trkpt>
      <trkpt lat="50.09737" lon="5.03785">
        <ele>223.2</ele>
        <time>2022-04-21T12:51:40Z</time>
      </trkpt>
      <trkpt lat="50.09736" lon="5.03783">
        <ele>223.1</ele>
        <time>2022-04-21T12:51:41Z</time>
      </trkpt>
      <trkpt lat="50.09735" lon="5.03781">
        <ele>223</ele>
        <time>2022-04-21T12:51:42Z</time>
      </trkpt>
      <trkpt lat="50.09734" lon="5.0378">
        <ele>223</ele>
        <time>2022-04-21T12:51:43Z</time>
      </trkpt>
      <trkpt lat="50.09734" lon="5.03779">
        <ele>223</ele>
        <time>2022-04-21T12:51:44Z</time>
      </trkpt>
      <trkpt lat="50.09733" lon="5.03778">
        <ele>222.9</ele>
        <time>2022-04-21T12:51:45Z</time>
      </trkpt>
      <trkpt lat="50.09733" lon="5.03777">
        <ele>222.9</ele>
        <time>2022-04-21T12:51:47Z</time>
      </trkpt>
      <trkpt lat="50.09733" lon="5.03776">
        <ele>222.9</ele>
        <time>2022-04-21T12:51:48Z</time>
      </trkpt>
      <trkpt lat="50.09733" lon="5.03775">
        <ele>222.9</ele>
        <time>2022-04-21T12:51:49Z</time>
      </trkpt>
      <trkpt lat="50.09733" lon="5.03773">
        <ele>222.8</ele>
        <time>2022-04-21T12:51:51Z</time>
      </trkpt>
      <trkpt lat="50.09732" lon="5.03773">
        <ele>222.8</ele>
        <time>2022-04-21T12:51:53Z</time>
      </trkpt>
      <trkpt lat="50.09732" lon="5.03774">
        <ele>222.8</ele>
        <time>2022-04-21T12:51:54Z</time>
      </trkpt>
      <trkpt lat="50.09731" lon="5.03774">
        <ele>222.7</ele>
        <time>2022-04-21T12:51:55Z</time>
      </trkpt>
      <trkpt lat="50.0973" lon="5.03773">
        <ele>222.7</ele>
        <time>2022-04-21T12:51:57Z</time>
      </trkpt>
      <trkpt lat="50.09729" lon="5.03771">
        <ele>222.6</ele>
        <time>2022-04-21T12:51:58Z</time>
      </trkpt>
      <trkpt lat="50.09727" lon="5.03768">
        <ele>222.6</ele>
        <time>2022-04-21T12:52:00Z</time>
      </trkpt>
      <trkpt lat="50.09726" lon="5.03765">
        <ele>222.5</ele>
        <time>2022-04-21T12:52:01Z</time>
      </trkpt>
      <trkpt lat="50.09725" lon="5.03763">
        <ele>222.4</ele>
        <time>2022-04-21T12:52:02Z</time>
      </trkpt>
      <trkpt lat="50.09724" lon="5.03761">
        <ele>222.4</ele>
        <time>2022-04-21T12:52:03Z</time>
      </trkpt>
      <trkpt lat="50.09723" lon="5.03759">
        <ele>222.3</ele>
        <time>2022-04-21T12:52:04Z</time>
      </trkpt>
      <trkpt lat="50.09722" lon="5.03758">
        <ele>222.2</ele>
        <time>2022-04-21T12:52:05Z</time>
      </trkpt>
      <trkpt lat="50.0972" lon="5.03756">
        <ele>222.2</ele>
        <time>2022-04-21T12:52:06Z</time>
      </trkpt>
      <trkpt lat="50.09719" lon="5.03755">
        <ele>222.1</ele>
        <time>2022-04-21T12:52:07Z</time>
      </trkpt>
      <trkpt lat="50.09718" lon="5.03754">
        <ele>222.1</ele>
        <time>2022-04-21T12:52:08Z</time>
      </trkpt>
      <trkpt lat="50.09716" lon="5.03753">
        <ele>222</ele>
        <time>2022-04-21T12:52:09Z</time>
      </trkpt>
      <trkpt lat="50.09714" lon="5.03752">
        <ele>221.9</ele>
        <time>2022-04-21T12:52:10Z</time>
      </trkpt>
      <trkpt lat="50.09713" lon="5.03752">
        <ele>221.9</ele>
        <time>2022-04-21T12:52:11Z</time>
      </trkpt>
      <trkpt lat="50.09711" lon="5.03751">
        <ele>221.8</ele>
        <time>2022-04-21T12:52:12Z</time>
      </trkpt>
      <trkpt lat="50.0971" lon="5.0375">
        <ele>221.8</ele>
        <time>2022-04-21T12:52:13Z</time>
      </trkpt>
      <trkpt lat="50.09709" lon="5.03749">
        <ele>221.7</ele>
        <time>2022-04-21T12:52:14Z</time>
      </trkpt>
      <trkpt lat="50.09707" lon="5.03747">
        <ele>221.6</ele>
        <time>2022-04-21T12:52:15Z</time>
      </trkpt>
      <trkpt lat="50.09706" lon="5.03747">
        <ele>221.6</ele>
        <time>2022-04-21T12:52:16Z</time>
      </trkpt>
      <trkpt lat="50.09705" lon="5.03746">
        <ele>221.6</ele>
        <time>2022-04-21T12:52:17Z</time>
      </trkpt>
      <trkpt lat="50.09703" lon="5.03745">
        <ele>221.5</ele>
        <time>2022-04-21T12:52:18Z</time>
      </trkpt>
      <trkpt lat="50.09702" lon="5.03745">
        <ele>221.5</ele>
        <time>2022-04-21T12:52:19Z</time>
      </trkpt>
      <trkpt lat="50.09702" lon="5.03745">
        <ele>221.4</ele>
        <time>2022-04-21T12:52:21Z</time>
      </trkpt>
      <trkpt lat="50.09701" lon="5.03744">
        <ele>221.4</ele>
        <time>2022-04-21T12:52:22Z</time>
      </trkpt>
      <trkpt lat="50.09699" lon="5.03743">
        <ele>221.2</ele>
        <time>2022-04-21T12:52:23Z</time>
      </trkpt>
      <trkpt lat="50.09698" lon="5.03743">
        <ele>221.1</ele>
        <time>2022-04-21T12:52:24Z</time>
      </trkpt>
      <trkpt lat="50.09698" lon="5.03742">
        <ele>221</ele>
        <time>2022-04-21T12:52:25Z</time>
      </trkpt>
      <trkpt lat="50.09696" lon="5.03741">
        <ele>220.8</ele>
        <time>2022-04-21T12:52:27Z</time>
      </trkpt>
      <trkpt lat="50.09694" lon="5.0374">
        <ele>220.7</ele>
        <time>2022-04-21T12:52:29Z</time>
      </trkpt>
      <trkpt lat="50.09693" lon="5.03738">
        <ele>220.6</ele>
        <time>2022-04-21T12:52:30Z</time>
      </trkpt>
      <trkpt lat="50.09692" lon="5.03737">
        <ele>220.4</ele>
        <time>2022-04-21T12:52:31Z</time>
      </trkpt>
      <trkpt lat="50.09692" lon="5.03735">
        <ele>220.3</ele>
        <time>2022-04-21T12:52:32Z</time>
      </trkpt>
      <trkpt lat="50.09691" lon="5.03733">
        <ele>220.2</ele>
        <time>2022-04-21T12:52:33Z</time>
      </trkpt>
      <trkpt lat="50.0969" lon="5.03731">
        <ele>220</ele>
        <time>2022-04-21T12:52:34Z</time>
      </trkpt>
      <trkpt lat="50.09689" lon="5.0373">
        <ele>219.9</ele>
        <time>2022-04-21T12:52:35Z</time>
      </trkpt>
      <trkpt lat="50.09687" lon="5.03729">
        <ele>219.7</ele>
        <time>2022-04-21T12:52:36Z</time>
      </trkpt>
      <trkpt lat="50.09686" lon="5.03728">
        <ele>219.7</ele>
        <time>2022-04-21T12:52:37Z</time>
      </trkpt>
      <trkpt lat="50.09686" lon="5.03727">
        <ele>219.6</ele>
        <time>2022-04-21T12:52:38Z</time>
      </trkpt>
      <trkpt lat="50.09684" lon="5.03726">
        <ele>219.4</ele>
        <time>2022-04-21T12:52:40Z</time>
      </trkpt>
      <trkpt lat="50.09683" lon="5.03725">
        <ele>219.3</ele>
        <time>2022-04-21T12:52:41Z</time>
      </trkpt>
      <trkpt lat="50.09682" lon="5.03724">
        <ele>219.2</ele>
        <time>2022-04-21T12:52:42Z</time>
      </trkpt>
      <trkpt lat="50.09681" lon="5.03724">
        <ele>219.1</ele>
        <time>2022-04-21T12:52:43Z</time>
      </trkpt>
      <trkpt lat="50.0968" lon="5.03723">
        <ele>219</ele>
        <time>2022-04-21T12:52:44Z</time>
      </trkpt>
      <trkpt lat="50.09678" lon="5.03722">
        <ele>218.8</ele>
        <time>2022-04-21T12:52:45Z</time>
      </trkpt>
      <trkpt lat="50.09677" lon="5.03721">
        <ele>218.7</ele>
        <time>2022-04-21T12:52:46Z</time>
      </trkpt>
      <trkpt lat="50.09676" lon="5.0372">
        <ele>218.6</ele>
        <time>2022-04-21T12:52:47Z</time>
      </trkpt>
      <trkpt lat="50.09674" lon="5.03717">
        <ele>218.4</ele>
        <time>2022-04-21T12:52:48Z</time>
      </trkpt>
      <trkpt lat="50.09673" lon="5.03716">
        <ele>218.3</ele>
        <time>2022-04-21T12:52:49Z</time>
      </trkpt>
      <trkpt lat="50.09672" lon="5.03715">
        <ele>218.1</ele>
        <time>2022-04-21T12:52:50Z</time>
      </trkpt>
      <trkpt lat="50.0967" lon="5.03713">
        <ele>218</ele>
        <time>2022-04-21T12:52:51Z</time>
      </trkpt>
      <trkpt lat="50.09669" lon="5.03712">
        <ele>217.8</ele>
        <time>2022-04-21T12:52:52Z</time>
      </trkpt>
      <trkpt lat="50.09668" lon="5.03711">
        <ele>217.7</ele>
        <time>2022-04-21T12:52:53Z</time>
      </trkpt>
      <trkpt lat="50.09667" lon="5.0371">
        <ele>217.6</ele>
        <time>2022-04-21T12:52:54Z</time>
      </trkpt>
      <trkpt lat="50.09666" lon="5.0371">
        <ele>217.5</ele>
        <time>2022-04-21T12:52:55Z</time>
      </trkpt>
      <trkpt lat="50.09665" lon="5.03709">
        <ele>217.4</ele>
        <time>2022-04-21T12:52:56Z</time>
      </trkpt>
      <trkpt lat="50.09664" lon="5.03709">
        <ele>217.3</ele>
        <time>2022-04-21T12:52:57Z</time>
      </trkpt>
      <trkpt lat="50.09663" lon="5.03708">
        <ele>217.2</ele>
        <time>2022-04-21T12:52:58Z</time>
      </trkpt>
      <trkpt lat="50.09662" lon="5.03707">
        <ele>217.1</ele>
        <time>2022-04-21T12:52:59Z</time>
      </trkpt>
      <trkpt lat="50.09661" lon="5.03706">
        <ele>217</ele>
        <time>2022-04-21T12:53:00Z</time>
      </trkpt>
      <trkpt lat="50.0966" lon="5.03705">
        <ele>216.9</ele>
        <time>2022-04-21T12:53:01Z</time>
      </trkpt>
      <trkpt lat="50.09659" lon="5.03704">
        <ele>216.8</ele>
        <time>2022-04-21T12:53:02Z</time>
      </trkpt>
      <trkpt lat="50.09657" lon="5.03704">
        <ele>216.7</ele>
        <time>2022-04-21T12:53:04Z</time>
      </trkpt>
      <trkpt lat="50.09656" lon="5.03703">
        <ele>216.6</ele>
        <time>2022-04-21T12:53:05Z</time>
      </trkpt>
      <trkpt lat="50.09655" lon="5.03703">
        <ele>216.5</ele>
        <time>2022-04-21T12:53:06Z</time>
      </trkpt>
      <trkpt lat="50.09654" lon="5.03703">
        <ele>216.4</ele>
        <time>2022-04-21T12:53:07Z</time>
      </trkpt>
      <trkpt lat="50.09653" lon="5.03702">
        <ele>216.3</ele>
        <time>2022-04-21T12:53:08Z</time>
      </trkpt>
      <trkpt lat="50.09652" lon="5.03701">
        <ele>216.2</ele>
        <time>2022-04-21T12:53:09Z</time>
      </trkpt>
      <trkpt lat="50.0965" lon="5.037">
        <ele>216.1</ele>
        <time>2022-04-21T12:53:10Z</time>
      </trkpt>
      <trkpt lat="50.09649" lon="5.037">
        <ele>216</ele>
        <time>2022-04-21T12:53:11Z</time>
      </trkpt>
      <trkpt lat="50.09648" lon="5.03699">
        <ele>215.9</ele>
        <time>2022-04-21T12:53:12Z</time>
      </trkpt>
      <trkpt lat="50.09646" lon="5.03699">
        <ele>215.8</ele>
        <time>2022-04-21T12:53:13Z</time>
      </trkpt>
      <trkpt lat="50.09646" lon="5.03698">
        <ele>215.7</ele>
        <time>2022-04-21T12:53:14Z</time>
      </trkpt>
      <trkpt lat="50.09645" lon="5.03698">
        <ele>215.7</ele>
        <time>2022-04-21T12:53:15Z</time>
      </trkpt>
      <trkpt lat="50.09643" lon="5.03698">
        <ele>215.5</ele>
        <time>2022-04-21T12:53:16Z</time>
      </trkpt>
      <trkpt lat="50.09642" lon="5.03697">
        <ele>215.4</ele>
        <time>2022-04-21T12:53:17Z</time>
      </trkpt>
      <trkpt lat="50.09641" lon="5.03697">
        <ele>215.4</ele>
        <time>2022-04-21T12:53:18Z</time>
      </trkpt>
      <trkpt lat="50.0964" lon="5.03696">
        <ele>215.3</ele>
        <time>2022-04-21T12:53:19Z</time>
      </trkpt>
      <trkpt lat="50.09639" lon="5.03696">
        <ele>215.2</ele>
        <time>2022-04-21T12:53:20Z</time>
      </trkpt>
      <trkpt lat="50.09638" lon="5.03696">
        <ele>215.2</ele>
        <time>2022-04-21T12:53:21Z</time>
      </trkpt>
      <trkpt lat="50.09637" lon="5.03697">
        <ele>215.1</ele>
        <time>2022-04-21T12:53:22Z</time>
      </trkpt>
      <trkpt lat="50.09637" lon="5.03697">
        <ele>215</ele>
        <time>2022-04-21T12:53:23Z</time>
      </trkpt>
      <trkpt lat="50.09636" lon="5.03697">
        <ele>215</ele>
        <time>2022-04-21T12:53:24Z</time>
      </trkpt>
      <trkpt lat="50.09635" lon="5.03697">
        <ele>214.9</ele>
        <time>2022-04-21T12:53:25Z</time>
      </trkpt>
      <trkpt lat="50.09633" lon="5.03697">
        <ele>214.8</ele>
        <time>2022-04-21T12:53:26Z</time>
      </trkpt>
      <trkpt lat="50.09632" lon="5.03697">
        <ele>214.7</ele>
        <time>2022-04-21T12:53:27Z</time>
      </trkpt>
      <trkpt lat="50.09631" lon="5.03696">
        <ele>214.6</ele>
        <time>2022-04-21T12:53:28Z</time>
      </trkpt>
      <trkpt lat="50.0963" lon="5.03696">
        <ele>214.6</ele>
        <time>2022-04-21T12:53:29Z</time>
      </trkpt>
      <trkpt lat="50.09629" lon="5.03697">
        <ele>214.5</ele>
        <time>2022-04-21T12:53:30Z</time>
      </trkpt>
      <trkpt lat="50.09628" lon="5.03697">
        <ele>214.4</ele>
        <time>2022-04-21T12:53:31Z</time>
      </trkpt>
      <trkpt lat="50.09625" lon="5.03698">
        <ele>214.2</ele>
        <time>2022-04-21T12:53:33Z</time>
      </trkpt>
      <trkpt lat="50.09623" lon="5.03699">
        <ele>214.1</ele>
        <time>2022-04-21T12:53:35Z</time>
      </trkpt>
      <trkpt lat="50.09622" lon="5.03699">
        <ele>214</ele>
        <time>2022-04-21T12:53:36Z</time>
      </trkpt>
      <trkpt lat="50.0962" lon="5.037">
        <ele>213.9</ele>
        <time>2022-04-21T12:53:37Z</time>
      </trkpt>
      <trkpt lat="50.09618" lon="5.037">
        <ele>213.7</ele>
        <time>2022-04-21T12:53:38Z</time>
      </trkpt>
      <trkpt lat="50.09617" lon="5.037">
        <ele>213.7</ele>
        <time>2022-04-21T12:53:39Z</time>
      </trkpt>
      <trkpt lat="50.09616" lon="5.037">
        <ele>213.5</ele>
        <time>2022-04-21T12:53:40Z</time>
      </trkpt>
      <trkpt lat="50.09614" lon="5.037">
        <ele>213.4</ele>
        <time>2022-04-21T12:53:41Z</time>
      </trkpt>
      <trkpt lat="50.09612" lon="5.03701">
        <ele>213.3</ele>
        <time>2022-04-21T12:53:42Z</time>
      </trkpt>
      <trkpt lat="50.09611" lon="5.03701">
        <ele>213.2</ele>
        <time>2022-04-21T12:53:43Z</time>
      </trkpt>
      <trkpt lat="50.09609" lon="5.03701">
        <ele>213.1</ele>
        <time>2022-04-21T12:53:44Z</time>
      </trkpt>
      <trkpt lat="50.09607" lon="5.03701">
        <ele>213</ele>
        <time>2022-04-21T12:53:45Z</time>
      </trkpt>
      <trkpt lat="50.09606" lon="5.03701">
        <ele>212.9</ele>
        <time>2022-04-21T12:53:46Z</time>
      </trkpt>
      <trkpt lat="50.09605" lon="5.03701">
        <ele>212.9</ele>
        <time>2022-04-21T12:53:47Z</time>
      </trkpt>
      <trkpt lat="50.09604" lon="5.03702">
        <ele>212.8</ele>
        <time>2022-04-21T12:53:48Z</time>
      </trkpt>
      <trkpt lat="50.09602" lon="5.03703">
        <ele>212.7</ele>
        <time>2022-04-21T12:53:49Z</time>
      </trkpt>
      <trkpt lat="50.09601" lon="5.03704">
        <ele>212.6</ele>
        <time>2022-04-21T12:53:50Z</time>
      </trkpt>
      <trkpt lat="50.096" lon="5.03705">
        <ele>212.5</ele>
        <time>2022-04-21T12:53:51Z</time>
      </trkpt>
      <trkpt lat="50.09598" lon="5.03705">
        <ele>212.4</ele>
        <time>2022-04-21T12:53:52Z</time>
      </trkpt>
      <trkpt lat="50.09597" lon="5.03706">
        <ele>212.3</ele>
        <time>2022-04-21T12:53:53Z</time>
      </trkpt>
      <trkpt lat="50.09595" lon="5.03708">
        <ele>212.2</ele>
        <time>2022-04-21T12:53:54Z</time>
      </trkpt>
      <trkpt lat="50.09595" lon="5.03709">
        <ele>212.2</ele>
        <time>2022-04-21T12:53:56Z</time>
      </trkpt>
      <trkpt lat="50.09594" lon="5.03709">
        <ele>212.1</ele>
        <time>2022-04-21T12:53:57Z</time>
      </trkpt>
      <trkpt lat="50.09592" lon="5.03709">
        <ele>212</ele>
        <time>2022-04-21T12:53:58Z</time>
      </trkpt>
      <trkpt lat="50.0959" lon="5.03709">
        <ele>211.9</ele>
        <time>2022-04-21T12:53:59Z</time>
      </trkpt>
      <trkpt lat="50.09589" lon="5.03709">
        <ele>211.8</ele>
        <time>2022-04-21T12:54:01Z</time>
      </trkpt>
      <trkpt lat="50.09588" lon="5.0371">
        <ele>211.8</ele>
        <time>2022-04-21T12:54:02Z</time>
      </trkpt>
      <trkpt lat="50.09587" lon="5.03712">
        <ele>211.7</ele>
        <time>2022-04-21T12:54:03Z</time>
      </trkpt>
      <trkpt lat="50.09587" lon="5.03714">
        <ele>211.6</ele>
        <time>2022-04-21T12:54:05Z</time>
      </trkpt>
      <trkpt lat="50.09586" lon="5.03715">
        <ele>211.5</ele>
        <time>2022-04-21T12:54:06Z</time>
      </trkpt>
      <trkpt lat="50.09585" lon="5.03716">
        <ele>211.5</ele>
        <time>2022-04-21T12:54:07Z</time>
      </trkpt>
      <trkpt lat="50.09583" lon="5.03716">
        <ele>211.3</ele>
        <time>2022-04-21T12:54:08Z</time>
      </trkpt>
      <trkpt lat="50.09582" lon="5.03716">
        <ele>211.3</ele>
        <time>2022-04-21T12:54:09Z</time>
      </trkpt>
      <trkpt lat="50.09581" lon="5.03716">
        <ele>211.2</ele>
        <time>2022-04-21T12:54:10Z</time>
      </trkpt>
      <trkpt lat="50.0958" lon="5.03716">
        <ele>211.1</ele>
        <time>2022-04-21T12:54:11Z</time>
      </trkpt>
      <trkpt lat="50.09578" lon="5.03715">
        <ele>211</ele>
        <time>2022-04-21T12:54:12Z</time>
      </trkpt>
      <trkpt lat="50.09576" lon="5.03714">
        <ele>210.9</ele>
        <time>2022-04-21T12:54:13Z</time>
      </trkpt>
      <trkpt lat="50.09575" lon="5.03714">
        <ele>210.8</ele>
        <time>2022-04-21T12:54:14Z</time>
      </trkpt>
      <trkpt lat="50.09573" lon="5.03714">
        <ele>210.7</ele>
        <time>2022-04-21T12:54:15Z</time>
      </trkpt>
      <trkpt lat="50.09572" lon="5.03714">
        <ele>210.6</ele>
        <time>2022-04-21T12:54:16Z</time>
      </trkpt>
      <trkpt lat="50.09572" lon="5.03713">
        <ele>210.6</ele>
        <time>2022-04-21T12:54:17Z</time>
      </trkpt>
      <trkpt lat="50.0957" lon="5.03713">
        <ele>210.4</ele>
        <time>2022-04-21T12:54:18Z</time>
      </trkpt>
      <trkpt lat="50.09568" lon="5.03713">
        <ele>210.3</ele>
        <time>2022-04-21T12:54:19Z</time>
      </trkpt>
      <trkpt lat="50.09567" lon="5.03713">
        <ele>210.2</ele>
        <time>2022-04-21T12:54:20Z</time>
      </trkpt>
      <trkpt lat="50.09565" lon="5.03713">
        <ele>210.1</ele>
        <time>2022-04-21T12:54:21Z</time>
      </trkpt>
      <trkpt lat="50.09564" lon="5.03713">
        <ele>210</ele>
        <time>2022-04-21T12:54:22Z</time>
      </trkpt>
      <trkpt lat="50.09562" lon="5.03713">
        <ele>209.8</ele>
        <time>2022-04-21T12:54:23Z</time>
      </trkpt>
      <trkpt lat="50.0956" lon="5.03712">
        <ele>209.7</ele>
        <time>2022-04-21T12:54:24Z</time>
      </trkpt>
      <trkpt lat="50.09558" lon="5.03712">
        <ele>209.6</ele>
        <time>2022-04-21T12:54:25Z</time>
      </trkpt>
      <trkpt lat="50.09557" lon="5.03711">
        <ele>209.4</ele>
        <time>2022-04-21T12:54:26Z</time>
      </trkpt>
      <trkpt lat="50.09555" lon="5.0371">
        <ele>209.3</ele>
        <time>2022-04-21T12:54:28Z</time>
      </trkpt>
      <trkpt lat="50.09553" lon="5.0371">
        <ele>209.2</ele>
        <time>2022-04-21T12:54:29Z</time>
      </trkpt>
      <trkpt lat="50.09552" lon="5.0371">
        <ele>209</ele>
        <time>2022-04-21T12:54:30Z</time>
      </trkpt>
      <trkpt lat="50.09549" lon="5.03711">
        <ele>208.8</ele>
        <time>2022-04-21T12:54:31Z</time>
      </trkpt>
      <trkpt lat="50.09548" lon="5.03711">
        <ele>208.7</ele>
        <time>2022-04-21T12:54:32Z</time>
      </trkpt>
      <trkpt lat="50.09545" lon="5.03712">
        <ele>208.5</ele>
        <time>2022-04-21T12:54:33Z</time>
      </trkpt>
      <trkpt lat="50.09542" lon="5.03712">
        <ele>208.3</ele>
        <time>2022-04-21T12:54:35Z</time>
      </trkpt>
      <trkpt lat="50.0954" lon="5.03712">
        <ele>208.1</ele>
        <time>2022-04-21T12:54:36Z</time>
      </trkpt>
      <trkpt lat="50.09539" lon="5.03711">
        <ele>208</ele>
        <time>2022-04-21T12:54:37Z</time>
      </trkpt>
      <trkpt lat="50.09538" lon="5.0371">
        <ele>208</ele>
        <time>2022-04-21T12:54:38Z</time>
      </trkpt>
      <trkpt lat="50.09537" lon="5.0371">
        <ele>207.9</ele>
        <time>2022-04-21T12:54:39Z</time>
      </trkpt>
      <trkpt lat="50.09536" lon="5.03709">
        <ele>207.8</ele>
        <time>2022-04-21T12:54:40Z</time>
      </trkpt>
      <trkpt lat="50.09535" lon="5.03709">
        <ele>207.7</ele>
        <time>2022-04-21T12:54:41Z</time>
      </trkpt>
      <trkpt lat="50.09534" lon="5.03708">
        <ele>207.7</ele>
        <time>2022-04-21T12:54:42Z</time>
      </trkpt>
      <trkpt lat="50.09535" lon="5.03707">
        <ele>207.6</ele>
        <time>2022-04-21T12:54:43Z</time>
      </trkpt>
      <trkpt lat="50.09535" lon="5.03706">
        <ele>207.6</ele>
        <time>2022-04-21T12:54:44Z</time>
      </trkpt>
      <trkpt lat="50.09534" lon="5.03705">
        <ele>207.6</ele>
        <time>2022-04-21T12:54:45Z</time>
      </trkpt>
      <trkpt lat="50.09533" lon="5.03705">
        <ele>207.5</ele>
        <time>2022-04-21T12:54:46Z</time>
      </trkpt>
      <trkpt lat="50.09532" lon="5.03705">
        <ele>207.5</ele>
        <time>2022-04-21T12:54:47Z</time>
      </trkpt>
      <trkpt lat="50.09532" lon="5.03705">
        <ele>207.5</ele>
        <time>2022-04-21T12:54:48Z</time>
      </trkpt>
      <trkpt lat="50.09531" lon="5.03705">
        <ele>207.4</ele>
        <time>2022-04-21T12:54:49Z</time>
      </trkpt>
      <trkpt lat="50.0953" lon="5.03705">
        <ele>207.3</ele>
        <time>2022-04-21T12:54:50Z</time>
      </trkpt>
      <trkpt lat="50.09529" lon="5.03704">
        <ele>207.3</ele>
        <time>2022-04-21T12:54:51Z</time>
      </trkpt>
      <trkpt lat="50.09528" lon="5.03702">
        <ele>207.2</ele>
        <time>2022-04-21T12:54:52Z</time>
      </trkpt>
      <trkpt lat="50.09528" lon="5.03701">
        <ele>207.2</ele>
        <time>2022-04-21T12:54:53Z</time>
      </trkpt>
      <trkpt lat="50.09527" lon="5.037">
        <ele>207.1</ele>
        <time>2022-04-21T12:54:54Z</time>
      </trkpt>
      <trkpt lat="50.09526" lon="5.03701">
        <ele>207.1</ele>
        <time>2022-04-21T12:54:55Z</time>
      </trkpt>
      <trkpt lat="50.09526" lon="5.03702">
        <ele>207.1</ele>
        <time>2022-04-21T12:54:57Z</time>
      </trkpt>
      <trkpt lat="50.09526" lon="5.03704">
        <ele>207</ele>
        <time>2022-04-21T12:54:59Z</time>
      </trkpt>
      <trkpt lat="50.09526" lon="5.03704">
        <ele>207</ele>
        <time>2022-04-21T12:55:00Z</time>
      </trkpt>
      <trkpt lat="50.09527" lon="5.03705">
        <ele>207</ele>
        <time>2022-04-21T12:55:01Z</time>
      </trkpt>
      <trkpt lat="50.09529" lon="5.03704">
        <ele>206.9</ele>
        <time>2022-04-21T12:55:02Z</time>
      </trkpt>
      <trkpt lat="50.09531" lon="5.03704">
        <ele>206.9</ele>
        <time>2022-04-21T12:55:03Z</time>
      </trkpt>
      <trkpt lat="50.09533" lon="5.03704">
        <ele>206.8</ele>
        <time>2022-04-21T12:55:04Z</time>
      </trkpt>
      <trkpt lat="50.09537" lon="5.03703">
        <ele>206.7</ele>
        <time>2022-04-21T12:55:05Z</time>
      </trkpt>
      <trkpt lat="50.09539" lon="5.03703">
        <ele>206.7</ele>
        <time>2022-04-21T12:55:06Z</time>
      </trkpt>
      <trkpt lat="50.0954" lon="5.03703">
        <ele>206.7</ele>
        <time>2022-04-21T12:55:07Z</time>
      </trkpt>
      <trkpt lat="50.09538" lon="5.037">
        <ele>206.6</ele>
        <time>2022-04-21T12:55:08Z</time>
      </trkpt>
      <trkpt lat="50.09537" lon="5.03699">
        <ele>206.6</ele>
        <time>2022-04-21T12:55:10Z</time>
      </trkpt>
      <trkpt lat="50.09536" lon="5.03698">
        <ele>206.6</ele>
        <time>2022-04-21T12:55:11Z</time>
      </trkpt>
      <trkpt lat="50.09534" lon="5.03695">
        <ele>206.6</ele>
        <time>2022-04-21T12:55:12Z</time>
      </trkpt>
      <trkpt lat="50.09533" lon="5.03695">
        <ele>206.6</ele>
        <time>2022-04-21T12:55:13Z</time>
      </trkpt>
      <trkpt lat="50.09528" lon="5.03692">
        <ele>206.5</ele>
        <time>2022-04-21T12:55:14Z</time>
      </trkpt>
      <trkpt lat="50.09525" lon="5.03689">
        <ele>206.5</ele>
        <time>2022-04-21T12:55:15Z</time>
      </trkpt>
      <trkpt lat="50.0952" lon="5.03686">
        <ele>206.6</ele>
        <time>2022-04-21T12:55:17Z</time>
      </trkpt>
      <trkpt lat="50.09518" lon="5.03686">
        <ele>206.6</ele>
        <time>2022-04-21T12:55:18Z</time>
      </trkpt>
      <trkpt lat="50.09516" lon="5.03685">
        <ele>206.6</ele>
        <time>2022-04-21T12:55:19Z</time>
      </trkpt>
      <trkpt lat="50.09514" lon="5.03681">
        <ele>206.6</ele>
        <time>2022-04-21T12:55:20Z</time>
      </trkpt>
      <trkpt lat="50.09514" lon="5.0368">
        <ele>206.6</ele>
        <time>2022-04-21T12:55:22Z</time>
      </trkpt>
      <trkpt lat="50.09513" lon="5.03679">
        <ele>206.6</ele>
        <time>2022-04-21T12:55:24Z</time>
      </trkpt>
      <trkpt lat="50.09512" lon="5.03678">
        <ele>206.7</ele>
        <time>2022-04-21T12:55:25Z</time>
      </trkpt>
      <trkpt lat="50.09512" lon="5.03677">
        <ele>206.7</ele>
        <time>2022-04-21T12:55:26Z</time>
      </trkpt>
      <trkpt lat="50.09511" lon="5.03673">
        <ele>206.7</ele>
        <time>2022-04-21T12:55:27Z</time>
      </trkpt>
      <trkpt lat="50.09511" lon="5.03671">
        <ele>206.7</ele>
        <time>2022-04-21T12:55:28Z</time>
      </trkpt>
      <trkpt lat="50.0951" lon="5.03669">
        <ele>206.8</ele>
        <time>2022-04-21T12:55:29Z</time>
      </trkpt>
      <trkpt lat="50.0951" lon="5.03666">
        <ele>206.8</ele>
        <time>2022-04-21T12:55:30Z</time>
      </trkpt>
      <trkpt lat="50.09509" lon="5.03664">
        <ele>206.9</ele>
        <time>2022-04-21T12:55:31Z</time>
      </trkpt>
      <trkpt lat="50.09508" lon="5.03662">
        <ele>206.9</ele>
        <time>2022-04-21T12:55:32Z</time>
      </trkpt>
      <trkpt lat="50.09507" lon="5.03658">
        <ele>207</ele>
        <time>2022-04-21T12:55:33Z</time>
      </trkpt>
      <trkpt lat="50.09507" lon="5.03657">
        <ele>207</ele>
        <time>2022-04-21T12:55:34Z</time>
      </trkpt>
      <trkpt lat="50.09506" lon="5.03655">
        <ele>207</ele>
        <time>2022-04-21T12:55:35Z</time>
      </trkpt>
      <trkpt lat="50.09506" lon="5.03652">
        <ele>207.1</ele>
        <time>2022-04-21T12:55:36Z</time>
      </trkpt>
      <trkpt lat="50.09506" lon="5.0365">
        <ele>207.1</ele>
        <time>2022-04-21T12:55:37Z</time>
      </trkpt>
      <trkpt lat="50.09506" lon="5.03645">
        <ele>207.2</ele>
        <time>2022-04-21T12:55:39Z</time>
      </trkpt>
      <trkpt lat="50.09507" lon="5.03642">
        <ele>207.3</ele>
        <time>2022-04-21T12:55:40Z</time>
      </trkpt>
      <trkpt lat="50.09507" lon="5.0364">
        <ele>207.3</ele>
        <time>2022-04-21T12:55:41Z</time>
      </trkpt>
      <trkpt lat="50.09507" lon="5.03637">
        <ele>207.4</ele>
        <time>2022-04-21T12:55:42Z</time>
      </trkpt>
      <trkpt lat="50.09506" lon="5.03635">
        <ele>207.4</ele>
        <time>2022-04-21T12:55:43Z</time>
      </trkpt>
      <trkpt lat="50.09506" lon="5.03632">
        <ele>207.5</ele>
        <time>2022-04-21T12:55:44Z</time>
      </trkpt>
      <trkpt lat="50.09506" lon="5.03631">
        <ele>207.5</ele>
        <time>2022-04-21T12:55:45Z</time>
      </trkpt>
      <trkpt lat="50.09505" lon="5.03629">
        <ele>207.5</ele>
        <time>2022-04-21T12:55:46Z</time>
      </trkpt>
      <trkpt lat="50.09505" lon="5.03627">
        <ele>207.6</ele>
        <time>2022-04-21T12:55:47Z</time>
      </trkpt>
      <trkpt lat="50.09504" lon="5.03625">
        <ele>207.6</ele>
        <time>2022-04-21T12:55:48Z</time>
      </trkpt>
      <trkpt lat="50.09504" lon="5.03622">
        <ele>207.7</ele>
        <time>2022-04-21T12:55:50Z</time>
      </trkpt>
      <trkpt lat="50.09504" lon="5.0362">
        <ele>207.7</ele>
        <time>2022-04-21T12:55:51Z</time>
      </trkpt>
      <trkpt lat="50.09504" lon="5.03618">
        <ele>207.8</ele>
        <time>2022-04-21T12:55:52Z</time>
      </trkpt>
      <trkpt lat="50.09504" lon="5.03614">
        <ele>207.8</ele>
        <time>2022-04-21T12:55:54Z</time>
      </trkpt>
      <trkpt lat="50.09504" lon="5.03611">
        <ele>207.9</ele>
        <time>2022-04-21T12:55:55Z</time>
      </trkpt>
      <trkpt lat="50.09504" lon="5.03609">
        <ele>207.9</ele>
        <time>2022-04-21T12:55:56Z</time>
      </trkpt>
      <trkpt lat="50.09503" lon="5.03606">
        <ele>208</ele>
        <time>2022-04-21T12:55:57Z</time>
      </trkpt>
      <trkpt lat="50.09503" lon="5.03605">
        <ele>208</ele>
        <time>2022-04-21T12:55:58Z</time>
      </trkpt>
      <trkpt lat="50.09503" lon="5.03603">
        <ele>208</ele>
        <time>2022-04-21T12:55:59Z</time>
      </trkpt>
      <trkpt lat="50.09502" lon="5.03601">
        <ele>208</ele>
        <time>2022-04-21T12:56:00Z</time>
      </trkpt>
      <trkpt lat="50.09502" lon="5.03599">
        <ele>208.1</ele>
        <time>2022-04-21T12:56:01Z</time>
      </trkpt>
      <trkpt lat="50.09502" lon="5.03597">
        <ele>208.1</ele>
        <time>2022-04-21T12:56:02Z</time>
      </trkpt>
      <trkpt lat="50.09501" lon="5.03593">
        <ele>208.2</ele>
        <time>2022-04-21T12:56:03Z</time>
      </trkpt>
      <trkpt lat="50.09501" lon="5.03592">
        <ele>208.2</ele>
        <time>2022-04-21T12:56:04Z</time>
      </trkpt>
      <trkpt lat="50.095" lon="5.0359">
        <ele>208.2</ele>
        <time>2022-04-21T12:56:05Z</time>
      </trkpt>
      <trkpt lat="50.095" lon="5.03589">
        <ele>208.2</ele>
        <time>2022-04-21T12:56:06Z</time>
      </trkpt>
      <trkpt lat="50.095" lon="5.03587">
        <ele>208.2</ele>
        <time>2022-04-21T12:56:07Z</time>
      </trkpt>
      <trkpt lat="50.095" lon="5.03585">
        <ele>208.3</ele>
        <time>2022-04-21T12:56:08Z</time>
      </trkpt>
      <trkpt lat="50.09499" lon="5.03583">
        <ele>208.3</ele>
        <time>2022-04-21T12:56:09Z</time>
      </trkpt>
      <trkpt lat="50.09499" lon="5.03582">
        <ele>208.3</ele>
        <time>2022-04-21T12:56:10Z</time>
      </trkpt>
      <trkpt lat="50.09498" lon="5.03579">
        <ele>208.3</ele>
        <time>2022-04-21T12:56:12Z</time>
      </trkpt>
      <trkpt lat="50.09498" lon="5.03577">
        <ele>208.3</ele>
        <time>2022-04-21T12:56:13Z</time>
      </trkpt>
      <trkpt lat="50.09497" lon="5.03575">
        <ele>208.3</ele>
        <time>2022-04-21T12:56:14Z</time>
      </trkpt>
      <trkpt lat="50.09496" lon="5.03572">
        <ele>208.4</ele>
        <time>2022-04-21T12:56:15Z</time>
      </trkpt>
      <trkpt lat="50.09496" lon="5.0357">
        <ele>208.4</ele>
        <time>2022-04-21T12:56:16Z</time>
      </trkpt>
      <trkpt lat="50.09495" lon="5.03568">
        <ele>208.4</ele>
        <time>2022-04-21T12:56:17Z</time>
      </trkpt>
      <trkpt lat="50.09495" lon="5.03566">
        <ele>208.5</ele>
        <time>2022-04-21T12:56:18Z</time>
      </trkpt>
      <trkpt lat="50.09494" lon="5.03563">
        <ele>208.5</ele>
        <time>2022-04-21T12:56:19Z</time>
      </trkpt>
      <trkpt lat="50.09494" lon="5.03562">
        <ele>208.5</ele>
        <time>2022-04-21T12:56:20Z</time>
      </trkpt>
      <trkpt lat="50.09493" lon="5.0356">
        <ele>208.5</ele>
        <time>2022-04-21T12:56:21Z</time>
      </trkpt>
      <trkpt lat="50.09493" lon="5.03559">
        <ele>208.5</ele>
        <time>2022-04-21T12:56:22Z</time>
      </trkpt>
      <trkpt lat="50.09493" lon="5.03558">
        <ele>208.5</ele>
        <time>2022-04-21T12:56:23Z</time>
      </trkpt>
      <trkpt lat="50.09492" lon="5.03556">
        <ele>208.5</ele>
        <time>2022-04-21T12:56:25Z</time>
      </trkpt>
      <trkpt lat="50.09492" lon="5.03556">
        <ele>208.5</ele>
        <time>2022-04-21T12:56:26Z</time>
      </trkpt>
      <trkpt lat="50.09491" lon="5.03555">
        <ele>208.5</ele>
        <time>2022-04-21T12:56:27Z</time>
      </trkpt>
      <trkpt lat="50.09491" lon="5.03553">
        <ele>208.5</ele>
        <time>2022-04-21T12:56:28Z</time>
      </trkpt>
      <trkpt lat="50.0949" lon="5.03551">
        <ele>208.5</ele>
        <time>2022-04-21T12:56:30Z</time>
      </trkpt>
      <trkpt lat="50.0949" lon="5.0355">
        <ele>208.5</ele>
        <time>2022-04-21T12:56:31Z</time>
      </trkpt>
      <trkpt lat="50.0949" lon="5.03548">
        <ele>208.5</ele>
        <time>2022-04-21T12:56:32Z</time>
      </trkpt>
      <trkpt lat="50.09489" lon="5.03545">
        <ele>208.5</ele>
        <time>2022-04-21T12:56:33Z</time>
      </trkpt>
      <trkpt lat="50.09489" lon="5.03544">
        <ele>208.5</ele>
        <time>2022-04-21T12:56:34Z</time>
      </trkpt>
      <trkpt lat="50.09489" lon="5.03543">
        <ele>208.5</ele>
        <time>2022-04-21T12:56:35Z</time>
      </trkpt>
      <trkpt lat="50.0949" lon="5.03539">
        <ele>208.4</ele>
        <time>2022-04-21T12:56:36Z</time>
      </trkpt>
      <trkpt lat="50.0949" lon="5.03538">
        <ele>208.4</ele>
        <time>2022-04-21T12:56:37Z</time>
      </trkpt>
      <trkpt lat="50.0949" lon="5.03537">
        <ele>208.4</ele>
        <time>2022-04-21T12:56:38Z</time>
      </trkpt>
      <trkpt lat="50.0949" lon="5.03532">
        <ele>208.3</ele>
        <time>2022-04-21T12:56:40Z</time>
      </trkpt>
      <trkpt lat="50.0949" lon="5.0353">
        <ele>208.3</ele>
        <time>2022-04-21T12:56:41Z</time>
      </trkpt>
      <trkpt lat="50.0949" lon="5.03528">
        <ele>208.2</ele>
        <time>2022-04-21T12:56:42Z</time>
      </trkpt>
      <trkpt lat="50.09491" lon="5.03525">
        <ele>208.2</ele>
        <time>2022-04-21T12:56:43Z</time>
      </trkpt>
      <trkpt lat="50.09491" lon="5.03519">
        <ele>208</ele>
        <time>2022-04-21T12:56:45Z</time>
      </trkpt>
      <trkpt lat="50.09492" lon="5.03518">
        <ele>208</ele>
        <time>2022-04-21T12:56:46Z</time>
      </trkpt>
      <trkpt lat="50.09492" lon="5.03516">
        <ele>207.9</ele>
        <time>2022-04-21T12:56:47Z</time>
      </trkpt>
      <trkpt lat="50.09492" lon="5.03513">
        <ele>207.8</ele>
        <time>2022-04-21T12:56:48Z</time>
      </trkpt>
      <trkpt lat="50.09492" lon="5.03511">
        <ele>207.8</ele>
        <time>2022-04-21T12:56:49Z</time>
      </trkpt>
      <trkpt lat="50.09493" lon="5.03509">
        <ele>207.7</ele>
        <time>2022-04-21T12:56:50Z</time>
      </trkpt>
      <trkpt lat="50.09492" lon="5.03508">
        <ele>207.6</ele>
        <time>2022-04-21T12:56:51Z</time>
      </trkpt>
      <trkpt lat="50.09492" lon="5.03506">
        <ele>207.6</ele>
        <time>2022-04-21T12:56:52Z</time>
      </trkpt>
      <trkpt lat="50.09491" lon="5.03504">
        <ele>207.5</ele>
        <time>2022-04-21T12:56:53Z</time>
      </trkpt>
      <trkpt lat="50.0949" lon="5.03502">
        <ele>207.4</ele>
        <time>2022-04-21T12:56:55Z</time>
      </trkpt>
      <trkpt lat="50.09489" lon="5.035">
        <ele>207.2</ele>
        <time>2022-04-21T12:56:56Z</time>
      </trkpt>
      <trkpt lat="50.09488" lon="5.03498">
        <ele>207.2</ele>
        <time>2022-04-21T12:56:57Z</time>
      </trkpt>
      <trkpt lat="50.09488" lon="5.03495">
        <ele>207</ele>
        <time>2022-04-21T12:56:58Z</time>
      </trkpt>
      <trkpt lat="50.09487" lon="5.03493">
        <ele>206.9</ele>
        <time>2022-04-21T12:56:59Z</time>
      </trkpt>
      <trkpt lat="50.09487" lon="5.0349">
        <ele>206.8</ele>
        <time>2022-04-21T12:57:00Z</time>
      </trkpt>
      <trkpt lat="50.09486" lon="5.03489">
        <ele>206.7</ele>
        <time>2022-04-21T12:57:01Z</time>
      </trkpt>
      <trkpt lat="50.09486" lon="5.03488">
        <ele>206.6</ele>
        <time>2022-04-21T12:57:02Z</time>
      </trkpt>
      <trkpt lat="50.09485" lon="5.03486">
        <ele>206.5</ele>
        <time>2022-04-21T12:57:03Z</time>
      </trkpt>
      <trkpt lat="50.09485" lon="5.03484">
        <ele>206.4</ele>
        <time>2022-04-21T12:57:04Z</time>
      </trkpt>
      <trkpt lat="50.09485" lon="5.03481">
        <ele>206.2</ele>
        <time>2022-04-21T12:57:05Z</time>
      </trkpt>
      <trkpt lat="50.09484" lon="5.03479">
        <ele>206.1</ele>
        <time>2022-04-21T12:57:06Z</time>
      </trkpt>
      <trkpt lat="50.09483" lon="5.03477">
        <ele>206</ele>
        <time>2022-04-21T12:57:07Z</time>
      </trkpt>
      <trkpt lat="50.09482" lon="5.03475">
        <ele>205.8</ele>
        <time>2022-04-21T12:57:08Z</time>
      </trkpt>
      <trkpt lat="50.09481" lon="5.03472">
        <ele>205.6</ele>
        <time>2022-04-21T12:57:09Z</time>
      </trkpt>
      <trkpt lat="50.0948" lon="5.03471">
        <ele>205.5</ele>
        <time>2022-04-21T12:57:10Z</time>
      </trkpt>
      <trkpt lat="50.0948" lon="5.03469">
        <ele>205.5</ele>
        <time>2022-04-21T12:57:11Z</time>
      </trkpt>
      <trkpt lat="50.0948" lon="5.03468">
        <ele>205.4</ele>
        <time>2022-04-21T12:57:12Z</time>
      </trkpt>
      <trkpt lat="50.09479" lon="5.03465">
        <ele>205.2</ele>
        <time>2022-04-21T12:57:13Z</time>
      </trkpt>
      <trkpt lat="50.09479" lon="5.03464">
        <ele>205.1</ele>
        <time>2022-04-21T12:57:14Z</time>
      </trkpt>
      <trkpt lat="50.09479" lon="5.03463">
        <ele>205.1</ele>
        <time>2022-04-21T12:57:15Z</time>
      </trkpt>
      <trkpt lat="50.09478" lon="5.03463">
        <ele>205</ele>
        <time>2022-04-21T12:57:16Z</time>
      </trkpt>
      <trkpt lat="50.09478" lon="5.03462">
        <ele>205</ele>
        <time>2022-04-21T12:57:17Z</time>
      </trkpt>
      <trkpt lat="50.09477" lon="5.03462">
        <ele>204.9</ele>
        <time>2022-04-21T12:57:18Z</time>
      </trkpt>
      <trkpt lat="50.09477" lon="5.03462">
        <ele>204.9</ele>
        <time>2022-04-21T12:57:19Z</time>
      </trkpt>
      <trkpt lat="50.09476" lon="5.03461">
        <ele>204.8</ele>
        <time>2022-04-21T12:57:20Z</time>
      </trkpt>
      <trkpt lat="50.09476" lon="5.0346">
        <ele>204.8</ele>
        <time>2022-04-21T12:57:21Z</time>
      </trkpt>
      <trkpt lat="50.09475" lon="5.03459">
        <ele>204.7</ele>
        <time>2022-04-21T12:57:22Z</time>
      </trkpt>
      <trkpt lat="50.09473" lon="5.03457">
        <ele>204.5</ele>
        <time>2022-04-21T12:57:24Z</time>
      </trkpt>
      <trkpt lat="50.09473" lon="5.03456">
        <ele>204.4</ele>
        <time>2022-04-21T12:57:25Z</time>
      </trkpt>
      <trkpt lat="50.09472" lon="5.03455">
        <ele>204.4</ele>
        <time>2022-04-21T12:57:26Z</time>
      </trkpt>
      <trkpt lat="50.09471" lon="5.03453">
        <ele>204.2</ele>
        <time>2022-04-21T12:57:27Z</time>
      </trkpt>
      <trkpt lat="50.09471" lon="5.03452">
        <ele>204.2</ele>
        <time>2022-04-21T12:57:28Z</time>
      </trkpt>
      <trkpt lat="50.0947" lon="5.0345">
        <ele>204.1</ele>
        <time>2022-04-21T12:57:29Z</time>
      </trkpt>
      <trkpt lat="50.09469" lon="5.03447">
        <ele>203.9</ele>
        <time>2022-04-21T12:57:30Z</time>
      </trkpt>
      <trkpt lat="50.09468" lon="5.03445">
        <ele>203.8</ele>
        <time>2022-04-21T12:57:31Z</time>
      </trkpt>
      <trkpt lat="50.09467" lon="5.03441">
        <ele>203.6</ele>
        <time>2022-04-21T12:57:32Z</time>
      </trkpt>
      <trkpt lat="50.09467" lon="5.0344">
        <ele>203.6</ele>
        <time>2022-04-21T12:57:33Z</time>
      </trkpt>
      <trkpt lat="50.09466" lon="5.03434">
        <ele>203.4</ele>
        <time>2022-04-21T12:57:35Z</time>
      </trkpt>
      <trkpt lat="50.09465" lon="5.03432">
        <ele>203.3</ele>
        <time>2022-04-21T12:57:36Z</time>
      </trkpt>
      <trkpt lat="50.09465" lon="5.03428">
        <ele>203.2</ele>
        <time>2022-04-21T12:57:37Z</time>
      </trkpt>
      <trkpt lat="50.09464" lon="5.03426">
        <ele>203.1</ele>
        <time>2022-04-21T12:57:38Z</time>
      </trkpt>
      <trkpt lat="50.09464" lon="5.03423">
        <ele>203.1</ele>
        <time>2022-04-21T12:57:39Z</time>
      </trkpt>
      <trkpt lat="50.09464" lon="5.03419">
        <ele>203</ele>
        <time>2022-04-21T12:57:41Z</time>
      </trkpt>
      <trkpt lat="50.09463" lon="5.03416">
        <ele>202.9</ele>
        <time>2022-04-21T12:57:42Z</time>
      </trkpt>
      <trkpt lat="50.09463" lon="5.03414">
        <ele>202.9</ele>
        <time>2022-04-21T12:57:43Z</time>
      </trkpt>
      <trkpt lat="50.09463" lon="5.03412">
        <ele>202.9</ele>
        <time>2022-04-21T12:57:44Z</time>
      </trkpt>
      <trkpt lat="50.09462" lon="5.03409">
        <ele>202.8</ele>
        <time>2022-04-21T12:57:45Z</time>
      </trkpt>
      <trkpt lat="50.09463" lon="5.03408">
        <ele>202.8</ele>
        <time>2022-04-21T12:57:46Z</time>
      </trkpt>
      <trkpt lat="50.09463" lon="5.03406">
        <ele>202.8</ele>
        <time>2022-04-21T12:57:47Z</time>
      </trkpt>
      <trkpt lat="50.09463" lon="5.03404">
        <ele>202.8</ele>
        <time>2022-04-21T12:57:48Z</time>
      </trkpt>
      <trkpt lat="50.09462" lon="5.03403">
        <ele>202.8</ele>
        <time>2022-04-21T12:57:49Z</time>
      </trkpt>
      <trkpt lat="50.09462" lon="5.03402">
        <ele>202.8</ele>
        <time>2022-04-21T12:57:50Z</time>
      </trkpt>
      <trkpt lat="50.09462" lon="5.034">
        <ele>202.8</ele>
        <time>2022-04-21T12:57:51Z</time>
      </trkpt>
      <trkpt lat="50.09462" lon="5.03397">
        <ele>202.8</ele>
        <time>2022-04-21T12:57:52Z</time>
      </trkpt>
      <trkpt lat="50.09462" lon="5.03395">
        <ele>202.7</ele>
        <time>2022-04-21T12:57:53Z</time>
      </trkpt>
      <trkpt lat="50.09462" lon="5.03392">
        <ele>202.7</ele>
        <time>2022-04-21T12:57:54Z</time>
      </trkpt>
      <trkpt lat="50.09461" lon="5.03391">
        <ele>202.7</ele>
        <time>2022-04-21T12:57:55Z</time>
      </trkpt>
      <trkpt lat="50.09461" lon="5.0339">
        <ele>202.7</ele>
        <time>2022-04-21T12:57:56Z</time>
      </trkpt>
      <trkpt lat="50.0946" lon="5.03389">
        <ele>202.7</ele>
        <time>2022-04-21T12:57:57Z</time>
      </trkpt>
      <trkpt lat="50.09459" lon="5.03388">
        <ele>202.7</ele>
        <time>2022-04-21T12:57:58Z</time>
      </trkpt>
      <trkpt lat="50.09458" lon="5.03386">
        <ele>202.7</ele>
        <time>2022-04-21T12:57:59Z</time>
      </trkpt>
      <trkpt lat="50.09457" lon="5.03385">
        <ele>202.7</ele>
        <time>2022-04-21T12:58:00Z</time>
      </trkpt>
      <trkpt lat="50.09456" lon="5.03383">
        <ele>202.7</ele>
        <time>2022-04-21T12:58:01Z</time>
      </trkpt>
      <trkpt lat="50.09456" lon="5.03382">
        <ele>202.7</ele>
        <time>2022-04-21T12:58:02Z</time>
      </trkpt>
      <trkpt lat="50.09454" lon="5.0338">
        <ele>202.6</ele>
        <time>2022-04-21T12:58:03Z</time>
      </trkpt>
      <trkpt lat="50.09454" lon="5.03379">
        <ele>202.6</ele>
        <time>2022-04-21T12:58:04Z</time>
      </trkpt>
      <trkpt lat="50.09453" lon="5.03378">
        <ele>202.6</ele>
        <time>2022-04-21T12:58:05Z</time>
      </trkpt>
      <trkpt lat="50.09452" lon="5.03376">
        <ele>202.6</ele>
        <time>2022-04-21T12:58:06Z</time>
      </trkpt>
      <trkpt lat="50.09451" lon="5.03375">
        <ele>202.5</ele>
        <time>2022-04-21T12:58:07Z</time>
      </trkpt>
      <trkpt lat="50.09448" lon="5.03373">
        <ele>202.5</ele>
        <time>2022-04-21T12:58:09Z</time>
      </trkpt>
      <trkpt lat="50.09447" lon="5.03372">
        <ele>202.5</ele>
        <time>2022-04-21T12:58:10Z</time>
      </trkpt>
      <trkpt lat="50.09445" lon="5.03372">
        <ele>202.4</ele>
        <time>2022-04-21T12:58:11Z</time>
      </trkpt>
      <trkpt lat="50.09444" lon="5.03372">
        <ele>202.4</ele>
        <time>2022-04-21T12:58:12Z</time>
      </trkpt>
      <trkpt lat="50.09442" lon="5.03372">
        <ele>202.4</ele>
        <time>2022-04-21T12:58:13Z</time>
      </trkpt>
      <trkpt lat="50.09441" lon="5.03372">
        <ele>202.4</ele>
        <time>2022-04-21T12:58:14Z</time>
      </trkpt>
      <trkpt lat="50.09439" lon="5.03371">
        <ele>202.3</ele>
        <time>2022-04-21T12:58:15Z</time>
      </trkpt>
      <trkpt lat="50.09438" lon="5.03371">
        <ele>202.3</ele>
        <time>2022-04-21T12:58:16Z</time>
      </trkpt>
      <trkpt lat="50.09435" lon="5.03372">
        <ele>202.3</ele>
        <time>2022-04-21T12:58:17Z</time>
      </trkpt>
      <trkpt lat="50.09434" lon="5.03372">
        <ele>202.3</ele>
        <time>2022-04-21T12:58:18Z</time>
      </trkpt>
      <trkpt lat="50.09431" lon="5.03373">
        <ele>202.2</ele>
        <time>2022-04-21T12:58:19Z</time>
      </trkpt>
      <trkpt lat="50.0943" lon="5.03374">
        <ele>202.2</ele>
        <time>2022-04-21T12:58:20Z</time>
      </trkpt>
      <trkpt lat="50.09428" lon="5.03374">
        <ele>202.2</ele>
        <time>2022-04-21T12:58:21Z</time>
      </trkpt>
      <trkpt lat="50.09427" lon="5.03375">
        <ele>202.2</ele>
        <time>2022-04-21T12:58:22Z</time>
      </trkpt>
      <trkpt lat="50.09425" lon="5.03376">
        <ele>202.1</ele>
        <time>2022-04-21T12:58:23Z</time>
      </trkpt>
      <trkpt lat="50.09424" lon="5.03376">
        <ele>202.1</ele>
        <time>2022-04-21T12:58:24Z</time>
      </trkpt>
      <trkpt lat="50.09423" lon="5.03376">
        <ele>202.1</ele>
        <time>2022-04-21T12:58:25Z</time>
      </trkpt>
      <trkpt lat="50.09421" lon="5.03376">
        <ele>202.1</ele>
        <time>2022-04-21T12:58:27Z</time>
      </trkpt>
      <trkpt lat="50.09418" lon="5.03376">
        <ele>202</ele>
        <time>2022-04-21T12:58:29Z</time>
      </trkpt>
      <trkpt lat="50.09416" lon="5.03377">
        <ele>202</ele>
        <time>2022-04-21T12:58:30Z</time>
      </trkpt>
      <trkpt lat="50.09414" lon="5.03378">
        <ele>202</ele>
        <time>2022-04-21T12:58:32Z</time>
      </trkpt>
      <trkpt lat="50.09413" lon="5.03378">
        <ele>202</ele>
        <time>2022-04-21T12:58:33Z</time>
      </trkpt>
      <trkpt lat="50.09412" lon="5.03379">
        <ele>201.9</ele>
        <time>2022-04-21T12:58:34Z</time>
      </trkpt>
      <trkpt lat="50.09411" lon="5.03379">
        <ele>201.9</ele>
        <time>2022-04-21T12:58:35Z</time>
      </trkpt>
      <trkpt lat="50.09409" lon="5.03379">
        <ele>201.9</ele>
        <time>2022-04-21T12:58:36Z</time>
      </trkpt>
      <trkpt lat="50.09408" lon="5.0338">
        <ele>201.9</ele>
        <time>2022-04-21T12:58:37Z</time>
      </trkpt>
      <trkpt lat="50.09407" lon="5.0338">
        <ele>201.9</ele>
        <time>2022-04-21T12:58:38Z</time>
      </trkpt>
      <trkpt lat="50.09406" lon="5.03381">
        <ele>201.9</ele>
        <time>2022-04-21T12:58:39Z</time>
      </trkpt>
      <trkpt lat="50.09405" lon="5.03381">
        <ele>201.9</ele>
        <time>2022-04-21T12:58:40Z</time>
      </trkpt>
      <trkpt lat="50.09403" lon="5.03381">
        <ele>201.8</ele>
        <time>2022-04-21T12:58:41Z</time>
      </trkpt>
      <trkpt lat="50.09401" lon="5.03381">
        <ele>201.8</ele>
        <time>2022-04-21T12:58:43Z</time>
      </trkpt>
      <trkpt lat="50.094" lon="5.03381">
        <ele>201.8</ele>
        <time>2022-04-21T12:58:44Z</time>
      </trkpt>
      <trkpt lat="50.09399" lon="5.03382">
        <ele>201.8</ele>
        <time>2022-04-21T12:58:45Z</time>
      </trkpt>
      <trkpt lat="50.09398" lon="5.03382">
        <ele>201.8</ele>
        <time>2022-04-21T12:58:46Z</time>
      </trkpt>
      <trkpt lat="50.09397" lon="5.03383">
        <ele>201.8</ele>
        <time>2022-04-21T12:58:47Z</time>
      </trkpt>
      <trkpt lat="50.09395" lon="5.03384">
        <ele>201.7</ele>
        <time>2022-04-21T12:58:48Z</time>
      </trkpt>
      <trkpt lat="50.09394" lon="5.03385">
        <ele>201.7</ele>
        <time>2022-04-21T12:58:49Z</time>
      </trkpt>
      <trkpt lat="50.09393" lon="5.03385">
        <ele>201.7</ele>
        <time>2022-04-21T12:58:50Z</time>
      </trkpt>
      <trkpt lat="50.0939" lon="5.03386">
        <ele>201.7</ele>
        <time>2022-04-21T12:58:51Z</time>
      </trkpt>
      <trkpt lat="50.09389" lon="5.03385">
        <ele>201.7</ele>
        <time>2022-04-21T12:58:52Z</time>
      </trkpt>
      <trkpt lat="50.09389" lon="5.03385">
        <ele>201.7</ele>
        <time>2022-04-21T12:58:53Z</time>
      </trkpt>
      <trkpt lat="50.09387" lon="5.03386">
        <ele>201.7</ele>
        <time>2022-04-21T12:58:54Z</time>
      </trkpt>
      <trkpt lat="50.09386" lon="5.03386">
        <ele>201.6</ele>
        <time>2022-04-21T12:58:55Z</time>
      </trkpt>
      <trkpt lat="50.09385" lon="5.03386">
        <ele>201.6</ele>
        <time>2022-04-21T12:58:56Z</time>
      </trkpt>
      <trkpt lat="50.09383" lon="5.03386">
        <ele>201.6</ele>
        <time>2022-04-21T12:58:57Z</time>
      </trkpt>
      <trkpt lat="50.09382" lon="5.03386">
        <ele>201.6</ele>
        <time>2022-04-21T12:58:58Z</time>
      </trkpt>
      <trkpt lat="50.0938" lon="5.03386">
        <ele>201.6</ele>
        <time>2022-04-21T12:58:59Z</time>
      </trkpt>
      <trkpt lat="50.09379" lon="5.03387">
        <ele>201.6</ele>
        <time>2022-04-21T12:59:00Z</time>
      </trkpt>
      <trkpt lat="50.09378" lon="5.03387">
        <ele>201.6</ele>
        <time>2022-04-21T12:59:01Z</time>
      </trkpt>
      <trkpt lat="50.09377" lon="5.03387">
        <ele>201.6</ele>
        <time>2022-04-21T12:59:02Z</time>
      </trkpt>
      <trkpt lat="50.09375" lon="5.03388">
        <ele>201.5</ele>
        <time>2022-04-21T12:59:04Z</time>
      </trkpt>
      <trkpt lat="50.09375" lon="5.03389">
        <ele>201.5</ele>
        <time>2022-04-21T12:59:05Z</time>
      </trkpt>
      <trkpt lat="50.09373" lon="5.0339">
        <ele>201.5</ele>
        <time>2022-04-21T12:59:07Z</time>
      </trkpt>
      <trkpt lat="50.09372" lon="5.0339">
        <ele>201.5</ele>
        <time>2022-04-21T12:59:08Z</time>
      </trkpt>
      <trkpt lat="50.0937" lon="5.03391">
        <ele>201.5</ele>
        <time>2022-04-21T12:59:09Z</time>
      </trkpt>
      <trkpt lat="50.09369" lon="5.03391">
        <ele>201.5</ele>
        <time>2022-04-21T12:59:11Z</time>
      </trkpt>
      <trkpt lat="50.09368" lon="5.0339">
        <ele>201.5</ele>
        <time>2022-04-21T12:59:12Z</time>
      </trkpt>
      <trkpt lat="50.09367" lon="5.0339">
        <ele>201.5</ele>
        <time>2022-04-21T12:59:13Z</time>
      </trkpt>
      <trkpt lat="50.09366" lon="5.03391">
        <ele>201.5</ele>
        <time>2022-04-21T12:59:15Z</time>
      </trkpt>
      <trkpt lat="50.09365" lon="5.03391">
        <ele>201.5</ele>
        <time>2022-04-21T12:59:16Z</time>
      </trkpt>
      <trkpt lat="50.09364" lon="5.03391">
        <ele>201.5</ele>
        <time>2022-04-21T12:59:17Z</time>
      </trkpt>
      <trkpt lat="50.09363" lon="5.03392">
        <ele>201.5</ele>
        <time>2022-04-21T12:59:18Z</time>
      </trkpt>
      <trkpt lat="50.0936" lon="5.03392">
        <ele>201.4</ele>
        <time>2022-04-21T12:59:20Z</time>
      </trkpt>
      <trkpt lat="50.09359" lon="5.03393">
        <ele>201.4</ele>
        <time>2022-04-21T12:59:21Z</time>
      </trkpt>
      <trkpt lat="50.09357" lon="5.03394">
        <ele>201.4</ele>
        <time>2022-04-21T12:59:22Z</time>
      </trkpt>
      <trkpt lat="50.09355" lon="5.03395">
        <ele>201.4</ele>
        <time>2022-04-21T12:59:23Z</time>
      </trkpt>
      <trkpt lat="50.09353" lon="5.03395">
        <ele>201.4</ele>
        <time>2022-04-21T12:59:25Z</time>
      </trkpt>
      <trkpt lat="50.09351" lon="5.03396">
        <ele>201.4</ele>
        <time>2022-04-21T12:59:26Z</time>
      </trkpt>
      <trkpt lat="50.0935" lon="5.03396">
        <ele>201.4</ele>
        <time>2022-04-21T12:59:27Z</time>
      </trkpt>
      <trkpt lat="50.09349" lon="5.03396">
        <ele>201.4</ele>
        <time>2022-04-21T12:59:28Z</time>
      </trkpt>
      <trkpt lat="50.09347" lon="5.03397">
        <ele>201.4</ele>
        <time>2022-04-21T12:59:29Z</time>
      </trkpt>
      <trkpt lat="50.09346" lon="5.03397">
        <ele>201.4</ele>
        <time>2022-04-21T12:59:30Z</time>
      </trkpt>
      <trkpt lat="50.09344" lon="5.03397">
        <ele>201.3</ele>
        <time>2022-04-21T12:59:32Z</time>
      </trkpt>
      <trkpt lat="50.09343" lon="5.03397">
        <ele>201.3</ele>
        <time>2022-04-21T12:59:33Z</time>
      </trkpt>
      <trkpt lat="50.0934" lon="5.03397">
        <ele>201.3</ele>
        <time>2022-04-21T12:59:35Z</time>
      </trkpt>
      <trkpt lat="50.09339" lon="5.03397">
        <ele>201.3</ele>
        <time>2022-04-21T12:59:37Z</time>
      </trkpt>
      <trkpt lat="50.09337" lon="5.03397">
        <ele>201.3</ele>
        <time>2022-04-21T12:59:38Z</time>
      </trkpt>
      <trkpt lat="50.09335" lon="5.03396">
        <ele>201.3</ele>
        <time>2022-04-21T12:59:39Z</time>
      </trkpt>
      <trkpt lat="50.09334" lon="5.03396">
        <ele>201.3</ele>
        <time>2022-04-21T12:59:40Z</time>
      </trkpt>
      <trkpt lat="50.09334" lon="5.03395">
        <ele>201.3</ele>
        <time>2022-04-21T12:59:41Z</time>
      </trkpt>
      <trkpt lat="50.09332" lon="5.03394">
        <ele>201.2</ele>
        <time>2022-04-21T12:59:42Z</time>
      </trkpt>
      <trkpt lat="50.09331" lon="5.03393">
        <ele>201.2</ele>
        <time>2022-04-21T12:59:43Z</time>
      </trkpt>
      <trkpt lat="50.09328" lon="5.03391">
        <ele>201.2</ele>
        <time>2022-04-21T12:59:44Z</time>
      </trkpt>
      <trkpt lat="50.09326" lon="5.0339">
        <ele>201.2</ele>
        <time>2022-04-21T12:59:46Z</time>
      </trkpt>
      <trkpt lat="50.09325" lon="5.03389">
        <ele>201.2</ele>
        <time>2022-04-21T12:59:47Z</time>
      </trkpt>
      <trkpt lat="50.09324" lon="5.03388">
        <ele>201.2</ele>
        <time>2022-04-21T12:59:48Z</time>
      </trkpt>
      <trkpt lat="50.09322" lon="5.03386">
        <ele>201.2</ele>
        <time>2022-04-21T12:59:50Z</time>
      </trkpt>
      <trkpt lat="50.09322" lon="5.03385">
        <ele>201.2</ele>
        <time>2022-04-21T12:59:51Z</time>
      </trkpt>
      <trkpt lat="50.0932" lon="5.03384">
        <ele>201.2</ele>
        <time>2022-04-21T12:59:52Z</time>
      </trkpt>
      <trkpt lat="50.09319" lon="5.03382">
        <ele>201.1</ele>
        <time>2022-04-21T12:59:53Z</time>
      </trkpt>
      <trkpt lat="50.09318" lon="5.03379">
        <ele>201.1</ele>
        <time>2022-04-21T12:59:54Z</time>
      </trkpt>
      <trkpt lat="50.09318" lon="5.03377">
        <ele>201.1</ele>
        <time>2022-04-21T12:59:55Z</time>
      </trkpt>
      <trkpt lat="50.09317" lon="5.03375">
        <ele>201.1</ele>
        <time>2022-04-21T12:59:57Z</time>
      </trkpt>
      <trkpt lat="50.09316" lon="5.03369">
        <ele>201.1</ele>
        <time>2022-04-21T12:59:59Z</time>
      </trkpt>
      <trkpt lat="50.09315" lon="5.03366">
        <ele>201.1</ele>
        <time>2022-04-21T13:00:00Z</time>
      </trkpt>
      <trkpt lat="50.09314" lon="5.03364">
        <ele>201.1</ele>
        <time>2022-04-21T13:00:01Z</time>
      </trkpt>
      <trkpt lat="50.09313" lon="5.03362">
        <ele>201.1</ele>
        <time>2022-04-21T13:00:02Z</time>
      </trkpt>
      <trkpt lat="50.09313" lon="5.0336">
        <ele>201.1</ele>
        <time>2022-04-21T13:00:03Z</time>
      </trkpt>
      <trkpt lat="50.09312" lon="5.03357">
        <ele>201.1</ele>
        <time>2022-04-21T13:00:04Z</time>
      </trkpt>
      <trkpt lat="50.09312" lon="5.03355">
        <ele>201.1</ele>
        <time>2022-04-21T13:00:05Z</time>
      </trkpt>
      <trkpt lat="50.09311" lon="5.03353">
        <ele>201.1</ele>
        <time>2022-04-21T13:00:06Z</time>
      </trkpt>
      <trkpt lat="50.09311" lon="5.03351">
        <ele>201.1</ele>
        <time>2022-04-21T13:00:07Z</time>
      </trkpt>
      <trkpt lat="50.09311" lon="5.0335">
        <ele>201.1</ele>
        <time>2022-04-21T13:00:08Z</time>
      </trkpt>
      <trkpt lat="50.0931" lon="5.03346">
        <ele>201.1</ele>
        <time>2022-04-21T13:00:10Z</time>
      </trkpt>
      <trkpt lat="50.0931" lon="5.03344">
        <ele>201.2</ele>
        <time>2022-04-21T13:00:11Z</time>
      </trkpt>
      <trkpt lat="50.09309" lon="5.03342">
        <ele>201.2</ele>
        <time>2022-04-21T13:00:12Z</time>
      </trkpt>
      <trkpt lat="50.09308" lon="5.0334">
        <ele>201.2</ele>
        <time>2022-04-21T13:00:13Z</time>
      </trkpt>
      <trkpt lat="50.09308" lon="5.03337">
        <ele>201.2</ele>
        <time>2022-04-21T13:00:14Z</time>
      </trkpt>
      <trkpt lat="50.09307" lon="5.03335">
        <ele>201.2</ele>
        <time>2022-04-21T13:00:15Z</time>
      </trkpt>
      <trkpt lat="50.09307" lon="5.03333">
        <ele>201.3</ele>
        <time>2022-04-21T13:00:16Z</time>
      </trkpt>
      <trkpt lat="50.09306" lon="5.03331">
        <ele>201.3</ele>
        <time>2022-04-21T13:00:17Z</time>
      </trkpt>
      <trkpt lat="50.09306" lon="5.0333">
        <ele>201.3</ele>
        <time>2022-04-21T13:00:18Z</time>
      </trkpt>
      <trkpt lat="50.09305" lon="5.03328">
        <ele>201.3</ele>
        <time>2022-04-21T13:00:19Z</time>
      </trkpt>
      <trkpt lat="50.09305" lon="5.03326">
        <ele>201.3</ele>
        <time>2022-04-21T13:00:20Z</time>
      </trkpt>
      <trkpt lat="50.09304" lon="5.03324">
        <ele>201.4</ele>
        <time>2022-04-21T13:00:21Z</time>
      </trkpt>
      <trkpt lat="50.09304" lon="5.03322">
        <ele>201.4</ele>
        <time>2022-04-21T13:00:22Z</time>
      </trkpt>
      <trkpt lat="50.09303" lon="5.0332">
        <ele>201.4</ele>
        <time>2022-04-21T13:00:23Z</time>
      </trkpt>
      <trkpt lat="50.09303" lon="5.03319">
        <ele>201.4</ele>
        <time>2022-04-21T13:00:24Z</time>
      </trkpt>
      <trkpt lat="50.09302" lon="5.03318">
        <ele>201.4</ele>
        <time>2022-04-21T13:00:25Z</time>
      </trkpt>
      <trkpt lat="50.09302" lon="5.03319">
        <ele>201.4</ele>
        <time>2022-04-21T13:00:26Z</time>
      </trkpt>
      <trkpt lat="50.09301" lon="5.03318">
        <ele>201.4</ele>
        <time>2022-04-21T13:00:27Z</time>
      </trkpt>
      <trkpt lat="50.09302" lon="5.03316">
        <ele>201.5</ele>
        <time>2022-04-21T13:00:28Z</time>
      </trkpt>
      <trkpt lat="50.09302" lon="5.03314">
        <ele>201.5</ele>
        <time>2022-04-21T13:00:29Z</time>
      </trkpt>
      <trkpt lat="50.09302" lon="5.03312">
        <ele>201.5</ele>
        <time>2022-04-21T13:00:30Z</time>
      </trkpt>
      <trkpt lat="50.09302" lon="5.0331">
        <ele>201.5</ele>
        <time>2022-04-21T13:00:31Z</time>
      </trkpt>
      <trkpt lat="50.09302" lon="5.03309">
        <ele>201.5</ele>
        <time>2022-04-21T13:00:32Z</time>
      </trkpt>
      <trkpt lat="50.093" lon="5.03306">
        <ele>201.5</ele>
        <time>2022-04-21T13:00:33Z</time>
      </trkpt>
      <trkpt lat="50.093" lon="5.03305">
        <ele>201.6</ele>
        <time>2022-04-21T13:00:34Z</time>
      </trkpt>
      <trkpt lat="50.09299" lon="5.03304">
        <ele>201.6</ele>
        <time>2022-04-21T13:00:35Z</time>
      </trkpt>
      <trkpt lat="50.09299" lon="5.03301">
        <ele>201.6</ele>
        <time>2022-04-21T13:00:36Z</time>
      </trkpt>
      <trkpt lat="50.09298" lon="5.033">
        <ele>201.6</ele>
        <time>2022-04-21T13:00:37Z</time>
      </trkpt>
      <trkpt lat="50.09298" lon="5.03299">
        <ele>201.6</ele>
        <time>2022-04-21T13:00:38Z</time>
      </trkpt>
      <trkpt lat="50.09297" lon="5.03296">
        <ele>201.6</ele>
        <time>2022-04-21T13:00:39Z</time>
      </trkpt>
      <trkpt lat="50.09297" lon="5.03295">
        <ele>201.6</ele>
        <time>2022-04-21T13:00:40Z</time>
      </trkpt>
      <trkpt lat="50.09297" lon="5.03293">
        <ele>201.6</ele>
        <time>2022-04-21T13:00:41Z</time>
      </trkpt>
      <trkpt lat="50.09296" lon="5.03292">
        <ele>201.7</ele>
        <time>2022-04-21T13:00:42Z</time>
      </trkpt>
      <trkpt lat="50.09295" lon="5.0329">
        <ele>201.7</ele>
        <time>2022-04-21T13:00:43Z</time>
      </trkpt>
      <trkpt lat="50.09295" lon="5.03288">
        <ele>201.7</ele>
        <time>2022-04-21T13:00:45Z</time>
      </trkpt>
      <trkpt lat="50.09294" lon="5.03283">
        <ele>201.7</ele>
        <time>2022-04-21T13:00:46Z</time>
      </trkpt>
      <trkpt lat="50.09294" lon="5.03282">
        <ele>201.7</ele>
        <time>2022-04-21T13:00:47Z</time>
      </trkpt>
      <trkpt lat="50.09295" lon="5.03277">
        <ele>201.8</ele>
        <time>2022-04-21T13:00:49Z</time>
      </trkpt>
      <trkpt lat="50.09295" lon="5.03276">
        <ele>201.8</ele>
        <time>2022-04-21T13:00:50Z</time>
      </trkpt>
      <trkpt lat="50.09295" lon="5.03271">
        <ele>201.8</ele>
        <time>2022-04-21T13:00:51Z</time>
      </trkpt>
      <trkpt lat="50.09295" lon="5.0327">
        <ele>201.8</ele>
        <time>2022-04-21T13:00:52Z</time>
      </trkpt>
      <trkpt lat="50.09294" lon="5.03268">
        <ele>201.9</ele>
        <time>2022-04-21T13:00:53Z</time>
      </trkpt>
      <trkpt lat="50.09295" lon="5.03266">
        <ele>201.9</ele>
        <time>2022-04-21T13:00:54Z</time>
      </trkpt>
      <trkpt lat="50.09294" lon="5.03264">
        <ele>201.9</ele>
        <time>2022-04-21T13:00:55Z</time>
      </trkpt>
      <trkpt lat="50.09293" lon="5.03262">
        <ele>201.9</ele>
        <time>2022-04-21T13:00:56Z</time>
      </trkpt>
      <trkpt lat="50.09291" lon="5.0326">
        <ele>201.9</ele>
        <time>2022-04-21T13:00:57Z</time>
      </trkpt>
      <trkpt lat="50.0929" lon="5.03259">
        <ele>202</ele>
        <time>2022-04-21T13:00:58Z</time>
      </trkpt>
      <trkpt lat="50.09289" lon="5.03257">
        <ele>202</ele>
        <time>2022-04-21T13:00:59Z</time>
      </trkpt>
      <trkpt lat="50.09289" lon="5.03255">
        <ele>202</ele>
        <time>2022-04-21T13:01:00Z</time>
      </trkpt>
      <trkpt lat="50.09289" lon="5.03253">
        <ele>202</ele>
        <time>2022-04-21T13:01:01Z</time>
      </trkpt>
      <trkpt lat="50.09289" lon="5.03251">
        <ele>202.1</ele>
        <time>2022-04-21T13:01:02Z</time>
      </trkpt>
      <trkpt lat="50.09289" lon="5.03249">
        <ele>202.1</ele>
        <time>2022-04-21T13:01:03Z</time>
      </trkpt>
      <trkpt lat="50.09289" lon="5.03248">
        <ele>202.1</ele>
        <time>2022-04-21T13:01:04Z</time>
      </trkpt>
      <trkpt lat="50.09289" lon="5.03246">
        <ele>202.1</ele>
        <time>2022-04-21T13:01:05Z</time>
      </trkpt>
      <trkpt lat="50.09288" lon="5.03245">
        <ele>202.1</ele>
        <time>2022-04-21T13:01:06Z</time>
      </trkpt>
      <trkpt lat="50.09288" lon="5.03244">
        <ele>202.2</ele>
        <time>2022-04-21T13:01:07Z</time>
      </trkpt>
      <trkpt lat="50.09287" lon="5.03242">
        <ele>202.2</ele>
        <time>2022-04-21T13:01:08Z</time>
      </trkpt>
      <trkpt lat="50.09287" lon="5.03241">
        <ele>202.2</ele>
        <time>2022-04-21T13:01:09Z</time>
      </trkpt>
      <trkpt lat="50.09287" lon="5.03239">
        <ele>202.2</ele>
        <time>2022-04-21T13:01:10Z</time>
      </trkpt>
      <trkpt lat="50.09287" lon="5.03238">
        <ele>202.2</ele>
        <time>2022-04-21T13:01:11Z</time>
      </trkpt>
      <trkpt lat="50.09286" lon="5.03235">
        <ele>202.3</ele>
        <time>2022-04-21T13:01:12Z</time>
      </trkpt>
      <trkpt lat="50.09286" lon="5.03234">
        <ele>202.3</ele>
        <time>2022-04-21T13:01:13Z</time>
      </trkpt>
      <trkpt lat="50.09286" lon="5.03233">
        <ele>202.3</ele>
        <time>2022-04-21T13:01:14Z</time>
      </trkpt>
      <trkpt lat="50.09286" lon="5.03231">
        <ele>202.3</ele>
        <time>2022-04-21T13:01:16Z</time>
      </trkpt>
      <trkpt lat="50.09285" lon="5.0323">
        <ele>202.3</ele>
        <time>2022-04-21T13:01:17Z</time>
      </trkpt>
      <trkpt lat="50.09285" lon="5.03228">
        <ele>202.3</ele>
        <time>2022-04-21T13:01:18Z</time>
      </trkpt>
      <trkpt lat="50.09284" lon="5.03227">
        <ele>202.4</ele>
        <time>2022-04-21T13:01:19Z</time>
      </trkpt>
      <trkpt lat="50.09284" lon="5.03226">
        <ele>202.4</ele>
        <time>2022-04-21T13:01:20Z</time>
      </trkpt>
      <trkpt lat="50.09283" lon="5.03224">
        <ele>202.4</ele>
        <time>2022-04-21T13:01:21Z</time>
      </trkpt>
      <trkpt lat="50.09282" lon="5.03221">
        <ele>202.4</ele>
        <time>2022-04-21T13:01:23Z</time>
      </trkpt>
      <trkpt lat="50.09281" lon="5.03219">
        <ele>202.5</ele>
        <time>2022-04-21T13:01:24Z</time>
      </trkpt>
      <trkpt lat="50.0928" lon="5.03217">
        <ele>202.5</ele>
        <time>2022-04-21T13:01:25Z</time>
      </trkpt>
      <trkpt lat="50.0928" lon="5.03216">
        <ele>202.5</ele>
        <time>2022-04-21T13:01:26Z</time>
      </trkpt>
      <trkpt lat="50.09278" lon="5.0321">
        <ele>202.6</ele>
        <time>2022-04-21T13:01:28Z</time>
      </trkpt>
      <trkpt lat="50.09278" lon="5.03208">
        <ele>202.6</ele>
        <time>2022-04-21T13:01:29Z</time>
      </trkpt>
      <trkpt lat="50.09277" lon="5.03206">
        <ele>202.7</ele>
        <time>2022-04-21T13:01:30Z</time>
      </trkpt>
      <trkpt lat="50.09275" lon="5.03202">
        <ele>202.8</ele>
        <time>2022-04-21T13:01:31Z</time>
      </trkpt>
      <trkpt lat="50.09275" lon="5.032">
        <ele>202.8</ele>
        <time>2022-04-21T13:01:32Z</time>
      </trkpt>
      <trkpt lat="50.09273" lon="5.03196">
        <ele>202.9</ele>
        <time>2022-04-21T13:01:33Z</time>
      </trkpt>
      <trkpt lat="50.09272" lon="5.03194">
        <ele>202.9</ele>
        <time>2022-04-21T13:01:34Z</time>
      </trkpt>
      <trkpt lat="50.09272" lon="5.03192">
        <ele>202.9</ele>
        <time>2022-04-21T13:01:35Z</time>
      </trkpt>
      <trkpt lat="50.09271" lon="5.03191">
        <ele>203</ele>
        <time>2022-04-21T13:01:36Z</time>
      </trkpt>
      <trkpt lat="50.0927" lon="5.03189">
        <ele>203</ele>
        <time>2022-04-21T13:01:37Z</time>
      </trkpt>
      <trkpt lat="50.09269" lon="5.03187">
        <ele>203</ele>
        <time>2022-04-21T13:01:38Z</time>
      </trkpt>
      <trkpt lat="50.09268" lon="5.03185">
        <ele>203.1</ele>
        <time>2022-04-21T13:01:39Z</time>
      </trkpt>
      <trkpt lat="50.09268" lon="5.03183">
        <ele>203.1</ele>
        <time>2022-04-21T13:01:40Z</time>
      </trkpt>
      <trkpt lat="50.09267" lon="5.03182">
        <ele>203.1</ele>
        <time>2022-04-21T13:01:41Z</time>
      </trkpt>
      <trkpt lat="50.09266" lon="5.0318">
        <ele>203.1</ele>
        <time>2022-04-21T13:01:42Z</time>
      </trkpt>
      <trkpt lat="50.09266" lon="5.03179">
        <ele>203.2</ele>
        <time>2022-04-21T13:01:43Z</time>
      </trkpt>
      <trkpt lat="50.09265" lon="5.03176">
        <ele>203.2</ele>
        <time>2022-04-21T13:01:44Z</time>
      </trkpt>
      <trkpt lat="50.09265" lon="5.03174">
        <ele>203.2</ele>
        <time>2022-04-21T13:01:45Z</time>
      </trkpt>
      <trkpt lat="50.09265" lon="5.03173">
        <ele>203.3</ele>
        <time>2022-04-21T13:01:46Z</time>
      </trkpt>
      <trkpt lat="50.09264" lon="5.03172">
        <ele>203.3</ele>
        <time>2022-04-21T13:01:47Z</time>
      </trkpt>
      <trkpt lat="50.09263" lon="5.03169">
        <ele>203.3</ele>
        <time>2022-04-21T13:01:48Z</time>
      </trkpt>
      <trkpt lat="50.09263" lon="5.03168">
        <ele>203.3</ele>
        <time>2022-04-21T13:01:49Z</time>
      </trkpt>
      <trkpt lat="50.09262" lon="5.03166">
        <ele>203.3</ele>
        <time>2022-04-21T13:01:50Z</time>
      </trkpt>
      <trkpt lat="50.09262" lon="5.03164">
        <ele>203.3</ele>
        <time>2022-04-21T13:01:51Z</time>
      </trkpt>
      <trkpt lat="50.09261" lon="5.03163">
        <ele>203.3</ele>
        <time>2022-04-21T13:01:52Z</time>
      </trkpt>
      <trkpt lat="50.0926" lon="5.03162">
        <ele>203.3</ele>
        <time>2022-04-21T13:01:53Z</time>
      </trkpt>
      <trkpt lat="50.0926" lon="5.03161">
        <ele>203.3</ele>
        <time>2022-04-21T13:01:54Z</time>
      </trkpt>
      <trkpt lat="50.0926" lon="5.03162">
        <ele>203.3</ele>
        <time>2022-04-21T13:01:55Z</time>
      </trkpt>
      <trkpt lat="50.0926" lon="5.03162">
        <ele>203.3</ele>
        <time>2022-04-21T13:01:56Z</time>
      </trkpt>
      <trkpt lat="50.0926" lon="5.03161">
        <ele>203.4</ele>
        <time>2022-04-21T13:01:57Z</time>
      </trkpt>
      <trkpt lat="50.09258" lon="5.0316">
        <ele>203.4</ele>
        <time>2022-04-21T13:01:59Z</time>
      </trkpt>
      <trkpt lat="50.09257" lon="5.03161">
        <ele>203.4</ele>
        <time>2022-04-21T13:02:00Z</time>
      </trkpt>
      <trkpt lat="50.09256" lon="5.03161">
        <ele>203.4</ele>
        <time>2022-04-21T13:02:01Z</time>
      </trkpt>
      <trkpt lat="50.09255" lon="5.03162">
        <ele>203.4</ele>
        <time>2022-04-21T13:02:02Z</time>
      </trkpt>
      <trkpt lat="50.09255" lon="5.03163">
        <ele>203.4</ele>
        <time>2022-04-21T13:02:03Z</time>
      </trkpt>
      <trkpt lat="50.09254" lon="5.03165">
        <ele>203.4</ele>
        <time>2022-04-21T13:02:04Z</time>
      </trkpt>
      <trkpt lat="50.09254" lon="5.03167">
        <ele>203.4</ele>
        <time>2022-04-21T13:02:06Z</time>
      </trkpt>
      <trkpt lat="50.09254" lon="5.0317">
        <ele>203.4</ele>
        <time>2022-04-21T13:02:07Z</time>
      </trkpt>
      <trkpt lat="50.09253" lon="5.03174">
        <ele>203.4</ele>
        <time>2022-04-21T13:02:09Z</time>
      </trkpt>
      <trkpt lat="50.09253" lon="5.03177">
        <ele>203.4</ele>
        <time>2022-04-21T13:02:10Z</time>
      </trkpt>
      <trkpt lat="50.09253" lon="5.03179">
        <ele>203.4</ele>
        <time>2022-04-21T13:02:11Z</time>
      </trkpt>
      <trkpt lat="50.09252" lon="5.03181">
        <ele>203.4</ele>
        <time>2022-04-21T13:02:12Z</time>
      </trkpt>
      <trkpt lat="50.09252" lon="5.03182">
        <ele>203.4</ele>
        <time>2022-04-21T13:02:13Z</time>
      </trkpt>
      <trkpt lat="50.09252" lon="5.03183">
        <ele>203.4</ele>
        <time>2022-04-21T13:02:14Z</time>
      </trkpt>
      <trkpt lat="50.09252" lon="5.03183">
        <ele>203.4</ele>
        <time>2022-04-21T13:02:15Z</time>
      </trkpt>
    </trkseg>
  </trk>
</gpx>